<?xml version='1.0' encoding='UTF-8'?><gpx version="1.1" creator="JPX - https://github.com/jenetics/jpx" xmlns="http://www.topografix.com/GPX/1/1"><trk><trkseg><trkpt lat="39.067693889628174" lon="9.010748769305218"><ele>28.999999999999996</ele><time>2026-04-04T07:43:22.104Z</time></trkpt><trkpt lat="39.06762071769659" lon="9.010750065606286"><ele>29.0</ele><time>2026-04-04T07:43:23.109Z</time></trkpt><trkpt lat="39.06754077178516" lon="9.01075012795676"><ele>29.0</ele><time>2026-04-04T07:43:24.109Z</time></trkpt><trkpt lat="39.06745256468083" lon="9.0107545453703"><ele>29.0</ele><time>2026-04-04T07:43:25.113Z</time></trkpt><trkpt lat="39.06737027186333" lon="9.010770074411505"><ele>28.999999999999996</ele><time>2026-04-04T07:43:26.113Z</time></trkpt><trkpt lat="39.06728797662072" lon="9.010775077789424"><ele>29.0</ele><time>2026-04-04T07:43:27.113Z</time></trkpt><trkpt lat="39.06719704673726" lon="9.010766601959357"><ele>29.666666666666664</ele><time>2026-04-04T07:43:28.108Z</time></trkpt><trkpt lat="39.06711004000817" lon="9.010763770865802"><ele>30.333333333333332</ele><time>2026-04-04T07:43:29.112Z</time></trkpt><trkpt lat="39.06701661084538" lon="9.010762002142034"><ele>31.0</ele><time>2026-04-04T07:43:30.111Z</time></trkpt><trkpt lat="39.066932603130624" lon="9.010757416303006"><ele>31.666666666666664</ele><time>2026-04-04T07:43:31Z</time></trkpt><trkpt lat="39.06684921202266" lon="9.010760959927321"><ele>32.333333333333336</ele><time>2026-04-04T07:43:32Z</time></trkpt><trkpt lat="39.06675824230928" lon="9.010764722841273"><ele>33.0</ele><time>2026-04-04T07:43:33Z</time></trkpt><trkpt lat="39.06667298084531" lon="9.010766902272687"><ele>34.599999999999994</ele><time>2026-04-04T07:43:34Z</time></trkpt><trkpt lat="39.06658534265444" lon="9.010775348402651"><ele>36.199999999999996</ele><time>2026-04-04T07:43:35Z</time></trkpt><trkpt lat="39.066488334302825" lon="9.010754070807021"><ele>37.8</ele><time>2026-04-04T07:43:36Z</time></trkpt><trkpt lat="39.06638808005912" lon="9.010755066713225"><ele>39.4</ele><time>2026-04-04T07:43:37Z</time></trkpt><trkpt lat="39.0662940148787" lon="9.010756001146145"><ele>41.0</ele><time>2026-04-04T07:43:38Z</time></trkpt><trkpt lat="39.06618762515769" lon="9.010759603691525"><ele>41.0</ele><time>2026-04-04T07:43:39Z</time></trkpt><trkpt lat="39.06608468969812" lon="9.010762220703354"><ele>41.0</ele><time>2026-04-04T07:43:40Z</time></trkpt><trkpt lat="39.065993684222306" lon="9.01076162338376"><ele>41.0</ele><time>2026-04-04T07:43:41Z</time></trkpt><trkpt lat="39.06590626812184" lon="9.010762101873441"><ele>41.0</ele><time>2026-04-04T07:43:42Z</time></trkpt><trkpt lat="39.06582381271383" lon="9.010760083728275"><ele>41.0</ele><time>2026-04-04T07:43:43Z</time></trkpt><trkpt lat="39.06573458303472" lon="9.010753691982554"><ele>40.83333333333333</ele><time>2026-04-04T07:43:44Z</time></trkpt><trkpt lat="39.06565328369642" lon="9.01072915394905"><ele>40.666666666666664</ele><time>2026-04-04T07:43:45Z</time></trkpt><trkpt lat="39.065562442329046" lon="9.010735869948503"><ele>40.5</ele><time>2026-04-04T07:43:46Z</time></trkpt><trkpt lat="39.065483451010394" lon="9.01069921211058"><ele>40.333333333333336</ele><time>2026-04-04T07:43:47Z</time></trkpt><trkpt lat="39.065404992130745" lon="9.01064902155097"><ele>40.16666666666667</ele><time>2026-04-04T07:43:48Z</time></trkpt><trkpt lat="39.06532017038363" lon="9.0105981291033"><ele>40.0</ele><time>2026-04-04T07:43:49Z</time></trkpt><trkpt lat="39.06523998629624" lon="9.010541600241003"><ele>40.0</ele><time>2026-04-04T07:43:50Z</time></trkpt><trkpt lat="39.065162177808304" lon="9.010491577417929"><ele>40.0</ele><time>2026-04-04T07:43:51Z</time></trkpt><trkpt lat="39.065087069283365" lon="9.010436218418503"><ele>40.0</ele><time>2026-04-04T07:43:52Z</time></trkpt><trkpt lat="39.065026933221546" lon="9.010388558825282"><ele>40.0</ele><time>2026-04-04T07:43:53Z</time></trkpt><trkpt lat="39.06496599879661" lon="9.010330891507857"><ele>40.0</ele><time>2026-04-04T07:43:54Z</time></trkpt><trkpt lat="39.064905417521466" lon="9.010278613281297"><ele>40.0</ele><time>2026-04-04T07:43:55Z</time></trkpt><trkpt lat="39.06483901600339" lon="9.010219506720542"><ele>40.6</ele><time>2026-04-04T07:43:56Z</time></trkpt><trkpt lat="39.06477462779694" lon="9.010162944768059"><ele>41.2</ele><time>2026-04-04T07:43:57Z</time></trkpt><trkpt lat="39.06466724711271" lon="9.010066638856312"><ele>41.8</ele><time>2026-04-04T07:43:59Z</time></trkpt><trkpt lat="39.06462713097618" lon="9.01000105977933"><ele>42.4</ele><time>2026-04-04T07:44:00Z</time></trkpt><trkpt lat="39.06457784301317" lon="9.00988597485999"><ele>43.0</ele><time>2026-04-04T07:44:03Z</time></trkpt><trkpt lat="39.06450583507897" lon="9.00977812658137"><ele>43.333333333333336</ele><time>2026-04-04T07:44:05Z</time></trkpt><trkpt lat="39.06446010731653" lon="9.009709553405843"><ele>43.66666666666667</ele><time>2026-04-04T07:44:06Z</time></trkpt><trkpt lat="39.06439270097181" lon="9.00960847109355"><ele>44.0</ele><time>2026-04-04T07:44:08Z</time></trkpt><trkpt lat="39.06432478303596" lon="9.009480264631156"><ele>44.333333333333336</ele><time>2026-04-04T07:44:10Z</time></trkpt><trkpt lat="39.06428199163123" lon="9.00941400945556"><ele>44.666666666666664</ele><time>2026-04-04T07:44:10.999Z</time></trkpt><trkpt lat="39.064240887209216" lon="9.009347160302225"><ele>45.0</ele><time>2026-04-04T07:44:11.999Z</time></trkpt><trkpt lat="39.06419578045145" lon="9.009279095953705"><ele>45.0</ele><time>2026-04-04T07:44:12.999Z</time></trkpt><trkpt lat="39.06411491412356" lon="9.009189072178355"><ele>45.0</ele><time>2026-04-04T07:44:14.999Z</time></trkpt><trkpt lat="39.06406868686066" lon="9.00908947850337"><ele>45.0</ele><time>2026-04-04T07:44:15.999Z</time></trkpt><trkpt lat="39.06399363804181" lon="9.008987614958336"><ele>45.0</ele><time>2026-04-04T07:44:16.999Z</time></trkpt><trkpt lat="39.06392876408951" lon="9.008889672400663"><ele>45.0</ele><time>2026-04-04T07:44:17.999Z</time></trkpt><trkpt lat="39.06386577223301" lon="9.008812867001563"><ele>45.8</ele><time>2026-04-04T07:44:18.999Z</time></trkpt><trkpt lat="39.06381826448502" lon="9.008735679539493"><ele>46.6</ele><time>2026-04-04T07:44:19.999Z</time></trkpt><trkpt lat="39.063772350803035" lon="9.008648433974479"><ele>47.400000000000006</ele><time>2026-04-04T07:44:20.999Z</time></trkpt><trkpt lat="39.06370125745861" lon="9.008542642774845"><ele>48.2</ele><time>2026-04-04T07:44:22.999Z</time></trkpt><trkpt lat="39.063628249935334" lon="9.008430529023325"><ele>49.0</ele><time>2026-04-04T07:44:25.999Z</time></trkpt><trkpt lat="39.06358395262334" lon="9.008340652875916"><ele>48.99999999999999</ele><time>2026-04-04T07:44:26.999Z</time></trkpt><trkpt lat="39.06355637381245" lon="9.008225785082074"><ele>49.0</ele><time>2026-04-04T07:44:27.999Z</time></trkpt><trkpt lat="39.063537747998886" lon="9.008109420618778"><ele>49.0</ele><time>2026-04-04T07:44:28.999Z</time></trkpt><trkpt lat="39.063527208743025" lon="9.007985877030407"><ele>49.0</ele><time>2026-04-04T07:44:29.999Z</time></trkpt><trkpt lat="39.063512014387285" lon="9.007891579139972"><ele>48.99999999999999</ele><time>2026-04-04T07:44:30.999Z</time></trkpt><trkpt lat="39.06348012139837" lon="9.00779512899704"><ele>49.0</ele><time>2026-04-04T07:44:31.999Z</time></trkpt><trkpt lat="39.06348202770398" lon="9.007704185601819"><ele>49.0</ele><time>2026-04-04T07:44:32.999Z</time></trkpt><trkpt lat="39.06345504170407" lon="9.007618968859887"><ele>49.0</ele><time>2026-04-04T07:44:33.999Z</time></trkpt><trkpt lat="39.063434316061254" lon="9.00750550278529"><ele>49.0</ele><time>2026-04-04T07:44:35.999Z</time></trkpt><trkpt lat="39.063411066952966" lon="9.007351107826798"><ele>49.0</ele><time>2026-04-04T07:44:37.999Z</time></trkpt><trkpt lat="39.06339746480441" lon="9.007242964866665"><ele>49.0</ele><time>2026-04-04T07:44:39.999Z</time></trkpt><trkpt lat="39.063393415989786" lon="9.007082197691513"><ele>48.5</ele><time>2026-04-04T07:44:41.999Z</time></trkpt><trkpt lat="39.06340414115508" lon="9.006976617809457"><ele>48.0</ele><time>2026-04-04T07:44:42.999Z</time></trkpt><trkpt lat="39.06350886706211" lon="9.006851539590677"><ele>47.5</ele><time>2026-04-04T07:44:43.999Z</time></trkpt><trkpt lat="39.06354148628218" lon="9.006709601877981"><ele>47.0</ele><time>2026-04-04T07:44:44.999Z</time></trkpt><trkpt lat="39.06357212085268" lon="9.006568651441905"><ele>46.666666666666664</ele><time>2026-04-04T07:44:45.999Z</time></trkpt><trkpt lat="39.063592771281854" lon="9.006472474864788"><ele>46.33333333333333</ele><time>2026-04-04T07:44:46.999Z</time></trkpt><trkpt lat="39.06361579880005" lon="9.006365227245414"><ele>46.0</ele><time>2026-04-04T07:44:47.999Z</time></trkpt><trkpt lat="39.06363508761785" lon="9.006275783627576"><ele>45.666666666666664</ele><time>2026-04-04T07:44:48.999Z</time></trkpt><trkpt lat="39.06365580563039" lon="9.006179638433833"><ele>45.333333333333336</ele><time>2026-04-04T07:44:49.999Z</time></trkpt><trkpt lat="39.063675331704715" lon="9.0060890246324"><ele>45.0</ele><time>2026-04-04T07:44:50.999Z</time></trkpt><trkpt lat="39.0636945104937" lon="9.006000022460315"><ele>45.0</ele><time>2026-04-04T07:44:51.999Z</time></trkpt><trkpt lat="39.06371935349187" lon="9.005884734612657"><ele>45.0</ele><time>2026-04-04T07:44:52.999Z</time></trkpt><trkpt lat="39.06375102088539" lon="9.00573777709335"><ele>45.0</ele><time>2026-04-04T07:44:53.999Z</time></trkpt><trkpt lat="39.06378580801085" lon="9.005576341977008"><ele>45.0</ele><time>2026-04-04T07:44:54.999Z</time></trkpt><trkpt lat="39.06380659015797" lon="9.005400116726802"><ele>44.75</ele><time>2026-04-04T07:44:55.999Z</time></trkpt><trkpt lat="39.06385011691343" lon="9.005199122062455"><ele>44.5</ele><time>2026-04-04T07:44:56.999Z</time></trkpt><trkpt lat="39.06388356159333" lon="9.005042435536508"><ele>44.25</ele><time>2026-04-04T07:44:57.999Z</time></trkpt><trkpt lat="39.06390513930195" lon="9.004896796837828"><ele>44.0</ele><time>2026-04-04T07:44:58.999Z</time></trkpt><trkpt lat="39.063939017179955" lon="9.004792777959526"><ele>44.33333333333333</ele><time>2026-04-04T07:44:59.999Z</time></trkpt><trkpt lat="39.06394068810946" lon="9.004703371668969"><ele>44.666666666666664</ele><time>2026-04-04T07:45:00.998Z</time></trkpt><trkpt lat="39.06395888569606" lon="9.004591999220589"><ele>45.0</ele><time>2026-04-04T07:45:03.998Z</time></trkpt><trkpt lat="39.06398013432488" lon="9.004508766163918"><ele>45.333333333333336</ele><time>2026-04-04T07:45:04.998Z</time></trkpt><trkpt lat="39.06402799632311" lon="9.004405654774464"><ele>45.66666666666667</ele><time>2026-04-04T07:45:05.998Z</time></trkpt><trkpt lat="39.064074120231695" lon="9.004284980573358"><ele>46.0</ele><time>2026-04-04T07:45:06.998Z</time></trkpt><trkpt lat="39.0641338085824" lon="9.004150660195622"><ele>44.599999999999994</ele><time>2026-04-04T07:45:07.998Z</time></trkpt><trkpt lat="39.06419320611327" lon="9.004029587470692"><ele>43.199999999999996</ele><time>2026-04-04T07:45:08.998Z</time></trkpt><trkpt lat="39.06425537335438" lon="9.003915848816531"><ele>41.8</ele><time>2026-04-04T07:45:09.998Z</time></trkpt><trkpt lat="39.06432016779013" lon="9.00379948648027"><ele>40.4</ele><time>2026-04-04T07:45:10.998Z</time></trkpt><trkpt lat="39.0643860432862" lon="9.003681182713928"><ele>39.0</ele><time>2026-04-04T07:45:11.998Z</time></trkpt><trkpt lat="39.06445474070301" lon="9.003557811136801"><ele>39.0</ele><time>2026-04-04T07:45:12.998Z</time></trkpt><trkpt lat="39.06451817664501" lon="9.003407475383465"><ele>39.0</ele><time>2026-04-04T07:45:13.998Z</time></trkpt><trkpt lat="39.06460444119204" lon="9.003293251573965"><ele>39.0</ele><time>2026-04-04T07:45:14.998Z</time></trkpt><trkpt lat="39.064675139934344" lon="9.003170073176852"><ele>39.0</ele><time>2026-04-04T07:45:15.998Z</time></trkpt><trkpt lat="39.06474197539615" lon="9.003049718273909"><ele>39.75</ele><time>2026-04-04T07:45:16.998Z</time></trkpt><trkpt lat="39.064805592074734" lon="9.002927848350744"><ele>40.5</ele><time>2026-04-04T07:45:17.998Z</time></trkpt><trkpt lat="39.06486863106873" lon="9.00279918663995"><ele>41.25</ele><time>2026-04-04T07:45:18.998Z</time></trkpt><trkpt lat="39.06492972726859" lon="9.002666400256205"><ele>42.0</ele><time>2026-04-04T07:45:19.998Z</time></trkpt><trkpt lat="39.064989369756574" lon="9.002526341718964"><ele>43.25</ele><time>2026-04-04T07:45:20.998Z</time></trkpt><trkpt lat="39.0650488278777" lon="9.002373719866982"><ele>44.5</ele><time>2026-04-04T07:45:21.998Z</time></trkpt><trkpt lat="39.06509735892483" lon="9.002203812073793"><ele>45.75</ele><time>2026-04-04T07:45:22.998Z</time></trkpt><trkpt lat="39.06516353452175" lon="9.00203744948457"><ele>47.0</ele><time>2026-04-04T07:45:23.998Z</time></trkpt><trkpt lat="39.06522313616369" lon="9.001868351556915"><ele>47.0</ele><time>2026-04-04T07:45:24.998Z</time></trkpt><trkpt lat="39.06527909226739" lon="9.001688153694397"><ele>47.0</ele><time>2026-04-04T07:45:25.998Z</time></trkpt><trkpt lat="39.06531029315841" lon="9.001502311868137"><ele>47.0</ele><time>2026-04-04T07:45:26.998Z</time></trkpt><trkpt lat="39.0652967211802" lon="9.001353611832176"><ele>47.0</ele><time>2026-04-04T07:45:27.998Z</time></trkpt><trkpt lat="39.065326638891555" lon="9.001202679675673"><ele>47.25</ele><time>2026-04-04T07:45:28.998Z</time></trkpt><trkpt lat="39.0653249005095" lon="9.001023555978934"><ele>47.5</ele><time>2026-04-04T07:45:29.998Z</time></trkpt><trkpt lat="39.06534485377899" lon="9.000865779237747"><ele>47.75</ele><time>2026-04-04T07:45:30.998Z</time></trkpt><trkpt lat="39.06536195655385" lon="9.000697462816289"><ele>48.0</ele><time>2026-04-04T07:45:31.998Z</time></trkpt><trkpt lat="39.065375962607995" lon="9.00052560680896"><ele>48.66666666666667</ele><time>2026-04-04T07:45:32.998Z</time></trkpt><trkpt lat="39.065394803046495" lon="9.000333336892394"><ele>49.333333333333336</ele><time>2026-04-04T07:45:33.998Z</time></trkpt><trkpt lat="39.06540881843414" lon="9.000120605077575"><ele>50.0</ele><time>2026-04-04T07:45:34.998Z</time></trkpt><trkpt lat="39.06542606482859" lon="8.999938803039432"><ele>50.0</ele><time>2026-04-04T07:45:35.998Z</time></trkpt><trkpt lat="39.06544266836386" lon="8.999783892462714"><ele>50.0</ele><time>2026-04-04T07:45:37.001Z</time></trkpt><trkpt lat="39.06545444132297" lon="8.99963055808447"><ele>50.0</ele><time>2026-04-04T07:45:38.001Z</time></trkpt><trkpt lat="39.065473054208425" lon="8.9994705041967"><ele>50.0</ele><time>2026-04-04T07:45:39.001Z</time></trkpt><trkpt lat="39.06549179638972" lon="8.99930346385348"><ele>50.25</ele><time>2026-04-04T07:45:40.001Z</time></trkpt><trkpt lat="39.065514135716114" lon="8.999135163158883"><ele>50.5</ele><time>2026-04-04T07:45:41.001Z</time></trkpt><trkpt lat="39.065534746709055" lon="8.99896869732682"><ele>50.75</ele><time>2026-04-04T07:45:42Z</time></trkpt><trkpt lat="39.06556994668854" lon="8.998811478216187"><ele>51.0</ele><time>2026-04-04T07:45:43Z</time></trkpt><trkpt lat="39.06564302405399" lon="8.998658819752283"><ele>51.0</ele><time>2026-04-04T07:45:44Z</time></trkpt><trkpt lat="39.065714136441805" lon="8.998505498060615"><ele>51.0</ele><time>2026-04-04T07:45:45Z</time></trkpt><trkpt lat="39.06577979814488" lon="8.99834235460141"><ele>51.0</ele><time>2026-04-04T07:45:46Z</time></trkpt><trkpt lat="39.065868247213295" lon="8.998196775357158"><ele>51.0</ele><time>2026-04-04T07:45:47Z</time></trkpt><trkpt lat="39.065917025041045" lon="8.998058071732444"><ele>50.75</ele><time>2026-04-04T07:45:48Z</time></trkpt><trkpt lat="39.06595410440681" lon="8.997931537426194"><ele>50.5</ele><time>2026-04-04T07:45:49Z</time></trkpt><trkpt lat="39.06595545939446" lon="8.99778461396642"><ele>50.25</ele><time>2026-04-04T07:45:50Z</time></trkpt><trkpt lat="39.065929256568545" lon="8.99762351735148"><ele>50.0</ele><time>2026-04-04T07:45:51Z</time></trkpt><trkpt lat="39.065887956041664" lon="8.997459688888974"><ele>51.25</ele><time>2026-04-04T07:45:52Z</time></trkpt><trkpt lat="39.065875881180055" lon="8.997293160414161"><ele>52.5</ele><time>2026-04-04T07:45:53Z</time></trkpt><trkpt lat="39.06585732401875" lon="8.997108086438349"><ele>53.75</ele><time>2026-04-04T07:45:54Z</time></trkpt><trkpt lat="39.06585014537679" lon="8.996915059086918"><ele>55.0</ele><time>2026-04-04T07:45:55Z</time></trkpt><trkpt lat="39.06586696478469" lon="8.996734306816387"><ele>55.33333333333333</ele><time>2026-04-04T07:45:56Z</time></trkpt><trkpt lat="39.065902551833915" lon="8.996549634227156"><ele>55.66666666666667</ele><time>2026-04-04T07:45:57Z</time></trkpt><trkpt lat="39.06592705670868" lon="8.996338746521227"><ele>56.0</ele><time>2026-04-04T07:45:58Z</time></trkpt><trkpt lat="39.06593367075797" lon="8.996151508797622"><ele>56.0</ele><time>2026-04-04T07:45:59Z</time></trkpt><trkpt lat="39.065925211324" lon="8.995980784437805"><ele>56.0</ele><time>2026-04-04T07:46:00Z</time></trkpt><trkpt lat="39.065901969791994" lon="8.995813024864963"><ele>56.0</ele><time>2026-04-04T07:46:01Z</time></trkpt><trkpt lat="39.06585230053755" lon="8.995652189952343"><ele>56.0</ele><time>2026-04-04T07:46:02Z</time></trkpt><trkpt lat="39.06578601696659" lon="8.995495936056825"><ele>58.0</ele><time>2026-04-04T07:46:03Z</time></trkpt><trkpt lat="39.06572733309739" lon="8.995335278201411"><ele>60.0</ele><time>2026-04-04T07:46:04Z</time></trkpt><trkpt lat="39.06567214492959" lon="8.995186228424949"><ele>62.0</ele><time>2026-04-04T07:46:05Z</time></trkpt><trkpt lat="39.06560314435446" lon="8.995074425223617"><ele>64.0</ele><time>2026-04-04T07:46:06Z</time></trkpt><trkpt lat="39.06550674297202" lon="8.99499014981902"><ele>64.75</ele><time>2026-04-04T07:46:07Z</time></trkpt><trkpt lat="39.065394825345656" lon="8.994908799650867"><ele>65.5</ele><time>2026-04-04T07:46:08Z</time></trkpt><trkpt lat="39.065291216235295" lon="8.994792854298224"><ele>66.25</ele><time>2026-04-04T07:46:09Z</time></trkpt><trkpt lat="39.06519629955324" lon="8.994670197370219"><ele>67.0</ele><time>2026-04-04T07:46:10Z</time></trkpt><trkpt lat="39.065130786352526" lon="8.99451793363638"><ele>67.0</ele><time>2026-04-04T07:46:11Z</time></trkpt><trkpt lat="39.06507930700563" lon="8.994326059812694"><ele>67.0</ele><time>2026-04-04T07:46:11.999Z</time></trkpt><trkpt lat="39.06502887714411" lon="8.99412683267643"><ele>67.0</ele><time>2026-04-04T07:46:12.999Z</time></trkpt><trkpt lat="39.06498271337015" lon="8.993936873437772"><ele>69.0</ele><time>2026-04-04T07:46:13.999Z</time></trkpt><trkpt lat="39.06493953633213" lon="8.993751319327728"><ele>71.0</ele><time>2026-04-04T07:46:14.999Z</time></trkpt><trkpt lat="39.06489633402498" lon="8.993567941397123"><ele>73.0</ele><time>2026-04-04T07:46:15.999Z</time></trkpt><trkpt lat="39.064856881206204" lon="8.993416473506546"><ele>75.0</ele><time>2026-04-04T07:46:16.999Z</time></trkpt><trkpt lat="39.06481754806522" lon="8.993270995585055"><ele>75.0</ele><time>2026-04-04T07:46:17.999Z</time></trkpt><trkpt lat="39.06477696376169" lon="8.99312103988424"><ele>75.0</ele><time>2026-04-04T07:46:18.999Z</time></trkpt><trkpt lat="39.064732831629094" lon="8.992964558706376"><ele>75.0</ele><time>2026-04-04T07:46:19.999Z</time></trkpt><trkpt lat="39.06468651188547" lon="8.99279925486356"><ele>75.0</ele><time>2026-04-04T07:46:20.999Z</time></trkpt><trkpt lat="39.064637592795094" lon="8.992627693098786"><ele>73.75</ele><time>2026-04-04T07:46:21.999Z</time></trkpt><trkpt lat="39.06458336911998" lon="8.992440874473315"><ele>72.5</ele><time>2026-04-04T07:46:22.999Z</time></trkpt><trkpt lat="39.06453121530813" lon="8.992263589182933"><ele>71.25</ele><time>2026-04-04T07:46:23.999Z</time></trkpt><trkpt lat="39.064481549394365" lon="8.992099005410072"><ele>70.0</ele><time>2026-04-04T07:46:24.999Z</time></trkpt><trkpt lat="39.06443357453723" lon="8.991949241707509"><ele>70.0</ele><time>2026-04-04T07:46:25.999Z</time></trkpt><trkpt lat="39.06437741811622" lon="8.991819067431601"><ele>70.0</ele><time>2026-04-04T07:46:26.999Z</time></trkpt><trkpt lat="39.06436265358298" lon="8.991676888206342"><ele>70.0</ele><time>2026-04-04T07:46:27.999Z</time></trkpt><trkpt lat="39.06435029597153" lon="8.991516026709306"><ele>70.0</ele><time>2026-04-04T07:46:28.999Z</time></trkpt><trkpt lat="39.06434165993326" lon="8.991347606472994"><ele>69.75</ele><time>2026-04-04T07:46:29.999Z</time></trkpt><trkpt lat="39.06431877450008" lon="8.991163147535346"><ele>69.5</ele><time>2026-04-04T07:46:30.999Z</time></trkpt><trkpt lat="39.06429686113394" lon="8.99098445659838"><ele>69.25</ele><time>2026-04-04T07:46:31.999Z</time></trkpt><trkpt lat="39.064244962285926" lon="8.990832648085881"><ele>69.0</ele><time>2026-04-04T07:46:32.999Z</time></trkpt><trkpt lat="39.06418857944196" lon="8.990704515079633"><ele>69.0</ele><time>2026-04-04T07:46:33.999Z</time></trkpt><trkpt lat="39.0641385382681" lon="8.99060144765291"><ele>69.0</ele><time>2026-04-04T07:46:34.999Z</time></trkpt><trkpt lat="39.06410253996217" lon="8.990507142696988"><ele>69.0</ele><time>2026-04-04T07:46:35.999Z</time></trkpt><trkpt lat="39.06405467395333" lon="8.990433866366129"><ele>69.0</ele><time>2026-04-04T07:46:36.999Z</time></trkpt><trkpt lat="39.063978736469856" lon="8.99034659279594"><ele>69.0</ele><time>2026-04-04T07:46:37.999Z</time></trkpt><trkpt lat="39.063857339905226" lon="8.990309168219975"><ele>68.75</ele><time>2026-04-04T07:46:38.999Z</time></trkpt><trkpt lat="39.063729581478505" lon="8.99027014724432"><ele>68.5</ele><time>2026-04-04T07:46:39.999Z</time></trkpt><trkpt lat="39.06359417431494" lon="8.990231450717967"><ele>68.25</ele><time>2026-04-04T07:46:40.999Z</time></trkpt><trkpt lat="39.06345465520742" lon="8.99018651780405"><ele>68.0</ele><time>2026-04-04T07:46:41.999Z</time></trkpt><trkpt lat="39.06331323450945" lon="8.99014047150036"><ele>67.4</ele><time>2026-04-04T07:46:42.999Z</time></trkpt><trkpt lat="39.06319480224788" lon="8.990104885064666"><ele>66.8</ele><time>2026-04-04T07:46:43.999Z</time></trkpt><trkpt lat="39.06309019668348" lon="8.990114312562497"><ele>66.2</ele><time>2026-04-04T07:46:44.999Z</time></trkpt><trkpt lat="39.06300949768594" lon="8.990126840754003"><ele>65.6</ele><time>2026-04-04T07:46:45.999Z</time></trkpt><trkpt lat="39.06294937976383" lon="8.990160306634676"><ele>65.0</ele><time>2026-04-04T07:46:46.999Z</time></trkpt><trkpt lat="39.06297993597204" lon="8.99030076402546"><ele>65.0</ele><time>2026-04-04T07:46:47.998Z</time></trkpt><trkpt lat="39.06295280831968" lon="8.990384979966702"><ele>65.0</ele><time>2026-04-04T07:46:48.998Z</time></trkpt><trkpt lat="39.06294424723073" lon="8.990465568531825"><ele>65.0</ele><time>2026-04-04T07:46:49.998Z</time></trkpt><trkpt lat="39.06283037182267" lon="8.990573666330103"><ele>65.0</ele><time>2026-04-04T07:46:51.998Z</time></trkpt><trkpt lat="39.062810248088915" lon="8.990728995968297"><ele>65.0</ele><time>2026-04-04T07:46:52.998Z</time></trkpt><trkpt lat="39.06280137355275" lon="8.990889446710984"><ele>65.0</ele><time>2026-04-04T07:46:53.998Z</time></trkpt><trkpt lat="39.06273909482286" lon="8.991043160326003"><ele>65.0</ele><time>2026-04-04T07:46:54.998Z</time></trkpt><trkpt lat="39.062663972486" lon="8.99119103281104"><ele>65.0</ele><time>2026-04-04T07:46:55.998Z</time></trkpt><trkpt lat="39.062580066246674" lon="8.991360704308843"><ele>65.0</ele><time>2026-04-04T07:46:56.998Z</time></trkpt><trkpt lat="39.06249761353054" lon="8.991545152580002"><ele>65.0</ele><time>2026-04-04T07:46:57.998Z</time></trkpt><trkpt lat="39.06244119798619" lon="8.991706366881926"><ele>65.0</ele><time>2026-04-04T07:46:58.998Z</time></trkpt><trkpt lat="39.06239345855357" lon="8.99183515401071"><ele>65.0</ele><time>2026-04-04T07:46:59.998Z</time></trkpt><trkpt lat="39.062344798477625" lon="8.991953516124168"><ele>65.0</ele><time>2026-04-04T07:47:00.998Z</time></trkpt><trkpt lat="39.06229361285472" lon="8.99207283003507"><ele>65.0</ele><time>2026-04-04T07:47:01.998Z</time></trkpt><trkpt lat="39.06224038652807" lon="8.992196900839541"><ele>65.0</ele><time>2026-04-04T07:47:02.998Z</time></trkpt><trkpt lat="39.06219254947452" lon="8.992312608567401"><ele>65.0</ele><time>2026-04-04T07:47:03.998Z</time></trkpt><trkpt lat="39.06214435407625" lon="8.992413702591316"><ele>65.0</ele><time>2026-04-04T07:47:04.998Z</time></trkpt><trkpt lat="39.06208363314946" lon="8.992486471714209"><ele>65.0</ele><time>2026-04-04T07:47:05.998Z</time></trkpt><trkpt lat="39.06201727570284" lon="8.992547492430743"><ele>65.2</ele><time>2026-04-04T07:47:06.998Z</time></trkpt><trkpt lat="39.06193855762912" lon="8.992568977350052"><ele>65.4</ele><time>2026-04-04T07:47:07.998Z</time></trkpt><trkpt lat="39.061845532072965" lon="8.992584416290443"><ele>65.6</ele><time>2026-04-04T07:47:08.998Z</time></trkpt><trkpt lat="39.061728536844434" lon="8.992612652396343"><ele>65.8</ele><time>2026-04-04T07:47:09.998Z</time></trkpt><trkpt lat="39.06160933310754" lon="8.99264034659274"><ele>66.0</ele><time>2026-04-04T07:47:10.998Z</time></trkpt><trkpt lat="39.06148326280824" lon="8.992680470485748"><ele>65.33333333333333</ele><time>2026-04-04T07:47:11.998Z</time></trkpt><trkpt lat="39.06136608666155" lon="8.992770137707424"><ele>64.66666666666666</ele><time>2026-04-04T07:47:12.998Z</time></trkpt><trkpt lat="39.061224883266675" lon="8.992857530450976"><ele>64.0</ele><time>2026-04-04T07:47:13.998Z</time></trkpt><trkpt lat="39.0610753939241" lon="8.992953975671337"><ele>64.0</ele><time>2026-04-04T07:47:14.998Z</time></trkpt><trkpt lat="39.06094892170286" lon="8.993045912703444"><ele>64.0</ele><time>2026-04-04T07:47:15.998Z</time></trkpt><trkpt lat="39.060833715154985" lon="8.99312222675671"><ele>64.0</ele><time>2026-04-04T07:47:16.998Z</time></trkpt><trkpt lat="39.06072491739592" lon="8.993191823129774"><ele>64.0</ele><time>2026-04-04T07:47:17.998Z</time></trkpt><trkpt lat="39.06061974611815" lon="8.993259121163707"><ele>64.0</ele><time>2026-04-04T07:47:18.998Z</time></trkpt><trkpt lat="39.060517676886924" lon="8.9933547962576"><ele>64.0</ele><time>2026-04-04T07:47:19.998Z</time></trkpt><trkpt lat="39.0604184756008" lon="8.993453396142055"><ele>64.0</ele><time>2026-04-04T07:47:20.998Z</time></trkpt><trkpt lat="39.0603390890383" lon="8.993520652748225"><ele>64.0</ele><time>2026-04-04T07:47:21.998Z</time></trkpt><trkpt lat="39.060216698414536" lon="8.993550092899476"><ele>64.0</ele><time>2026-04-04T07:47:23.998Z</time></trkpt><trkpt lat="39.06013331916286" lon="8.99346684478458"><ele>64.0</ele><time>2026-04-04T07:47:24.998Z</time></trkpt><trkpt lat="39.06003311253256" lon="8.993389281384209"><ele>64.0</ele><time>2026-04-04T07:47:25.997Z</time></trkpt><trkpt lat="39.059927147236216" lon="8.993318569549782"><ele>64.0</ele><time>2026-04-04T07:47:26.997Z</time></trkpt><trkpt lat="39.05984884373193" lon="8.993241797233097"><ele>64.0</ele><time>2026-04-04T07:47:27.997Z</time></trkpt><trkpt lat="39.0597776520858" lon="8.993177584776108"><ele>63.400000000000006</ele><time>2026-04-04T07:47:28.997Z</time></trkpt><trkpt lat="39.05971637495805" lon="8.993122655697546"><ele>62.800000000000004</ele><time>2026-04-04T07:47:29.997Z</time></trkpt><trkpt lat="39.059659676039495" lon="8.993076423080119"><ele>62.199999999999996</ele><time>2026-04-04T07:47:30.997Z</time></trkpt><trkpt lat="39.05960252998032" lon="8.993033342472362"><ele>61.599999999999994</ele><time>2026-04-04T07:47:31.997Z</time></trkpt><trkpt lat="39.05950695931366" lon="8.99303049102162"><ele>61.0</ele><time>2026-04-04T07:47:33.997Z</time></trkpt><trkpt lat="39.05950457468229" lon="8.992752140094126"><ele>61.0</ele><time>2026-04-04T07:47:34.997Z</time></trkpt><trkpt lat="39.0594764303974" lon="8.992572260502156"><ele>61.0</ele><time>2026-04-04T07:47:35.997Z</time></trkpt><trkpt lat="39.059431907954846" lon="8.992360790220634"><ele>61.0</ele><time>2026-04-04T07:47:36.997Z</time></trkpt><trkpt lat="39.05938779264065" lon="8.99216372550633"><ele>60.5</ele><time>2026-04-04T07:47:37.997Z</time></trkpt><trkpt lat="39.059353073659786" lon="8.991989526743275"><ele>60.0</ele><time>2026-04-04T07:47:38.997Z</time></trkpt><trkpt lat="39.05932393514304" lon="8.991828985807192"><ele>59.5</ele><time>2026-04-04T07:47:39.997Z</time></trkpt><trkpt lat="39.05932250361876" lon="8.991674431601506"><ele>59.0</ele><time>2026-04-04T07:47:40.997Z</time></trkpt><trkpt lat="39.05932216564001" lon="8.991508901701527"><ele>59.0</ele><time>2026-04-04T07:47:41.997Z</time></trkpt><trkpt lat="39.05930864020812" lon="8.991354887833948"><ele>59.0</ele><time>2026-04-04T07:47:43Z</time></trkpt><trkpt lat="39.059302317532094" lon="8.991207369782025"><ele>59.0</ele><time>2026-04-04T07:47:44Z</time></trkpt><trkpt lat="39.05927603807307" lon="8.99104375899437"><ele>59.0</ele><time>2026-04-04T07:47:45Z</time></trkpt><trkpt lat="39.05923592931732" lon="8.990902811485032"><ele>58.75</ele><time>2026-04-04T07:47:46Z</time></trkpt><trkpt lat="39.059173484762084" lon="8.990775868805994"><ele>58.5</ele><time>2026-04-04T07:47:47Z</time></trkpt><trkpt lat="39.05909416339846" lon="8.990642397246331"><ele>58.25</ele><time>2026-04-04T07:47:48Z</time></trkpt><trkpt lat="39.059007462100936" lon="8.990494774135948"><ele>58.0</ele><time>2026-04-04T07:47:49Z</time></trkpt><trkpt lat="39.058920747713195" lon="8.990346057711813"><ele>57.75</ele><time>2026-04-04T07:47:50Z</time></trkpt><trkpt lat="39.05884243507154" lon="8.990204879575922"><ele>57.5</ele><time>2026-04-04T07:47:51Z</time></trkpt><trkpt lat="39.058772165785584" lon="8.990084469207838"><ele>57.25</ele><time>2026-04-04T07:47:52Z</time></trkpt><trkpt lat="39.05870320539689" lon="8.98998507053471"><ele>57.0</ele><time>2026-04-04T07:47:53Z</time></trkpt><trkpt lat="39.05862364511727" lon="8.989899662805847"><ele>57.0</ele><time>2026-04-04T07:47:54Z</time></trkpt><trkpt lat="39.05854981393591" lon="8.989824141394577"><ele>57.0</ele><time>2026-04-04T07:47:55Z</time></trkpt><trkpt lat="39.05847420082195" lon="8.989749278171127"><ele>57.0</ele><time>2026-04-04T07:47:56Z</time></trkpt><trkpt lat="39.0583897228305" lon="8.989676782138345"><ele>57.0</ele><time>2026-04-04T07:47:57Z</time></trkpt><trkpt lat="39.05830018653456" lon="8.989591792918631"><ele>57.0</ele><time>2026-04-04T07:47:58Z</time></trkpt><trkpt lat="39.05818546562043" lon="8.98954760164517"><ele>57.0</ele><time>2026-04-04T07:47:59Z</time></trkpt><trkpt lat="39.058070135727036" lon="8.989521807533933"><ele>57.0</ele><time>2026-04-04T07:48:00Z</time></trkpt><trkpt lat="39.05799004117223" lon="8.989490894138362"><ele>57.0</ele><time>2026-04-04T07:48:01Z</time></trkpt><trkpt lat="39.05792442065969" lon="8.989469108273896"><ele>57.0</ele><time>2026-04-04T07:48:03Z</time></trkpt><trkpt lat="39.05793372436057" lon="8.989043774760953"><ele>57.0</ele><time>2026-04-04T07:48:04Z</time></trkpt><trkpt lat="39.05790377871452" lon="8.988893103066074"><ele>57.0</ele><time>2026-04-04T07:48:05Z</time></trkpt><trkpt lat="39.05787116658049" lon="8.988740709527953"><ele>57.0</ele><time>2026-04-04T07:48:06Z</time></trkpt><trkpt lat="39.05784281100028" lon="8.98860385429378"><ele>57.0</ele><time>2026-04-04T07:48:07Z</time></trkpt><trkpt lat="39.057839693288" lon="8.988470982029343"><ele>57.25</ele><time>2026-04-04T07:48:08Z</time></trkpt><trkpt lat="39.05786456512715" lon="8.988320985723101"><ele>57.5</ele><time>2026-04-04T07:48:09Z</time></trkpt><trkpt lat="39.05791039540227" lon="8.98814670686532"><ele>57.75</ele><time>2026-04-04T07:48:10Z</time></trkpt><trkpt lat="39.05795578581284" lon="8.98794698091423"><ele>58.0</ele><time>2026-04-04T07:48:11Z</time></trkpt><trkpt lat="39.057986914171885" lon="8.987744057193312"><ele>58.0</ele><time>2026-04-04T07:48:12Z</time></trkpt><trkpt lat="39.058010458541546" lon="8.98754531975338"><ele>58.0</ele><time>2026-04-04T07:48:13Z</time></trkpt><trkpt lat="39.05797103391045" lon="8.987322549573225"><ele>58.0</ele><time>2026-04-04T07:48:14Z</time></trkpt><trkpt lat="39.05791842639839" lon="8.987125202801936"><ele>57.75</ele><time>2026-04-04T07:48:14.999Z</time></trkpt><trkpt lat="39.05787266863204" lon="8.986951897724431"><ele>57.5</ele><time>2026-04-04T07:48:15.999Z</time></trkpt><trkpt lat="39.05783580257794" lon="8.986788462946613"><ele>57.25</ele><time>2026-04-04T07:48:16.999Z</time></trkpt><trkpt lat="39.05779810265533" lon="8.986590250567005"><ele>57.0</ele><time>2026-04-04T07:48:17.999Z</time></trkpt><trkpt lat="39.05776524807282" lon="8.986414404089896"><ele>57.0</ele><time>2026-04-04T07:48:18.999Z</time></trkpt><trkpt lat="39.05773947257885" lon="8.986255711299982"><ele>57.0</ele><time>2026-04-04T07:48:19.999Z</time></trkpt><trkpt lat="39.05771108013394" lon="8.986087139236105"><ele>57.0</ele><time>2026-04-04T07:48:20.999Z</time></trkpt><trkpt lat="39.05767630371195" lon="8.985917673701621"><ele>57.0</ele><time>2026-04-04T07:48:21.999Z</time></trkpt><trkpt lat="39.057659641472945" lon="8.98574577114161"><ele>57.0</ele><time>2026-04-04T07:48:22.999Z</time></trkpt><trkpt lat="39.057626603574136" lon="8.985569210989103"><ele>57.0</ele><time>2026-04-04T07:48:23.999Z</time></trkpt><trkpt lat="39.057594708478824" lon="8.985400358873742"><ele>57.0</ele><time>2026-04-04T07:48:24.999Z</time></trkpt><trkpt lat="39.057566445757814" lon="8.985250736424273"><ele>57.0</ele><time>2026-04-04T07:48:25.999Z</time></trkpt><trkpt lat="39.0575379307773" lon="8.985104136158316"><ele>57.0</ele><time>2026-04-04T07:48:26.999Z</time></trkpt><trkpt lat="39.05749017504392" lon="8.98495926452813"><ele>57.0</ele><time>2026-04-04T07:48:27.999Z</time></trkpt><trkpt lat="39.05746021253268" lon="8.984816012316475"><ele>57.0</ele><time>2026-04-04T07:48:28.999Z</time></trkpt><trkpt lat="39.057409746583986" lon="8.98466986937125"><ele>57.0</ele><time>2026-04-04T07:48:29.999Z</time></trkpt><trkpt lat="39.05734140441688" lon="8.984512205595033"><ele>57.0</ele><time>2026-04-04T07:48:30.999Z</time></trkpt><trkpt lat="39.05727354109443" lon="8.984332878314675"><ele>57.0</ele><time>2026-04-04T07:48:31.999Z</time></trkpt><trkpt lat="39.05720784081018" lon="8.984137724035268"><ele>57.0</ele><time>2026-04-04T07:48:32.999Z</time></trkpt><trkpt lat="39.05716714293312" lon="8.983944152919683"><ele>56.75</ele><time>2026-04-04T07:48:33.999Z</time></trkpt><trkpt lat="39.05709970138262" lon="8.983776965388792"><ele>56.5</ele><time>2026-04-04T07:48:34.999Z</time></trkpt><trkpt lat="39.05704726452981" lon="8.983603604028245"><ele>56.25</ele><time>2026-04-04T07:48:35.999Z</time></trkpt><trkpt lat="39.056987286059744" lon="8.983423349916775"><ele>56.0</ele><time>2026-04-04T07:48:36.999Z</time></trkpt><trkpt lat="39.05691978572446" lon="8.983252609018537"><ele>56.0</ele><time>2026-04-04T07:48:37.999Z</time></trkpt><trkpt lat="39.05687196203901" lon="8.983092352326668"><ele>56.0</ele><time>2026-04-04T07:48:38.999Z</time></trkpt><trkpt lat="39.05681647829714" lon="8.982929096316106"><ele>56.0</ele><time>2026-04-04T07:48:39.999Z</time></trkpt><trkpt lat="39.05676720666796" lon="8.982785971010772"><ele>56.0</ele><time>2026-04-04T07:48:40.999Z</time></trkpt><trkpt lat="39.05670073468574" lon="8.982655953080663"><ele>56.25</ele><time>2026-04-04T07:48:41.999Z</time></trkpt><trkpt lat="39.056649936302335" lon="8.982510453334738"><ele>56.5</ele><time>2026-04-04T07:48:42.999Z</time></trkpt><trkpt lat="39.05662264370226" lon="8.98235279152205"><ele>56.75</ele><time>2026-04-04T07:48:43.999Z</time></trkpt><trkpt lat="39.05659686850255" lon="8.982197953994474"><ele>57.0</ele><time>2026-04-04T07:48:44.999Z</time></trkpt><trkpt lat="39.05659831141668" lon="8.982042204261672"><ele>57.0</ele><time>2026-04-04T07:48:45.999Z</time></trkpt><trkpt lat="39.0566257634869" lon="8.981866834999085"><ele>57.0</ele><time>2026-04-04T07:48:46.999Z</time></trkpt><trkpt lat="39.05666691911982" lon="8.981704261092831"><ele>57.0</ele><time>2026-04-04T07:48:47.999Z</time></trkpt><trkpt lat="39.05670322058646" lon="8.981524760940282"><ele>57.0</ele><time>2026-04-04T07:48:48.999Z</time></trkpt><trkpt lat="39.05676293496727" lon="8.981346286043433"><ele>57.33333333333333</ele><time>2026-04-04T07:48:49.999Z</time></trkpt><trkpt lat="39.05683801549158" lon="8.981171792858541"><ele>57.666666666666664</ele><time>2026-04-04T07:48:50.999Z</time></trkpt><trkpt lat="39.05691329773429" lon="8.980975718778994"><ele>58.0</ele><time>2026-04-04T07:48:51.999Z</time></trkpt><trkpt lat="39.05698561943835" lon="8.980783750175688"><ele>58.25</ele><time>2026-04-04T07:48:52.999Z</time></trkpt><trkpt lat="39.05703191391807" lon="8.980604840178895"><ele>58.5</ele><time>2026-04-04T07:48:53.998Z</time></trkpt><trkpt lat="39.05707986371929" lon="8.980435000916911"><ele>58.75</ele><time>2026-04-04T07:48:54.998Z</time></trkpt><trkpt lat="39.0571191990129" lon="8.980259636013672"><ele>59.0</ele><time>2026-04-04T07:48:55.998Z</time></trkpt><trkpt lat="39.0571430156094" lon="8.980084190576235"><ele>59.0</ele><time>2026-04-04T07:48:56.998Z</time></trkpt><trkpt lat="39.057148627180304" lon="8.979904257348903"><ele>59.0</ele><time>2026-04-04T07:48:57.998Z</time></trkpt><trkpt lat="39.057158844220844" lon="8.979730599444792"><ele>59.0</ele><time>2026-04-04T07:48:58.998Z</time></trkpt><trkpt lat="39.057150579472726" lon="8.979572495302666"><ele>59.0</ele><time>2026-04-04T07:48:59.998Z</time></trkpt><trkpt lat="39.05714896400429" lon="8.979424757898082"><ele>59.0</ele><time>2026-04-04T07:49:00.998Z</time></trkpt><trkpt lat="39.05716759726769" lon="8.979281821125893"><ele>59.0</ele><time>2026-04-04T07:49:01.998Z</time></trkpt><trkpt lat="39.057206993423534" lon="8.979127509531462"><ele>59.0</ele><time>2026-04-04T07:49:02.998Z</time></trkpt><trkpt lat="39.05723339998481" lon="8.978963120559351"><ele>59.0</ele><time>2026-04-04T07:49:03.998Z</time></trkpt><trkpt lat="39.05726723956959" lon="8.978799238128737"><ele>59.25</ele><time>2026-04-04T07:49:04.998Z</time></trkpt><trkpt lat="39.0572919571206" lon="8.978636279181362"><ele>59.5</ele><time>2026-04-04T07:49:05.998Z</time></trkpt><trkpt lat="39.05731101851889" lon="8.97847811877054"><ele>59.75</ele><time>2026-04-04T07:49:06.998Z</time></trkpt><trkpt lat="39.05733222972117" lon="8.978330300640472"><ele>60.0</ele><time>2026-04-04T07:49:07.998Z</time></trkpt><trkpt lat="39.0573496028" lon="8.978194819881276"><ele>60.0</ele><time>2026-04-04T07:49:08.998Z</time></trkpt><trkpt lat="39.05736372225765" lon="8.978090527055077"><ele>60.0</ele><time>2026-04-04T07:49:09.998Z</time></trkpt><trkpt lat="39.05735684361216" lon="8.978005853669103"><ele>60.0</ele><time>2026-04-04T07:49:10.998Z</time></trkpt><trkpt lat="39.057326568041795" lon="8.977923365707708"><ele>60.0</ele><time>2026-04-04T07:49:11.998Z</time></trkpt><trkpt lat="39.05728038537972" lon="8.977826090672721"><ele>60.0</ele><time>2026-04-04T07:49:12.998Z</time></trkpt><trkpt lat="39.057220638330996" lon="8.977719605194805"><ele>60.0</ele><time>2026-04-04T07:49:13.998Z</time></trkpt><trkpt lat="39.05716374881608" lon="8.977611422130748"><ele>60.2</ele><time>2026-04-04T07:49:14.998Z</time></trkpt><trkpt lat="39.05709536630488" lon="8.977503616867347"><ele>60.4</ele><time>2026-04-04T07:49:15.998Z</time></trkpt><trkpt lat="39.05707472075282" lon="8.977393908729862"><ele>60.599999999999994</ele><time>2026-04-04T07:49:16.998Z</time></trkpt><trkpt lat="39.057070649229004" lon="8.977277007630846"><ele>60.8</ele><time>2026-04-04T07:49:17.998Z</time></trkpt><trkpt lat="39.05706137264455" lon="8.977132321355928"><ele>61.0</ele><time>2026-04-04T07:49:18.998Z</time></trkpt><trkpt lat="39.05705952311231" lon="8.976981226630649"><ele>61.0</ele><time>2026-04-04T07:49:19.998Z</time></trkpt><trkpt lat="39.05703790632369" lon="8.976847219872026"><ele>60.99999999999999</ele><time>2026-04-04T07:49:20.998Z</time></trkpt><trkpt lat="39.057027183119345" lon="8.976735046155795"><ele>60.99999999999999</ele><time>2026-04-04T07:49:21.998Z</time></trkpt><trkpt lat="39.056999572452774" lon="8.976625102908642"><ele>61.0</ele><time>2026-04-04T07:49:22.998Z</time></trkpt><trkpt lat="39.05694640507515" lon="8.976534169290455"><ele>61.0</ele><time>2026-04-04T07:49:23.998Z</time></trkpt><trkpt lat="39.05687538194844" lon="8.976444589669267"><ele>60.5</ele><time>2026-04-04T07:49:24.998Z</time></trkpt><trkpt lat="39.056801502213055" lon="8.976327802996446"><ele>60.0</ele><time>2026-04-04T07:49:25.998Z</time></trkpt><trkpt lat="39.05669781573905" lon="8.976216151439944"><ele>59.5</ele><time>2026-04-04T07:49:26.998Z</time></trkpt><trkpt lat="39.056632759475875" lon="8.97609026958558"><ele>59.0</ele><time>2026-04-04T07:49:27.998Z</time></trkpt><trkpt lat="39.056570250633854" lon="8.975984153745033"><ele>58.50000000000001</ele><time>2026-04-04T07:49:28.998Z</time></trkpt><trkpt lat="39.05652010148596" lon="8.97587333882962"><ele>58.0</ele><time>2026-04-04T07:49:29.998Z</time></trkpt><trkpt lat="39.0564671587969" lon="8.975776368258941"><ele>57.5</ele><time>2026-04-04T07:49:30.998Z</time></trkpt><trkpt lat="39.05642685009446" lon="8.97570715751008"><ele>57.0</ele><time>2026-04-04T07:49:31.998Z</time></trkpt><trkpt lat="39.056363792772174" lon="8.975613790324827"><ele>56.50000000000001</ele><time>2026-04-04T07:49:33.997Z</time></trkpt><trkpt lat="39.05631524019867" lon="8.97554468034405"><ele>56.0</ele><time>2026-04-04T07:49:35.997Z</time></trkpt><trkpt lat="39.05627461060905" lon="8.975459799036857"><ele>55.0</ele><time>2026-04-04T07:49:37.997Z</time></trkpt><trkpt lat="39.056228889820375" lon="8.975389450936955"><ele>53.99999999999999</ele><time>2026-04-04T07:49:39.997Z</time></trkpt><trkpt lat="39.056196772962856" lon="8.975309722065179"><ele>53.0</ele><time>2026-04-04T07:49:41.997Z</time></trkpt><trkpt lat="39.05616543854281" lon="8.975130158146744"><ele>52.0</ele><time>2026-04-04T07:49:44.997Z</time></trkpt><trkpt lat="39.05615080177655" lon="8.975030444622176"><ele>51.0</ele><time>2026-04-04T07:49:45.997Z</time></trkpt><trkpt lat="39.056135074104276" lon="8.974897926009591"><ele>50.8</ele><time>2026-04-04T07:49:46.997Z</time></trkpt><trkpt lat="39.056114073280206" lon="8.974738700179898"><ele>50.599999999999994</ele><time>2026-04-04T07:49:49Z</time></trkpt><trkpt lat="39.05608980955822" lon="8.974649345415752"><ele>50.4</ele><time>2026-04-04T07:49:50Z</time></trkpt><trkpt lat="39.056070349772504" lon="8.974510100392937"><ele>50.2</ele><time>2026-04-04T07:49:51Z</time></trkpt><trkpt lat="39.056054961500585" lon="8.974405800453965"><ele>50.0</ele><time>2026-04-04T07:49:52Z</time></trkpt><trkpt lat="39.0559971351589" lon="8.974271653708058"><ele>50.4</ele><time>2026-04-04T07:49:53Z</time></trkpt><trkpt lat="39.05597529826995" lon="8.974149418151368"><ele>50.8</ele><time>2026-04-04T07:49:54Z</time></trkpt><trkpt lat="39.05592178849008" lon="8.974098404764737"><ele>51.2</ele><time>2026-04-04T07:49:55Z</time></trkpt><trkpt lat="39.05580289661083" lon="8.974054703395742"><ele>51.6</ele><time>2026-04-04T07:49:57Z</time></trkpt><trkpt lat="39.05569023023555" lon="8.973968497133326"><ele>52.0</ele><time>2026-04-04T07:49:58Z</time></trkpt><trkpt lat="39.05561781374722" lon="8.973930280654923"><ele>51.99999999999999</ele><time>2026-04-04T07:49:59Z</time></trkpt><trkpt lat="39.055558773414326" lon="8.973863365866416"><ele>52.0</ele><time>2026-04-04T07:50:00Z</time></trkpt><trkpt lat="39.055532865357186" lon="8.973713137069074"><ele>52.0</ele><time>2026-04-04T07:50:02Z</time></trkpt><trkpt lat="39.05554388903589" lon="8.973609824902313"><ele>52.0</ele><time>2026-04-04T07:50:03Z</time></trkpt><trkpt lat="39.055559582811526" lon="8.97348624315567"><ele>51.99999999999999</ele><time>2026-04-04T07:50:04Z</time></trkpt><trkpt lat="39.05552650202269" lon="8.97340909713824"><ele>52.0</ele><time>2026-04-04T07:50:05Z</time></trkpt><trkpt lat="39.05549231495533" lon="8.973328918840075"><ele>52.400000000000006</ele><time>2026-04-04T07:50:06Z</time></trkpt><trkpt lat="39.05544115336012" lon="8.973243051006062"><ele>52.800000000000004</ele><time>2026-04-04T07:50:07Z</time></trkpt><trkpt lat="39.05536133263769" lon="8.973171680399428"><ele>53.2</ele><time>2026-04-04T07:50:08Z</time></trkpt><trkpt lat="39.05527048244917" lon="8.973107544874695"><ele>53.6</ele><time>2026-04-04T07:50:09Z</time></trkpt><trkpt lat="39.055166892790275" lon="8.973058447236989"><ele>54.0</ele><time>2026-04-04T07:50:10Z</time></trkpt><trkpt lat="39.055080868975" lon="8.973015219036066"><ele>54.0</ele><time>2026-04-04T07:50:11Z</time></trkpt><trkpt lat="39.054999068576954" lon="8.972974575888049"><ele>54.0</ele><time>2026-04-04T07:50:12Z</time></trkpt><trkpt lat="39.05493122424715" lon="8.972949234632656"><ele>54.0</ele><time>2026-04-04T07:50:13Z</time></trkpt><trkpt lat="39.05483154551115" lon="8.972900298213093"><ele>54.0</ele><time>2026-04-04T07:50:15Z</time></trkpt><trkpt lat="39.05480287484461" lon="8.972824359690879"><ele>54.0</ele><time>2026-04-04T07:50:16Z</time></trkpt><trkpt lat="39.054762293708535" lon="8.972720403754922"><ele>54.0</ele><time>2026-04-04T07:50:17Z</time></trkpt><trkpt lat="39.05474814589321" lon="8.972588683214797"><ele>53.800000000000004</ele><time>2026-04-04T07:50:18Z</time></trkpt><trkpt lat="39.054714042218464" lon="8.972477168450546"><ele>53.60000000000001</ele><time>2026-04-04T07:50:19Z</time></trkpt><trkpt lat="39.05468339481826" lon="8.97237570357859"><ele>53.4</ele><time>2026-04-04T07:50:19.999Z</time></trkpt><trkpt lat="39.05461479450681" lon="8.97229173322508"><ele>53.2</ele><time>2026-04-04T07:50:20.999Z</time></trkpt><trkpt lat="39.05455199916741" lon="8.972192675226873"><ele>53.0</ele><time>2026-04-04T07:50:21.999Z</time></trkpt><trkpt lat="39.054500069842895" lon="8.97208185464694"><ele>53.0</ele><time>2026-04-04T07:50:22.999Z</time></trkpt><trkpt lat="39.05445742039459" lon="8.971950388657426"><ele>53.0</ele><time>2026-04-04T07:50:23.999Z</time></trkpt><trkpt lat="39.05440198635457" lon="8.971821297493781"><ele>53.0</ele><time>2026-04-04T07:50:24.999Z</time></trkpt><trkpt lat="39.0543281020105" lon="8.971698864041064"><ele>53.0</ele><time>2026-04-04T07:50:25.999Z</time></trkpt><trkpt lat="39.05426562125176" lon="8.971575332211824"><ele>53.2</ele><time>2026-04-04T07:50:26.999Z</time></trkpt><trkpt lat="39.054188748054955" lon="8.97145743027778"><ele>53.4</ele><time>2026-04-04T07:50:27.999Z</time></trkpt><trkpt lat="39.05412410602973" lon="8.971346492061762"><ele>53.60000000000001</ele><time>2026-04-04T07:50:28.999Z</time></trkpt><trkpt lat="39.054061210896215" lon="8.97124062670649"><ele>53.800000000000004</ele><time>2026-04-04T07:50:29.999Z</time></trkpt><trkpt lat="39.053996950140686" lon="8.971133425246238"><ele>54.0</ele><time>2026-04-04T07:50:30.999Z</time></trkpt><trkpt lat="39.05394117378522" lon="8.971013061664138"><ele>54.0</ele><time>2026-04-04T07:50:31.999Z</time></trkpt><trkpt lat="39.0538999059526" lon="8.970887968512288"><ele>54.00000000000001</ele><time>2026-04-04T07:50:32.999Z</time></trkpt><trkpt lat="39.05386192700647" lon="8.970745244676454"><ele>54.00000000000001</ele><time>2026-04-04T07:50:33.999Z</time></trkpt><trkpt lat="39.05382561840519" lon="8.970610309243652"><ele>54.0</ele><time>2026-04-04T07:50:34.999Z</time></trkpt><trkpt lat="39.05380266018738" lon="8.970487055386057"><ele>54.0</ele><time>2026-04-04T07:50:35.999Z</time></trkpt><trkpt lat="39.05381628483829" lon="8.970376772914557"><ele>54.2</ele><time>2026-04-04T07:50:36.999Z</time></trkpt><trkpt lat="39.05383339821865" lon="8.970246315373652"><ele>54.400000000000006</ele><time>2026-04-04T07:50:37.999Z</time></trkpt><trkpt lat="39.053839396008414" lon="8.970093189832946"><ele>54.6</ele><time>2026-04-04T07:50:38.999Z</time></trkpt><trkpt lat="39.05383485392487" lon="8.969941940042197"><ele>54.8</ele><time>2026-04-04T07:50:39.999Z</time></trkpt><trkpt lat="39.053822621870964" lon="8.969816469575438"><ele>55.0</ele><time>2026-04-04T07:50:40.999Z</time></trkpt><trkpt lat="39.053829652755766" lon="8.969733565600261"><ele>55.0</ele><time>2026-04-04T07:50:41.999Z</time></trkpt><trkpt lat="39.05391863240892" lon="8.969630875318073"><ele>55.0</ele><time>2026-04-04T07:50:43.999Z</time></trkpt><trkpt lat="39.05396543142532" lon="8.969561068718534"><ele>55.0</ele><time>2026-04-04T07:50:44.999Z</time></trkpt><trkpt lat="39.05405345068256" lon="8.969468803007155"><ele>55.0</ele><time>2026-04-04T07:50:45.999Z</time></trkpt><trkpt lat="39.05413910395979" lon="8.969347221967766"><ele>55.0</ele><time>2026-04-04T07:50:46.999Z</time></trkpt><trkpt lat="39.05421184872534" lon="8.969243850570056"><ele>55.2</ele><time>2026-04-04T07:50:47.999Z</time></trkpt><trkpt lat="39.05427013091523" lon="8.969158544846142"><ele>55.4</ele><time>2026-04-04T07:50:48.999Z</time></trkpt><trkpt lat="39.054310726566214" lon="8.9690681775254"><ele>55.599999999999994</ele><time>2026-04-04T07:50:49.999Z</time></trkpt><trkpt lat="39.054339099837755" lon="8.968957692867162"><ele>55.8</ele><time>2026-04-04T07:50:50.999Z</time></trkpt><trkpt lat="39.05436428330013" lon="8.968823737023202"><ele>56.0</ele><time>2026-04-04T07:50:51.999Z</time></trkpt><trkpt lat="39.05439869423126" lon="8.968694518258811"><ele>56.0</ele><time>2026-04-04T07:50:52.999Z</time></trkpt><trkpt lat="39.05445992892265" lon="8.968570405763982"><ele>56.0</ele><time>2026-04-04T07:50:53.999Z</time></trkpt><trkpt lat="39.05454265312169" lon="8.968442534849311"><ele>56.0</ele><time>2026-04-04T07:50:54.999Z</time></trkpt><trkpt lat="39.05462776957009" lon="8.968312885539373"><ele>56.0</ele><time>2026-04-04T07:50:55.999Z</time></trkpt><trkpt lat="39.054707628360575" lon="8.968201384611755"><ele>56.199999999999996</ele><time>2026-04-04T07:50:56.999Z</time></trkpt><trkpt lat="39.054793965085175" lon="8.968108219675887"><ele>56.39999999999999</ele><time>2026-04-04T07:50:57.999Z</time></trkpt><trkpt lat="39.054862650558206" lon="8.968021253966636"><ele>56.6</ele><time>2026-04-04T07:50:58.998Z</time></trkpt><trkpt lat="39.054928407460174" lon="8.967925288177264"><ele>56.8</ele><time>2026-04-04T07:50:59.998Z</time></trkpt><trkpt lat="39.054978699686" lon="8.967820944930663"><ele>57.0</ele><time>2026-04-04T07:51:00.998Z</time></trkpt><trkpt lat="39.05501913219541" lon="8.967716090663865"><ele>57.0</ele><time>2026-04-04T07:51:01.998Z</time></trkpt><trkpt lat="39.05505729076897" lon="8.967630217827775"><ele>57.0</ele><time>2026-04-04T07:51:03.998Z</time></trkpt><trkpt lat="39.05490251680713" lon="8.967542837863302"><ele>57.0</ele><time>2026-04-04T07:51:08.998Z</time></trkpt><trkpt lat="39.054801806072604" lon="8.967537055447574"><ele>57.0</ele><time>2026-04-04T07:51:09.998Z</time></trkpt><trkpt lat="39.054671767255" lon="8.96753771505038"><ele>57.0</ele><time>2026-04-04T07:51:10.998Z</time></trkpt><trkpt lat="39.054536049990965" lon="8.967538403459505"><ele>57.0</ele><time>2026-04-04T07:51:11.998Z</time></trkpt><trkpt lat="39.05437672710911" lon="8.967539211604405"><ele>57.0</ele><time>2026-04-04T07:51:12.998Z</time></trkpt><trkpt lat="39.05420804690481" lon="8.967539631521934"><ele>56.5</ele><time>2026-04-04T07:51:13.998Z</time></trkpt><trkpt lat="39.05405519127704" lon="8.967539003225388"><ele>56.0</ele><time>2026-04-04T07:51:14.998Z</time></trkpt><trkpt lat="39.05390807200389" lon="8.967538195686423"><ele>55.5</ele><time>2026-04-04T07:51:15.998Z</time></trkpt><trkpt lat="39.05378584715784" lon="8.967531907030093"><ele>55.0</ele><time>2026-04-04T07:51:16.998Z</time></trkpt><trkpt lat="39.053667777989844" lon="8.967512101678498"><ele>55.83333333333333</ele><time>2026-04-04T07:51:17.998Z</time></trkpt><trkpt lat="39.05355947305983" lon="8.967484241359758"><ele>56.666666666666664</ele><time>2026-04-04T07:51:18.998Z</time></trkpt><trkpt lat="39.053470380847855" lon="8.967444711465696"><ele>57.5</ele><time>2026-04-04T07:51:19.998Z</time></trkpt><trkpt lat="39.053393370247925" lon="8.967400068940638"><ele>58.33333333333333</ele><time>2026-04-04T07:51:20.998Z</time></trkpt><trkpt lat="39.05332333117851" lon="8.967356671316745"><ele>59.166666666666664</ele><time>2026-04-04T07:51:21.998Z</time></trkpt><trkpt lat="39.05324858175196" lon="8.967312819378682"><ele>60.0</ele><time>2026-04-04T07:51:22.998Z</time></trkpt><trkpt lat="39.05317888277979" lon="8.96727538235958"><ele>60.0</ele><time>2026-04-04T07:51:23.998Z</time></trkpt><trkpt lat="39.05310227938466" lon="8.96724672653684"><ele>60.0</ele><time>2026-04-04T07:51:24.998Z</time></trkpt><trkpt lat="39.05302190605517" lon="8.967225187622129"><ele>60.0</ele><time>2026-04-04T07:51:25.998Z</time></trkpt><trkpt lat="39.05291452759607" lon="8.967320221860476"><ele>60.0</ele><time>2026-04-04T07:51:26.998Z</time></trkpt><trkpt lat="39.052884100771564" lon="8.967471781977045"><ele>60.0</ele><time>2026-04-04T07:51:27.998Z</time></trkpt><trkpt lat="39.052841223171946" lon="8.967602851718487"><ele>60.0</ele><time>2026-04-04T07:51:28.998Z</time></trkpt><trkpt lat="39.05280363432243" lon="8.967688074815582"><ele>60.0</ele><time>2026-04-04T07:51:29.998Z</time></trkpt><trkpt lat="39.05267313615389" lon="8.967708033990442"><ele>60.0</ele><time>2026-04-04T07:51:31.998Z</time></trkpt><trkpt lat="39.052581432118366" lon="8.967726991812656"><ele>60.0</ele><time>2026-04-04T07:51:32.998Z</time></trkpt><trkpt lat="39.05249481272345" lon="8.967738903980397"><ele>60.0</ele><time>2026-04-04T07:51:33.998Z</time></trkpt><trkpt lat="39.05237429104565" lon="8.967734076030489"><ele>62.25</ele><time>2026-04-04T07:51:34.998Z</time></trkpt><trkpt lat="39.052252651633516" lon="8.967685922522437"><ele>64.5</ele><time>2026-04-04T07:51:35.998Z</time></trkpt><trkpt lat="39.052111356430906" lon="8.967616272299066"><ele>66.75</ele><time>2026-04-04T07:51:36.998Z</time></trkpt><trkpt lat="39.05196030095043" lon="8.967540192117534"><ele>69.0</ele><time>2026-04-04T07:51:37.997Z</time></trkpt><trkpt lat="39.05182116847428" lon="8.967479132003742"><ele>71.25</ele><time>2026-04-04T07:51:38.997Z</time></trkpt><trkpt lat="39.05170260551242" lon="8.967425733528783"><ele>73.5</ele><time>2026-04-04T07:51:39.997Z</time></trkpt><trkpt lat="39.051596970804525" lon="8.967351160254708"><ele>75.75</ele><time>2026-04-04T07:51:40.997Z</time></trkpt><trkpt lat="39.05150735493323" lon="8.967257934812901"><ele>78.0</ele><time>2026-04-04T07:51:41.997Z</time></trkpt><trkpt lat="39.05140358416985" lon="8.967154555696494"><ele>80.25</ele><time>2026-04-04T07:51:42.997Z</time></trkpt><trkpt lat="39.051292374910425" lon="8.967060833461757"><ele>82.5</ele><time>2026-04-04T07:51:43.997Z</time></trkpt><trkpt lat="39.05118609023618" lon="8.966980178630427"><ele>84.75</ele><time>2026-04-04T07:51:44.997Z</time></trkpt><trkpt lat="39.051097302787134" lon="8.966909873706209"><ele>87.0</ele><time>2026-04-04T07:51:45.997Z</time></trkpt><trkpt lat="39.0510122511977" lon="8.966840080793066"><ele>87.0</ele><time>2026-04-04T07:51:46.997Z</time></trkpt><trkpt lat="39.05095430211355" lon="8.966761049583804"><ele>87.0</ele><time>2026-04-04T07:51:47.997Z</time></trkpt><trkpt lat="39.05088329178599" lon="8.966667578139758"><ele>87.0</ele><time>2026-04-04T07:51:48.997Z</time></trkpt><trkpt lat="39.05082233001741" lon="8.96657357663829"><ele>87.0</ele><time>2026-04-04T07:51:49.997Z</time></trkpt><trkpt lat="39.05077842181757" lon="8.966476329506548"><ele>87.0</ele><time>2026-04-04T07:51:50.997Z</time></trkpt><trkpt lat="39.05073299922132" lon="8.96636412935852"><ele>87.25</ele><time>2026-04-04T07:51:51.997Z</time></trkpt><trkpt lat="39.050683138579735" lon="8.966240723450952"><ele>87.5</ele><time>2026-04-04T07:51:52.997Z</time></trkpt><trkpt lat="39.05063370751103" lon="8.966109267820512"><ele>87.75</ele><time>2026-04-04T07:51:53.997Z</time></trkpt><trkpt lat="39.05058491820208" lon="8.96597277985482"><ele>88.0</ele><time>2026-04-04T07:51:55Z</time></trkpt><trkpt lat="39.05053690296746" lon="8.965831051381237"><ele>88.75</ele><time>2026-04-04T07:51:56Z</time></trkpt><trkpt lat="39.050492720350704" lon="8.965672077674235"><ele>89.5</ele><time>2026-04-04T07:51:57Z</time></trkpt><trkpt lat="39.050456947441084" lon="8.965518094618513"><ele>90.25</ele><time>2026-04-04T07:51:58Z</time></trkpt><trkpt lat="39.05042819815076" lon="8.965372696147229"><ele>91.0</ele><time>2026-04-04T07:51:59Z</time></trkpt><trkpt lat="39.050398928510795" lon="8.965227003419795"><ele>91.0</ele><time>2026-04-04T07:52:00Z</time></trkpt><trkpt lat="39.050366749029685" lon="8.965076007874465"><ele>91.0</ele><time>2026-04-04T07:52:01Z</time></trkpt><trkpt lat="39.050326723470846" lon="8.964954502419504"><ele>91.0</ele><time>2026-04-04T07:52:02Z</time></trkpt><trkpt lat="39.05030089606367" lon="8.964840943340633"><ele>91.0</ele><time>2026-04-04T07:52:03Z</time></trkpt><trkpt lat="39.05029019980674" lon="8.964717529984142"><ele>91.0</ele><time>2026-04-04T07:52:04Z</time></trkpt><trkpt lat="39.0502673171663" lon="8.96461037035877"><ele>92.8</ele><time>2026-04-04T07:52:05Z</time></trkpt><trkpt lat="39.050230481033786" lon="8.96450722719844"><ele>94.6</ele><time>2026-04-04T07:52:06Z</time></trkpt><trkpt lat="39.05021947065916" lon="8.964413713338553"><ele>96.4</ele><time>2026-04-04T07:52:07Z</time></trkpt><trkpt lat="39.05021725787633" lon="8.964271026319112"><ele>98.2</ele><time>2026-04-04T07:52:09Z</time></trkpt><trkpt lat="39.050214423095035" lon="8.964131134268854"><ele>100.0</ele><time>2026-04-04T07:52:11Z</time></trkpt><trkpt lat="39.05019749836195" lon="8.96403339607384"><ele>101.71428571428572</ele><time>2026-04-04T07:52:13Z</time></trkpt><trkpt lat="39.05017654111877" lon="8.963954602913242"><ele>103.42857142857143</ele><time>2026-04-04T07:52:15Z</time></trkpt><trkpt lat="39.05017538215342" lon="8.963844427231022"><ele>105.14285714285714</ele><time>2026-04-04T07:52:17Z</time></trkpt><trkpt lat="39.05017056226174" lon="8.96372970498409"><ele>106.85714285714286</ele><time>2026-04-04T07:52:19Z</time></trkpt><trkpt lat="39.05013237635835" lon="8.963663541576889"><ele>108.57142857142857</ele><time>2026-04-04T07:52:21Z</time></trkpt><trkpt lat="39.05010063687942" lon="8.963578637128245"><ele>110.28571428571429</ele><time>2026-04-04T07:52:25Z</time></trkpt><trkpt lat="39.05006971247542" lon="8.963503537613382"><ele>112.0</ele><time>2026-04-04T07:52:27.999Z</time></trkpt><trkpt lat="39.050067183104936" lon="8.96340928483178"><ele>113.42857142857143</ele><time>2026-04-04T07:52:29.999Z</time></trkpt><trkpt lat="39.05007470791029" lon="8.963315742064793"><ele>114.85714285714286</ele><time>2026-04-04T07:52:32.999Z</time></trkpt><trkpt lat="39.050050585909254" lon="8.963226202355045"><ele>116.28571428571428</ele><time>2026-04-04T07:52:51.999Z</time></trkpt><trkpt lat="39.05000893900198" lon="8.963143902538304"><ele>117.71428571428571</ele><time>2026-04-04T07:52:57.999Z</time></trkpt><trkpt lat="39.049970563594584" lon="8.963064733477221"><ele>119.14285714285714</ele><time>2026-04-04T07:53:23.998Z</time></trkpt><trkpt lat="39.04991390461297" lon="8.963018225899349"><ele>120.57142857142856</ele><time>2026-04-04T07:53:37.998Z</time></trkpt><trkpt lat="39.04986636211733" lon="8.962950681686783"><ele>121.99999999999999</ele><time>2026-04-04T07:53:42.998Z</time></trkpt><trkpt lat="39.04981882435727" lon="8.962883183586303"><ele>121.99999999999999</ele><time>2026-04-04T07:53:47.997Z</time></trkpt><trkpt lat="39.0497558346958" lon="8.9628407038942"><ele>122.0</ele><time>2026-04-04T07:53:51.997Z</time></trkpt><trkpt lat="39.04967279540235" lon="8.962706372682542"><ele>122.0</ele><time>2026-04-04T07:53:54.997Z</time></trkpt><trkpt lat="39.04961795628007" lon="8.962643054061104"><ele>122.0</ele><time>2026-04-04T07:53:57.997Z</time></trkpt><trkpt lat="39.04955666012775" lon="8.962579386623057"><ele>121.99999999999999</ele><time>2026-04-04T07:54:01Z</time></trkpt><trkpt lat="39.049495408584114" lon="8.96251442356476"><ele>122.0</ele><time>2026-04-04T07:54:02Z</time></trkpt><trkpt lat="39.04944163692705" lon="8.962456477260037"><ele>125.25</ele><time>2026-04-04T07:54:04Z</time></trkpt><trkpt lat="39.04937072048042" lon="8.962376376015616"><ele>128.5</ele><time>2026-04-04T07:54:07Z</time></trkpt><trkpt lat="39.049350009467624" lon="8.962299759866763"><ele>131.75</ele><time>2026-04-04T07:54:09Z</time></trkpt><trkpt lat="39.049280912226564" lon="8.962230034094722"><ele>135.0</ele><time>2026-04-04T07:54:11Z</time></trkpt><trkpt lat="39.04911171176886" lon="8.961931590026923"><ele>135.0</ele><time>2026-04-04T07:54:13Z</time></trkpt><trkpt lat="39.04905589536819" lon="8.96180733934789"><ele>135.0</ele><time>2026-04-04T07:54:15Z</time></trkpt><trkpt lat="39.04900850735813" lon="8.96168442562152"><ele>135.0</ele><time>2026-04-04T07:54:17Z</time></trkpt><trkpt lat="39.04897947366824" lon="8.961574037840801"><ele>135.0</ele><time>2026-04-04T07:54:19Z</time></trkpt><trkpt lat="39.04895087663653" lon="8.961501140843074"><ele>135.0</ele><time>2026-04-04T07:54:20Z</time></trkpt><trkpt lat="39.04890951013366" lon="8.961393344552116"><ele>136.66666666666666</ele><time>2026-04-04T07:54:22Z</time></trkpt><trkpt lat="39.0488555883733" lon="8.96133760885622"><ele>138.33333333333334</ele><time>2026-04-04T07:54:26Z</time></trkpt><trkpt lat="39.04879118399221" lon="8.961377719244021"><ele>140.0</ele><time>2026-04-04T07:54:28Z</time></trkpt><trkpt lat="39.04872647398973" lon="8.961381908822888"><ele>141.66666666666669</ele><time>2026-04-04T07:54:31Z</time></trkpt><trkpt lat="39.048699034522386" lon="8.961299861223582"><ele>143.33333333333334</ele><time>2026-04-04T07:54:32Z</time></trkpt><trkpt lat="39.04860555847179" lon="8.961211892902433"><ele>145.0</ele><time>2026-04-04T07:54:34Z</time></trkpt><trkpt lat="39.04853713561803" lon="8.961148622748487"><ele>145.0</ele><time>2026-04-04T07:54:35.999Z</time></trkpt><trkpt lat="39.048455080111324" lon="8.961095045043315"><ele>145.0</ele><time>2026-04-04T07:54:38.999Z</time></trkpt><trkpt lat="39.04837160187911" lon="8.961044926704155"><ele>145.0</ele><time>2026-04-04T07:54:40.999Z</time></trkpt><trkpt lat="39.04831225278924" lon="8.961016732518486"><ele>145.0</ele><time>2026-04-04T07:54:43.999Z</time></trkpt><trkpt lat="39.04821536775381" lon="8.960979107441215"><ele>145.0</ele><time>2026-04-04T07:54:46.999Z</time></trkpt><trkpt lat="39.04804213594272" lon="8.960919204856877"><ele>146.0</ele><time>2026-04-04T07:54:49.999Z</time></trkpt><trkpt lat="39.04795500457747" lon="8.960884638012017"><ele>147.0</ele><time>2026-04-04T07:54:51.999Z</time></trkpt><trkpt lat="39.0478879923939" lon="8.960792740514062"><ele>148.0</ele><time>2026-04-04T07:54:53.999Z</time></trkpt><trkpt lat="39.04782334121504" lon="8.96068401421697"><ele>149.0</ele><time>2026-04-04T07:54:55.999Z</time></trkpt><trkpt lat="39.04773682453184" lon="8.960652626352875"><ele>150.0</ele><time>2026-04-04T07:54:57.999Z</time></trkpt><trkpt lat="39.04767021850563" lon="8.96063179104492"><ele>150.0</ele><time>2026-04-04T07:54:58.999Z</time></trkpt><trkpt lat="39.04757772738451" lon="8.960587963448875"><ele>150.0</ele><time>2026-04-04T07:55:00.999Z</time></trkpt><trkpt lat="39.047496730837224" lon="8.960496259448533"><ele>150.0</ele><time>2026-04-04T07:55:02.999Z</time></trkpt><trkpt lat="39.04741156212302" lon="8.960404098955681"><ele>150.0</ele><time>2026-04-04T07:55:04.999Z</time></trkpt><trkpt lat="39.047337669602875" lon="8.960353245778185"><ele>150.0</ele><time>2026-04-04T07:55:07.999Z</time></trkpt><trkpt lat="39.047297378798845" lon="8.960423800640916"><ele>150.28571428571428</ele><time>2026-04-04T07:55:08.999Z</time></trkpt><trkpt lat="39.04722249009598" lon="8.960411979657618"><ele>150.57142857142856</ele><time>2026-04-04T07:55:21.998Z</time></trkpt><trkpt lat="39.04715815306538" lon="8.960387783061977"><ele>150.85714285714283</ele><time>2026-04-04T07:55:25.998Z</time></trkpt><trkpt lat="39.047086360973836" lon="8.960368397798884"><ele>151.14285714285714</ele><time>2026-04-04T07:55:28.998Z</time></trkpt><trkpt lat="39.04701928908366" lon="8.960361779529018"><ele>151.42857142857144</ele><time>2026-04-04T07:55:31.998Z</time></trkpt><trkpt lat="39.04694428106284" lon="8.960337487878332"><ele>151.7142857142857</ele><time>2026-04-04T07:55:34.998Z</time></trkpt><trkpt lat="39.04687561429004" lon="8.960349205385024"><ele>152.0</ele><time>2026-04-04T07:55:37.998Z</time></trkpt><trkpt lat="39.046807907315255" lon="8.960319075153205"><ele>152.0</ele><time>2026-04-04T07:55:40.998Z</time></trkpt><trkpt lat="39.04674168471198" lon="8.960280505466176"><ele>152.0</ele><time>2026-04-04T07:55:43.998Z</time></trkpt><trkpt lat="39.04667668955341" lon="8.960293904937727"><ele>152.0</ele><time>2026-04-04T07:55:46.998Z</time></trkpt><trkpt lat="39.046638741124035" lon="8.960371762776973"><ele>152.0</ele><time>2026-04-04T07:55:49.998Z</time></trkpt><trkpt lat="39.04662874406771" lon="8.960474259062034"><ele>152.0</ele><time>2026-04-04T07:55:52.998Z</time></trkpt><trkpt lat="39.046587320532424" lon="8.960565047873082"><ele>152.0</ele><time>2026-04-04T07:55:55.997Z</time></trkpt><trkpt lat="39.04649748385011" lon="8.960558972295189"><ele>151.2</ele><time>2026-04-04T07:55:58.997Z</time></trkpt><trkpt lat="39.04642963814617" lon="8.960561380634758"><ele>150.39999999999998</ele><time>2026-04-04T07:56:01.997Z</time></trkpt><trkpt lat="39.04628186874973" lon="8.960401579102305"><ele>149.60000000000002</ele><time>2026-04-04T07:56:04.997Z</time></trkpt><trkpt lat="39.04623051653896" lon="8.960332273443544"><ele>148.8</ele><time>2026-04-04T07:56:05.997Z</time></trkpt><trkpt lat="39.04615382076417" lon="8.960239600583865"><ele>148.0</ele><time>2026-04-04T07:56:07Z</time></trkpt><trkpt lat="39.04609191322586" lon="8.960168576556152"><ele>148.0</ele><time>2026-04-04T07:56:08Z</time></trkpt><trkpt lat="39.046094876606304" lon="8.960079735768405"><ele>148.0</ele><time>2026-04-04T07:56:11Z</time></trkpt><trkpt lat="39.046016124626235" lon="8.960009881596019"><ele>148.0</ele><time>2026-04-04T07:56:13Z</time></trkpt><trkpt lat="39.04596851715046" lon="8.959865059444317"><ele>148.0</ele><time>2026-04-04T07:56:15Z</time></trkpt><trkpt lat="39.045932156346005" lon="8.959780867233905"><ele>148.0</ele><time>2026-04-04T07:56:17Z</time></trkpt><trkpt lat="39.04587679160174" lon="8.959726426639326"><ele>148.0</ele><time>2026-04-04T07:56:19Z</time></trkpt><trkpt lat="39.045765502375225" lon="8.959767943863932"><ele>147.83333333333334</ele><time>2026-04-04T07:56:21Z</time></trkpt><trkpt lat="39.04567186081953" lon="8.959811736402559"><ele>147.66666666666669</ele><time>2026-04-04T07:56:23Z</time></trkpt><trkpt lat="39.04560743088153" lon="8.959782991665575"><ele>147.5</ele><time>2026-04-04T07:56:25Z</time></trkpt><trkpt lat="39.04555617812338" lon="8.95972634944952"><ele>147.33333333333334</ele><time>2026-04-04T07:56:27Z</time></trkpt><trkpt lat="39.04555194043647" lon="8.959645265121"><ele>147.16666666666666</ele><time>2026-04-04T07:56:30Z</time></trkpt><trkpt lat="39.04556536617095" lon="8.959536311610266"><ele>147.0</ele><time>2026-04-04T07:56:32Z</time></trkpt><trkpt lat="39.04556437285875" lon="8.959421014423787"><ele>147.0</ele><time>2026-04-04T07:56:34Z</time></trkpt><trkpt lat="39.04552275729379" lon="8.95931704336865"><ele>147.0</ele><time>2026-04-04T07:56:36Z</time></trkpt><trkpt lat="39.0454649200844" lon="8.95921165782421"><ele>147.0</ele><time>2026-04-04T07:56:39.999Z</time></trkpt><trkpt lat="39.045445350771885" lon="8.959108909809768"><ele>147.0</ele><time>2026-04-04T07:56:42.999Z</time></trkpt><trkpt lat="39.045345720403205" lon="8.958725057514584"><ele>149.0</ele><time>2026-04-04T07:56:46.999Z</time></trkpt><trkpt lat="39.04532087307453" lon="8.958646924466828"><ele>151.0</ele><time>2026-04-04T07:56:47.999Z</time></trkpt><trkpt lat="39.04528990353071" lon="8.958573818389178"><ele>153.0</ele><time>2026-04-04T07:56:48.999Z</time></trkpt><trkpt lat="39.04522271529531" lon="8.958469740631724"><ele>155.0</ele><time>2026-04-04T07:56:50.999Z</time></trkpt><trkpt lat="39.04517302238295" lon="8.958383831653931"><ele>157.0</ele><time>2026-04-04T07:56:53.999Z</time></trkpt><trkpt lat="39.04510932604975" lon="8.958281878603014"><ele>159.0</ele><time>2026-04-04T07:56:56.999Z</time></trkpt><trkpt lat="39.04502585876896" lon="8.958196636075542"><ele>159.0</ele><time>2026-04-04T07:56:58.999Z</time></trkpt><trkpt lat="39.04496740286967" lon="8.958147823983698"><ele>159.0</ele><time>2026-04-04T07:56:59.999Z</time></trkpt><trkpt lat="39.04490541735828" lon="8.9581073256917"><ele>159.0</ele><time>2026-04-04T07:57:00.999Z</time></trkpt><trkpt lat="39.04480075923703" lon="8.95805093461692"><ele>159.0</ele><time>2026-04-04T07:57:02.999Z</time></trkpt><trkpt lat="39.04474717054754" lon="8.957973947864941"><ele>159.0</ele><time>2026-04-04T07:57:04.999Z</time></trkpt><trkpt lat="39.044670682680746" lon="8.957896826969213"><ele>159.0</ele><time>2026-04-04T07:57:06.999Z</time></trkpt><trkpt lat="39.04459559218601" lon="8.957834604589943"><ele>159.0</ele><time>2026-04-04T07:57:08.999Z</time></trkpt><trkpt lat="39.04456877503789" lon="8.957700501233774"><ele>159.0</ele><time>2026-04-04T07:57:10.999Z</time></trkpt><trkpt lat="39.04455091718879" lon="8.95754377825003"><ele>159.0</ele><time>2026-04-04T07:57:12.999Z</time></trkpt><trkpt lat="39.044452542468086" lon="8.95767605665495"><ele>159.0</ele><time>2026-04-04T07:57:13.999Z</time></trkpt><trkpt lat="39.044354559024946" lon="8.957589210147187"><ele>162.0</ele><time>2026-04-04T07:57:15.999Z</time></trkpt><trkpt lat="39.04425919994885" lon="8.95752418840111"><ele>165.0</ele><time>2026-04-04T07:57:17.998Z</time></trkpt><trkpt lat="39.044197399894905" lon="8.95748498929115"><ele>168.0</ele><time>2026-04-04T07:57:18.998Z</time></trkpt><trkpt lat="39.044105476420384" lon="8.957387170716073"><ele>171.0</ele><time>2026-04-04T07:57:20.998Z</time></trkpt><trkpt lat="39.044049630519" lon="8.957331820640281"><ele>174.0</ele><time>2026-04-04T07:57:21.998Z</time></trkpt><trkpt lat="39.04392496905379" lon="8.95725620167513"><ele>174.0</ele><time>2026-04-04T07:57:23.998Z</time></trkpt><trkpt lat="39.04385809956709" lon="8.957220290386122"><ele>174.0</ele><time>2026-04-04T07:57:24.998Z</time></trkpt><trkpt lat="39.04379695201266" lon="8.957190142183498"><ele>174.0</ele><time>2026-04-04T07:57:25.998Z</time></trkpt><trkpt lat="39.0436964511112" lon="8.957108490663291"><ele>174.0</ele><time>2026-04-04T07:57:27.998Z</time></trkpt><trkpt lat="39.04360558739535" lon="8.95703072995264"><ele>174.0</ele><time>2026-04-04T07:57:29.998Z</time></trkpt><trkpt lat="39.04349417800724" lon="8.957076797572062"><ele>174.0</ele><time>2026-04-04T07:57:31.998Z</time></trkpt><trkpt lat="39.04341697595715" lon="8.957088722642524"><ele>174.0</ele><time>2026-04-04T07:57:32.998Z</time></trkpt><trkpt lat="39.043351041501936" lon="8.957075028127433"><ele>174.0</ele><time>2026-04-04T07:57:33.998Z</time></trkpt><trkpt lat="39.04326966214357" lon="8.957043351932565"><ele>174.0</ele><time>2026-04-04T07:57:34.998Z</time></trkpt><trkpt lat="39.043175588382816" lon="8.956983872183581"><ele>174.0</ele><time>2026-04-04T07:57:35.998Z</time></trkpt><trkpt lat="39.043072625610414" lon="8.9569261211508"><ele>174.0</ele><time>2026-04-04T07:57:36.998Z</time></trkpt><trkpt lat="39.04297520134177" lon="8.956872924494741"><ele>173.16666666666666</ele><time>2026-04-04T07:57:37.998Z</time></trkpt><trkpt lat="39.04288859592103" lon="8.956826997992277"><ele>172.33333333333334</ele><time>2026-04-04T07:57:38.998Z</time></trkpt><trkpt lat="39.04278825288225" lon="8.95680181752723"><ele>171.5</ele><time>2026-04-04T07:57:39.998Z</time></trkpt><trkpt lat="39.042703729105106" lon="8.956782599106537"><ele>170.66666666666669</ele><time>2026-04-04T07:57:40.998Z</time></trkpt><trkpt lat="39.042630089523854" lon="8.956751898708706"><ele>169.83333333333334</ele><time>2026-04-04T07:57:41.998Z</time></trkpt><trkpt lat="39.042563283379145" lon="8.956712755385148"><ele>169.0</ele><time>2026-04-04T07:57:42.998Z</time></trkpt><trkpt lat="39.042496702110704" lon="8.956676821733165"><ele>169.0</ele><time>2026-04-04T07:57:43.998Z</time></trkpt><trkpt lat="39.04240625321006" lon="8.95657550333073"><ele>169.0</ele><time>2026-04-04T07:57:45.998Z</time></trkpt><trkpt lat="39.04237074943264" lon="8.956491341694766"><ele>169.0</ele><time>2026-04-04T07:57:46.998Z</time></trkpt><trkpt lat="39.04232296731957" lon="8.956421353531434"><ele>169.0</ele><time>2026-04-04T07:57:47.998Z</time></trkpt><trkpt lat="39.04227140144852" lon="8.9563567211186"><ele>169.0</ele><time>2026-04-04T07:57:48.998Z</time></trkpt><trkpt lat="39.042242462690766" lon="8.956274535218716"><ele>169.0</ele><time>2026-04-04T07:57:49.998Z</time></trkpt><trkpt lat="39.04221009423113" lon="8.956187266859594"><ele>169.0</ele><time>2026-04-04T07:57:50.998Z</time></trkpt><trkpt lat="39.042172479303254" lon="8.956114617571414"><ele>169.0</ele><time>2026-04-04T07:57:51.998Z</time></trkpt><trkpt lat="39.04212162670717" lon="8.95598708130343"><ele>169.0</ele><time>2026-04-04T07:57:53.998Z</time></trkpt><trkpt lat="39.04203909816795" lon="8.955869414091541"><ele>169.0</ele><time>2026-04-04T07:57:55.998Z</time></trkpt><trkpt lat="39.04196470675035" lon="8.955831316988917"><ele>169.0</ele><time>2026-04-04T07:57:56.997Z</time></trkpt><trkpt lat="39.04190180212054" lon="8.955810102604937"><ele>169.0</ele><time>2026-04-04T07:57:57.997Z</time></trkpt><trkpt lat="39.04179573025185" lon="8.955720193706906"><ele>168.5</ele><time>2026-04-04T07:57:59.997Z</time></trkpt><trkpt lat="39.041732258806455" lon="8.95566444163309"><ele>168.0</ele><time>2026-04-04T07:58:00.997Z</time></trkpt><trkpt lat="39.041665999437214" lon="8.955603250167652"><ele>167.5</ele><time>2026-04-04T07:58:01.997Z</time></trkpt><trkpt lat="39.041605742542544" lon="8.955553448798815"><ele>167.0</ele><time>2026-04-04T07:58:02.997Z</time></trkpt><trkpt lat="39.04154970466648" lon="8.95550504687649"><ele>166.5</ele><time>2026-04-04T07:58:03.997Z</time></trkpt><trkpt lat="39.04150340280826" lon="8.955408793299625"><ele>166.0</ele><time>2026-04-04T07:58:05.997Z</time></trkpt><trkpt lat="39.041500311500265" lon="8.95532373697166"><ele>166.0</ele><time>2026-04-04T07:58:06.997Z</time></trkpt><trkpt lat="39.041505852172506" lon="8.955233328460755"><ele>166.0</ele><time>2026-04-04T07:58:07.997Z</time></trkpt><trkpt lat="39.041515154262704" lon="8.95506908397513"><ele>166.0</ele><time>2026-04-04T07:58:09.997Z</time></trkpt><trkpt lat="39.041498173009074" lon="8.954915667342378"><ele>166.0</ele><time>2026-04-04T07:58:11.997Z</time></trkpt><trkpt lat="39.04144537688694" lon="8.954831675632613"><ele>166.0</ele><time>2026-04-04T07:58:16Z</time></trkpt><trkpt lat="39.041354369276526" lon="8.954748828694337"><ele>167.8</ele><time>2026-04-04T07:58:18Z</time></trkpt><trkpt lat="39.04127075114933" lon="8.954677323231024"><ele>169.60000000000002</ele><time>2026-04-04T07:58:20Z</time></trkpt><trkpt lat="39.0411886968796" lon="8.954626320983483"><ele>171.4</ele><time>2026-04-04T07:58:22Z</time></trkpt><trkpt lat="39.0411226569217" lon="8.954542093632822"><ele>173.2</ele><time>2026-04-04T07:58:25Z</time></trkpt><trkpt lat="39.041031223327806" lon="8.954481847624407"><ele>175.0</ele><time>2026-04-04T07:58:27Z</time></trkpt><trkpt lat="39.041007105357075" lon="8.954389311446283"><ele>175.0</ele><time>2026-04-04T07:58:29Z</time></trkpt><trkpt lat="39.040943341493595" lon="8.95428231277176"><ele>175.0</ele><time>2026-04-04T07:58:31Z</time></trkpt><trkpt lat="39.04087294883831" lon="8.954171262451744"><ele>175.0</ele><time>2026-04-04T07:58:33Z</time></trkpt><trkpt lat="39.04080590876453" lon="8.954076940199073"><ele>175.0</ele><time>2026-04-04T07:58:35Z</time></trkpt><trkpt lat="39.04072395279619" lon="8.95403685850791"><ele>175.0</ele><time>2026-04-04T07:58:37Z</time></trkpt><trkpt lat="39.040667539452215" lon="8.95399126379178"><ele>176.33333333333334</ele><time>2026-04-04T07:58:38Z</time></trkpt><trkpt lat="39.04062067787287" lon="8.95393056039931"><ele>177.66666666666669</ele><time>2026-04-04T07:58:39Z</time></trkpt><trkpt lat="39.04057144523919" lon="8.953864101236219"><ele>179.0</ele><time>2026-04-04T07:58:41Z</time></trkpt><trkpt lat="39.04051467954236" lon="8.953793590296163"><ele>180.33333333333334</ele><time>2026-04-04T07:58:44Z</time></trkpt><trkpt lat="39.04044275722597" lon="8.9537415436618"><ele>181.66666666666666</ele><time>2026-04-04T07:58:46.999Z</time></trkpt><trkpt lat="39.04036617665127" lon="8.953749188481755"><ele>183.0</ele><time>2026-04-04T07:58:48.999Z</time></trkpt><trkpt lat="39.040290547367306" lon="8.953766781498631"><ele>184.0</ele><time>2026-04-04T07:58:51.999Z</time></trkpt><trkpt lat="39.03995718652284" lon="8.953615222426171"><ele>185.0</ele><time>2026-04-04T07:58:52.999Z</time></trkpt><trkpt lat="39.039889109438356" lon="8.953677698437254"><ele>186.0</ele><time>2026-04-04T07:58:53.999Z</time></trkpt><trkpt lat="39.039838066778415" lon="8.95374056182076"><ele>186.0</ele><time>2026-04-04T07:58:54.999Z</time></trkpt><trkpt lat="39.03978408731887" lon="8.953796552903704"><ele>186.0</ele><time>2026-04-04T07:58:55.999Z</time></trkpt><trkpt lat="39.0397232273671" lon="8.953858642359386"><ele>186.0</ele><time>2026-04-04T07:58:56.999Z</time></trkpt><trkpt lat="39.039657602431596" lon="8.953923381621708"><ele>186.0</ele><time>2026-04-04T07:58:57.999Z</time></trkpt><trkpt lat="39.03959172256318" lon="8.954049536007984"><ele>186.0</ele><time>2026-04-04T07:58:58.999Z</time></trkpt><trkpt lat="39.03951467593397" lon="8.954089493702307"><ele>186.0</ele><time>2026-04-04T07:58:59.999Z</time></trkpt><trkpt lat="39.03944058760833" lon="8.954136726496024"><ele>186.0</ele><time>2026-04-04T07:59:00.999Z</time></trkpt><trkpt lat="39.03937702755515" lon="8.954193646428633"><ele>186.0</ele><time>2026-04-04T07:59:01.999Z</time></trkpt><trkpt lat="39.03931566102443" lon="8.954245941347068"><ele>186.0</ele><time>2026-04-04T07:59:02.999Z</time></trkpt><trkpt lat="39.039263090936934" lon="8.954292295940524"><ele>186.0</ele><time>2026-04-04T07:59:03.999Z</time></trkpt><trkpt lat="39.03922650363026" lon="8.954364140562152"><ele>186.0</ele><time>2026-04-04T07:59:04.999Z</time></trkpt><trkpt lat="39.03913886415371" lon="8.95449167132791"><ele>186.0</ele><time>2026-04-04T07:59:06.999Z</time></trkpt><trkpt lat="39.03909032857267" lon="8.954576409788324"><ele>183.66666666666666</ele><time>2026-04-04T07:59:07.999Z</time></trkpt><trkpt lat="39.03902987747991" lon="8.954653250019255"><ele>181.33333333333334</ele><time>2026-04-04T07:59:08.999Z</time></trkpt><trkpt lat="39.038988275036814" lon="8.954722148088916"><ele>179.0</ele><time>2026-04-04T07:59:09.999Z</time></trkpt><trkpt lat="39.03890813057596" lon="8.954785286698032"><ele>176.66666666666669</ele><time>2026-04-04T07:59:11.999Z</time></trkpt><trkpt lat="39.03884283936932" lon="8.954724913405222"><ele>174.33333333333334</ele><time>2026-04-04T07:59:13.999Z</time></trkpt><trkpt lat="39.03883280595285" lon="8.954643640675892"><ele>172.0</ele><time>2026-04-04T07:59:14.999Z</time></trkpt><trkpt lat="39.03878440934308" lon="8.954589512132491"><ele>172.0</ele><time>2026-04-04T07:59:15.999Z</time></trkpt><trkpt lat="39.03872845224449" lon="8.954505991270462"><ele>172.0</ele><time>2026-04-04T07:59:16.999Z</time></trkpt><trkpt lat="39.03867121157294" lon="8.954410344037747"><ele>172.0</ele><time>2026-04-04T07:59:17.999Z</time></trkpt><trkpt lat="39.03862653646118" lon="8.95432523022214"><ele>172.0</ele><time>2026-04-04T07:59:18.999Z</time></trkpt><trkpt lat="39.038606555361106" lon="8.954244754795974"><ele>172.0</ele><time>2026-04-04T07:59:19.999Z</time></trkpt><trkpt lat="39.0385888493845" lon="8.954163849946674"><ele>172.0</ele><time>2026-04-04T07:59:20.999Z</time></trkpt><trkpt lat="39.03851888642422" lon="8.954070528755583"><ele>172.33333333333334</ele><time>2026-04-04T07:59:22.999Z</time></trkpt><trkpt lat="39.03840512721976" lon="8.95407464747993"><ele>172.66666666666669</ele><time>2026-04-04T07:59:24.999Z</time></trkpt><trkpt lat="39.038342930877185" lon="8.95405104396747"><ele>173.0</ele><time>2026-04-04T07:59:25.998Z</time></trkpt><trkpt lat="39.03827347478568" lon="8.953973224139768"><ele>173.33333333333334</ele><time>2026-04-04T07:59:26.998Z</time></trkpt><trkpt lat="39.03820574397326" lon="8.953886892973319"><ele>173.66666666666666</ele><time>2026-04-04T07:59:27.998Z</time></trkpt><trkpt lat="39.03815428677472" lon="8.953821253491181"><ele>174.0</ele><time>2026-04-04T07:59:28.998Z</time></trkpt><trkpt lat="39.03808478436067" lon="8.953790587927838"><ele>171.83333333333334</ele><time>2026-04-04T07:59:29.998Z</time></trkpt><trkpt lat="39.03799297792112" lon="8.95378709705694"><ele>169.66666666666666</ele><time>2026-04-04T07:59:30.998Z</time></trkpt><trkpt lat="39.03789851474078" lon="8.953793896920628"><ele>167.5</ele><time>2026-04-04T07:59:31.998Z</time></trkpt><trkpt lat="39.03781499172739" lon="8.95378449987987"><ele>165.33333333333331</ele><time>2026-04-04T07:59:32.998Z</time></trkpt><trkpt lat="39.037733735900495" lon="8.953776776660936"><ele>163.16666666666666</ele><time>2026-04-04T07:59:33.998Z</time></trkpt><trkpt lat="39.03765185423047" lon="8.953766333258015"><ele>161.0</ele><time>2026-04-04T07:59:34.998Z</time></trkpt><trkpt lat="39.03757847530576" lon="8.953733665843776"><ele>161.0</ele><time>2026-04-04T07:59:35.998Z</time></trkpt><trkpt lat="39.03750016885695" lon="8.953653681524885"><ele>161.0</ele><time>2026-04-04T07:59:37.998Z</time></trkpt><trkpt lat="39.0374315850501" lon="8.953548364818683"><ele>161.0</ele><time>2026-04-04T07:59:39.998Z</time></trkpt><trkpt lat="39.03738008509199" lon="8.953466723511715"><ele>161.0</ele><time>2026-04-04T07:59:41.998Z</time></trkpt><trkpt lat="39.03731748355335" lon="8.95341998912303"><ele>161.0</ele><time>2026-04-04T07:59:44.998Z</time></trkpt><trkpt lat="39.03720657051457" lon="8.953470211675219"><ele>157.60000000000002</ele><time>2026-04-04T07:59:46.998Z</time></trkpt><trkpt lat="39.037135274798416" lon="8.953486071533149"><ele>154.20000000000002</ele><time>2026-04-04T07:59:47.998Z</time></trkpt><trkpt lat="39.03704560109492" lon="8.953493660773113"><ele>150.8</ele><time>2026-04-04T07:59:48.998Z</time></trkpt><trkpt lat="39.03694587883082" lon="8.953517252609133"><ele>147.4</ele><time>2026-04-04T07:59:49.998Z</time></trkpt><trkpt lat="39.036856822799784" lon="8.953550027297116"><ele>144.0</ele><time>2026-04-04T07:59:50.998Z</time></trkpt><trkpt lat="39.036767144864235" lon="8.953585844447366"><ele>144.0</ele><time>2026-04-04T07:59:51.998Z</time></trkpt><trkpt lat="39.036673322150726" lon="8.953618815469408"><ele>144.0</ele><time>2026-04-04T07:59:52.998Z</time></trkpt><trkpt lat="39.03658651356479" lon="8.953645520619004"><ele>144.0</ele><time>2026-04-04T07:59:53.998Z</time></trkpt><trkpt lat="39.036499584426075" lon="8.953662392035895"><ele>144.0</ele><time>2026-04-04T07:59:54.998Z</time></trkpt><trkpt lat="39.03639878211047" lon="8.953676888682198"><ele>144.0</ele><time>2026-04-04T07:59:55.998Z</time></trkpt><trkpt lat="39.03630582606548" lon="8.953687988039867"><ele>141.8</ele><time>2026-04-04T07:59:56.998Z</time></trkpt><trkpt lat="39.03621351945139" lon="8.953706616585196"><ele>139.60000000000002</ele><time>2026-04-04T07:59:57.998Z</time></trkpt><trkpt lat="39.03612257197238" lon="8.95373665068732"><ele>137.4</ele><time>2026-04-04T07:59:58.998Z</time></trkpt><trkpt lat="39.03603253339413" lon="8.953754809735731"><ele>135.20000000000002</ele><time>2026-04-04T07:59:59.998Z</time></trkpt><trkpt lat="39.035941811306394" lon="8.953763041927091"><ele>133.0</ele><time>2026-04-04T08:00:00.998Z</time></trkpt><trkpt lat="39.03583543746531" lon="8.953761131253152"><ele>132.0</ele><time>2026-04-04T08:00:01.998Z</time></trkpt><trkpt lat="39.03573670116539" lon="8.95374724252309"><ele>131.0</ele><time>2026-04-04T08:00:02.998Z</time></trkpt><trkpt lat="39.03564501985495" lon="8.953719253449608"><ele>130.0</ele><time>2026-04-04T08:00:03.998Z</time></trkpt><trkpt lat="39.03556739352542" lon="8.953679431059193"><ele>129.0</ele><time>2026-04-04T08:00:04.998Z</time></trkpt><trkpt lat="39.0354936233115" lon="8.953620443971"><ele>128.0</ele><time>2026-04-04T08:00:05.997Z</time></trkpt><trkpt lat="39.03542221896007" lon="8.953555599767014"><ele>128.0</ele><time>2026-04-04T08:00:06.997Z</time></trkpt><trkpt lat="39.03536303792886" lon="8.953489892988935"><ele>127.99999999999999</ele><time>2026-04-04T08:00:07.997Z</time></trkpt><trkpt lat="39.03530885815711" lon="8.95343928070878"><ele>128.0</ele><time>2026-04-04T08:00:08.997Z</time></trkpt><trkpt lat="39.03525041372588" lon="8.953382306666555"><ele>128.0</ele><time>2026-04-04T08:00:09.997Z</time></trkpt><trkpt lat="39.03520283543935" lon="8.953309009138021"><ele>127.99999999999999</ele><time>2026-04-04T08:00:10.997Z</time></trkpt><trkpt lat="39.0351602044501" lon="8.953227749825412"><ele>128.0</ele><time>2026-04-04T08:00:11.997Z</time></trkpt><trkpt lat="39.03510782554761" lon="8.953150713684163"><ele>128.0</ele><time>2026-04-04T08:00:12.997Z</time></trkpt><trkpt lat="39.03504979880989" lon="8.953059258754482"><ele>127.66666666666666</ele><time>2026-04-04T08:00:13.997Z</time></trkpt><trkpt lat="39.0349899515336" lon="8.952964498149992"><ele>127.33333333333333</ele><time>2026-04-04T08:00:14.997Z</time></trkpt><trkpt lat="39.03493526857648" lon="8.952905973396312"><ele>127.0</ele><time>2026-04-04T08:00:15.997Z</time></trkpt><trkpt lat="39.03487313776633" lon="8.952884498835699"><ele>126.66666666666666</ele><time>2026-04-04T08:00:16.997Z</time></trkpt><trkpt lat="39.034793258359194" lon="8.952876005433895"><ele>126.33333333333333</ele><time>2026-04-04T08:00:17.997Z</time></trkpt><trkpt lat="39.03470911007273" lon="8.952893400342967"><ele>126.0</ele><time>2026-04-04T08:00:19Z</time></trkpt><trkpt lat="39.03462547583057" lon="8.952934317058565"><ele>123.8</ele><time>2026-04-04T08:00:20Z</time></trkpt><trkpt lat="39.03454806286203" lon="8.952988498852433"><ele>121.6</ele><time>2026-04-04T08:00:21Z</time></trkpt><trkpt lat="39.03445895265338" lon="8.953038676901441"><ele>119.4</ele><time>2026-04-04T08:00:22Z</time></trkpt><trkpt lat="39.034363614066606" lon="8.953082617844194"><ele>117.2</ele><time>2026-04-04T08:00:23Z</time></trkpt><trkpt lat="39.03427899181162" lon="8.953123453609512"><ele>115.0</ele><time>2026-04-04T08:00:24Z</time></trkpt><trkpt lat="39.0342121312039" lon="8.953174192868408"><ele>115.0</ele><time>2026-04-04T08:00:25Z</time></trkpt><trkpt lat="39.03414896347541" lon="8.953244384349407"><ele>115.0</ele><time>2026-04-04T08:00:26Z</time></trkpt><trkpt lat="39.034086814897385" lon="8.953339774172928"><ele>115.0</ele><time>2026-04-04T08:00:27Z</time></trkpt><trkpt lat="39.03402000614892" lon="8.953427032022605"><ele>115.0</ele><time>2026-04-04T08:00:28Z</time></trkpt><trkpt lat="39.033946038725446" lon="8.953507498477626"><ele>115.0</ele><time>2026-04-04T08:00:29Z</time></trkpt><trkpt lat="39.03388016242959" lon="8.95357520537515"><ele>113.83333333333334</ele><time>2026-04-04T08:00:30Z</time></trkpt><trkpt lat="39.03382521492724" lon="8.953635851875791"><ele>112.66666666666667</ele><time>2026-04-04T08:00:31Z</time></trkpt><trkpt lat="39.033765765032335" lon="8.953714590591403"><ele>111.5</ele><time>2026-04-04T08:00:32Z</time></trkpt><trkpt lat="39.0337154924334" lon="8.953797034976175"><ele>110.33333333333334</ele><time>2026-04-04T08:00:33Z</time></trkpt><trkpt lat="39.0336674849571" lon="8.953853873597856"><ele>109.16666666666667</ele><time>2026-04-04T08:00:34Z</time></trkpt><trkpt lat="39.0335564287549" lon="8.953905954623911"><ele>108.0</ele><time>2026-04-04T08:00:36Z</time></trkpt><trkpt lat="39.03349050259824" lon="8.95392441345151"><ele>108.0</ele><time>2026-04-04T08:00:37Z</time></trkpt><trkpt lat="39.03336206076102" lon="8.953949974917002"><ele>108.0</ele><time>2026-04-04T08:00:39Z</time></trkpt><trkpt lat="39.03336645226358" lon="8.953838701491783"><ele>108.0</ele><time>2026-04-04T08:00:44Z</time></trkpt><trkpt lat="39.033420427246504" lon="8.953665465924303"><ele>108.0</ele><time>2026-04-04T08:00:46Z</time></trkpt><trkpt lat="39.03345788176894" lon="8.953384177661784"><ele>108.60000000000001</ele><time>2026-04-04T08:00:47Z</time></trkpt><trkpt lat="39.03352135574585" lon="8.953277343443991"><ele>109.20000000000002</ele><time>2026-04-04T08:00:48Z</time></trkpt><trkpt lat="39.03355205845838" lon="8.953197919585287"><ele>109.8</ele><time>2026-04-04T08:00:49Z</time></trkpt><trkpt lat="39.03354186078587" lon="8.953087943945091"><ele>110.4</ele><time>2026-04-04T08:00:51Z</time></trkpt><trkpt lat="39.03353440261104" lon="8.952945063535683"><ele>111.0</ele><time>2026-04-04T08:00:52.999Z</time></trkpt><trkpt lat="39.03355998355881" lon="8.952783577951044"><ele>111.0</ele><time>2026-04-04T08:00:54.999Z</time></trkpt><trkpt lat="39.0335463207901" lon="8.952698775315776"><ele>111.0</ele><time>2026-04-04T08:00:55.999Z</time></trkpt><trkpt lat="39.03353568687145" lon="8.952605291293018"><ele>111.0</ele><time>2026-04-04T08:00:56.999Z</time></trkpt><trkpt lat="39.033519711401034" lon="8.952524504041381"><ele>111.0</ele><time>2026-04-04T08:00:58.999Z</time></trkpt><trkpt lat="39.03344435265691" lon="8.952503656950618"><ele>111.0</ele><time>2026-04-04T08:01:05.999Z</time></trkpt><trkpt lat="39.033349313105575" lon="8.95249756080054"><ele>111.0</ele><time>2026-04-04T08:01:07.999Z</time></trkpt><trkpt lat="39.03321436494368" lon="8.952499751401781"><ele>110.33333333333333</ele><time>2026-04-04T08:01:09.999Z</time></trkpt><trkpt lat="39.03308243150196" lon="8.95247163352968"><ele>109.66666666666666</ele><time>2026-04-04T08:01:10.999Z</time></trkpt><trkpt lat="39.03300998135207" lon="8.95245992265963"><ele>109.0</ele><time>2026-04-04T08:01:11.999Z</time></trkpt><trkpt lat="39.032940081550144" lon="8.952435483261647"><ele>108.33333333333333</ele><time>2026-04-04T08:01:12.999Z</time></trkpt><trkpt lat="39.03288863341014" lon="8.95237232013619"><ele>107.66666666666666</ele><time>2026-04-04T08:01:13.999Z</time></trkpt><trkpt lat="39.0328216642628" lon="8.952329190675012"><ele>107.0</ele><time>2026-04-04T08:01:14.999Z</time></trkpt><trkpt lat="39.03276386671644" lon="8.952287073111178"><ele>106.99999999999999</ele><time>2026-04-04T08:01:15.999Z</time></trkpt><trkpt lat="39.03268900566939" lon="8.952238715735348"><ele>107.0</ele><time>2026-04-04T08:01:16.999Z</time></trkpt><trkpt lat="39.032605240248806" lon="8.952215934397017"><ele>107.0</ele><time>2026-04-04T08:01:17.999Z</time></trkpt><trkpt lat="39.03251966168106" lon="8.952209290295876"><ele>107.0</ele><time>2026-04-04T08:01:18.999Z</time></trkpt><trkpt lat="39.03243700585671" lon="8.95219863546246"><ele>106.99999999999999</ele><time>2026-04-04T08:01:19.999Z</time></trkpt><trkpt lat="39.03233894434286" lon="8.952186772141642"><ele>107.0</ele><time>2026-04-04T08:01:20.999Z</time></trkpt><trkpt lat="39.03225893894978" lon="8.952190188232706"><ele>107.99999999999999</ele><time>2026-04-04T08:01:21.999Z</time></trkpt><trkpt lat="39.03217830046309" lon="8.952204991542105"><ele>109.0</ele><time>2026-04-04T08:01:22.999Z</time></trkpt><trkpt lat="39.03211508445647" lon="8.952214879968267"><ele>110.0</ele><time>2026-04-04T08:01:23.999Z</time></trkpt><trkpt lat="39.03206012254401" lon="8.952133828285556"><ele>111.0</ele><time>2026-04-04T08:01:34.998Z</time></trkpt><trkpt lat="39.03199859670959" lon="8.952049534395586"><ele>111.99999999999999</ele><time>2026-04-04T08:01:35.998Z</time></trkpt><trkpt lat="39.03192048768994" lon="8.9519715018599"><ele>113.0</ele><time>2026-04-04T08:01:36.998Z</time></trkpt><trkpt lat="39.03185322845487" lon="8.951922460904505"><ele>113.0</ele><time>2026-04-04T08:01:37.998Z</time></trkpt><trkpt lat="39.03179629062796" lon="8.951855181727192"><ele>113.0</ele><time>2026-04-04T08:01:39.998Z</time></trkpt><trkpt lat="39.03169763567275" lon="8.951841206607048"><ele>113.0</ele><time>2026-04-04T08:01:49.998Z</time></trkpt><trkpt lat="39.031630921361305" lon="8.95182871838815"><ele>113.0</ele><time>2026-04-04T08:01:52.998Z</time></trkpt><trkpt lat="39.03170195555436" lon="8.951839072906612"><ele>113.0</ele><time>2026-04-04T08:02:12.997Z</time></trkpt><trkpt lat="39.031763516492376" lon="8.951875105429032"><ele>113.0</ele><time>2026-04-04T08:02:17.997Z</time></trkpt><trkpt lat="39.031827079911615" lon="8.951879658542724"><ele>113.0</ele><time>2026-04-04T08:02:43Z</time></trkpt><trkpt lat="39.03173819727566" lon="8.951892151832734"><ele>112.99999999999999</ele><time>2026-04-04T08:03:54.998Z</time></trkpt><trkpt lat="39.03167715168884" lon="8.951865461744223"><ele>113.0</ele><time>2026-04-04T08:04:01.998Z</time></trkpt><trkpt lat="39.031600660076" lon="8.95183697222052"><ele>113.0</ele><time>2026-04-04T08:09:04Z</time></trkpt><trkpt lat="39.031540168368196" lon="8.951797196263374"><ele>113.0</ele><time>2026-04-04T08:09:05Z</time></trkpt><trkpt lat="39.03148159622357" lon="8.951761230151442"><ele>112.99999999999999</ele><time>2026-04-04T08:09:06Z</time></trkpt><trkpt lat="39.03141204558799" lon="8.951721651005462"><ele>113.0</ele><time>2026-04-04T08:09:08Z</time></trkpt><trkpt lat="39.031286223811136" lon="8.951666242113259"><ele>116.49999999999999</ele><time>2026-04-04T08:09:10Z</time></trkpt><trkpt lat="39.03120646555165" lon="8.95162716703246"><ele>120.0</ele><time>2026-04-04T08:09:11Z</time></trkpt><trkpt lat="39.031139085914454" lon="8.95158188068794"><ele>123.5</ele><time>2026-04-04T08:09:12Z</time></trkpt><trkpt lat="39.03106806011811" lon="8.951529742083236"><ele>127.0</ele><time>2026-04-04T08:09:13Z</time></trkpt><trkpt lat="39.03099473517884" lon="8.951497530587034"><ele>130.5</ele><time>2026-04-04T08:09:14Z</time></trkpt><trkpt lat="39.030931025529455" lon="8.95145785046868"><ele>134.0</ele><time>2026-04-04T08:09:14.999Z</time></trkpt><trkpt lat="39.03086306262826" lon="8.95141523757311"><ele>137.5</ele><time>2026-04-04T08:09:16.999Z</time></trkpt><trkpt lat="39.03077648883643" lon="8.951395214165364"><ele>141.0</ele><time>2026-04-04T08:09:22.999Z</time></trkpt><trkpt lat="39.03067542536714" lon="8.95134024933268"><ele>144.5</ele><time>2026-04-04T08:09:46.999Z</time></trkpt><trkpt lat="39.03059661918971" lon="8.951298303288215"><ele>148.0</ele><time>2026-04-04T08:09:47.999Z</time></trkpt><trkpt lat="39.03051784668097" lon="8.95126754490317"><ele>151.5</ele><time>2026-04-04T08:09:48.999Z</time></trkpt><trkpt lat="39.03044582726065" lon="8.951262673859093"><ele>155.0</ele><time>2026-04-04T08:09:49.999Z</time></trkpt><trkpt lat="39.03032631394472" lon="8.951251341110195"><ele>155.0</ele><time>2026-04-04T08:09:51.999Z</time></trkpt><trkpt lat="39.03026229378307" lon="8.951222494787517"><ele>155.0</ele><time>2026-04-04T08:09:52.999Z</time></trkpt><trkpt lat="39.030191038870946" lon="8.951187874088063"><ele>155.0</ele><time>2026-04-04T08:09:53.998Z</time></trkpt><trkpt lat="39.030116616454116" lon="8.951154033370342"><ele>155.0</ele><time>2026-04-04T08:09:54.998Z</time></trkpt><trkpt lat="39.03004974549565" lon="8.951131479104664"><ele>155.0</ele><time>2026-04-04T08:09:55.998Z</time></trkpt><trkpt lat="39.02998708584365" lon="8.951103558202044"><ele>155.0</ele><time>2026-04-04T08:09:56.998Z</time></trkpt><trkpt lat="39.02992430616821" lon="8.951076653381817"><ele>155.0</ele><time>2026-04-04T08:09:57.998Z</time></trkpt><trkpt lat="39.02985846942664" lon="8.951052956219817"><ele>159.2</ele><time>2026-04-04T08:09:58.998Z</time></trkpt><trkpt lat="39.02978993510334" lon="8.95101285962414"><ele>163.4</ele><time>2026-04-04T08:09:59.998Z</time></trkpt><trkpt lat="39.02970945362201" lon="8.950960935549368"><ele>167.60000000000002</ele><time>2026-04-04T08:10:00.998Z</time></trkpt><trkpt lat="39.02961532012454" lon="8.950920730137275"><ele>171.8</ele><time>2026-04-04T08:10:01.998Z</time></trkpt><trkpt lat="39.02951209944753" lon="8.95087127970034"><ele>176.0</ele><time>2026-04-04T08:10:02.998Z</time></trkpt><trkpt lat="39.02941797973677" lon="8.950815695694512"><ele>175.33333333333331</ele><time>2026-04-04T08:10:03.998Z</time></trkpt><trkpt lat="39.029340191524625" lon="8.950762209882013"><ele>174.66666666666666</ele><time>2026-04-04T08:10:04.998Z</time></trkpt><trkpt lat="39.02928000880548" lon="8.950706873324002"><ele>174.0</ele><time>2026-04-04T08:10:05.998Z</time></trkpt><trkpt lat="39.02918058016213" lon="8.950647284889842"><ele>173.33333333333334</ele><time>2026-04-04T08:10:07.998Z</time></trkpt><trkpt lat="39.0291255367323" lon="8.950604289966522"><ele>172.66666666666669</ele><time>2026-04-04T08:10:08.998Z</time></trkpt><trkpt lat="39.029074540778375" lon="8.950523831595971"><ele>172.0</ele><time>2026-04-04T08:10:09.998Z</time></trkpt><trkpt lat="39.02903307410025" lon="8.950451394680417"><ele>172.00000000000003</ele><time>2026-04-04T08:10:10.998Z</time></trkpt><trkpt lat="39.02898971410382" lon="8.950373469176146"><ele>172.0</ele><time>2026-04-04T08:10:11.998Z</time></trkpt><trkpt lat="39.028950794447624" lon="8.950282606492634"><ele>172.0</ele><time>2026-04-04T08:10:12.998Z</time></trkpt><trkpt lat="39.02892141495628" lon="8.950194473590907"><ele>172.0</ele><time>2026-04-04T08:10:13.998Z</time></trkpt><trkpt lat="39.02889751963647" lon="8.950107019699267"><ele>172.0</ele><time>2026-04-04T08:10:14.998Z</time></trkpt><trkpt lat="39.028879754114826" lon="8.950014307562125"><ele>172.00000000000003</ele><time>2026-04-04T08:10:15.998Z</time></trkpt><trkpt lat="39.02886376868189" lon="8.949926984451139"><ele>172.0</ele><time>2026-04-04T08:10:16.998Z</time></trkpt><trkpt lat="39.0288576804639" lon="8.949828903319604"><ele>173.33333333333334</ele><time>2026-04-04T08:10:17.998Z</time></trkpt><trkpt lat="39.02884976502923" lon="8.949738689967308"><ele>174.66666666666669</ele><time>2026-04-04T08:10:18.998Z</time></trkpt><trkpt lat="39.02883495516103" lon="8.949623390535962"><ele>176.0</ele><time>2026-04-04T08:10:20.998Z</time></trkpt><trkpt lat="39.02881619155693" lon="8.949510131799403"><ele>177.33333333333334</ele><time>2026-04-04T08:10:22.998Z</time></trkpt><trkpt lat="39.02879031470456" lon="8.949364654033749"><ele>178.66666666666666</ele><time>2026-04-04T08:10:24.998Z</time></trkpt><trkpt lat="39.028765443020646" lon="8.949279929745138"><ele>180.0</ele><time>2026-04-04T08:10:27.998Z</time></trkpt><trkpt lat="39.02875976811776" lon="8.94918745321513"><ele>182.85714285714286</ele><time>2026-04-04T08:10:29.998Z</time></trkpt><trkpt lat="39.028741844852036" lon="8.949064187361715"><ele>185.71428571428572</ele><time>2026-04-04T08:10:33.997Z</time></trkpt><trkpt lat="39.028729591081" lon="8.94897589909639"><ele>188.57142857142858</ele><time>2026-04-04T08:10:34.997Z</time></trkpt><trkpt lat="39.028696124393456" lon="8.948904254967765"><ele>191.42857142857144</ele><time>2026-04-04T08:10:41.997Z</time></trkpt><trkpt lat="39.02869097931727" lon="8.948823204053054"><ele>194.28571428571428</ele><time>2026-04-04T08:10:45.997Z</time></trkpt><trkpt lat="39.02868941360024" lon="8.948740737486409"><ele>197.14285714285717</ele><time>2026-04-04T08:10:59Z</time></trkpt><trkpt lat="39.028676150288554" lon="8.94864939369917"><ele>200.0</ele><time>2026-04-04T08:11:03Z</time></trkpt><trkpt lat="39.02863241309411" lon="8.94853985742101"><ele>200.0</ele><time>2026-04-04T08:11:06Z</time></trkpt><trkpt lat="39.02862185692532" lon="8.948436148749414"><ele>200.0</ele><time>2026-04-04T08:11:08Z</time></trkpt><trkpt lat="39.02864021149733" lon="8.948302426832427"><ele>200.0</ele><time>2026-04-04T08:11:10Z</time></trkpt><trkpt lat="39.02863486683811" lon="8.948179643613408"><ele>200.0</ele><time>2026-04-04T08:11:12Z</time></trkpt><trkpt lat="39.02860258075264" lon="8.94806963586923"><ele>200.0</ele><time>2026-04-04T08:11:26.999Z</time></trkpt><trkpt lat="39.02856577474609" lon="8.947919883612792"><ele>203.2</ele><time>2026-04-04T08:11:28.999Z</time></trkpt><trkpt lat="39.02854484812571" lon="8.947833746390327"><ele>206.4</ele><time>2026-04-04T08:11:29.999Z</time></trkpt><trkpt lat="39.02853841773832" lon="8.947743283233251"><ele>209.60000000000002</ele><time>2026-04-04T08:11:30.999Z</time></trkpt><trkpt lat="39.02854316267027" lon="8.947620167872183"><ele>212.8</ele><time>2026-04-04T08:11:32.999Z</time></trkpt><trkpt lat="39.028518805652524" lon="8.947497882111728"><ele>216.0</ele><time>2026-04-04T08:11:34.999Z</time></trkpt><trkpt lat="39.028459928279325" lon="8.947364015749448"><ele>214.0</ele><time>2026-04-04T08:11:36.999Z</time></trkpt><trkpt lat="39.02841860297762" lon="8.947280545881712"><ele>212.00000000000003</ele><time>2026-04-04T08:11:37.999Z</time></trkpt><trkpt lat="39.02837102734449" lon="8.947183713478307"><ele>210.0</ele><time>2026-04-04T08:11:38.999Z</time></trkpt><trkpt lat="39.02832522169401" lon="8.947089403159797"><ele>208.0</ele><time>2026-04-04T08:11:39.999Z</time></trkpt><trkpt lat="39.02829322392305" lon="8.946999502796878"><ele>206.0</ele><time>2026-04-04T08:11:40.999Z</time></trkpt><trkpt lat="39.0282441915864" lon="8.94685480729996"><ele>206.0</ele><time>2026-04-04T08:11:42.999Z</time></trkpt><trkpt lat="39.028217186661756" lon="8.946774201508621"><ele>206.0</ele><time>2026-04-04T08:11:43.999Z</time></trkpt><trkpt lat="39.02814567876525" lon="8.946668944303688"><ele>206.0</ele><time>2026-04-04T08:11:45.999Z</time></trkpt><trkpt lat="39.02807310791124" lon="8.946524176651414"><ele>206.0</ele><time>2026-04-04T08:11:47.999Z</time></trkpt><trkpt lat="39.02802269848376" lon="8.946456792593134"><ele>206.0</ele><time>2026-04-04T08:11:48.999Z</time></trkpt><trkpt lat="39.02797577694006" lon="8.946390746531772"><ele>210.50000000000003</ele><time>2026-04-04T08:11:49.999Z</time></trkpt><trkpt lat="39.02792846594406" lon="8.946322256536668"><ele>215.0</ele><time>2026-04-04T08:11:50.999Z</time></trkpt><trkpt lat="39.02788163144527" lon="8.94624731503722"><ele>219.5</ele><time>2026-04-04T08:11:51.999Z</time></trkpt><trkpt lat="39.02783575816651" lon="8.94617023766238"><ele>224.0</ele><time>2026-04-04T08:11:52.999Z</time></trkpt><trkpt lat="39.02777117226947" lon="8.94604631398795"><ele>228.50000000000003</ele><time>2026-04-04T08:11:54.999Z</time></trkpt><trkpt lat="39.02767985444726" lon="8.94603380215419"><ele>233.0</ele><time>2026-04-04T08:11:56.999Z</time></trkpt><trkpt lat="39.02760080175658" lon="8.945994233582192"><ele>233.00000000000003</ele><time>2026-04-04T08:11:58.999Z</time></trkpt><trkpt lat="39.02751516193419" lon="8.945920079771005"><ele>233.0</ele><time>2026-04-04T08:12:00.998Z</time></trkpt><trkpt lat="39.02744458488109" lon="8.945882721044736"><ele>233.0</ele><time>2026-04-04T08:12:02.998Z</time></trkpt><trkpt lat="39.02737636359232" lon="8.945830516056581"><ele>233.0</ele><time>2026-04-04T08:12:04.998Z</time></trkpt><trkpt lat="39.027269581233455" lon="8.945799716774774"><ele>233.00000000000003</ele><time>2026-04-04T08:12:06.998Z</time></trkpt><trkpt lat="39.02720212647972" lon="8.945799051310447"><ele>233.0</ele><time>2026-04-04T08:12:07.998Z</time></trkpt><trkpt lat="39.02711610805512" lon="8.945768866544299"><ele>230.00000000000003</ele><time>2026-04-04T08:12:09.998Z</time></trkpt><trkpt lat="39.027090618475945" lon="8.945653086121451"><ele>227.0</ele><time>2026-04-04T08:12:11.998Z</time></trkpt><trkpt lat="39.02707612320602" lon="8.945507462929038"><ele>224.0</ele><time>2026-04-04T08:12:13.998Z</time></trkpt><trkpt lat="39.02704755420224" lon="8.945433526447168"><ele>221.0</ele><time>2026-04-04T08:12:14.998Z</time></trkpt><trkpt lat="39.0270125861683" lon="8.945363314424252"><ele>218.00000000000003</ele><time>2026-04-04T08:12:15.998Z</time></trkpt><trkpt lat="39.02698189925251" lon="8.9452872957229"><ele>215.0</ele><time>2026-04-04T08:12:16.998Z</time></trkpt><trkpt lat="39.026939824848675" lon="8.945209469466997"><ele>215.00000000000003</ele><time>2026-04-04T08:12:17.998Z</time></trkpt><trkpt lat="39.02690416951892" lon="8.945138022281023"><ele>215.0</ele><time>2026-04-04T08:12:18.998Z</time></trkpt><trkpt lat="39.02686156878944" lon="8.945017658735262"><ele>215.0</ele><time>2026-04-04T08:12:20.998Z</time></trkpt><trkpt lat="39.02680869281242" lon="8.944929802371936"><ele>215.0</ele><time>2026-04-04T08:12:22.998Z</time></trkpt><trkpt lat="39.02674067976917" lon="8.94485178091043"><ele>215.00000000000003</ele><time>2026-04-04T08:12:25.998Z</time></trkpt><trkpt lat="39.02668703669394" lon="8.944915972860219"><ele>215.0</ele><time>2026-04-04T08:12:28.998Z</time></trkpt><trkpt lat="39.02667022767214" lon="8.945018823783318"><ele>215.00000000000003</ele><time>2026-04-04T08:12:30.998Z</time></trkpt><trkpt lat="39.02664491322438" lon="8.94510989310222"><ele>215.0</ele><time>2026-04-04T08:12:32.998Z</time></trkpt><trkpt lat="39.026625870831026" lon="8.945195258531442"><ele>215.0</ele><time>2026-04-04T08:12:34.998Z</time></trkpt><trkpt lat="39.02657371693197" lon="8.945116961282945"><ele>215.0</ele><time>2026-04-04T08:12:37.998Z</time></trkpt><trkpt lat="39.02652728714202" lon="8.945036235520787"><ele>215.00000000000003</ele><time>2026-04-04T08:12:39.997Z</time></trkpt><trkpt lat="39.026492847777654" lon="8.944965108478538"><ele>215.0</ele><time>2026-04-04T08:12:41.997Z</time></trkpt><trkpt lat="39.02639281259038" lon="8.944887169313219"><ele>208.2</ele><time>2026-04-04T08:12:42.997Z</time></trkpt><trkpt lat="39.026299564441686" lon="8.944797937100036"><ele>201.4</ele><time>2026-04-04T08:12:44.997Z</time></trkpt><trkpt lat="39.026247685533136" lon="8.944745094180384"><ele>194.60000000000002</ele><time>2026-04-04T08:12:45.997Z</time></trkpt><trkpt lat="39.02617667645561" lon="8.944667584197902"><ele>187.8</ele><time>2026-04-04T08:12:47.997Z</time></trkpt><trkpt lat="39.02610655166296" lon="8.944598993720023"><ele>181.0</ele><time>2026-04-04T08:12:49.997Z</time></trkpt><trkpt lat="39.02603729268274" lon="8.944514914484344"><ele>181.0</ele><time>2026-04-04T08:12:51.997Z</time></trkpt><trkpt lat="39.02599148996146" lon="8.944386581664668"><ele>181.0</ele><time>2026-04-04T08:12:54Z</time></trkpt><trkpt lat="39.025913140803574" lon="8.944292944531831"><ele>181.0</ele><time>2026-04-04T08:12:56Z</time></trkpt><trkpt lat="39.025826342845335" lon="8.944298911895702"><ele>181.0</ele><time>2026-04-04T08:12:58Z</time></trkpt><trkpt lat="39.02579492463191" lon="8.944442834777304"><ele>181.0</ele><time>2026-04-04T08:13:00Z</time></trkpt><trkpt lat="39.0258135638146" lon="8.94452657798776"><ele>181.0</ele><time>2026-04-04T08:13:01Z</time></trkpt><trkpt lat="39.02583635996767" lon="8.944614831098539"><ele>181.0</ele><time>2026-04-04T08:13:02Z</time></trkpt><trkpt lat="39.025885154915265" lon="8.944708810428976"><ele>181.0</ele><time>2026-04-04T08:13:03Z</time></trkpt><trkpt lat="39.02591120604036" lon="8.944821805814332"><ele>181.0</ele><time>2026-04-04T08:13:05Z</time></trkpt><trkpt lat="39.02583387569323" lon="8.944732647026205"><ele>181.0</ele><time>2026-04-04T08:13:08Z</time></trkpt><trkpt lat="39.02577348451255" lon="8.94465125936881"><ele>181.0</ele><time>2026-04-04T08:13:10Z</time></trkpt><trkpt lat="39.02566688532117" lon="8.94461755122678"><ele>176.16666666666669</ele><time>2026-04-04T08:13:12Z</time></trkpt><trkpt lat="39.02557636470301" lon="8.944636724343638"><ele>171.33333333333334</ele><time>2026-04-04T08:13:16Z</time></trkpt><trkpt lat="39.02549248245252" lon="8.94467078963913"><ele>166.5</ele><time>2026-04-04T08:13:19Z</time></trkpt><trkpt lat="39.02540029923799" lon="8.94468867098284"><ele>161.66666666666666</ele><time>2026-04-04T08:13:22Z</time></trkpt><trkpt lat="39.02534190923607" lon="8.944722578462692"><ele>156.83333333333331</ele><time>2026-04-04T08:13:24Z</time></trkpt><trkpt lat="39.02527383889579" lon="8.944789158717946"><ele>152.0</ele><time>2026-04-04T08:13:26Z</time></trkpt><trkpt lat="39.02516904249858" lon="8.944781708362997"><ele>152.0</ele><time>2026-04-04T08:13:26.999Z</time></trkpt><trkpt lat="39.02508730694073" lon="8.944787280706628"><ele>152.0</ele><time>2026-04-04T08:13:28.999Z</time></trkpt><trkpt lat="39.024989086721476" lon="8.944774432725195"><ele>152.0</ele><time>2026-04-04T08:13:31.999Z</time></trkpt><trkpt lat="39.02491646133942" lon="8.94475103806482"><ele>152.0</ele><time>2026-04-04T08:13:33.999Z</time></trkpt><trkpt lat="39.02485505529442" lon="8.944718934827087"><ele>152.0</ele><time>2026-04-04T08:13:35.999Z</time></trkpt><trkpt lat="39.024785587431325" lon="8.944667673759016"><ele>152.0</ele><time>2026-04-04T08:13:37.999Z</time></trkpt><trkpt lat="39.024742804699166" lon="8.944594406528873"><ele>148.7142857142857</ele><time>2026-04-04T08:13:38.999Z</time></trkpt><trkpt lat="39.02470471286972" lon="8.944500675854536"><ele>145.42857142857144</ele><time>2026-04-04T08:13:41.999Z</time></trkpt><trkpt lat="39.0246580926337" lon="8.944409847929192"><ele>142.14285714285714</ele><time>2026-04-04T08:13:44.999Z</time></trkpt><trkpt lat="39.02461340333753" lon="8.944471451745397"><ele>138.85714285714283</ele><time>2026-04-04T08:13:48.999Z</time></trkpt><trkpt lat="39.024576295285776" lon="8.94453796564857"><ele>135.57142857142856</ele><time>2026-04-04T08:13:59.999Z</time></trkpt><trkpt lat="39.02454821479918" lon="8.944614106364433"><ele>132.28571428571428</ele><time>2026-04-04T08:14:00.999Z</time></trkpt><trkpt lat="39.02452140909686" lon="8.944691272117522"><ele>129.0</ele><time>2026-04-04T08:14:01.999Z</time></trkpt><trkpt lat="39.02447221420049" lon="8.944822460428194"><ele>129.0</ele><time>2026-04-04T08:14:03.999Z</time></trkpt><trkpt lat="39.02441608093698" lon="8.944955773633163"><ele>129.0</ele><time>2026-04-04T08:14:05.999Z</time></trkpt><trkpt lat="39.0243244397177" lon="8.945035062019995"><ele>129.0</ele><time>2026-04-04T08:14:07.998Z</time></trkpt><trkpt lat="39.02421630892959" lon="8.945030976227068"><ele>129.0</ele><time>2026-04-04T08:14:09.998Z</time></trkpt><trkpt lat="39.024135113226265" lon="8.9450375518273"><ele>129.0</ele><time>2026-04-04T08:14:11.998Z</time></trkpt><trkpt lat="39.024066177600965" lon="8.945050954258749"><ele>127.66666666666667</ele><time>2026-04-04T08:14:13.998Z</time></trkpt><trkpt lat="39.02399966039027" lon="8.945113117231722"><ele>126.33333333333334</ele><time>2026-04-04T08:14:15.998Z</time></trkpt><trkpt lat="39.02393711224148" lon="8.945153086684183"><ele>125.0</ele><time>2026-04-04T08:14:18.998Z</time></trkpt><trkpt lat="39.02388931645543" lon="8.945075621689936"><ele>123.66666666666667</ele><time>2026-04-04T08:14:21.998Z</time></trkpt><trkpt lat="39.023843188281255" lon="8.94499268525416"><ele>122.33333333333334</ele><time>2026-04-04T08:14:24.998Z</time></trkpt><trkpt lat="39.0237996417034" lon="8.944903884930957"><ele>121.0</ele><time>2026-04-04T08:14:27.998Z</time></trkpt><trkpt lat="39.02374749372262" lon="8.944827015687956"><ele>119.33333333333334</ele><time>2026-04-04T08:14:31.998Z</time></trkpt><trkpt lat="39.02370452666493" lon="8.944758931287325"><ele>117.66666666666667</ele><time>2026-04-04T08:14:35.998Z</time></trkpt><trkpt lat="39.02364154260534" lon="8.944677456824895"><ele>116.0</ele><time>2026-04-04T08:14:53.997Z</time></trkpt><trkpt lat="39.023565699883015" lon="8.94462635088519"><ele>114.33333333333334</ele><time>2026-04-04T08:14:55.997Z</time></trkpt><trkpt lat="39.02356442978205" lon="8.944509804497134"><ele>112.66666666666667</ele><time>2026-04-04T08:15:00Z</time></trkpt><trkpt lat="39.0235676227358" lon="8.944382028815184"><ele>111.0</ele><time>2026-04-04T08:15:02Z</time></trkpt><trkpt lat="39.0235662188052" lon="8.944282484782795"><ele>109.8</ele><time>2026-04-04T08:15:04Z</time></trkpt><trkpt lat="39.02358445241938" lon="8.944197152208016"><ele>108.6</ele><time>2026-04-04T08:15:06Z</time></trkpt><trkpt lat="39.02360756418917" lon="8.944083941730819"><ele>107.4</ele><time>2026-04-04T08:15:08Z</time></trkpt><trkpt lat="39.0236478062689" lon="8.943970700066687"><ele>106.2</ele><time>2026-04-04T08:15:10Z</time></trkpt><trkpt lat="39.02370851410106" lon="8.943811950014682"><ele>105.0</ele><time>2026-04-04T08:15:12Z</time></trkpt><trkpt lat="39.023758818812716" lon="8.943719832874901"><ele>105.0</ele><time>2026-04-04T08:15:13Z</time></trkpt><trkpt lat="39.02380692382785" lon="8.943637858397993"><ele>105.0</ele><time>2026-04-04T08:15:15Z</time></trkpt><trkpt lat="39.02386102783096" lon="8.943571811798254"><ele>105.0</ele><time>2026-04-04T08:15:17Z</time></trkpt><trkpt lat="39.02389135609429" lon="8.943478946382584"><ele>105.0</ele><time>2026-04-04T08:15:19Z</time></trkpt><trkpt lat="39.02389706651366" lon="8.943379906101727"><ele>105.0</ele><time>2026-04-04T08:15:22Z</time></trkpt><trkpt lat="39.02387954535841" lon="8.943246521592847"><ele>105.0</ele><time>2026-04-04T08:15:24Z</time></trkpt><trkpt lat="39.02386331408408" lon="8.943130376483937"><ele>105.16666666666667</ele><time>2026-04-04T08:15:26Z</time></trkpt><trkpt lat="39.02380787630072" lon="8.943028721751446"><ele>105.33333333333334</ele><time>2026-04-04T08:15:28Z</time></trkpt><trkpt lat="39.02378056142823" lon="8.942932815241704"><ele>105.5</ele><time>2026-04-04T08:15:30Z</time></trkpt><trkpt lat="39.02376407072935" lon="8.942845354039967"><ele>105.66666666666667</ele><time>2026-04-04T08:15:31.999Z</time></trkpt><trkpt lat="39.02376105599036" lon="8.942713595661745"><ele>105.83333333333334</ele><time>2026-04-04T08:15:33.999Z</time></trkpt><trkpt lat="39.023766864982676" lon="8.942632410979462"><ele>106.0</ele><time>2026-04-04T08:15:34.999Z</time></trkpt><trkpt lat="39.02380374719527" lon="8.942536169549735"><ele>106.66666666666667</ele><time>2026-04-04T08:15:36.999Z</time></trkpt><trkpt lat="39.02388481889193" lon="8.942486080803466"><ele>107.33333333333334</ele><time>2026-04-04T08:15:38.999Z</time></trkpt><trkpt lat="39.0239563884898" lon="8.942494682976802"><ele>108.0</ele><time>2026-04-04T08:15:40.999Z</time></trkpt><trkpt lat="39.024036956705736" lon="8.942487565990875"><ele>108.66666666666666</ele><time>2026-04-04T08:15:43.999Z</time></trkpt><trkpt lat="39.024023441187296" lon="8.942403369025303"><ele>109.33333333333333</ele><time>2026-04-04T08:16:13.998Z</time></trkpt><trkpt lat="39.023954168355814" lon="8.942380635262355"><ele>110.0</ele><time>2026-04-04T08:16:16.998Z</time></trkpt><trkpt lat="39.02389392831064" lon="8.942334739166995"><ele>109.99999999999999</ele><time>2026-04-04T08:16:20.998Z</time></trkpt><trkpt lat="39.023828263040855" lon="8.942256911685055"><ele>110.0</ele><time>2026-04-04T08:16:26.998Z</time></trkpt><trkpt lat="39.02379024555182" lon="8.94217786907191"><ele>110.0</ele><time>2026-04-04T08:16:28.998Z</time></trkpt><trkpt lat="39.0237335702021" lon="8.942135929105033"><ele>110.0</ele><time>2026-04-04T08:16:31.998Z</time></trkpt><trkpt lat="39.023658775382685" lon="8.942101013631726"><ele>109.99999999999999</ele><time>2026-04-04T08:16:34.998Z</time></trkpt><trkpt lat="39.02360341644593" lon="8.942061796543765"><ele>110.0</ele><time>2026-04-04T08:16:37.998Z</time></trkpt><trkpt lat="39.02352142517041" lon="8.942004523523671"><ele>109.99999999999999</ele><time>2026-04-04T08:16:39.998Z</time></trkpt><trkpt lat="39.02341078090672" lon="8.941936445542858"><ele>110.0</ele><time>2026-04-04T08:16:40.998Z</time></trkpt><trkpt lat="39.02334519998393" lon="8.94190032182991"><ele>110.0</ele><time>2026-04-04T08:16:41.998Z</time></trkpt><trkpt lat="39.023272928241106" lon="8.941845078190667"><ele>110.0</ele><time>2026-04-04T08:16:42.998Z</time></trkpt><trkpt lat="39.023208069919406" lon="8.941787470736282"><ele>109.99999999999999</ele><time>2026-04-04T08:16:43.998Z</time></trkpt><trkpt lat="39.023150648056586" lon="8.941735628582984"><ele>110.0</ele><time>2026-04-04T08:16:44.998Z</time></trkpt><trkpt lat="39.02302936006581" lon="8.941649394299526"><ele>113.5</ele><time>2026-04-04T08:16:46.998Z</time></trkpt><trkpt lat="39.0229623054712" lon="8.941600948879264"><ele>117.0</ele><time>2026-04-04T08:16:48.998Z</time></trkpt><trkpt lat="39.022751834202815" lon="8.941436154471665"><ele>120.5</ele><time>2026-04-04T08:16:50.997Z</time></trkpt><trkpt lat="39.02267270060288" lon="8.94134461599355"><ele>124.0</ele><time>2026-04-04T08:16:52.997Z</time></trkpt><trkpt lat="39.022610610249686" lon="8.941272130616085"><ele>124.0</ele><time>2026-04-04T08:16:54.997Z</time></trkpt><trkpt lat="39.02253840046243" lon="8.941191053558011"><ele>124.0</ele><time>2026-04-04T08:16:56.997Z</time></trkpt><trkpt lat="39.02248849369001" lon="8.941134775763635"><ele>124.0</ele><time>2026-04-04T08:16:57.997Z</time></trkpt><trkpt lat="39.02240837280751" lon="8.941029696101035"><ele>124.0</ele><time>2026-04-04T08:16:59.997Z</time></trkpt><trkpt lat="39.02231869723057" lon="8.940908926038816"><ele>124.0</ele><time>2026-04-04T08:17:01.997Z</time></trkpt><trkpt lat="39.02222905807699" lon="8.940793595430009"><ele>122.33333333333334</ele><time>2026-04-04T08:17:03.997Z</time></trkpt><trkpt lat="39.02218128353721" lon="8.940726552990625"><ele>120.66666666666667</ele><time>2026-04-04T08:17:04.997Z</time></trkpt><trkpt lat="39.02213117608872" lon="8.940635769908214"><ele>119.0</ele><time>2026-04-04T08:17:07Z</time></trkpt><trkpt lat="39.02206716189164" lon="8.940572988409498"><ele>117.33333333333334</ele><time>2026-04-04T08:17:11Z</time></trkpt><trkpt lat="39.02200178690688" lon="8.94051479229161"><ele>115.66666666666667</ele><time>2026-04-04T08:17:14Z</time></trkpt><trkpt lat="39.02195711532597" lon="8.940451065552796"><ele>114.0</ele><time>2026-04-04T08:17:19Z</time></trkpt><trkpt lat="39.021967196924344" lon="8.94034808538483"><ele>114.0</ele><time>2026-04-04T08:17:23Z</time></trkpt><trkpt lat="39.022006125604385" lon="8.940270327929454"><ele>114.0</ele><time>2026-04-04T08:17:26Z</time></trkpt><trkpt lat="39.02203316559148" lon="8.940184066792414"><ele>114.0</ele><time>2026-04-04T08:17:30Z</time></trkpt><trkpt lat="39.02209791676082" lon="8.940132769421993"><ele>114.0</ele><time>2026-04-04T08:17:33Z</time></trkpt><trkpt lat="39.022193372588696" lon="8.94005326592773"><ele>114.0</ele><time>2026-04-04T08:17:36Z</time></trkpt><trkpt lat="39.022281256025416" lon="8.939980419377369"><ele>114.0</ele><time>2026-04-04T08:17:37Z</time></trkpt><trkpt lat="39.022349520486365" lon="8.93991856222616"><ele>114.16666666666667</ele><time>2026-04-04T08:17:51.999Z</time></trkpt><trkpt lat="39.022331978355005" lon="8.93982750350096"><ele>114.33333333333334</ele><time>2026-04-04T08:18:15.999Z</time></trkpt><trkpt lat="39.02225939174851" lon="8.939830009262272"><ele>114.5</ele><time>2026-04-04T08:18:52.998Z</time></trkpt><trkpt lat="39.022198939901116" lon="8.939871002994177"><ele>114.66666666666667</ele><time>2026-04-04T08:18:54.998Z</time></trkpt><trkpt lat="39.02212509770104" lon="8.939915792191371"><ele>114.83333333333334</ele><time>2026-04-04T08:18:56.998Z</time></trkpt><trkpt lat="39.02205211081418" lon="8.93996252231906"><ele>115.0</ele><time>2026-04-04T08:18:59.997Z</time></trkpt><trkpt lat="39.02196633648212" lon="8.939979811862202"><ele>115.00000000000001</ele><time>2026-04-04T08:19:01.997Z</time></trkpt><trkpt lat="39.02192763596566" lon="8.940045868698178"><ele>115.0</ele><time>2026-04-04T08:19:03.997Z</time></trkpt><trkpt lat="39.02185976902954" lon="8.940017688869622"><ele>115.0</ele><time>2026-04-04T08:19:05.997Z</time></trkpt><trkpt lat="39.02179864630031" lon="8.939953724303273"><ele>115.0</ele><time>2026-04-04T08:19:07.997Z</time></trkpt><trkpt lat="39.0217334486407" lon="8.939877027372072"><ele>115.00000000000001</ele><time>2026-04-04T08:19:09.997Z</time></trkpt><trkpt lat="39.021650695316644" lon="8.939793553013674"><ele>115.0</ele><time>2026-04-04T08:19:13Z</time></trkpt><trkpt lat="39.02157803504095" lon="8.939705039944727"><ele>114.66666666666667</ele><time>2026-04-04T08:19:15Z</time></trkpt><trkpt lat="39.0215177216738" lon="8.939598376716118"><ele>114.33333333333334</ele><time>2026-04-04T08:19:18Z</time></trkpt><trkpt lat="39.02144940913415" lon="8.939610216754787"><ele>114.0</ele><time>2026-04-04T08:19:20Z</time></trkpt><trkpt lat="39.02120179943313" lon="8.93920173834523"><ele>116.16666666666667</ele><time>2026-04-04T08:19:21Z</time></trkpt><trkpt lat="39.02114260898261" lon="8.939142307008954"><ele>118.33333333333334</ele><time>2026-04-04T08:19:22Z</time></trkpt><trkpt lat="39.02109198095152" lon="8.939080904893787"><ele>120.5</ele><time>2026-04-04T08:19:23Z</time></trkpt><trkpt lat="39.021042985651405" lon="8.939003801167202"><ele>122.66666666666667</ele><time>2026-04-04T08:19:24Z</time></trkpt><trkpt lat="39.02099246545279" lon="8.9389318314839"><ele>124.83333333333334</ele><time>2026-04-04T08:19:25Z</time></trkpt><trkpt lat="39.02091741143409" lon="8.938847723042556"><ele>127.0</ele><time>2026-04-04T08:19:27Z</time></trkpt><trkpt lat="39.020861821345775" lon="8.938802069005302"><ele>129.4</ele><time>2026-04-04T08:19:28Z</time></trkpt><trkpt lat="39.02078676814191" lon="8.938669505086041"><ele>131.79999999999998</ele><time>2026-04-04T08:19:30Z</time></trkpt><trkpt lat="39.02073014869423" lon="8.93862104869736"><ele>134.2</ele><time>2026-04-04T08:19:31Z</time></trkpt><trkpt lat="39.02067307857023" lon="8.938541607013926"><ele>136.6</ele><time>2026-04-04T08:19:32Z</time></trkpt><trkpt lat="39.02060771125647" lon="8.93845751716583"><ele>139.0</ele><time>2026-04-04T08:19:33Z</time></trkpt><trkpt lat="39.02054134405478" lon="8.93837224298423"><ele>139.57142857142856</ele><time>2026-04-04T08:19:34Z</time></trkpt><trkpt lat="39.02047291124905" lon="8.938343323616172"><ele>140.14285714285714</ele><time>2026-04-04T08:19:35Z</time></trkpt><trkpt lat="39.02039444773596" lon="8.938292612889185"><ele>140.71428571428572</ele><time>2026-04-04T08:19:37Z</time></trkpt><trkpt lat="39.02033640903343" lon="8.93823871566379"><ele>141.28571428571428</ele><time>2026-04-04T08:19:39Z</time></trkpt><trkpt lat="39.02026845321143" lon="8.938221508282853"><ele>141.85714285714286</ele><time>2026-04-04T08:21:01.998Z</time></trkpt><trkpt lat="39.020227679791454" lon="8.938158262245386"><ele>142.42857142857142</ele><time>2026-04-04T08:21:07.997Z</time></trkpt><trkpt lat="39.02016262648593" lon="8.938136764652622"><ele>143.0</ele><time>2026-04-04T08:21:14.997Z</time></trkpt><trkpt lat="39.020106624431584" lon="8.93818159038904"><ele>143.0</ele><time>2026-04-04T08:21:16.997Z</time></trkpt><trkpt lat="39.02000998558138" lon="8.938199222474706"><ele>143.0</ele><time>2026-04-04T08:23:47Z</time></trkpt><trkpt lat="39.0200781086993" lon="8.938220209991277"><ele>143.0</ele><time>2026-04-04T08:41:33.998Z</time></trkpt><trkpt lat="39.02002845917775" lon="8.93813481448996"><ele>143.0</ele><time>2026-04-04T08:43:11.999Z</time></trkpt><trkpt lat="39.0199830925033" lon="8.938056712781021"><ele>143.0</ele><time>2026-04-04T08:43:13.999Z</time></trkpt><trkpt lat="39.01993533241939" lon="8.937997518143913"><ele>143.0</ele><time>2026-04-04T08:43:14.999Z</time></trkpt><trkpt lat="39.01988443673449" lon="8.937939705278415"><ele>142.0</ele><time>2026-04-04T08:43:15.999Z</time></trkpt><trkpt lat="39.01978912008791" lon="8.937835626654163"><ele>141.0</ele><time>2026-04-04T08:43:17.999Z</time></trkpt><trkpt lat="39.019706068728" lon="8.937718886257025"><ele>140.0</ele><time>2026-04-04T08:43:19.999Z</time></trkpt><trkpt lat="39.019618991349255" lon="8.937610268486821"><ele>139.0</ele><time>2026-04-04T08:43:21.999Z</time></trkpt><trkpt lat="39.019571425426314" lon="8.937545960276298"><ele>138.0</ele><time>2026-04-04T08:43:23.999Z</time></trkpt><trkpt lat="39.01951441331646" lon="8.937476222285625"><ele>136.83333333333334</ele><time>2026-04-04T08:43:27.998Z</time></trkpt><trkpt lat="39.019476651091274" lon="8.937393604332684"><ele>135.66666666666666</ele><time>2026-04-04T08:43:29.998Z</time></trkpt><trkpt lat="39.01942439934286" lon="8.937343917398982"><ele>134.5</ele><time>2026-04-04T08:43:31.998Z</time></trkpt><trkpt lat="39.01936129768887" lon="8.937290094527219"><ele>133.33333333333331</ele><time>2026-04-04T08:43:33.998Z</time></trkpt><trkpt lat="39.01931721095161" lon="8.937196724943265"><ele>132.16666666666666</ele><time>2026-04-04T08:43:35.998Z</time></trkpt><trkpt lat="39.01924431701302" lon="8.93710420853231"><ele>131.0</ele><time>2026-04-04T08:43:37.998Z</time></trkpt><trkpt lat="39.01918793113284" lon="8.937058698864554"><ele>131.0</ele><time>2026-04-04T08:43:39.998Z</time></trkpt><trkpt lat="39.0192170809431" lon="8.936965199107583"><ele>131.0</ele><time>2026-04-04T08:44:19.997Z</time></trkpt><trkpt lat="39.019211652581625" lon="8.936817130519113"><ele>131.0</ele><time>2026-04-04T08:44:23Z</time></trkpt><trkpt lat="39.01914200159319" lon="8.936703056242381"><ele>131.0</ele><time>2026-04-04T08:44:25Z</time></trkpt><trkpt lat="39.01909108073868" lon="8.936612949346076"><ele>131.0</ele><time>2026-04-04T08:44:27Z</time></trkpt><trkpt lat="39.01908429283943" lon="8.93652164452467"><ele>133.8</ele><time>2026-04-04T08:47:40.998Z</time></trkpt><trkpt lat="39.01906948892497" lon="8.936604161664539"><ele>136.6</ele><time>2026-04-04T08:54:06.998Z</time></trkpt><trkpt lat="39.019028303980996" lon="8.936510057879005"><ele>139.4</ele><time>2026-04-04T08:54:46.997Z</time></trkpt><trkpt lat="39.01915607836373" lon="8.936480456940847"><ele>142.2</ele><time>2026-04-04T08:54:48.997Z</time></trkpt><trkpt lat="39.0192090656745" lon="8.93641232397292"><ele>145.0</ele><time>2026-04-04T08:54:49.997Z</time></trkpt><trkpt lat="39.019143364244535" lon="8.93664837214157"><ele>149.16666666666669</ele><time>2026-04-04T08:54:51.997Z</time></trkpt><trkpt lat="39.01907047346885" lon="8.93666841101045"><ele>153.33333333333334</ele><time>2026-04-04T08:59:00.997Z</time></trkpt><trkpt lat="39.019110305207384" lon="8.936605204352805"><ele>157.5</ele><time>2026-04-04T08:59:56.999Z</time></trkpt><trkpt lat="39.01907880617017" lon="8.936528001577635"><ele>161.66666666666666</ele><time>2026-04-04T09:02:37.998Z</time></trkpt><trkpt lat="39.01904304470861" lon="8.936452766791149"><ele>165.83333333333331</ele><time>2026-04-04T09:05:11.997Z</time></trkpt><trkpt lat="39.018925632806344" lon="8.936428248730797"><ele>170.0</ele><time>2026-04-04T09:07:18.997Z</time></trkpt><trkpt lat="39.01898960664577" lon="8.936458422153589"><ele>170.0</ele><time>2026-04-04T09:07:21.997Z</time></trkpt><trkpt lat="39.01906497732743" lon="8.93646138942135"><ele>170.0</ele><time>2026-04-04T09:07:41Z</time></trkpt><trkpt lat="39.01901230876801" lon="8.936554603448828"><ele>170.0</ele><time>2026-04-04T09:12:36.999Z</time></trkpt><trkpt lat="39.01906292469954" lon="8.936491211795005"><ele>170.0</ele><time>2026-04-04T09:13:51Z</time></trkpt><trkpt lat="39.01910966862604" lon="8.936335157118029"><ele>170.0</ele><time>2026-04-04T09:19:28.999Z</time></trkpt><trkpt lat="39.01914558576308" lon="8.936236569756465"><ele>170.0</ele><time>2026-04-04T09:19:29.999Z</time></trkpt><trkpt lat="39.019168215483575" lon="8.93615316501935"><ele>170.0</ele><time>2026-04-04T09:19:30.999Z</time></trkpt><trkpt lat="39.0191706799275" lon="8.936055760378508"><ele>170.0</ele><time>2026-04-04T09:19:31.999Z</time></trkpt><trkpt lat="39.01914312184834" lon="8.935978718680385"><ele>170.0</ele><time>2026-04-04T09:19:32.999Z</time></trkpt><trkpt lat="39.01911247542514" lon="8.935898730206382"><ele>170.0</ele><time>2026-04-04T09:19:33.999Z</time></trkpt><trkpt lat="39.01905325164323" lon="8.935770019134083"><ele>170.0</ele><time>2026-04-04T09:19:35.999Z</time></trkpt><trkpt lat="39.018994418297645" lon="8.935622930303348"><ele>173.0</ele><time>2026-04-04T09:19:37.998Z</time></trkpt><trkpt lat="39.01896883539659" lon="8.935544658905757"><ele>176.0</ele><time>2026-04-04T09:19:38.998Z</time></trkpt><trkpt lat="39.018927591090694" lon="8.935464774140408"><ele>179.0</ele><time>2026-04-04T09:19:39.998Z</time></trkpt><trkpt lat="39.018873194195116" lon="8.935385964965393"><ele>182.0</ele><time>2026-04-04T09:19:40.998Z</time></trkpt><trkpt lat="39.01880823402835" lon="8.935308807698695"><ele>185.0</ele><time>2026-04-04T09:19:41.998Z</time></trkpt><trkpt lat="39.01873021266529" lon="8.93523285629185"><ele>188.0</ele><time>2026-04-04T09:19:42.998Z</time></trkpt><trkpt lat="39.01866293689561" lon="8.935186994707886"><ele>188.0</ele><time>2026-04-04T09:19:43.998Z</time></trkpt><trkpt lat="39.018595495609325" lon="8.935150685968948"><ele>188.0</ele><time>2026-04-04T09:19:44.998Z</time></trkpt><trkpt lat="39.01852884637701" lon="8.935116069454319"><ele>188.0</ele><time>2026-04-04T09:19:45.998Z</time></trkpt><trkpt lat="39.018456588392645" lon="8.935072328107742"><ele>188.0</ele><time>2026-04-04T09:19:46.998Z</time></trkpt><trkpt lat="39.01838511673204" lon="8.93503706780761"><ele>188.0</ele><time>2026-04-04T09:19:47.998Z</time></trkpt><trkpt lat="39.01831671826563" lon="8.935019292784233"><ele>188.0</ele><time>2026-04-04T09:19:48.998Z</time></trkpt><trkpt lat="39.01820635276566" lon="8.934945152052748"><ele>191.16666666666666</ele><time>2026-04-04T09:19:50.998Z</time></trkpt><trkpt lat="39.01814654281681" lon="8.934893554357444"><ele>194.33333333333331</ele><time>2026-04-04T09:19:51.998Z</time></trkpt><trkpt lat="39.01806953776629" lon="8.934857488471241"><ele>197.5</ele><time>2026-04-04T09:19:52.998Z</time></trkpt><trkpt lat="39.01800950677651" lon="8.934820650250034"><ele>200.66666666666666</ele><time>2026-04-04T09:19:53.998Z</time></trkpt><trkpt lat="39.01787957226621" lon="8.934746933675742"><ele>203.83333333333334</ele><time>2026-04-04T09:19:55.998Z</time></trkpt><trkpt lat="39.01781451354333" lon="8.934703271911246"><ele>207.0</ele><time>2026-04-04T09:19:56.998Z</time></trkpt><trkpt lat="39.017754981323314" lon="8.934655222436655"><ele>207.0</ele><time>2026-04-04T09:19:57.998Z</time></trkpt><trkpt lat="39.017705078719366" lon="8.934588366814664"><ele>207.0</ele><time>2026-04-04T09:19:58.998Z</time></trkpt><trkpt lat="39.017642907565595" lon="8.93454326283493"><ele>207.0</ele><time>2026-04-04T09:19:59.998Z</time></trkpt><trkpt lat="39.017569625588614" lon="8.934488939408409"><ele>207.0</ele><time>2026-04-04T09:20:00.998Z</time></trkpt><trkpt lat="39.01749396061213" lon="8.934431150758835"><ele>207.0</ele><time>2026-04-04T09:20:01.998Z</time></trkpt><trkpt lat="39.01743245092138" lon="8.934394014528781"><ele>207.0</ele><time>2026-04-04T09:20:02.998Z</time></trkpt><trkpt lat="39.017329860711556" lon="8.934332123914475"><ele>210.66666666666666</ele><time>2026-04-04T09:20:05.001Z</time></trkpt><trkpt lat="39.01733988578177" lon="8.934194149337376"><ele>214.33333333333331</ele><time>2026-04-04T09:20:07Z</time></trkpt><trkpt lat="39.017363638033075" lon="8.934117198556873"><ele>218.0</ele><time>2026-04-04T09:20:08Z</time></trkpt><trkpt lat="39.01738982219903" lon="8.934016609487388"><ele>221.66666666666666</ele><time>2026-04-04T09:20:09Z</time></trkpt><trkpt lat="39.01739403983901" lon="8.933905851248296"><ele>225.33333333333331</ele><time>2026-04-04T09:20:10Z</time></trkpt><trkpt lat="39.017377575890606" lon="8.9338034308557"><ele>229.0</ele><time>2026-04-04T09:20:11Z</time></trkpt><trkpt lat="39.017375622198436" lon="8.933711461834207"><ele>228.99999999999997</ele><time>2026-04-04T09:20:12Z</time></trkpt><trkpt lat="39.01737428304871" lon="8.933619876479591"><ele>229.0</ele><time>2026-04-04T09:20:13Z</time></trkpt><trkpt lat="39.017363532857544" lon="8.933516828676755"><ele>229.0</ele><time>2026-04-04T09:20:14Z</time></trkpt><trkpt lat="39.01734393720312" lon="8.933414047987766"><ele>229.0</ele><time>2026-04-04T09:20:15Z</time></trkpt><trkpt lat="39.01732838782977" lon="8.933315654372471"><ele>228.99999999999997</ele><time>2026-04-04T09:20:16Z</time></trkpt><trkpt lat="39.01731936375173" lon="8.93322823130956"><ele>229.0</ele><time>2026-04-04T09:20:17Z</time></trkpt><trkpt lat="39.01729971011289" lon="8.933133051020535"><ele>231.33333333333331</ele><time>2026-04-04T09:20:18Z</time></trkpt><trkpt lat="39.017270135727" lon="8.933040715573474"><ele>233.66666666666666</ele><time>2026-04-04T09:20:19Z</time></trkpt><trkpt lat="39.01724555620658" lon="8.932930716135719"><ele>236.0</ele><time>2026-04-04T09:20:20Z</time></trkpt><trkpt lat="39.01722757848724" lon="8.93282053535631"><ele>238.33333333333331</ele><time>2026-04-04T09:20:21Z</time></trkpt><trkpt lat="39.01719522327577" lon="8.932706998505425"><ele>240.66666666666666</ele><time>2026-04-04T09:20:22Z</time></trkpt><trkpt lat="39.01715361060483" lon="8.932600427075789"><ele>243.0</ele><time>2026-04-04T09:20:23Z</time></trkpt><trkpt lat="39.01711496938883" lon="8.932517632214171"><ele>243.28571428571428</ele><time>2026-04-04T09:20:24Z</time></trkpt><trkpt lat="39.0170925385258" lon="8.93243358933055"><ele>243.57142857142858</ele><time>2026-04-04T09:20:25Z</time></trkpt><trkpt lat="39.01709024314364" lon="8.932348434354074"><ele>243.85714285714286</ele><time>2026-04-04T09:20:26Z</time></trkpt><trkpt lat="39.01712018328368" lon="8.93225692208713"><ele>244.14285714285714</ele><time>2026-04-04T09:20:27Z</time></trkpt><trkpt lat="39.01715422124451" lon="8.93216840951167"><ele>244.42857142857144</ele><time>2026-04-04T09:20:28Z</time></trkpt><trkpt lat="39.017202490043815" lon="8.932096522644215"><ele>244.71428571428572</ele><time>2026-04-04T09:20:29Z</time></trkpt><trkpt lat="39.017255084475565" lon="8.932030373989573"><ele>245.0</ele><time>2026-04-04T09:20:30Z</time></trkpt><trkpt lat="39.01730220361623" lon="8.931976569575255"><ele>245.0</ele><time>2026-04-04T09:20:31Z</time></trkpt><trkpt lat="39.01723096253714" lon="8.931911189976958"><ele>245.0</ele><time>2026-04-04T09:20:36Z</time></trkpt><trkpt lat="39.01715649914378" lon="8.931974673560083"><ele>245.0</ele><time>2026-04-04T09:20:38Z</time></trkpt><trkpt lat="39.01705629291495" lon="8.932037101799992"><ele>245.0</ele><time>2026-04-04T09:20:40Z</time></trkpt><trkpt lat="39.01694233484802" lon="8.932121010866743"><ele>245.0</ele><time>2026-04-04T09:20:41Z</time></trkpt><trkpt lat="39.0168393661396" lon="8.932166109371396"><ele>245.0</ele><time>2026-04-04T09:20:42Z</time></trkpt><trkpt lat="39.01679234481459" lon="8.932263318724917"><ele>245.0</ele><time>2026-04-04T09:20:43Z</time></trkpt><trkpt lat="39.016757377400886" lon="8.932422258069785"><ele>245.0</ele><time>2026-04-04T09:20:44Z</time></trkpt><trkpt lat="39.016787623782065" lon="8.932636099846961"><ele>245.0</ele><time>2026-04-04T09:20:46Z</time></trkpt><trkpt lat="39.0167850987251" lon="8.932781115585684"><ele>244.66666666666669</ele><time>2026-04-04T09:20:47Z</time></trkpt><trkpt lat="39.01678684378912" lon="8.93289491710025"><ele>244.33333333333334</ele><time>2026-04-04T09:20:48Z</time></trkpt><trkpt lat="39.016808975557105" lon="8.93300732734678"><ele>244.0</ele><time>2026-04-04T09:20:49Z</time></trkpt><trkpt lat="39.0168319554734" lon="8.93310517248356"><ele>243.66666666666669</ele><time>2026-04-04T09:20:49.999Z</time></trkpt><trkpt lat="39.01683535954093" lon="8.933186334914156"><ele>243.33333333333334</ele><time>2026-04-04T09:20:51.999Z</time></trkpt><trkpt lat="39.01674792429484" lon="8.933172632979023"><ele>243.0</ele><time>2026-04-04T09:20:55.999Z</time></trkpt><trkpt lat="39.016701125984106" lon="8.933089756597901"><ele>243.0</ele><time>2026-04-04T09:20:56.999Z</time></trkpt><trkpt lat="39.01667533785697" lon="8.93298222756017"><ele>243.0</ele><time>2026-04-04T09:20:57.999Z</time></trkpt><trkpt lat="39.01664651358007" lon="8.932873700564848"><ele>243.0</ele><time>2026-04-04T09:20:58.999Z</time></trkpt><trkpt lat="39.01661177412317" lon="8.932770914283616"><ele>243.0</ele><time>2026-04-04T09:20:59.999Z</time></trkpt><trkpt lat="39.01656437292533" lon="8.932624455624248"><ele>243.0</ele><time>2026-04-04T09:21:00.999Z</time></trkpt><trkpt lat="39.01652786374336" lon="8.932540432485235"><ele>251.8</ele><time>2026-04-04T09:21:01.999Z</time></trkpt><trkpt lat="39.0165202598264" lon="8.932444121917806"><ele>260.6</ele><time>2026-04-04T09:21:02.999Z</time></trkpt><trkpt lat="39.01652113946878" lon="8.932323892307274"><ele>269.4</ele><time>2026-04-04T09:21:03.999Z</time></trkpt><trkpt lat="39.01654246103199" lon="8.932182698740055"><ele>278.2</ele><time>2026-04-04T09:21:04.999Z</time></trkpt><trkpt lat="39.0165521614317" lon="8.93205965733918"><ele>287.0</ele><time>2026-04-04T09:21:05.999Z</time></trkpt><trkpt lat="39.01656401472719" lon="8.931940303705101"><ele>287.0</ele><time>2026-04-04T09:21:06.999Z</time></trkpt><trkpt lat="39.01657429018956" lon="8.931812627342266"><ele>287.0</ele><time>2026-04-04T09:21:07.999Z</time></trkpt><trkpt lat="39.016581434145664" lon="8.931707136305912"><ele>287.0</ele><time>2026-04-04T09:21:08.999Z</time></trkpt><trkpt lat="39.01659408135073" lon="8.931595707046338"><ele>287.0</ele><time>2026-04-04T09:21:09.999Z</time></trkpt><trkpt lat="39.01661801250498" lon="8.93148536096585"><ele>287.0</ele><time>2026-04-04T09:21:10.999Z</time></trkpt><trkpt lat="39.0166486352715" lon="8.93137204043765"><ele>281.4</ele><time>2026-04-04T09:21:11.999Z</time></trkpt><trkpt lat="39.016674787566295" lon="8.931252815089762"><ele>275.79999999999995</ele><time>2026-04-04T09:21:12.999Z</time></trkpt><trkpt lat="39.01667478517907" lon="8.93113922059818"><ele>270.2</ele><time>2026-04-04T09:21:13.999Z</time></trkpt><trkpt lat="39.01668653706427" lon="8.931049272366357"><ele>264.59999999999997</ele><time>2026-04-04T09:21:14.999Z</time></trkpt><trkpt lat="39.01667289278493" lon="8.93090116049002"><ele>259.0</ele><time>2026-04-04T09:21:16.999Z</time></trkpt><trkpt lat="39.01667057439732" lon="8.930793356583282"><ele>257.16666666666663</ele><time>2026-04-04T09:21:17.999Z</time></trkpt><trkpt lat="39.016648832755436" lon="8.930690477468866"><ele>255.33333333333331</ele><time>2026-04-04T09:21:18.999Z</time></trkpt><trkpt lat="39.01662033443859" lon="8.930599884226147"><ele>253.5</ele><time>2026-04-04T09:21:19.999Z</time></trkpt><trkpt lat="39.01659518077748" lon="8.930419004186788"><ele>251.66666666666669</ele><time>2026-04-04T09:21:21.999Z</time></trkpt><trkpt lat="39.01657357702959" lon="8.930327990384669"><ele>249.83333333333334</ele><time>2026-04-04T09:21:22.999Z</time></trkpt><trkpt lat="39.01656094247181" lon="8.930241268510432"><ele>248.0</ele><time>2026-04-04T09:21:23.999Z</time></trkpt><trkpt lat="39.01653289783365" lon="8.930093981634847"><ele>248.0</ele><time>2026-04-04T09:21:25.999Z</time></trkpt><trkpt lat="39.016478538530556" lon="8.930046361935899"><ele>248.0</ele><time>2026-04-04T09:21:27.999Z</time></trkpt><trkpt lat="39.01644643304706" lon="8.9301232362333"><ele>248.0</ele><time>2026-04-04T09:21:29.999Z</time></trkpt><trkpt lat="39.016357645792" lon="8.930165560570497"><ele>248.0</ele><time>2026-04-04T09:21:32.999Z</time></trkpt><trkpt lat="39.01631284380654" lon="8.930235905191573"><ele>248.0</ele><time>2026-04-04T09:21:34.998Z</time></trkpt><trkpt lat="39.01602117037423" lon="8.930446342922775"><ele>248.00000000000003</ele><time>2026-04-04T09:21:36.998Z</time></trkpt><trkpt lat="39.015946703714" lon="8.930411430647455"><ele>248.0</ele><time>2026-04-04T09:21:37.998Z</time></trkpt><trkpt lat="39.0158277093631" lon="8.93047322204319"><ele>248.0</ele><time>2026-04-04T09:21:39.998Z</time></trkpt><trkpt lat="39.01575898022634" lon="8.9305176276821"><ele>248.0</ele><time>2026-04-04T09:21:40.998Z</time></trkpt><trkpt lat="39.015682703755914" lon="8.930540949276786"><ele>248.00000000000003</ele><time>2026-04-04T09:21:41.998Z</time></trkpt><trkpt lat="39.015606256899176" lon="8.930561448609508"><ele>248.0</ele><time>2026-04-04T09:21:42.998Z</time></trkpt><trkpt lat="39.01548402605691" lon="8.930588873252798"><ele>244.4</ele><time>2026-04-04T09:21:44.998Z</time></trkpt><trkpt lat="39.0153448360821" lon="8.930634030343017"><ele>240.8</ele><time>2026-04-04T09:21:46.998Z</time></trkpt><trkpt lat="39.01526228864501" lon="8.930632666175887"><ele>237.2</ele><time>2026-04-04T09:21:47.998Z</time></trkpt><trkpt lat="39.0151999790364" lon="8.930603018213297"><ele>233.6</ele><time>2026-04-04T09:21:48.998Z</time></trkpt><trkpt lat="39.01508200021527" lon="8.93055005117388"><ele>230.0</ele><time>2026-04-04T09:21:50.998Z</time></trkpt><trkpt lat="39.01501552120499" lon="8.930548875062955"><ele>230.83333333333334</ele><time>2026-04-04T09:21:51.998Z</time></trkpt><trkpt lat="39.01494160802761" lon="8.930553413542151"><ele>231.66666666666669</ele><time>2026-04-04T09:21:52.998Z</time></trkpt><trkpt lat="39.01487682448235" lon="8.930561230386049"><ele>232.5</ele><time>2026-04-04T09:21:53.998Z</time></trkpt><trkpt lat="39.014757017686826" lon="8.930632306167942"><ele>233.33333333333331</ele><time>2026-04-04T09:21:55.998Z</time></trkpt><trkpt lat="39.014692329050575" lon="8.930657504158967"><ele>234.16666666666666</ele><time>2026-04-04T09:21:56.998Z</time></trkpt><trkpt lat="39.014630561639535" lon="8.930639169984133"><ele>235.0</ele><time>2026-04-04T09:21:57.998Z</time></trkpt><trkpt lat="39.01456103694457" lon="8.930517800626971"><ele>234.99999999999997</ele><time>2026-04-04T09:21:59.998Z</time></trkpt><trkpt lat="39.014498558670184" lon="8.930473099604564"><ele>235.0</ele><time>2026-04-04T09:22:00.998Z</time></trkpt><trkpt lat="39.014433707458764" lon="8.930427651438865"><ele>235.0</ele><time>2026-04-04T09:22:01.998Z</time></trkpt><trkpt lat="39.01435966909721" lon="8.930399779157883"><ele>235.0</ele><time>2026-04-04T09:22:02.998Z</time></trkpt><trkpt lat="39.014287367513816" lon="8.930363770295157"><ele>234.99999999999997</ele><time>2026-04-04T09:22:03.998Z</time></trkpt><trkpt lat="39.014222667380565" lon="8.930292354210312"><ele>235.0</ele><time>2026-04-04T09:22:04.998Z</time></trkpt><trkpt lat="39.01415718769708" lon="8.930201274783215"><ele>232.83333333333331</ele><time>2026-04-04T09:22:05.998Z</time></trkpt><trkpt lat="39.01409821101251" lon="8.93011149502944"><ele>230.66666666666666</ele><time>2026-04-04T09:22:06.998Z</time></trkpt><trkpt lat="39.01403682601175" lon="8.930037993767353"><ele>228.5</ele><time>2026-04-04T09:22:07.998Z</time></trkpt><trkpt lat="39.01399777361763" lon="8.92996251980272"><ele>226.33333333333331</ele><time>2026-04-04T09:22:08.998Z</time></trkpt><trkpt lat="39.013967352494916" lon="8.929888051742711"><ele>224.16666666666666</ele><time>2026-04-04T09:22:10Z</time></trkpt><trkpt lat="39.01394893749569" lon="8.929805766727945"><ele>222.0</ele><time>2026-04-04T09:22:11Z</time></trkpt><trkpt lat="39.0139454504885" lon="8.929712465294916"><ele>222.0</ele><time>2026-04-04T09:22:12Z</time></trkpt><trkpt lat="39.013927267667704" lon="8.929608278245974"><ele>222.0</ele><time>2026-04-04T09:22:13Z</time></trkpt><trkpt lat="39.01392695362627" lon="8.929514465561468"><ele>222.0</ele><time>2026-04-04T09:22:14Z</time></trkpt><trkpt lat="39.01388786388688" lon="8.92944919132232"><ele>222.0</ele><time>2026-04-04T09:22:15Z</time></trkpt><trkpt lat="39.01384416490311" lon="8.92938475391606"><ele>222.0</ele><time>2026-04-04T09:22:16Z</time></trkpt><trkpt lat="39.013778496176386" lon="8.929332226408889"><ele>222.0</ele><time>2026-04-04T09:22:17Z</time></trkpt><trkpt lat="39.013712006985514" lon="8.929280553207821"><ele>222.0</ele><time>2026-04-04T09:22:18Z</time></trkpt><trkpt lat="39.0136458778901" lon="8.92922543732525"><ele>217.33333333333334</ele><time>2026-04-04T09:22:19Z</time></trkpt><trkpt lat="39.0135735311532" lon="8.929177477523748"><ele>212.66666666666669</ele><time>2026-04-04T09:22:20Z</time></trkpt><trkpt lat="39.01349996338907" lon="8.92914352730049"><ele>208.0</ele><time>2026-04-04T09:22:21Z</time></trkpt><trkpt lat="39.013439062129095" lon="8.929115151090127"><ele>203.33333333333334</ele><time>2026-04-04T09:22:22Z</time></trkpt><trkpt lat="39.01337738204525" lon="8.929085784684588"><ele>198.66666666666669</ele><time>2026-04-04T09:22:23Z</time></trkpt><trkpt lat="39.013286458942694" lon="8.929035802418818"><ele>194.0</ele><time>2026-04-04T09:22:25Z</time></trkpt><trkpt lat="39.01322975313429" lon="8.928995553244588"><ele>194.0</ele><time>2026-04-04T09:22:26Z</time></trkpt><trkpt lat="39.01316432257472" lon="8.928955840405626"><ele>194.0</ele><time>2026-04-04T09:22:27Z</time></trkpt><trkpt lat="39.01309884176244" lon="8.928895955230152"><ele>194.0</ele><time>2026-04-04T09:22:28Z</time></trkpt><trkpt lat="39.01304124263493" lon="8.928840286696149"><ele>194.0</ele><time>2026-04-04T09:22:29Z</time></trkpt><trkpt lat="39.012984971895534" lon="8.928788146638576"><ele>194.0</ele><time>2026-04-04T09:22:30Z</time></trkpt><trkpt lat="39.01292592569684" lon="8.928729766651623"><ele>194.0</ele><time>2026-04-04T09:22:31Z</time></trkpt><trkpt lat="39.012866795499825" lon="8.928688139160805"><ele>194.0</ele><time>2026-04-04T09:22:32Z</time></trkpt><trkpt lat="39.01279683572026" lon="8.9286500728614"><ele>194.00000000000003</ele><time>2026-04-04T09:22:33Z</time></trkpt><trkpt lat="39.01272508816213" lon="8.928623903188932"><ele>194.0</ele><time>2026-04-04T09:22:34Z</time></trkpt><trkpt lat="39.01266049452953" lon="8.928595415804901"><ele>194.0</ele><time>2026-04-04T09:22:35Z</time></trkpt><trkpt lat="39.01259552293773" lon="8.928560508856348"><ele>194.0</ele><time>2026-04-04T09:22:36Z</time></trkpt><trkpt lat="39.01249880117163" lon="8.928484392230317"><ele>194.00000000000003</ele><time>2026-04-04T09:22:38Z</time></trkpt><trkpt lat="39.012412399892014" lon="8.928417110804435"><ele>194.0</ele><time>2026-04-04T09:22:40Z</time></trkpt><trkpt lat="39.01233053862066" lon="8.928353355103361"><ele>186.39999999999998</ele><time>2026-04-04T09:22:42Z</time></trkpt><trkpt lat="39.01223776953048" lon="8.928277494484343"><ele>178.79999999999998</ele><time>2026-04-04T09:22:44Z</time></trkpt><trkpt lat="39.012094214467346" lon="8.928176822880575"><ele>171.2</ele><time>2026-04-04T09:22:47Z</time></trkpt><trkpt lat="39.012020983568924" lon="8.928137331546932"><ele>163.6</ele><time>2026-04-04T09:22:48.999Z</time></trkpt><trkpt lat="39.01194786877798" lon="8.928132774163942"><ele>156.0</ele><time>2026-04-04T09:22:51.999Z</time></trkpt><trkpt lat="39.011867769054" lon="8.928115886595661"><ele>156.0</ele><time>2026-04-04T09:22:54.999Z</time></trkpt><trkpt lat="39.011837713571694" lon="8.92801704804293"><ele>156.0</ele><time>2026-04-04T09:23:04.999Z</time></trkpt><trkpt lat="39.01184318846921" lon="8.927936168519171"><ele>156.0</ele><time>2026-04-04T09:23:06.999Z</time></trkpt><trkpt lat="39.01182333183649" lon="8.927846615892161"><ele>156.0</ele><time>2026-04-04T09:23:08.999Z</time></trkpt><trkpt lat="39.01183060193586" lon="8.927688990899467"><ele>156.0</ele><time>2026-04-04T09:23:09.999Z</time></trkpt><trkpt lat="39.011810243107654" lon="8.927589069519538"><ele>156.0</ele><time>2026-04-04T09:23:12.999Z</time></trkpt><trkpt lat="39.01176479057026" lon="8.92745381714826"><ele>155.83333333333334</ele><time>2026-04-04T09:23:15.999Z</time></trkpt><trkpt lat="39.011738843155676" lon="8.927351097262537"><ele>155.66666666666666</ele><time>2026-04-04T09:23:18.999Z</time></trkpt><trkpt lat="39.01174100997089" lon="8.927258204806769"><ele>155.5</ele><time>2026-04-04T09:23:20.999Z</time></trkpt><trkpt lat="39.01174757033728" lon="8.92716877129347"><ele>155.33333333333331</ele><time>2026-04-04T09:23:25.999Z</time></trkpt><trkpt lat="39.01169719155506" lon="8.927087871345051"><ele>155.16666666666666</ele><time>2026-04-04T09:23:28.999Z</time></trkpt><trkpt lat="39.01162752316687" lon="8.92706781431792"><ele>155.0</ele><time>2026-04-04T09:23:32.998Z</time></trkpt><trkpt lat="39.01156249802338" lon="8.926973471140558"><ele>158.0</ele><time>2026-04-04T09:23:35.998Z</time></trkpt><trkpt lat="39.011533179662116" lon="8.926879565104112"><ele>161.0</ele><time>2026-04-04T09:23:37.998Z</time></trkpt><trkpt lat="39.01149917030976" lon="8.926784413706349"><ele>164.0</ele><time>2026-04-04T09:23:40.998Z</time></trkpt><trkpt lat="39.01149971336306" lon="8.92670299733985"><ele>167.0</ele><time>2026-04-04T09:23:43.998Z</time></trkpt><trkpt lat="39.01144018198286" lon="8.926676143299531"><ele>170.0</ele><time>2026-04-04T09:24:01.998Z</time></trkpt><trkpt lat="39.011389625690676" lon="8.926726566594555"><ele>173.0</ele><time>2026-04-04T09:24:08.998Z</time></trkpt><trkpt lat="39.01130809282306" lon="8.926840117258614"><ele>173.0</ele><time>2026-04-04T09:24:10.998Z</time></trkpt><trkpt lat="39.011269504439184" lon="8.926905789063579"><ele>173.0</ele><time>2026-04-04T09:24:12.998Z</time></trkpt><trkpt lat="39.01121833503815" lon="8.926835228307276"><ele>173.0</ele><time>2026-04-04T09:25:03.999Z</time></trkpt><trkpt lat="39.01121534872594" lon="8.926740332257038"><ele>173.0</ele><time>2026-04-04T09:25:05.999Z</time></trkpt><trkpt lat="39.01121731534292" lon="8.92659604222368"><ele>173.0</ele><time>2026-04-04T09:25:07.999Z</time></trkpt><trkpt lat="39.011219765085634" lon="8.926502305556102"><ele>173.0</ele><time>2026-04-04T09:25:09.999Z</time></trkpt><trkpt lat="39.01115261510983" lon="8.92647785156951"><ele>174.83333333333331</ele><time>2026-04-04T09:25:13.999Z</time></trkpt><trkpt lat="39.011093391131524" lon="8.926511731885697"><ele>176.66666666666666</ele><time>2026-04-04T09:25:17.999Z</time></trkpt><trkpt lat="39.01107216222323" lon="8.926426806951147"><ele>178.5</ele><time>2026-04-04T09:25:40.998Z</time></trkpt><trkpt lat="39.01107303556486" lon="8.926325711174346"><ele>180.33333333333334</ele><time>2026-04-04T09:25:42.998Z</time></trkpt><trkpt lat="39.01104014024498" lon="8.926248682076919"><ele>182.16666666666669</ele><time>2026-04-04T09:25:44.998Z</time></trkpt><trkpt lat="39.01099965014807" lon="8.926117264368997"><ele>184.0</ele><time>2026-04-04T09:25:46.998Z</time></trkpt><trkpt lat="39.01094872112705" lon="8.925979265567538"><ele>184.0</ele><time>2026-04-04T09:25:48.998Z</time></trkpt><trkpt lat="39.01087545484754" lon="8.925981456670268"><ele>184.0</ele><time>2026-04-04T09:25:54.998Z</time></trkpt><trkpt lat="39.010840024560025" lon="8.925913054804008"><ele>184.0</ele><time>2026-04-04T09:25:59.998Z</time></trkpt><trkpt lat="39.01081476810032" lon="8.925826025470558"><ele>184.0</ele><time>2026-04-04T09:26:01.998Z</time></trkpt><trkpt lat="39.01080075311065" lon="8.925721033244269"><ele>184.0</ele><time>2026-04-04T09:26:03.998Z</time></trkpt><trkpt lat="39.01074702344307" lon="8.925637255590896"><ele>184.0</ele><time>2026-04-04T09:26:05.998Z</time></trkpt><trkpt lat="39.01068778701154" lon="8.92554574337707"><ele>189.16666666666669</ele><time>2026-04-04T09:26:07.998Z</time></trkpt><trkpt lat="39.01063625057697" lon="8.925428946145118"><ele>194.33333333333334</ele><time>2026-04-04T09:26:09.998Z</time></trkpt><trkpt lat="39.01058527693267" lon="8.925326219152815"><ele>199.5</ele><time>2026-04-04T09:26:11.998Z</time></trkpt><trkpt lat="39.010554067312384" lon="8.925255653089536"><ele>204.66666666666669</ele><time>2026-04-04T09:26:12.998Z</time></trkpt><trkpt lat="39.010519996425096" lon="8.925180236412357"><ele>209.83333333333334</ele><time>2026-04-04T09:26:14.998Z</time></trkpt><trkpt lat="39.01044920607587" lon="8.925137363860614"><ele>215.0</ele><time>2026-04-04T09:26:17.997Z</time></trkpt><trkpt lat="39.010378059146014" lon="8.925094701015592"><ele>214.83333333333334</ele><time>2026-04-04T09:26:19.997Z</time></trkpt><trkpt lat="39.010329490273" lon="8.925033265807972"><ele>214.66666666666669</ele><time>2026-04-04T09:26:22Z</time></trkpt><trkpt lat="39.010247680636674" lon="8.92498308445741"><ele>214.5</ele><time>2026-04-04T09:26:24Z</time></trkpt><trkpt lat="39.010163799219285" lon="8.924879620401502"><ele>214.33333333333331</ele><time>2026-04-04T09:26:26Z</time></trkpt><trkpt lat="39.01011433139711" lon="8.924819143614467"><ele>214.16666666666666</ele><time>2026-04-04T09:26:27Z</time></trkpt><trkpt lat="39.010066293711134" lon="8.924754137883626"><ele>214.0</ele><time>2026-04-04T09:26:28Z</time></trkpt><trkpt lat="39.0100226866269" lon="8.924680238039965"><ele>219.6</ele><time>2026-04-04T09:26:29Z</time></trkpt><trkpt lat="39.00995660055293" lon="8.924561351492668"><ele>225.2</ele><time>2026-04-04T09:26:31Z</time></trkpt><trkpt lat="39.00986165308681" lon="8.924465712140321"><ele>230.79999999999998</ele><time>2026-04-04T09:26:33Z</time></trkpt><trkpt lat="39.0097884135589" lon="8.924398958200856"><ele>236.39999999999998</ele><time>2026-04-04T09:26:35Z</time></trkpt><trkpt lat="39.00973374773784" lon="8.924326697276845"><ele>242.0</ele><time>2026-04-04T09:26:37Z</time></trkpt><trkpt lat="39.009678477932084" lon="8.924265995356734"><ele>242.00000000000003</ele><time>2026-04-04T09:27:17.999Z</time></trkpt><trkpt lat="39.00970326504079" lon="8.924385886736783"><ele>242.0</ele><time>2026-04-04T09:27:31.999Z</time></trkpt><trkpt lat="39.009691932157175" lon="8.924474623795524"><ele>242.0</ele><time>2026-04-04T09:27:39.998Z</time></trkpt><trkpt lat="39.00964597313159" lon="8.924385266207592"><ele>242.0</ele><time>2026-04-04T09:27:48.998Z</time></trkpt><trkpt lat="39.009583054201926" lon="8.924342956626615"><ele>242.00000000000003</ele><time>2026-04-04T09:28:14.998Z</time></trkpt><trkpt lat="39.009603337305585" lon="8.924454747619253"><ele>242.0</ele><time>2026-04-04T09:29:39.999Z</time></trkpt><trkpt lat="39.00963604350987" lon="8.92455245604825"><ele>242.00000000000003</ele><time>2026-04-04T09:29:42.999Z</time></trkpt><trkpt lat="39.00966326189269" lon="8.924635250327276"><ele>242.0</ele><time>2026-04-04T09:30:01.998Z</time></trkpt><trkpt lat="39.00960044644372" lon="8.924673359199767"><ele>242.0</ele><time>2026-04-04T09:30:46Z</time></trkpt><trkpt lat="39.00963349998344" lon="8.924768525351212"><ele>242.0</ele><time>2026-04-04T09:32:23.998Z</time></trkpt><trkpt lat="39.00965241024781" lon="8.924879769010339"><ele>242.00000000000003</ele><time>2026-04-04T09:32:26.998Z</time></trkpt><trkpt lat="39.00966207034889" lon="8.9250051383798"><ele>242.0</ele><time>2026-04-04T09:32:28.997Z</time></trkpt><trkpt lat="39.009653403456035" lon="8.925086093544598"><ele>242.00000000000003</ele><time>2026-04-04T09:32:30.997Z</time></trkpt><trkpt lat="39.00958994109926" lon="8.925082324327485"><ele>242.0</ele><time>2026-04-04T09:33:05.999Z</time></trkpt><trkpt lat="39.00955425890504" lon="8.924977027884436"><ele>242.0</ele><time>2026-04-04T09:33:07.999Z</time></trkpt><trkpt lat="39.00950863845809" lon="8.92486790653456"><ele>242.0</ele><time>2026-04-04T09:33:09.999Z</time></trkpt><trkpt lat="39.00946774792859" lon="8.924804211622462"><ele>242.00000000000003</ele><time>2026-04-04T09:33:10.999Z</time></trkpt><trkpt lat="39.00940471366711" lon="8.924696167950287"><ele>242.0</ele><time>2026-04-04T09:33:12.999Z</time></trkpt><trkpt lat="39.00935861031941" lon="8.924768033165103"><ele>242.0</ele><time>2026-04-04T09:33:19.999Z</time></trkpt><trkpt lat="39.00930824388106" lon="8.924699719045966"><ele>241.99999999999997</ele><time>2026-04-04T09:33:27.999Z</time></trkpt><trkpt lat="39.009245711111035" lon="8.92466308268304"><ele>242.0</ele><time>2026-04-04T09:33:31.999Z</time></trkpt><trkpt lat="39.00923111315681" lon="8.924749002589984"><ele>242.0</ele><time>2026-04-04T09:33:34.999Z</time></trkpt><trkpt lat="39.009177948078936" lon="8.924807910363121"><ele>241.99999999999997</ele><time>2026-04-04T09:33:37.999Z</time></trkpt><trkpt lat="39.009120491006016" lon="8.924888627762282"><ele>242.0</ele><time>2026-04-04T09:33:40.999Z</time></trkpt><trkpt lat="39.00905285892051" lon="8.924950457827292"><ele>242.0</ele><time>2026-04-04T09:33:42.999Z</time></trkpt><trkpt lat="39.00895300969678" lon="8.92497216504"><ele>243.2</ele><time>2026-04-04T09:33:44.999Z</time></trkpt><trkpt lat="39.008840914898364" lon="8.925011660202639"><ele>244.39999999999998</ele><time>2026-04-04T09:33:46.999Z</time></trkpt><trkpt lat="39.00873820528605" lon="8.925030797437575"><ele>245.60000000000002</ele><time>2026-04-04T09:33:48.999Z</time></trkpt><trkpt lat="39.008647249588925" lon="8.92505493116786"><ele>246.8</ele><time>2026-04-04T09:33:50.998Z</time></trkpt><trkpt lat="39.00854667377435" lon="8.925046277840957"><ele>248.0</ele><time>2026-04-04T09:33:53.998Z</time></trkpt><trkpt lat="39.008480541473254" lon="8.925012467850893"><ele>248.00000000000003</ele><time>2026-04-04T09:33:55.998Z</time></trkpt><trkpt lat="39.00843003565423" lon="8.92495751804968"><ele>248.0</ele><time>2026-04-04T09:33:57.998Z</time></trkpt><trkpt lat="39.00836589912711" lon="8.924891201633717"><ele>248.0</ele><time>2026-04-04T09:33:59.998Z</time></trkpt><trkpt lat="39.0082905800868" lon="8.924803863725241"><ele>248.0</ele><time>2026-04-04T09:34:01.998Z</time></trkpt><trkpt lat="39.00820952551346" lon="8.924769628971124"><ele>248.00000000000003</ele><time>2026-04-04T09:34:03.998Z</time></trkpt><trkpt lat="39.00813287046385" lon="8.924752861083087"><ele>248.0</ele><time>2026-04-04T09:34:05.998Z</time></trkpt><trkpt lat="39.00804667611518" lon="8.924737137946806"><ele>246.14285714285717</ele><time>2026-04-04T09:34:09.998Z</time></trkpt><trkpt lat="39.007973611611746" lon="8.924731813651526"><ele>244.2857142857143</ele><time>2026-04-04T09:34:17.998Z</time></trkpt><trkpt lat="39.00790790000966" lon="8.924741477728945"><ele>242.42857142857144</ele><time>2026-04-04T09:34:19.998Z</time></trkpt><trkpt lat="39.00782925094565" lon="8.924744044987193"><ele>240.57142857142856</ele><time>2026-04-04T09:34:21.998Z</time></trkpt><trkpt lat="39.007749947366825" lon="8.924732477611123"><ele>238.7142857142857</ele><time>2026-04-04T09:34:23.998Z</time></trkpt><trkpt lat="39.00768919476299" lon="8.924709668977288"><ele>236.85714285714283</ele><time>2026-04-04T09:34:26.998Z</time></trkpt><trkpt lat="39.007621993370165" lon="8.924638398910405"><ele>235.0</ele><time>2026-04-04T09:34:29.998Z</time></trkpt><trkpt lat="39.007549851254545" lon="8.924571259106338"><ele>235.83333333333331</ele><time>2026-04-04T09:34:32.998Z</time></trkpt><trkpt lat="39.00749217728195" lon="8.924500488026176"><ele>236.66666666666666</ele><time>2026-04-04T09:34:34.998Z</time></trkpt><trkpt lat="39.007434799921555" lon="8.924443656179037"><ele>237.5</ele><time>2026-04-04T09:34:35.997Z</time></trkpt><trkpt lat="39.0073874959149" lon="8.9243860809282"><ele>238.33333333333331</ele><time>2026-04-04T09:34:36.997Z</time></trkpt><trkpt lat="39.0073035976359" lon="8.924297967725701"><ele>239.16666666666666</ele><time>2026-04-04T09:34:38.997Z</time></trkpt><trkpt lat="39.00726370586292" lon="8.924186503613196"><ele>240.0</ele><time>2026-04-04T09:34:40.997Z</time></trkpt><trkpt lat="39.00720507796422" lon="8.924116836225059"><ele>240.0</ele><time>2026-04-04T09:34:42.997Z</time></trkpt><trkpt lat="39.00714207633756" lon="8.924051302948433"><ele>240.0</ele><time>2026-04-04T09:34:44.997Z</time></trkpt><trkpt lat="39.00709433375309" lon="8.923953717671115"><ele>240.0</ele><time>2026-04-04T09:34:47Z</time></trkpt><trkpt lat="39.0070304750253" lon="8.923833396348755"><ele>240.0</ele><time>2026-04-04T09:34:51Z</time></trkpt><trkpt lat="39.006983974014446" lon="8.923751814948067"><ele>240.0</ele><time>2026-04-04T09:34:53Z</time></trkpt><trkpt lat="39.00692901606924" lon="8.923684951279107"><ele>240.0</ele><time>2026-04-04T09:34:55Z</time></trkpt><trkpt lat="39.006860069289004" lon="8.923613538456468"><ele>240.0</ele><time>2026-04-04T09:34:57Z</time></trkpt><trkpt lat="39.00677103020598" lon="8.923539011481617"><ele>240.0</ele><time>2026-04-04T09:34:59Z</time></trkpt><trkpt lat="39.006665498800736" lon="8.92345834203492"><ele>240.0</ele><time>2026-04-04T09:35:01Z</time></trkpt><trkpt lat="39.00659527882892" lon="8.92342545189541"><ele>240.0</ele><time>2026-04-04T09:35:02Z</time></trkpt><trkpt lat="39.00651066021382" lon="8.923390807699082"><ele>240.0</ele><time>2026-04-04T09:35:04Z</time></trkpt><trkpt lat="39.006451484558625" lon="8.923361977233306"><ele>242.16666666666666</ele><time>2026-04-04T09:35:05Z</time></trkpt><trkpt lat="39.00636775275413" lon="8.923323795786033"><ele>244.33333333333331</ele><time>2026-04-04T09:35:09Z</time></trkpt><trkpt lat="39.006306401602906" lon="8.923286839118093"><ele>246.5</ele><time>2026-04-04T09:35:10Z</time></trkpt><trkpt lat="39.00624449267166" lon="8.923247331198722"><ele>248.66666666666666</ele><time>2026-04-04T09:35:12Z</time></trkpt><trkpt lat="39.006170933246636" lon="8.923172186187493"><ele>250.83333333333331</ele><time>2026-04-04T09:35:15Z</time></trkpt><trkpt lat="39.00610410203872" lon="8.923107111707049"><ele>253.0</ele><time>2026-04-04T09:35:17Z</time></trkpt><trkpt lat="39.00602484795552" lon="8.92302020330666"><ele>253.0</ele><time>2026-04-04T09:35:18.999Z</time></trkpt><trkpt lat="39.00593243522053" lon="8.922997453175833"><ele>253.0</ele><time>2026-04-04T09:35:20.999Z</time></trkpt><trkpt lat="39.00586462309163" lon="8.923019286384127"><ele>253.0</ele><time>2026-04-04T09:35:22.999Z</time></trkpt><trkpt lat="39.005785123989774" lon="8.923010313595121"><ele>253.0</ele><time>2026-04-04T09:35:24.999Z</time></trkpt><trkpt lat="39.0056732522005" lon="8.922971147832374"><ele>253.0</ele><time>2026-04-04T09:35:26.999Z</time></trkpt><trkpt lat="39.00556427672026" lon="8.922950135198956"><ele>257.00000000000006</ele><time>2026-04-04T09:35:28.999Z</time></trkpt><trkpt lat="39.00550119481394" lon="8.922936906384052"><ele>261.0</ele><time>2026-04-04T09:35:29.999Z</time></trkpt><trkpt lat="39.00542862158776" lon="8.922945621716924"><ele>265.0</ele><time>2026-04-04T09:35:31.999Z</time></trkpt><trkpt lat="39.005373157903904" lon="8.923022788536661"><ele>269.0</ele><time>2026-04-04T09:35:34.999Z</time></trkpt><trkpt lat="39.00533038917172" lon="8.92309519456346"><ele>273.0</ele><time>2026-04-04T09:35:38.999Z</time></trkpt><trkpt lat="39.00530575720533" lon="8.92318154168161"><ele>277.00000000000006</ele><time>2026-04-04T09:35:41.999Z</time></trkpt><trkpt lat="39.005294627859705" lon="8.923283455483368"><ele>281.0</ele><time>2026-04-04T09:35:44.999Z</time></trkpt><trkpt lat="39.00533282712956" lon="8.923414807949163"><ele>281.14285714285717</ele><time>2026-04-04T09:35:48.999Z</time></trkpt><trkpt lat="39.00534285888552" lon="8.923500405460722"><ele>281.2857142857143</ele><time>2026-04-04T09:35:51.999Z</time></trkpt><trkpt lat="39.005379799508006" lon="8.923577759230145"><ele>281.42857142857144</ele><time>2026-04-04T09:35:53.999Z</time></trkpt><trkpt lat="39.00542936847561" lon="8.923682088854017"><ele>281.57142857142856</ele><time>2026-04-04T09:35:56.999Z</time></trkpt><trkpt lat="39.00544933027775" lon="8.92376045110129"><ele>281.7142857142857</ele><time>2026-04-04T09:35:58.999Z</time></trkpt><trkpt lat="39.005460694535465" lon="8.923842394939737"><ele>281.8571428571429</ele><time>2026-04-04T09:36:01.999Z</time></trkpt><trkpt lat="39.00546906778594" lon="8.923928749307986"><ele>282.0</ele><time>2026-04-04T09:36:04.998Z</time></trkpt><trkpt lat="39.005495639689954" lon="8.924028864848786"><ele>282.0</ele><time>2026-04-04T09:36:08.998Z</time></trkpt><trkpt lat="39.0054324059586" lon="8.924030913010538"><ele>282.0</ele><time>2026-04-04T09:36:36.998Z</time></trkpt><trkpt lat="39.00539282897848" lon="8.92411282807654"><ele>282.0</ele><time>2026-04-04T09:36:43.998Z</time></trkpt><trkpt lat="39.005395700377356" lon="8.924218486313668"><ele>282.0</ele><time>2026-04-04T09:36:46.998Z</time></trkpt><trkpt lat="39.00536846900351" lon="8.924316191864689"><ele>282.0</ele><time>2026-04-04T09:36:48.998Z</time></trkpt><trkpt lat="39.00529728860604" lon="8.924351096339748"><ele>282.0</ele><time>2026-04-04T09:36:52Z</time></trkpt><trkpt lat="39.00521030512919" lon="8.924398291866986"><ele>282.0</ele><time>2026-04-04T09:36:54Z</time></trkpt><trkpt lat="39.005166274287745" lon="8.924456625886126"><ele>282.0</ele><time>2026-04-04T09:37:51.999Z</time></trkpt><trkpt lat="39.005213760892836" lon="8.924374806377294"><ele>282.0</ele><time>2026-04-04T09:46:03.999Z</time></trkpt><trkpt lat="39.00518843565276" lon="8.924295072517914"><ele>282.0</ele><time>2026-04-04T09:46:05.999Z</time></trkpt><trkpt lat="39.00511200372812" lon="8.924215129721741"><ele>282.0</ele><time>2026-04-04T09:46:07.999Z</time></trkpt><trkpt lat="39.00506210770731" lon="8.924123349515522"><ele>282.0</ele><time>2026-04-04T09:46:09.999Z</time></trkpt><trkpt lat="39.00500793270073" lon="8.924040855346556"><ele>286.5</ele><time>2026-04-04T09:46:11.999Z</time></trkpt><trkpt lat="39.00497127235379" lon="8.923963630416692"><ele>291.0</ele><time>2026-04-04T09:46:13.999Z</time></trkpt><trkpt lat="39.00493146538577" lon="8.924042273884702"><ele>295.5</ele><time>2026-04-04T09:46:19.999Z</time></trkpt><trkpt lat="39.004897617382525" lon="8.924196964486134"><ele>300.0</ele><time>2026-04-04T09:46:21.999Z</time></trkpt><trkpt lat="39.00487966236312" lon="8.924277341082847"><ele>304.5</ele><time>2026-04-04T09:46:24.999Z</time></trkpt><trkpt lat="39.00482520812854" lon="8.924204251974519"><ele>309.0</ele><time>2026-04-04T09:46:29.999Z</time></trkpt><trkpt lat="39.004776117208216" lon="8.924087360222426"><ele>309.0</ele><time>2026-04-04T09:46:32.999Z</time></trkpt><trkpt lat="39.00474575516625" lon="8.924004603405399"><ele>309.0</ele><time>2026-04-04T09:46:35.998Z</time></trkpt><trkpt lat="39.00471941782984" lon="8.923900461351966"><ele>309.0</ele><time>2026-04-04T09:46:47.998Z</time></trkpt><trkpt lat="39.0046606511266" lon="8.923937962953769"><ele>309.0</ele><time>2026-04-04T09:46:58.998Z</time></trkpt><trkpt lat="39.00464406463214" lon="8.924031910721418"><ele>309.0</ele><time>2026-04-04T09:47:00.998Z</time></trkpt><trkpt lat="39.00461454157446" lon="8.924145897034723"><ele>309.0</ele><time>2026-04-04T09:47:02.998Z</time></trkpt><trkpt lat="39.00459557967208" lon="8.924260642446328"><ele>309.0</ele><time>2026-04-04T09:47:04.998Z</time></trkpt><trkpt lat="39.004538397818564" lon="8.924354001719298"><ele>309.0</ele><time>2026-04-04T09:47:06.998Z</time></trkpt><trkpt lat="39.00447020377121" lon="8.924452247497708"><ele>309.0</ele><time>2026-04-04T09:47:08.998Z</time></trkpt><trkpt lat="39.00443741273953" lon="8.924522931409964"><ele>309.0</ele><time>2026-04-04T09:47:09.998Z</time></trkpt><trkpt lat="39.00438028738117" lon="8.92463062966512"><ele>309.0</ele><time>2026-04-04T09:47:11.998Z</time></trkpt><trkpt lat="39.00431755781524" lon="8.924717650959996"><ele>309.00000000000006</ele><time>2026-04-04T09:47:13.998Z</time></trkpt><trkpt lat="39.004267738338356" lon="8.924818800979892"><ele>309.0</ele><time>2026-04-04T09:47:15.998Z</time></trkpt><trkpt lat="39.00426737493664" lon="8.924900827995465"><ele>309.0</ele><time>2026-04-04T09:47:17.998Z</time></trkpt><trkpt lat="39.00420234100532" lon="8.92488138317852"><ele>309.0</ele><time>2026-04-04T09:48:32.999Z</time></trkpt><trkpt lat="39.004138959089545" lon="8.924902419460768"><ele>309.0</ele><time>2026-04-04T09:48:43.998Z</time></trkpt><trkpt lat="39.00409386392361" lon="8.924815740767489"><ele>309.00000000000006</ele><time>2026-04-04T09:48:51.998Z</time></trkpt><trkpt lat="39.00405664581876" lon="8.92474089260288"><ele>309.0</ele><time>2026-04-04T09:48:54.998Z</time></trkpt><trkpt lat="39.00408751137442" lon="8.924659431130983"><ele>310.1666666666667</ele><time>2026-04-04T09:48:56.998Z</time></trkpt><trkpt lat="39.00407640265315" lon="8.924566591808436"><ele>311.3333333333333</ele><time>2026-04-04T09:48:59.998Z</time></trkpt><trkpt lat="39.00409008181703" lon="8.924474713293174"><ele>312.5</ele><time>2026-04-04T09:49:01.998Z</time></trkpt><trkpt lat="39.00406259269415" lon="8.924399335126596"><ele>313.66666666666663</ele><time>2026-04-04T09:49:04.998Z</time></trkpt><trkpt lat="39.00398981399166" lon="8.924457092871943"><ele>314.8333333333333</ele><time>2026-04-04T09:49:09.998Z</time></trkpt><trkpt lat="39.00392986379487" lon="8.924534969261979"><ele>316.0</ele><time>2026-04-04T09:49:12.998Z</time></trkpt><trkpt lat="39.00385888931949" lon="8.924584477311233"><ele>316.0</ele><time>2026-04-04T09:49:16.998Z</time></trkpt><trkpt lat="39.00378356255411" lon="8.924652597105915"><ele>316.0</ele><time>2026-04-04T09:49:19.998Z</time></trkpt><trkpt lat="39.00369597331918" lon="8.92472584282603"><ele>316.0</ele><time>2026-04-04T09:49:21.998Z</time></trkpt><trkpt lat="39.00361217858813" lon="8.92477275539075"><ele>316.0</ele><time>2026-04-04T09:49:49Z</time></trkpt><trkpt lat="39.00359431396112" lon="8.924870579524285"><ele>316.0</ele><time>2026-04-04T09:49:51Z</time></trkpt><trkpt lat="39.00361693998036" lon="8.92495834024695"><ele>316.0</ele><time>2026-04-04T09:49:52Z</time></trkpt><trkpt lat="39.003635682378075" lon="8.925053389006832"><ele>316.25</ele><time>2026-04-04T09:49:53Z</time></trkpt><trkpt lat="39.00364312966044" lon="8.925216791074229"><ele>316.5</ele><time>2026-04-04T09:49:55Z</time></trkpt><trkpt lat="39.00365893229898" lon="8.925371462282975"><ele>316.75</ele><time>2026-04-04T09:49:57Z</time></trkpt><trkpt lat="39.00364569556177" lon="8.925546278222136"><ele>317.0</ele><time>2026-04-04T09:49:59Z</time></trkpt><trkpt lat="39.00363968203942" lon="8.925659111419185"><ele>317.0</ele><time>2026-04-04T09:50:00Z</time></trkpt><trkpt lat="39.00362715145432" lon="8.9257572159599"><ele>317.0</ele><time>2026-04-04T09:50:01Z</time></trkpt><trkpt lat="39.00361392370831" lon="8.925872804508396"><ele>317.0</ele><time>2026-04-04T09:50:01.999Z</time></trkpt><trkpt lat="39.003584484881145" lon="8.926008516988201"><ele>317.0</ele><time>2026-04-04T09:50:02.999Z</time></trkpt><trkpt lat="39.00356467936547" lon="8.92614613124245"><ele>317.0</ele><time>2026-04-04T09:50:03.999Z</time></trkpt><trkpt lat="39.003545592120496" lon="8.92624852143432"><ele>317.0</ele><time>2026-04-04T09:50:04.999Z</time></trkpt><trkpt lat="39.003564592222936" lon="8.92637447556063"><ele>317.0</ele><time>2026-04-04T09:50:06.999Z</time></trkpt><trkpt lat="39.00356267767797" lon="8.926508826223097"><ele>317.0</ele><time>2026-04-04T09:50:08.999Z</time></trkpt><trkpt lat="39.00362087236735" lon="8.926641312647977"><ele>317.0</ele><time>2026-04-04T09:50:10.999Z</time></trkpt><trkpt lat="39.00366893890089" lon="8.926747761205663"><ele>317.0</ele><time>2026-04-04T09:50:12.999Z</time></trkpt><trkpt lat="39.00368623052104" lon="8.926838750327285"><ele>314.0</ele><time>2026-04-04T09:50:15.999Z</time></trkpt><trkpt lat="39.003635827641" lon="8.926932903238658"><ele>311.0</ele><time>2026-04-04T09:50:18.999Z</time></trkpt><trkpt lat="39.00358945308468" lon="8.927033603973593"><ele>308.0</ele><time>2026-04-04T09:50:20.999Z</time></trkpt><trkpt lat="39.00354078781641" lon="8.927116190477514"><ele>305.0</ele><time>2026-04-04T09:50:25.999Z</time></trkpt><trkpt lat="39.003467017892305" lon="8.927096419773454"><ele>302.0</ele><time>2026-04-04T09:50:29.999Z</time></trkpt><trkpt lat="39.003422075616534" lon="8.927179630984286"><ele>299.0</ele><time>2026-04-04T09:50:35.999Z</time></trkpt><trkpt lat="39.003426323968014" lon="8.927273814711606"><ele>299.0</ele><time>2026-04-04T09:50:39.999Z</time></trkpt><trkpt lat="39.00337389731143" lon="8.927337265306248"><ele>299.0</ele><time>2026-04-04T09:50:42.999Z</time></trkpt><trkpt lat="39.00331760703986" lon="8.92739092271717"><ele>299.0</ele><time>2026-04-04T09:51:02.998Z</time></trkpt><trkpt lat="39.0032345558292" lon="8.927420223332657"><ele>299.0</ele><time>2026-04-04T09:51:04.998Z</time></trkpt><trkpt lat="39.003177870208106" lon="8.92737259566884"><ele>299.0</ele><time>2026-04-04T09:51:06.998Z</time></trkpt><trkpt lat="39.00311114773402" lon="8.927384913041701"><ele>299.0</ele><time>2026-04-04T09:51:08.998Z</time></trkpt><trkpt lat="39.0030742321809" lon="8.927478071747965"><ele>299.0</ele><time>2026-04-04T09:51:10.998Z</time></trkpt><trkpt lat="39.00306576258011" lon="8.927591485345461"><ele>293.33333333333337</ele><time>2026-04-04T09:51:12.998Z</time></trkpt><trkpt lat="39.002988930172926" lon="8.927692203753343"><ele>287.6666666666667</ele><time>2026-04-04T09:51:14.998Z</time></trkpt><trkpt lat="39.00290062340129" lon="8.927734548340856"><ele>282.0</ele><time>2026-04-04T09:51:15.998Z</time></trkpt><trkpt lat="39.00282165917294" lon="8.927770702910058"><ele>276.3333333333333</ele><time>2026-04-04T09:51:16.998Z</time></trkpt><trkpt lat="39.00275629436509" lon="8.927811248020323"><ele>270.66666666666663</ele><time>2026-04-04T09:51:17.998Z</time></trkpt><trkpt lat="39.002702935469976" lon="8.927880551304025"><ele>265.0</ele><time>2026-04-04T09:51:19.998Z</time></trkpt><trkpt lat="39.00262184664286" lon="8.927903349217083"><ele>263.0</ele><time>2026-04-04T09:51:23.998Z</time></trkpt><trkpt lat="39.002422510559555" lon="8.92801220862995"><ele>261.0</ele><time>2026-04-04T09:51:25.998Z</time></trkpt><trkpt lat="39.00233924523854" lon="8.928051497683331"><ele>259.0</ele><time>2026-04-04T09:51:26.998Z</time></trkpt><trkpt lat="39.00222284589865" lon="8.928137217993555"><ele>257.0</ele><time>2026-04-04T09:51:28.998Z</time></trkpt><trkpt lat="39.00215894709775" lon="8.92818666983064"><ele>257.0</ele><time>2026-04-04T09:51:29.998Z</time></trkpt><trkpt lat="39.00208679598814" lon="8.928227325650768"><ele>257.0</ele><time>2026-04-04T09:51:30.997Z</time></trkpt><trkpt lat="39.00202217248625" lon="8.92826273830218"><ele>257.0</ele><time>2026-04-04T09:51:31.997Z</time></trkpt><trkpt lat="39.00191939486452" lon="8.92832119347933"><ele>257.0</ele><time>2026-04-04T09:51:34Z</time></trkpt><trkpt lat="39.00180972421295" lon="8.928413951910272"><ele>257.0</ele><time>2026-04-04T09:51:36Z</time></trkpt><trkpt lat="39.00176448146038" lon="8.928474194324071"><ele>255.33333333333334</ele><time>2026-04-04T09:51:37Z</time></trkpt><trkpt lat="39.00171875513819" lon="8.928560316128412"><ele>253.66666666666669</ele><time>2026-04-04T09:51:38Z</time></trkpt><trkpt lat="39.001682445207614" lon="8.928650007884409"><ele>252.0</ele><time>2026-04-04T09:51:39Z</time></trkpt><trkpt lat="39.001650692497904" lon="8.928743103180592"><ele>250.33333333333331</ele><time>2026-04-04T09:51:40Z</time></trkpt><trkpt lat="39.001617651584205" lon="8.92881856383701"><ele>248.66666666666666</ele><time>2026-04-04T09:51:41Z</time></trkpt><trkpt lat="39.001592093310954" lon="8.928901157423798"><ele>247.0</ele><time>2026-04-04T09:51:42Z</time></trkpt><trkpt lat="39.00156201340671" lon="8.928995304334258"><ele>242.49999999999997</ele><time>2026-04-04T09:51:43Z</time></trkpt><trkpt lat="39.001518474185445" lon="8.929109590103467"><ele>238.0</ele><time>2026-04-04T09:51:45Z</time></trkpt><trkpt lat="39.00148864587656" lon="8.929203800968125"><ele>233.5</ele><time>2026-04-04T09:51:48Z</time></trkpt><trkpt lat="39.00146233127903" lon="8.929305664498662"><ele>229.0</ele><time>2026-04-04T09:51:51Z</time></trkpt><trkpt lat="39.00141187357031" lon="8.929366856769672"><ele>224.49999999999997</ele><time>2026-04-04T09:51:55Z</time></trkpt><trkpt lat="39.001376982444796" lon="8.929442866492899"><ele>220.0</ele><time>2026-04-04T09:52:03Z</time></trkpt><trkpt lat="39.0013111718683" lon="8.929430882201896"><ele>218.14285714285714</ele><time>2026-04-04T09:52:11.999Z</time></trkpt><trkpt lat="39.001349197668965" lon="8.929502585417339"><ele>216.28571428571428</ele><time>2026-04-04T09:52:17.999Z</time></trkpt><trkpt lat="39.00133538368188" lon="8.92960786894031"><ele>214.42857142857144</ele><time>2026-04-04T09:52:21.999Z</time></trkpt><trkpt lat="39.001307175143054" lon="8.929680587226157"><ele>212.57142857142856</ele><time>2026-04-04T09:52:23.999Z</time></trkpt><trkpt lat="39.00133105938947" lon="8.929756578444906"><ele>210.71428571428572</ele><time>2026-04-04T09:52:28.999Z</time></trkpt><trkpt lat="39.00130054143703" lon="8.92982745755434"><ele>208.85714285714286</ele><time>2026-04-04T09:52:32.999Z</time></trkpt><trkpt lat="39.00124009240906" lon="8.929912924035564"><ele>207.0</ele><time>2026-04-04T09:53:23.998Z</time></trkpt><trkpt lat="39.00119239711382" lon="8.929971823002035"><ele>207.00000000000003</ele><time>2026-04-04T09:54:01Z</time></trkpt><trkpt lat="39.00113507208352" lon="8.930009388144935"><ele>207.0</ele><time>2026-04-04T09:54:26.999Z</time></trkpt><trkpt lat="39.00106668571128" lon="8.92999891868608"><ele>207.0</ele><time>2026-04-04T09:54:37.999Z</time></trkpt><trkpt lat="39.00101546534556" lon="8.930052543227605"><ele>207.0</ele><time>2026-04-04T09:54:47.999Z</time></trkpt><trkpt lat="39.00095642647908" lon="8.930096297493892"><ele>207.0</ele><time>2026-04-04T09:55:43.997Z</time></trkpt><trkpt lat="39.000931186072805" lon="8.930189556553454"><ele>207.00000000000003</ele><time>2026-04-04T09:55:50Z</time></trkpt><trkpt lat="39.00086270245704" lon="8.930189451720432"><ele>207.0</ele><time>2026-04-04T09:55:53Z</time></trkpt><trkpt lat="39.000787914801755" lon="8.930217517859594"><ele>201.8</ele><time>2026-04-04T09:55:56Z</time></trkpt><trkpt lat="39.00074735917082" lon="8.930293384635894"><ele>196.6</ele><time>2026-04-04T09:55:59Z</time></trkpt><trkpt lat="39.000703457944624" lon="8.930387884549619"><ele>191.4</ele><time>2026-04-04T09:56:03Z</time></trkpt><trkpt lat="39.000618361677326" lon="8.930465886665479"><ele>186.20000000000002</ele><time>2026-04-04T09:56:05Z</time></trkpt><trkpt lat="39.00053747889101" lon="8.93056319122325"><ele>181.0</ele><time>2026-04-04T09:56:07Z</time></trkpt><trkpt lat="39.00044756682675" lon="8.93065981124283"><ele>181.0</ele><time>2026-04-04T09:56:09Z</time></trkpt><trkpt lat="39.00039724276821" lon="8.930709523405739"><ele>181.0</ele><time>2026-04-04T09:56:10Z</time></trkpt><trkpt lat="39.000302889588575" lon="8.930802667365661"><ele>181.0</ele><time>2026-04-04T09:56:12Z</time></trkpt><trkpt lat="39.00022554533224" lon="8.930879020390174"><ele>181.0</ele><time>2026-04-04T09:56:14Z</time></trkpt><trkpt lat="39.000167359951526" lon="8.930934718765265"><ele>181.0</ele><time>2026-04-04T09:56:17Z</time></trkpt><trkpt lat="39.000118306267936" lon="8.931017054446647"><ele>181.0</ele><time>2026-04-04T09:56:20Z</time></trkpt><trkpt lat="39.000156203357456" lon="8.93111139904066"><ele>183.0</ele><time>2026-04-04T09:59:02.999Z</time></trkpt><trkpt lat="39.00019389131354" lon="8.931184278592854"><ele>185.0</ele><time>2026-04-04T09:59:03.999Z</time></trkpt><trkpt lat="39.000288849839784" lon="8.93128689771125"><ele>187.0</ele><time>2026-04-04T09:59:05.999Z</time></trkpt><trkpt lat="39.000365604621" lon="8.931338916346249"><ele>189.0</ele><time>2026-04-04T09:59:06.999Z</time></trkpt><trkpt lat="39.000455019207855" lon="8.931393925692603"><ele>191.0</ele><time>2026-04-04T09:59:07.999Z</time></trkpt><trkpt lat="39.00052699828042" lon="8.931458436724313"><ele>191.0</ele><time>2026-04-04T09:59:08.999Z</time></trkpt><trkpt lat="39.0005836211856" lon="8.93152025475595"><ele>191.0</ele><time>2026-04-04T09:59:09.998Z</time></trkpt><trkpt lat="39.00063863776936" lon="8.931579890473273"><ele>191.0</ele><time>2026-04-04T09:59:10.998Z</time></trkpt><trkpt lat="39.00070076395067" lon="8.93164460876642"><ele>191.0</ele><time>2026-04-04T09:59:11.998Z</time></trkpt><trkpt lat="39.00076892625771" lon="8.931711390266107"><ele>191.0</ele><time>2026-04-04T09:59:12.998Z</time></trkpt><trkpt lat="39.000819817343384" lon="8.93177206006044"><ele>191.0</ele><time>2026-04-04T09:59:13.998Z</time></trkpt><trkpt lat="39.00087476848776" lon="8.931822129267728"><ele>191.0</ele><time>2026-04-04T09:59:14.998Z</time></trkpt><trkpt lat="39.000962967846164" lon="8.93192096039851"><ele>190.0</ele><time>2026-04-04T09:59:16.998Z</time></trkpt><trkpt lat="39.00103021976764" lon="8.931959568423126"><ele>189.0</ele><time>2026-04-04T09:59:17.998Z</time></trkpt><trkpt lat="39.00110837564808" lon="8.931971194230192"><ele>188.0</ele><time>2026-04-04T09:59:18.998Z</time></trkpt><trkpt lat="39.00119626086128" lon="8.931988115259509"><ele>187.0</ele><time>2026-04-04T09:59:19.998Z</time></trkpt><trkpt lat="39.001273155097834" lon="8.93199357566312"><ele>186.0</ele><time>2026-04-04T09:59:20.998Z</time></trkpt><trkpt lat="39.00135441682049" lon="8.932030378221985"><ele>185.0</ele><time>2026-04-04T09:59:21.998Z</time></trkpt><trkpt lat="39.00142600938886" lon="8.932074376145863"><ele>185.0</ele><time>2026-04-04T09:59:22.998Z</time></trkpt><trkpt lat="39.001499267381895" lon="8.932123503094374"><ele>185.0</ele><time>2026-04-04T09:59:23.998Z</time></trkpt><trkpt lat="39.001576186415804" lon="8.932193504337597"><ele>185.0</ele><time>2026-04-04T09:59:24.998Z</time></trkpt><trkpt lat="39.00163786508402" lon="8.932259166150079"><ele>185.0</ele><time>2026-04-04T09:59:25.998Z</time></trkpt><trkpt lat="39.001696472339354" lon="8.932330977196095"><ele>185.0</ele><time>2026-04-04T09:59:26.998Z</time></trkpt><trkpt lat="39.0017568339756" lon="8.932388970051775"><ele>185.0</ele><time>2026-04-04T09:59:27.998Z</time></trkpt><trkpt lat="39.00181528670306" lon="8.932437049234982"><ele>184.6</ele><time>2026-04-04T09:59:28.998Z</time></trkpt><trkpt lat="39.001871784489474" lon="8.932485437420143"><ele>184.2</ele><time>2026-04-04T09:59:29.998Z</time></trkpt><trkpt lat="39.001978832235395" lon="8.932528198702553"><ele>183.8</ele><time>2026-04-04T09:59:31.998Z</time></trkpt><trkpt lat="39.0020610552469" lon="8.932562051866629"><ele>183.4</ele><time>2026-04-04T09:59:32.998Z</time></trkpt><trkpt lat="39.00215406011472" lon="8.932599315433281"><ele>183.0</ele><time>2026-04-04T09:59:33.998Z</time></trkpt><trkpt lat="39.00224077185491" lon="8.932623696242976"><ele>183.0</ele><time>2026-04-04T09:59:34.998Z</time></trkpt><trkpt lat="39.00233945833356" lon="8.9326551654758"><ele>183.0</ele><time>2026-04-04T09:59:35.998Z</time></trkpt><trkpt lat="39.002444488435074" lon="8.932708804036512"><ele>183.0</ele><time>2026-04-04T09:59:36.998Z</time></trkpt><trkpt lat="39.002540159483985" lon="8.932789847765527"><ele>183.0</ele><time>2026-04-04T09:59:37.998Z</time></trkpt><trkpt lat="39.002634349879735" lon="8.932850865892759"><ele>183.0</ele><time>2026-04-04T09:59:38.998Z</time></trkpt><trkpt lat="39.00272314782198" lon="8.932907132876954"><ele>178.20000000000002</ele><time>2026-04-04T09:59:39.998Z</time></trkpt><trkpt lat="39.00281434962666" lon="8.932961661668282"><ele>173.4</ele><time>2026-04-04T09:59:40.998Z</time></trkpt><trkpt lat="39.00288825811573" lon="8.93300475025428"><ele>168.60000000000002</ele><time>2026-04-04T09:59:41.998Z</time></trkpt><trkpt lat="39.00295062722555" lon="8.933044757210975"><ele>163.8</ele><time>2026-04-04T09:59:42.998Z</time></trkpt><trkpt lat="39.00307066494055" lon="8.933012639164748"><ele>159.0</ele><time>2026-04-04T09:59:44.998Z</time></trkpt><trkpt lat="39.003147810655456" lon="8.932954118700543"><ele>159.0</ele><time>2026-04-04T09:59:45.998Z</time></trkpt><trkpt lat="39.00321683709276" lon="8.932900938507547"><ele>159.0</ele><time>2026-04-04T09:59:46.998Z</time></trkpt><trkpt lat="39.00328422507413" lon="8.932878508005796"><ele>159.0</ele><time>2026-04-04T09:59:47.998Z</time></trkpt><trkpt lat="39.00336247007186" lon="8.932883505170182"><ele>159.0</ele><time>2026-04-04T09:59:48.998Z</time></trkpt><trkpt lat="39.0034539680968" lon="8.932915695250944"><ele>159.0</ele><time>2026-04-04T09:59:49.998Z</time></trkpt><trkpt lat="39.00355237897628" lon="8.93294417418151"><ele>159.0</ele><time>2026-04-04T09:59:50.998Z</time></trkpt><trkpt lat="39.00365886082493" lon="8.932975488891024"><ele>154.75</ele><time>2026-04-04T09:59:51.998Z</time></trkpt><trkpt lat="39.00378962769298" lon="8.933002382594756"><ele>150.5</ele><time>2026-04-04T09:59:52.997Z</time></trkpt><trkpt lat="39.00390534643669" lon="8.933009247002778"><ele>146.25</ele><time>2026-04-04T09:59:53.997Z</time></trkpt><trkpt lat="39.00401652627098" lon="8.933005529731975"><ele>142.0</ele><time>2026-04-04T09:59:54.997Z</time></trkpt><trkpt lat="39.00410830357287" lon="8.933014645944898"><ele>141.0</ele><time>2026-04-04T09:59:55.997Z</time></trkpt><trkpt lat="39.00417520741462" lon="8.933015246241176"><ele>140.0</ele><time>2026-04-04T09:59:57Z</time></trkpt><trkpt lat="39.00424211921894" lon="8.933067065494116"><ele>139.0</ele><time>2026-04-04T09:59:58Z</time></trkpt><trkpt lat="39.00432472374013" lon="8.933128030828726"><ele>138.0</ele><time>2026-04-04T09:59:59Z</time></trkpt><trkpt lat="39.00440807507957" lon="8.933189870940872"><ele>137.0</ele><time>2026-04-04T10:00:00Z</time></trkpt><trkpt lat="39.00449553569262" lon="8.9332409751584"><ele>136.0</ele><time>2026-04-04T10:00:01Z</time></trkpt><trkpt lat="39.00459145067547" lon="8.93329410748347"><ele>136.0</ele><time>2026-04-04T10:00:02Z</time></trkpt><trkpt lat="39.004693822145626" lon="8.933354204893122"><ele>136.0</ele><time>2026-04-04T10:00:03Z</time></trkpt><trkpt lat="39.00478165783121" lon="8.933404597255802"><ele>136.0</ele><time>2026-04-04T10:00:04Z</time></trkpt><trkpt lat="39.004858067830696" lon="8.933470585541246"><ele>136.0</ele><time>2026-04-04T10:00:05Z</time></trkpt><trkpt lat="39.004940627214395" lon="8.933516124282729"><ele>136.0</ele><time>2026-04-04T10:00:06Z</time></trkpt><trkpt lat="39.00502431969023" lon="8.933563750718013"><ele>134.66666666666669</ele><time>2026-04-04T10:00:07Z</time></trkpt><trkpt lat="39.00511191266263" lon="8.933620208668394"><ele>133.33333333333334</ele><time>2026-04-04T10:00:08Z</time></trkpt><trkpt lat="39.00519697823874" lon="8.933688799585303"><ele>132.0</ele><time>2026-04-04T10:00:09Z</time></trkpt><trkpt lat="39.00525886624724" lon="8.933758317457547"><ele>130.66666666666666</ele><time>2026-04-04T10:00:10Z</time></trkpt><trkpt lat="39.005323693334596" lon="8.933844535491284"><ele>129.33333333333331</ele><time>2026-04-04T10:00:11Z</time></trkpt><trkpt lat="39.00536336822713" lon="8.933917406011782"><ele>128.0</ele><time>2026-04-04T10:00:12Z</time></trkpt><trkpt lat="39.00541334042667" lon="8.933988000706211"><ele>128.0</ele><time>2026-04-04T10:00:13Z</time></trkpt><trkpt lat="39.00548829040505" lon="8.934067125002187"><ele>128.0</ele><time>2026-04-04T10:00:14Z</time></trkpt><trkpt lat="39.00555805018548" lon="8.934149667090821"><ele>128.0</ele><time>2026-04-04T10:00:15Z</time></trkpt><trkpt lat="39.005615575437524" lon="8.934227470551841"><ele>128.0</ele><time>2026-04-04T10:00:16Z</time></trkpt><trkpt lat="39.00569251405474" lon="8.934318245337568"><ele>128.0</ele><time>2026-04-04T10:00:17Z</time></trkpt><trkpt lat="39.00576310742817" lon="8.934417739104765"><ele>126.0</ele><time>2026-04-04T10:00:18Z</time></trkpt><trkpt lat="39.00584311411763" lon="8.934499492272929"><ele>124.00000000000001</ele><time>2026-04-04T10:00:19Z</time></trkpt><trkpt lat="39.00591569472885" lon="8.934568604678532"><ele>122.00000000000001</ele><time>2026-04-04T10:00:20Z</time></trkpt><trkpt lat="39.00598395833752" lon="8.934650546144475"><ele>120.0</ele><time>2026-04-04T10:00:21Z</time></trkpt><trkpt lat="39.00606765430994" lon="8.934711965870926"><ele>118.0</ele><time>2026-04-04T10:00:22Z</time></trkpt><trkpt lat="39.00613248316318" lon="8.934778501847287"><ele>118.00000000000001</ele><time>2026-04-04T10:00:23Z</time></trkpt><trkpt lat="39.0061989563826" lon="8.934824763281368"><ele>118.0</ele><time>2026-04-04T10:00:24Z</time></trkpt><trkpt lat="39.00626862816938" lon="8.934844827619196"><ele>118.0</ele><time>2026-04-04T10:00:25Z</time></trkpt><trkpt lat="39.006333778154776" lon="8.934849674996139"><ele>118.0</ele><time>2026-04-04T10:00:26Z</time></trkpt><trkpt lat="39.00646811125007" lon="8.934845625627554"><ele>118.00000000000001</ele><time>2026-04-04T10:00:28Z</time></trkpt><trkpt lat="39.00655294038206" lon="8.934853868042868"><ele>118.0</ele><time>2026-04-04T10:00:29.999Z</time></trkpt><trkpt lat="39.00663997440878" lon="8.934872505104593"><ele>117.66666666666667</ele><time>2026-04-04T10:00:31.999Z</time></trkpt><trkpt lat="39.006668629403464" lon="8.934970446756411"><ele>117.33333333333334</ele><time>2026-04-04T10:00:34.999Z</time></trkpt><trkpt lat="39.00673318174486" lon="8.935049106436047"><ele>117.0</ele><time>2026-04-04T10:00:37.999Z</time></trkpt><trkpt lat="39.00678064948225" lon="8.935124344633218"><ele>116.66666666666666</ele><time>2026-04-04T10:00:40.999Z</time></trkpt><trkpt lat="39.00675035153751" lon="8.935252510270647"><ele>116.33333333333333</ele><time>2026-04-04T10:00:42.999Z</time></trkpt><trkpt lat="39.006715653725244" lon="8.935321903437043"><ele>116.0</ele><time>2026-04-04T10:00:43.999Z</time></trkpt><trkpt lat="39.00671074493338" lon="8.935406076130743"><ele>116.66666666666666</ele><time>2026-04-04T10:00:44.999Z</time></trkpt><trkpt lat="39.00670536555406" lon="8.935504070059917"><ele>117.33333333333333</ele><time>2026-04-04T10:00:45.999Z</time></trkpt><trkpt lat="39.00668904741423" lon="8.935615570008002"><ele>118.0</ele><time>2026-04-04T10:00:46.999Z</time></trkpt><trkpt lat="39.00667497792093" lon="8.93573233499095"><ele>118.66666666666666</ele><time>2026-04-04T10:00:47.999Z</time></trkpt><trkpt lat="39.00665636411198" lon="8.935834742730892"><ele>119.33333333333333</ele><time>2026-04-04T10:00:48.999Z</time></trkpt><trkpt lat="39.00663250514003" lon="8.935928500934688"><ele>120.0</ele><time>2026-04-04T10:00:49.999Z</time></trkpt><trkpt lat="39.00660503758519" lon="8.936025918437714"><ele>120.5</ele><time>2026-04-04T10:00:50.999Z</time></trkpt><trkpt lat="39.006573275503655" lon="8.936122248611799"><ele>121.0</ele><time>2026-04-04T10:00:51.999Z</time></trkpt><trkpt lat="39.006548398323496" lon="8.936221273496326"><ele>121.5</ele><time>2026-04-04T10:00:52.999Z</time></trkpt><trkpt lat="39.00652495634232" lon="8.936314338367026"><ele>122.0</ele><time>2026-04-04T10:00:53.999Z</time></trkpt><trkpt lat="39.00650546888839" lon="8.93641410524175"><ele>122.5</ele><time>2026-04-04T10:00:54.999Z</time></trkpt><trkpt lat="39.006502299599745" lon="8.936537571425045"><ele>123.0</ele><time>2026-04-04T10:00:55.999Z</time></trkpt><trkpt lat="39.006511900515164" lon="8.936658386937331"><ele>125.0</ele><time>2026-04-04T10:00:56.999Z</time></trkpt><trkpt lat="39.00651255368312" lon="8.936742189277522"><ele>127.0</ele><time>2026-04-04T10:00:57.999Z</time></trkpt><trkpt lat="39.00650134053857" lon="8.93689485924537"><ele>129.0</ele><time>2026-04-04T10:00:59.999Z</time></trkpt><trkpt lat="39.00650145500139" lon="8.936989319576501"><ele>131.0</ele><time>2026-04-04T10:01:00.999Z</time></trkpt><trkpt lat="39.006507704006935" lon="8.937091007570226"><ele>133.0</ele><time>2026-04-04T10:01:01.999Z</time></trkpt><trkpt lat="39.00652212285614" lon="8.937184370026422"><ele>135.0</ele><time>2026-04-04T10:01:02.999Z</time></trkpt><trkpt lat="39.00654136406249" lon="8.937265751635534"><ele>135.0</ele><time>2026-04-04T10:01:03.999Z</time></trkpt><trkpt lat="39.00656665952594" lon="8.937405406969942"><ele>135.0</ele><time>2026-04-04T10:01:05.999Z</time></trkpt><trkpt lat="39.006622782874075" lon="8.93750709263481"><ele>135.0</ele><time>2026-04-04T10:01:07.999Z</time></trkpt><trkpt lat="39.00668151248358" lon="8.93760969811787"><ele>135.0</ele><time>2026-04-04T10:01:09.999Z</time></trkpt><trkpt lat="39.00673911765884" lon="8.937663107696874"><ele>135.0</ele><time>2026-04-04T10:01:12.998Z</time></trkpt><trkpt lat="39.00678836140305" lon="8.937759967572365"><ele>132.2</ele><time>2026-04-04T10:01:15.998Z</time></trkpt><trkpt lat="39.006788878505525" lon="8.937864321025819"><ele>129.4</ele><time>2026-04-04T10:01:18.998Z</time></trkpt><trkpt lat="39.00684033729383" lon="8.937962211137785"><ele>126.6</ele><time>2026-04-04T10:01:21.998Z</time></trkpt><trkpt lat="39.00696089740575" lon="8.938116621346863"><ele>123.8</ele><time>2026-04-04T10:01:23.998Z</time></trkpt><trkpt lat="39.007034502698005" lon="8.938147616363212"><ele>121.0</ele><time>2026-04-04T10:01:24.998Z</time></trkpt><trkpt lat="39.007137677133834" lon="8.938195536373076"><ele>121.0</ele><time>2026-04-04T10:01:25.998Z</time></trkpt><trkpt lat="39.0072205952258" lon="8.938223014718005"><ele>121.0</ele><time>2026-04-04T10:01:26.998Z</time></trkpt><trkpt lat="39.00729690382545" lon="8.938246488013023"><ele>121.0</ele><time>2026-04-04T10:01:27.998Z</time></trkpt><trkpt lat="39.00739963326995" lon="8.938271598571914"><ele>121.0</ele><time>2026-04-04T10:01:29.998Z</time></trkpt><trkpt lat="39.00749130900433" lon="8.938314601367262"><ele>121.0</ele><time>2026-04-04T10:01:32.998Z</time></trkpt><trkpt lat="39.00756797036202" lon="8.938361625845435"><ele>123.6</ele><time>2026-04-04T10:01:34.998Z</time></trkpt><trkpt lat="39.007683206638276" lon="8.938385435700875"><ele>126.19999999999999</ele><time>2026-04-04T10:01:36.998Z</time></trkpt><trkpt lat="39.00781316469265" lon="8.938408088169684"><ele>128.8</ele><time>2026-04-04T10:01:38.998Z</time></trkpt><trkpt lat="39.00789945787368" lon="8.9384433124876"><ele>131.4</ele><time>2026-04-04T10:01:39.998Z</time></trkpt><trkpt lat="39.00798187989601" lon="8.93848755174316"><ele>134.0</ele><time>2026-04-04T10:01:40.998Z</time></trkpt><trkpt lat="39.0080513539811" lon="8.938529989650998"><ele>134.0</ele><time>2026-04-04T10:01:41.998Z</time></trkpt><trkpt lat="39.00810185609581" lon="8.938596393561971"><ele>134.0</ele><time>2026-04-04T10:01:42.998Z</time></trkpt><trkpt lat="39.008162248196975" lon="8.938652577727598"><ele>134.0</ele><time>2026-04-04T10:01:43.998Z</time></trkpt><trkpt lat="39.008225164538985" lon="8.938738453724566"><ele>134.0</ele><time>2026-04-04T10:01:44.998Z</time></trkpt><trkpt lat="39.00830931064657" lon="8.938815664953843"><ele>134.0</ele><time>2026-04-04T10:01:45.998Z</time></trkpt><trkpt lat="39.00839168741059" lon="8.938866838536503"><ele>134.0</ele><time>2026-04-04T10:01:46.998Z</time></trkpt><trkpt lat="39.008480995640944" lon="8.938891705364242"><ele>129.0</ele><time>2026-04-04T10:01:47.998Z</time></trkpt><trkpt lat="39.00857117362693" lon="8.938910098118752"><ele>124.0</ele><time>2026-04-04T10:01:48.998Z</time></trkpt><trkpt lat="39.00866091596648" lon="8.938945558812808"><ele>119.0</ele><time>2026-04-04T10:01:49.998Z</time></trkpt><trkpt lat="39.00875879386769" lon="8.93895566795053"><ele>114.0</ele><time>2026-04-04T10:01:50.998Z</time></trkpt><trkpt lat="39.008849167424046" lon="8.938992925402232"><ele>109.0</ele><time>2026-04-04T10:01:51.998Z</time></trkpt><trkpt lat="39.008930966881856" lon="8.939021344623107"><ele>109.00000000000001</ele><time>2026-04-04T10:01:52.998Z</time></trkpt><trkpt lat="39.00900432302807" lon="8.939039784237872"><ele>109.0</ele><time>2026-04-04T10:01:53.998Z</time></trkpt><trkpt lat="39.009064583895324" lon="8.939074186210467"><ele>109.0</ele><time>2026-04-04T10:01:54.998Z</time></trkpt><trkpt lat="39.0091420821622" lon="8.939191522173758"><ele>109.0</ele><time>2026-04-04T10:01:56.998Z</time></trkpt><trkpt lat="39.00918078537583" lon="8.9392635267747"><ele>109.00000000000001</ele><time>2026-04-04T10:01:57.997Z</time></trkpt><trkpt lat="39.009220535530886" lon="8.939338471242909"><ele>109.0</ele><time>2026-04-04T10:01:58.997Z</time></trkpt><trkpt lat="39.009285115950256" lon="8.939404529772066"><ele>108.6</ele><time>2026-04-04T10:02:01.997Z</time></trkpt><trkpt lat="39.009369545763356" lon="8.939456202014824"><ele>108.2</ele><time>2026-04-04T10:02:05Z</time></trkpt><trkpt lat="39.009419857253185" lon="8.93957850949262"><ele>107.79999999999998</ele><time>2026-04-04T10:02:08Z</time></trkpt><trkpt lat="39.009471788857944" lon="8.939690505775237"><ele>107.39999999999999</ele><time>2026-04-04T10:02:10Z</time></trkpt><trkpt lat="39.009536314372156" lon="8.939747945126596"><ele>107.0</ele><time>2026-04-04T10:02:14Z</time></trkpt><trkpt lat="39.00956719784523" lon="8.93984201721206"><ele>107.0</ele><time>2026-04-04T10:02:16Z</time></trkpt><trkpt lat="39.009583466255826" lon="8.939938339743083"><ele>106.99999999999999</ele><time>2026-04-04T10:02:17Z</time></trkpt><trkpt lat="39.00958354942957" lon="8.94004326233187"><ele>106.99999999999999</ele><time>2026-04-04T10:02:19Z</time></trkpt><trkpt lat="39.00961287132388" lon="8.940181183166237"><ele>107.0</ele><time>2026-04-04T10:03:37.998Z</time></trkpt><trkpt lat="39.00963881230608" lon="8.94032975698147"><ele>107.0</ele><time>2026-04-04T10:03:39.998Z</time></trkpt><trkpt lat="39.0096806594809" lon="8.940454525872575"><ele>108.19999999999999</ele><time>2026-04-04T10:03:41.998Z</time></trkpt><trkpt lat="39.00974301209195" lon="8.940573060497808"><ele>109.39999999999999</ele><time>2026-04-04T10:03:43.998Z</time></trkpt><trkpt lat="39.009777264170076" lon="8.940665374279792"><ele>110.60000000000001</ele><time>2026-04-04T10:03:45.998Z</time></trkpt><trkpt lat="39.009866382054774" lon="8.940696125160184"><ele>111.80000000000001</ele><time>2026-04-04T10:03:48.998Z</time></trkpt><trkpt lat="39.00997012510001" lon="8.940700492254628"><ele>113.0</ele><time>2026-04-04T10:03:51.998Z</time></trkpt><trkpt lat="39.010068726194916" lon="8.940723926664516"><ele>110.49999999999999</ele><time>2026-04-04T10:03:53.998Z</time></trkpt><trkpt lat="39.010101181400096" lon="8.940822364987548"><ele>108.0</ele><time>2026-04-04T10:03:55.998Z</time></trkpt><trkpt lat="39.0101531023268" lon="8.940920849009338"><ele>105.5</ele><time>2026-04-04T10:03:57.998Z</time></trkpt><trkpt lat="39.01017100031658" lon="8.941018832485872"><ele>103.0</ele><time>2026-04-04T10:03:58.998Z</time></trkpt><trkpt lat="39.01019219749968" lon="8.941098922774335"><ele>100.49999999999999</ele><time>2026-04-04T10:03:59.998Z</time></trkpt><trkpt lat="39.010210783522105" lon="8.941187421974984"><ele>98.0</ele><time>2026-04-04T10:04:00.998Z</time></trkpt><trkpt lat="39.01020555550457" lon="8.941291013553986"><ele>98.0</ele><time>2026-04-04T10:04:01.998Z</time></trkpt><trkpt lat="39.0101901681948" lon="8.941385953139202"><ele>98.0</ele><time>2026-04-04T10:04:02.998Z</time></trkpt><trkpt lat="39.010195241491395" lon="8.941523679952185"><ele>98.0</ele><time>2026-04-04T10:04:04.998Z</time></trkpt><trkpt lat="39.01029647112075" lon="8.941642715261706"><ele>98.0</ele><time>2026-04-04T10:04:06.997Z</time></trkpt><trkpt lat="39.010342472123206" lon="8.94174392936639"><ele>98.0</ele><time>2026-04-04T10:04:07.997Z</time></trkpt><trkpt lat="39.01039506379357" lon="8.941830587786336"><ele>99.83333333333333</ele><time>2026-04-04T10:04:09Z</time></trkpt><trkpt lat="39.01045095449135" lon="8.941912897151052"><ele>101.66666666666666</ele><time>2026-04-04T10:04:10Z</time></trkpt><trkpt lat="39.0105156476555" lon="8.941983703870791"><ele>103.5</ele><time>2026-04-04T10:04:11Z</time></trkpt><trkpt lat="39.01058383791037" lon="8.942042434903437"><ele>105.33333333333334</ele><time>2026-04-04T10:04:12Z</time></trkpt><trkpt lat="39.010648864890214" lon="8.94207726396564"><ele>107.16666666666667</ele><time>2026-04-04T10:04:13Z</time></trkpt><trkpt lat="39.01072297028204" lon="8.942108727398828"><ele>109.0</ele><time>2026-04-04T10:04:14Z</time></trkpt><trkpt lat="39.01078675254792" lon="8.942153886970917"><ele>105.2</ele><time>2026-04-04T10:04:15Z</time></trkpt><trkpt lat="39.01086836018531" lon="8.942244769952673"><ele>101.4</ele><time>2026-04-04T10:04:17Z</time></trkpt><trkpt lat="39.01100701067061" lon="8.942264520602174"><ele>97.6</ele><time>2026-04-04T10:04:19Z</time></trkpt><trkpt lat="39.0110849989831" lon="8.942278536910145"><ele>93.8</ele><time>2026-04-04T10:04:20Z</time></trkpt><trkpt lat="39.011151782108605" lon="8.942296240203369"><ele>90.0</ele><time>2026-04-04T10:04:21Z</time></trkpt><trkpt lat="39.011245544087075" lon="8.942406938912569"><ele>90.0</ele><time>2026-04-04T10:04:23Z</time></trkpt><trkpt lat="39.01129319627372" lon="8.942477559136337"><ele>90.0</ele><time>2026-04-04T10:04:24Z</time></trkpt><trkpt lat="39.01133558308181" lon="8.94254448162318"><ele>90.0</ele><time>2026-04-04T10:04:25Z</time></trkpt><trkpt lat="39.01139335949194" lon="8.942623636133758"><ele>90.0</ele><time>2026-04-04T10:04:27Z</time></trkpt><trkpt lat="39.011486531563214" lon="8.94259052598767"><ele>90.0</ele><time>2026-04-04T10:04:29Z</time></trkpt><trkpt lat="39.01155744579482" lon="8.942579224445817"><ele>90.0</ele><time>2026-04-04T10:04:31Z</time></trkpt><trkpt lat="39.01164046461625" lon="8.942560495503878"><ele>92.0</ele><time>2026-04-04T10:04:34Z</time></trkpt><trkpt lat="39.01189417163076" lon="8.942565287947131"><ele>94.0</ele><time>2026-04-04T10:04:36Z</time></trkpt><trkpt lat="39.01202766544019" lon="8.942585050952871"><ele>96.0</ele><time>2026-04-04T10:04:38Z</time></trkpt><trkpt lat="39.01210012807492" lon="8.942593337918568"><ele>96.0</ele><time>2026-04-04T10:04:39Z</time></trkpt><trkpt lat="39.012186362222316" lon="8.942557212028444"><ele>96.0</ele><time>2026-04-04T10:04:40.999Z</time></trkpt><trkpt lat="39.012186494272214" lon="8.942433244570044"><ele>96.0</ele><time>2026-04-04T10:04:42.999Z</time></trkpt><trkpt lat="39.01215155271714" lon="8.942350512926765"><ele>96.0</ele><time>2026-04-04T10:04:44.999Z</time></trkpt><trkpt lat="39.01215323048894" lon="8.942263618610266"><ele>96.0</ele><time>2026-04-04T10:04:58.999Z</time></trkpt><trkpt lat="39.01224302612653" lon="8.942324757545853"><ele>96.0</ele><time>2026-04-04T10:05:01.999Z</time></trkpt><trkpt lat="39.01228866888765" lon="8.942386236851888"><ele>96.0</ele><time>2026-04-04T10:05:02.999Z</time></trkpt><trkpt lat="39.012355097208726" lon="8.94244961716752"><ele>96.0</ele><time>2026-04-04T10:05:03.999Z</time></trkpt><trkpt lat="39.01242196955749" lon="8.942500916568367"><ele>96.0</ele><time>2026-04-04T10:05:04.999Z</time></trkpt><trkpt lat="39.012477490035806" lon="8.942556733104189"><ele>96.0</ele><time>2026-04-04T10:05:05.999Z</time></trkpt><trkpt lat="39.012542181805316" lon="8.942619919786466"><ele>96.0</ele><time>2026-04-04T10:05:06.999Z</time></trkpt><trkpt lat="39.01263105233169" lon="8.942667186758198"><ele>96.0</ele><time>2026-04-04T10:05:07.999Z</time></trkpt><trkpt lat="39.01273132817478" lon="8.942685148339505"><ele>93.83333333333333</ele><time>2026-04-04T10:05:08.999Z</time></trkpt><trkpt lat="39.01280797622808" lon="8.942704811969055"><ele>91.66666666666667</ele><time>2026-04-04T10:05:09.999Z</time></trkpt><trkpt lat="39.01289498980118" lon="8.942732590470484"><ele>89.5</ele><time>2026-04-04T10:05:10.999Z</time></trkpt><trkpt lat="39.01299989175242" lon="8.94274881833144"><ele>87.33333333333334</ele><time>2026-04-04T10:05:11.999Z</time></trkpt><trkpt lat="39.013089345526176" lon="8.942766739588158"><ele>85.16666666666667</ele><time>2026-04-04T10:05:12.999Z</time></trkpt><trkpt lat="39.013155412520646" lon="8.942797805607285"><ele>83.0</ele><time>2026-04-04T10:05:13.999Z</time></trkpt><trkpt lat="39.01324229979436" lon="8.942949865211185"><ele>83.0</ele><time>2026-04-04T10:05:15.999Z</time></trkpt><trkpt lat="39.01328884632821" lon="8.943042949162507"><ele>83.0</ele><time>2026-04-04T10:05:16.999Z</time></trkpt><trkpt lat="39.01334629447256" lon="8.943110233279766"><ele>83.0</ele><time>2026-04-04T10:05:17.999Z</time></trkpt><trkpt lat="39.01341334017225" lon="8.943179920624061"><ele>83.0</ele><time>2026-04-04T10:05:18.999Z</time></trkpt><trkpt lat="39.0134570103494" lon="8.943250180609931"><ele>83.0</ele><time>2026-04-04T10:05:19.999Z</time></trkpt><trkpt lat="39.013522365507356" lon="8.943295571559606"><ele>83.0</ele><time>2026-04-04T10:05:20.999Z</time></trkpt><trkpt lat="39.013610088065946" lon="8.943343731738754"><ele>82.0</ele><time>2026-04-04T10:05:21.999Z</time></trkpt><trkpt lat="39.013678555997764" lon="8.943400381362892"><ele>81.0</ele><time>2026-04-04T10:05:22.999Z</time></trkpt><trkpt lat="39.01372359074505" lon="8.943458664975529"><ele>80.0</ele><time>2026-04-04T10:05:23.999Z</time></trkpt><trkpt lat="39.013763501127244" lon="8.943528659722652"><ele>79.0</ele><time>2026-04-04T10:05:24.999Z</time></trkpt><trkpt lat="39.01382899440886" lon="8.943591061077235"><ele>78.0</ele><time>2026-04-04T10:05:25.998Z</time></trkpt><trkpt lat="39.01391913597023" lon="8.943655880653226"><ele>77.0</ele><time>2026-04-04T10:05:26.998Z</time></trkpt><trkpt lat="39.014019182079274" lon="8.943729227324416"><ele>77.0</ele><time>2026-04-04T10:05:27.998Z</time></trkpt><trkpt lat="39.01410540128059" lon="8.943790273659575"><ele>77.0</ele><time>2026-04-04T10:05:28.998Z</time></trkpt><trkpt lat="39.014185274033146" lon="8.943836968059493"><ele>77.0</ele><time>2026-04-04T10:05:30.998Z</time></trkpt><trkpt lat="39.01421828997185" lon="8.943939617315003"><ele>77.0</ele><time>2026-04-04T10:05:33.998Z</time></trkpt><trkpt lat="39.01442622981842" lon="8.944214148689516"><ele>77.0</ele><time>2026-04-04T10:05:39.998Z</time></trkpt><trkpt lat="39.01450025731972" lon="8.944287797118104"><ele>77.0</ele><time>2026-04-04T10:05:40.998Z</time></trkpt><trkpt lat="39.014549373278676" lon="8.944341749596141"><ele>77.0</ele><time>2026-04-04T10:05:41.998Z</time></trkpt><trkpt lat="39.01460328816645" lon="8.944440694953967"><ele>77.0</ele><time>2026-04-04T10:05:43.998Z</time></trkpt><trkpt lat="39.014725331038626" lon="8.944424551229977"><ele>77.0</ele><time>2026-04-04T10:05:45.998Z</time></trkpt><trkpt lat="39.01479530136388" lon="8.944390031226229"><ele>77.0</ele><time>2026-04-04T10:05:46.998Z</time></trkpt><trkpt lat="39.01487248763167" lon="8.94438050020619"><ele>77.0</ele><time>2026-04-04T10:05:47.998Z</time></trkpt><trkpt lat="39.01494873146109" lon="8.944385958076964"><ele>77.0</ele><time>2026-04-04T10:05:48.998Z</time></trkpt><trkpt lat="39.01504782010461" lon="8.94440179339558"><ele>77.0</ele><time>2026-04-04T10:05:50.998Z</time></trkpt><trkpt lat="39.015100714833686" lon="8.944478358309691"><ele>77.0</ele><time>2026-04-04T10:05:53.998Z</time></trkpt><trkpt lat="39.01504216460293" lon="8.944638757707247"><ele>78.0</ele><time>2026-04-04T10:05:57.998Z</time></trkpt><trkpt lat="39.015076146829536" lon="8.94472274857109"><ele>79.0</ele><time>2026-04-04T10:06:00.998Z</time></trkpt><trkpt lat="39.015093941471804" lon="8.945354650706117"><ele>78.2</ele><time>2026-04-04T10:06:02.998Z</time></trkpt><trkpt lat="39.0150372157914" lon="8.945440033275265"><ele>77.4</ele><time>2026-04-04T10:06:03.998Z</time></trkpt><trkpt lat="39.01501541300503" lon="8.945609162072946"><ele>76.6</ele><time>2026-04-04T10:06:05.998Z</time></trkpt><trkpt lat="39.01503914016358" lon="8.945735649078753"><ele>75.8</ele><time>2026-04-04T10:06:06.998Z</time></trkpt><trkpt lat="39.01505752666988" lon="8.945844638246014"><ele>75.0</ele><time>2026-04-04T10:06:07.998Z</time></trkpt><trkpt lat="39.01510462859247" lon="8.945936262592694"><ele>74.5</ele><time>2026-04-04T10:06:08.998Z</time></trkpt><trkpt lat="39.01515849167622" lon="8.946009242362654"><ele>74.0</ele><time>2026-04-04T10:06:09.997Z</time></trkpt><trkpt lat="39.015171376523824" lon="8.946090464419669"><ele>73.5</ele><time>2026-04-04T10:06:10.997Z</time></trkpt><trkpt lat="39.015141385608075" lon="8.94618253056711"><ele>73.0</ele><time>2026-04-04T10:06:11.997Z</time></trkpt><trkpt lat="39.015184263793095" lon="8.946264942816075"><ele>72.5</ele><time>2026-04-04T10:06:12.997Z</time></trkpt><trkpt lat="39.01527089409002" lon="8.94630202529398"><ele>72.0</ele><time>2026-04-04T10:06:13.997Z</time></trkpt><trkpt lat="39.0153356946082" lon="8.94635290805656"><ele>72.0</ele><time>2026-04-04T10:06:15Z</time></trkpt><trkpt lat="39.01538725623794" lon="8.946466975112179"><ele>72.0</ele><time>2026-04-04T10:06:16Z</time></trkpt><trkpt lat="39.01545339120771" lon="8.946556235525811"><ele>72.0</ele><time>2026-04-04T10:06:17Z</time></trkpt><trkpt lat="39.01554033961747" lon="8.946582731087622"><ele>72.0</ele><time>2026-04-04T10:06:18Z</time></trkpt><trkpt lat="39.01560429035902" lon="8.94660105925136"><ele>72.0</ele><time>2026-04-04T10:06:19Z</time></trkpt><trkpt lat="39.01564371438374" lon="8.946677320774059"><ele>72.0</ele><time>2026-04-04T10:06:20Z</time></trkpt><trkpt lat="39.01572477392839" lon="8.946758052608388"><ele>71.66666666666667</ele><time>2026-04-04T10:06:22Z</time></trkpt><trkpt lat="39.01582157761455" lon="8.946851043147124"><ele>71.33333333333333</ele><time>2026-04-04T10:06:24Z</time></trkpt><trkpt lat="39.015855499160736" lon="8.947001566168932"><ele>71.0</ele><time>2026-04-04T10:06:26Z</time></trkpt><trkpt lat="39.015856336889975" lon="8.947085062327973"><ele>70.66666666666666</ele><time>2026-04-04T10:06:27Z</time></trkpt><trkpt lat="39.01586310521409" lon="8.947166138265683"><ele>70.33333333333333</ele><time>2026-04-04T10:06:28Z</time></trkpt><trkpt lat="39.01588204643409" lon="8.947253202549339"><ele>70.0</ele><time>2026-04-04T10:06:29Z</time></trkpt><trkpt lat="39.01589855416315" lon="8.947349444126008"><ele>70.0</ele><time>2026-04-04T10:06:30Z</time></trkpt><trkpt lat="39.01591230984924" lon="8.94744029490265"><ele>70.0</ele><time>2026-04-04T10:06:31Z</time></trkpt><trkpt lat="39.01595847126108" lon="8.947554351912899"><ele>70.0</ele><time>2026-04-04T10:06:33Z</time></trkpt><trkpt lat="39.01605711167158" lon="8.947560035416066"><ele>70.0</ele><time>2026-04-04T10:06:35Z</time></trkpt><trkpt lat="39.016119976079985" lon="8.947554734633234"><ele>70.0</ele><time>2026-04-04T10:06:36Z</time></trkpt><trkpt lat="39.01618975277506" lon="8.94754729067012"><ele>70.0</ele><time>2026-04-04T10:06:37Z</time></trkpt><trkpt lat="39.016269487557935" lon="8.947536796530706"><ele>70.0</ele><time>2026-04-04T10:06:38Z</time></trkpt><trkpt lat="39.01634909866087" lon="8.947524418525656"><ele>70.0</ele><time>2026-04-04T10:06:39Z</time></trkpt><trkpt lat="39.01641385390218" lon="8.947523598450532"><ele>70.0</ele><time>2026-04-04T10:06:40Z</time></trkpt><trkpt lat="39.016480718417235" lon="8.947628052921173"><ele>70.0</ele><time>2026-04-04T10:06:42Z</time></trkpt><trkpt lat="39.01645919390636" lon="8.947789499033476"><ele>70.0</ele><time>2026-04-04T10:06:44Z</time></trkpt><trkpt lat="39.01639584376347" lon="8.947919833630857"><ele>69.4</ele><time>2026-04-04T10:06:45Z</time></trkpt><trkpt lat="39.01634844658972" lon="8.948049940705122"><ele>68.8</ele><time>2026-04-04T10:06:46Z</time></trkpt><trkpt lat="39.01632803915908" lon="8.948163191343687"><ele>68.2</ele><time>2026-04-04T10:06:47Z</time></trkpt><trkpt lat="39.016327093169295" lon="8.94828072605673"><ele>67.6</ele><time>2026-04-04T10:06:47.999Z</time></trkpt><trkpt lat="39.01634773313073" lon="8.948400513427519"><ele>67.0</ele><time>2026-04-04T10:06:48.999Z</time></trkpt><trkpt lat="39.016383247445596" lon="8.948533610613769"><ele>66.83333333333333</ele><time>2026-04-04T10:06:49.999Z</time></trkpt><trkpt lat="39.01642271058649" lon="8.948655046773776"><ele>66.66666666666666</ele><time>2026-04-04T10:06:50.999Z</time></trkpt><trkpt lat="39.01646634563974" lon="8.94875196167789"><ele>66.5</ele><time>2026-04-04T10:06:51.999Z</time></trkpt><trkpt lat="39.01652041754385" lon="8.948835482238785"><ele>66.33333333333333</ele><time>2026-04-04T10:06:52.999Z</time></trkpt><trkpt lat="39.01657909848242" lon="8.94890114227568"><ele>66.16666666666667</ele><time>2026-04-04T10:06:53.999Z</time></trkpt><trkpt lat="39.01664316235071" lon="8.94895924328044"><ele>66.0</ele><time>2026-04-04T10:06:54.999Z</time></trkpt><trkpt lat="39.016709527134495" lon="8.94902010270038"><ele>65.83333333333333</ele><time>2026-04-04T10:06:55.999Z</time></trkpt><trkpt lat="39.01677517472358" lon="8.949080360692154"><ele>65.66666666666667</ele><time>2026-04-04T10:06:56.999Z</time></trkpt><trkpt lat="39.016842315150875" lon="8.949137582193279"><ele>65.5</ele><time>2026-04-04T10:06:57.999Z</time></trkpt><trkpt lat="39.01691172284002" lon="8.949198044404797"><ele>65.33333333333334</ele><time>2026-04-04T10:06:58.999Z</time></trkpt><trkpt lat="39.016968352306655" lon="8.949278118148033"><ele>65.16666666666667</ele><time>2026-04-04T10:06:59.999Z</time></trkpt><trkpt lat="39.01702163143449" lon="8.949369859474894"><ele>65.0</ele><time>2026-04-04T10:07:00.999Z</time></trkpt><trkpt lat="39.01707881938582" lon="8.949453086087"><ele>65.0</ele><time>2026-04-04T10:07:01.999Z</time></trkpt><trkpt lat="39.01713584812965" lon="8.949515000772776"><ele>65.0</ele><time>2026-04-04T10:07:02.999Z</time></trkpt><trkpt lat="39.017192412488235" lon="8.949578750880901"><ele>65.0</ele><time>2026-04-04T10:07:03.999Z</time></trkpt><trkpt lat="39.0172410904098" lon="8.94967479999755"><ele>65.0</ele><time>2026-04-04T10:07:04.999Z</time></trkpt><trkpt lat="39.017289205527156" lon="8.949781306651666"><ele>65.0</ele><time>2026-04-04T10:07:05.999Z</time></trkpt><trkpt lat="39.01733160658867" lon="8.949875430017252"><ele>65.0</ele><time>2026-04-04T10:07:06.999Z</time></trkpt><trkpt lat="39.017362232579735" lon="8.949953938578343"><ele>64.6</ele><time>2026-04-04T10:07:07.999Z</time></trkpt><trkpt lat="39.01735661711283" lon="8.950097217673457"><ele>64.2</ele><time>2026-04-04T10:07:09.999Z</time></trkpt><trkpt lat="39.01741562036098" lon="8.950205737365103"><ele>63.8</ele><time>2026-04-04T10:07:11.999Z</time></trkpt><trkpt lat="39.01743700946814" lon="8.95037862896673"><ele>63.4</ele><time>2026-04-04T10:07:13.999Z</time></trkpt><trkpt lat="39.017459458204556" lon="8.950496760217945"><ele>63.0</ele><time>2026-04-04T10:07:14.999Z</time></trkpt><trkpt lat="39.01748081936074" lon="8.950616060348956"><ele>63.599999999999994</ele><time>2026-04-04T10:07:15.999Z</time></trkpt><trkpt lat="39.01749894393787" lon="8.950740490934827"><ele>64.19999999999999</ele><time>2026-04-04T10:07:16.999Z</time></trkpt><trkpt lat="39.01751099019325" lon="8.950871012745203"><ele>64.8</ele><time>2026-04-04T10:07:17.999Z</time></trkpt><trkpt lat="39.01752706740797" lon="8.950998246015004"><ele>65.39999999999999</ele><time>2026-04-04T10:07:18.999Z</time></trkpt><trkpt lat="39.01754381668305" lon="8.951102624494268"><ele>66.0</ele><time>2026-04-04T10:07:19.999Z</time></trkpt><trkpt lat="39.01756854158038" lon="8.951195633333803"><ele>66.0</ele><time>2026-04-04T10:07:20.999Z</time></trkpt><trkpt lat="39.01759891468502" lon="8.951277131200545"><ele>66.0</ele><time>2026-04-04T10:07:21.999Z</time></trkpt><trkpt lat="39.017629357672895" lon="8.95142095345033"><ele>66.0</ele><time>2026-04-04T10:07:23.999Z</time></trkpt><trkpt lat="39.01763704048812" lon="8.951554342152361"><ele>66.0</ele><time>2026-04-04T10:07:48.998Z</time></trkpt><trkpt lat="39.017625299881104" lon="8.95163515281894"><ele>66.0</ele><time>2026-04-04T10:07:49.998Z</time></trkpt><trkpt lat="39.017605847501606" lon="8.951721680217771"><ele>66.0</ele><time>2026-04-04T10:07:50.998Z</time></trkpt><trkpt lat="39.017585861575114" lon="8.951831380055973"><ele>66.0</ele><time>2026-04-04T10:07:51.998Z</time></trkpt><trkpt lat="39.017572227740224" lon="8.951984403895425"><ele>66.0</ele><time>2026-04-04T10:07:52.998Z</time></trkpt><trkpt lat="39.017553778107136" lon="8.952197140987638"><ele>66.0</ele><time>2026-04-04T10:07:53.998Z</time></trkpt><trkpt lat="39.017527459124324" lon="8.952433072804162"><ele>65.5</ele><time>2026-04-04T10:07:54.998Z</time></trkpt><trkpt lat="39.017506935204146" lon="8.952648048228333"><ele>65.0</ele><time>2026-04-04T10:07:55.998Z</time></trkpt><trkpt lat="39.01749238387388" lon="8.952834874438615"><ele>64.5</ele><time>2026-04-04T10:07:56.998Z</time></trkpt><trkpt lat="39.017475968121644" lon="8.953002017316042"><ele>64.0</ele><time>2026-04-04T10:07:57.998Z</time></trkpt><trkpt lat="39.017459965480086" lon="8.953163095610638"><ele>63.2</ele><time>2026-04-04T10:07:58.998Z</time></trkpt><trkpt lat="39.01744143798452" lon="8.953314623407344"><ele>62.400000000000006</ele><time>2026-04-04T10:07:59.998Z</time></trkpt><trkpt lat="39.01742699748402" lon="8.953446397867648"><ele>61.6</ele><time>2026-04-04T10:08:00.998Z</time></trkpt><trkpt lat="39.0174145124703" lon="8.953565973864334"><ele>60.8</ele><time>2026-04-04T10:08:01.998Z</time></trkpt><trkpt lat="39.01740077058126" lon="8.95367084663682"><ele>60.0</ele><time>2026-04-04T10:08:02.998Z</time></trkpt><trkpt lat="39.017386988301126" lon="8.953758905379882"><ele>59.833333333333336</ele><time>2026-04-04T10:08:03.998Z</time></trkpt><trkpt lat="39.01737777354734" lon="8.953846738763488"><ele>59.66666666666667</ele><time>2026-04-04T10:08:04.998Z</time></trkpt><trkpt lat="39.01737967308686" lon="8.95393207692449"><ele>59.5</ele><time>2026-04-04T10:08:05.998Z</time></trkpt><trkpt lat="39.017381620234" lon="8.954035363845325"><ele>59.333333333333336</ele><time>2026-04-04T10:08:06.998Z</time></trkpt><trkpt lat="39.01737015907324" lon="8.954149717432664"><ele>59.16666666666667</ele><time>2026-04-04T10:08:07.998Z</time></trkpt><trkpt lat="39.017351499372644" lon="8.95426827688552"><ele>59.0</ele><time>2026-04-04T10:08:08.998Z</time></trkpt><trkpt lat="39.01733786013148" lon="8.954395769922494"><ele>58.75</ele><time>2026-04-04T10:08:09.998Z</time></trkpt><trkpt lat="39.01732547881139" lon="8.95453514603464"><ele>58.5</ele><time>2026-04-04T10:08:10.998Z</time></trkpt><trkpt lat="39.017313710462226" lon="8.954691720443202"><ele>58.25</ele><time>2026-04-04T10:08:11.998Z</time></trkpt><trkpt lat="39.01730240284728" lon="8.95485575589177"><ele>58.0</ele><time>2026-04-04T10:08:12.998Z</time></trkpt><trkpt lat="39.017287377872805" lon="8.955023345043891"><ele>58.0</ele><time>2026-04-04T10:08:13.998Z</time></trkpt><trkpt lat="39.01726999092748" lon="8.955192607977763"><ele>58.0</ele><time>2026-04-04T10:08:14.997Z</time></trkpt><trkpt lat="39.01725512191574" lon="8.95536743704988"><ele>58.0</ele><time>2026-04-04T10:08:15.997Z</time></trkpt><trkpt lat="39.01724202217444" lon="8.955538531267605"><ele>58.0</ele><time>2026-04-04T10:08:16.997Z</time></trkpt><trkpt lat="39.0172316092939" lon="8.95570790037511"><ele>58.25</ele><time>2026-04-04T10:08:17.997Z</time></trkpt><trkpt lat="39.017218877089164" lon="8.955874596030586"><ele>58.5</ele><time>2026-04-04T10:08:18.997Z</time></trkpt><trkpt lat="39.01720495211224" lon="8.95604219618323"><ele>58.75</ele><time>2026-04-04T10:08:19.997Z</time></trkpt><trkpt lat="39.017189118202296" lon="8.956201192182865"><ele>59.0</ele><time>2026-04-04T10:08:21Z</time></trkpt><trkpt lat="39.01717384313924" lon="8.95636250129098"><ele>59.0</ele><time>2026-04-04T10:08:22Z</time></trkpt><trkpt lat="39.01715463876397" lon="8.956514403889543"><ele>59.0</ele><time>2026-04-04T10:08:23Z</time></trkpt><trkpt lat="39.017128607180645" lon="8.95666420223317"><ele>59.0</ele><time>2026-04-04T10:08:24Z</time></trkpt><trkpt lat="39.017090832054464" lon="8.95682999789053"><ele>59.0</ele><time>2026-04-04T10:08:25Z</time></trkpt><trkpt lat="39.017018875222526" lon="8.956984668941244"><ele>58.75</ele><time>2026-04-04T10:08:26Z</time></trkpt><trkpt lat="39.01696934369362" lon="8.957151531685424"><ele>58.5</ele><time>2026-04-04T10:08:27Z</time></trkpt><trkpt lat="39.016898213367526" lon="8.957311584411967"><ele>58.25</ele><time>2026-04-04T10:08:28Z</time></trkpt><trkpt lat="39.01683441807852" lon="8.957463661691271"><ele>58.0</ele><time>2026-04-04T10:08:29Z</time></trkpt><trkpt lat="39.016773432564314" lon="8.957605734216504"><ele>57.5</ele><time>2026-04-04T10:08:30Z</time></trkpt><trkpt lat="39.01671139957784" lon="8.957753545931514"><ele>57.0</ele><time>2026-04-04T10:08:31Z</time></trkpt><trkpt lat="39.01664441777061" lon="8.957901957641532"><ele>56.5</ele><time>2026-04-04T10:08:32Z</time></trkpt><trkpt lat="39.01658012058903" lon="8.958057741806234"><ele>56.0</ele><time>2026-04-04T10:08:33Z</time></trkpt><trkpt lat="39.016514105819596" lon="8.958216609977388"><ele>55.5</ele><time>2026-04-04T10:08:34Z</time></trkpt><trkpt lat="39.016447550204816" lon="8.958373460172012"><ele>55.0</ele><time>2026-04-04T10:08:35Z</time></trkpt><trkpt lat="39.01637837139768" lon="8.958538066089355"><ele>54.5</ele><time>2026-04-04T10:08:36Z</time></trkpt><trkpt lat="39.01631105688807" lon="8.958699758034241"><ele>54.0</ele><time>2026-04-04T10:08:37Z</time></trkpt><trkpt lat="39.016246974120946" lon="8.958873411760942"><ele>54.0</ele><time>2026-04-04T10:08:38Z</time></trkpt><trkpt lat="39.01618717455847" lon="8.959034217978903"><ele>54.0</ele><time>2026-04-04T10:08:39Z</time></trkpt><trkpt lat="39.01613013099351" lon="8.95918586288062"><ele>54.0</ele><time>2026-04-04T10:08:40Z</time></trkpt><trkpt lat="39.016076187138474" lon="8.959340035249364"><ele>54.0</ele><time>2026-04-04T10:08:41Z</time></trkpt><trkpt lat="39.016020923677075" lon="8.959493794528058"><ele>54.25</ele><time>2026-04-04T10:08:42Z</time></trkpt><trkpt lat="39.015962796605294" lon="8.959647484173813"><ele>54.5</ele><time>2026-04-04T10:08:43Z</time></trkpt><trkpt lat="39.01590307188081" lon="8.959805657181839"><ele>54.75</ele><time>2026-04-04T10:08:44Z</time></trkpt><trkpt lat="39.01584740975215" lon="8.959946077758415"><ele>55.0</ele><time>2026-04-04T10:08:45Z</time></trkpt><trkpt lat="39.0157927594264" lon="8.960097660828504"><ele>53.75</ele><time>2026-04-04T10:08:46Z</time></trkpt><trkpt lat="39.01574319326037" lon="8.96024951778346"><ele>52.5</ele><time>2026-04-04T10:08:47Z</time></trkpt><trkpt lat="39.015685295622944" lon="8.960403404886302"><ele>51.25</ele><time>2026-04-04T10:08:48Z</time></trkpt><trkpt lat="39.01562253226922" lon="8.960555649584293"><ele>50.0</ele><time>2026-04-04T10:08:49Z</time></trkpt><trkpt lat="39.015564077757084" lon="8.960710370801989"><ele>50.0</ele><time>2026-04-04T10:08:50Z</time></trkpt><trkpt lat="39.015513333772724" lon="8.960850211484608"><ele>50.0</ele><time>2026-04-04T10:08:51Z</time></trkpt><trkpt lat="39.015470591207006" lon="8.960968513626534"><ele>50.0</ele><time>2026-04-04T10:08:52Z</time></trkpt><trkpt lat="39.015427769779784" lon="8.961088992288259"><ele>50.0</ele><time>2026-04-04T10:08:53Z</time></trkpt><trkpt lat="39.01537981916892" lon="8.961204057733953"><ele>50.0</ele><time>2026-04-04T10:08:54Z</time></trkpt><trkpt lat="39.01533498694064" lon="8.961332797394041"><ele>50.4</ele><time>2026-04-04T10:08:55Z</time></trkpt><trkpt lat="39.0152757743303" lon="8.961459042466691"><ele>50.8</ele><time>2026-04-04T10:08:56Z</time></trkpt><trkpt lat="39.01521803642089" lon="8.961592061924911"><ele>51.2</ele><time>2026-04-04T10:08:56.999Z</time></trkpt><trkpt lat="39.01517702041601" lon="8.961721929420843"><ele>51.6</ele><time>2026-04-04T10:08:57.999Z</time></trkpt><trkpt lat="39.015140709994846" lon="8.961826864466195"><ele>52.0</ele><time>2026-04-04T10:08:58.999Z</time></trkpt><trkpt lat="39.01509361662982" lon="8.961947704583453"><ele>52.0</ele><time>2026-04-04T10:08:59.999Z</time></trkpt><trkpt lat="39.01504541738087" lon="8.962078047463534"><ele>52.0</ele><time>2026-04-04T10:09:00.999Z</time></trkpt><trkpt lat="39.014994306572284" lon="8.962215830889244"><ele>52.0</ele><time>2026-04-04T10:09:01.999Z</time></trkpt><trkpt lat="39.01494640130337" lon="8.962343472576059"><ele>52.0</ele><time>2026-04-04T10:09:02.999Z</time></trkpt><trkpt lat="39.01489647830931" lon="8.962473882065375"><ele>51.400000000000006</ele><time>2026-04-04T10:09:03.999Z</time></trkpt><trkpt lat="39.01484415503667" lon="8.962617564078812"><ele>50.800000000000004</ele><time>2026-04-04T10:09:04.999Z</time></trkpt><trkpt lat="39.0147951431778" lon="8.962751296196005"><ele>50.2</ele><time>2026-04-04T10:09:05.999Z</time></trkpt><trkpt lat="39.01475433583805" lon="8.962872656488955"><ele>49.6</ele><time>2026-04-04T10:09:06.999Z</time></trkpt><trkpt lat="39.01469982000015" lon="8.962990091401583"><ele>49.0</ele><time>2026-04-04T10:09:07.999Z</time></trkpt><trkpt lat="39.01465931737521" lon="8.963114957009603"><ele>49.0</ele><time>2026-04-04T10:09:08.999Z</time></trkpt><trkpt lat="39.01461430332955" lon="8.963252715527927"><ele>49.0</ele><time>2026-04-04T10:09:09.999Z</time></trkpt><trkpt lat="39.0145669122239" lon="8.963387413082527"><ele>49.0</ele><time>2026-04-04T10:09:10.999Z</time></trkpt><trkpt lat="39.014515830634295" lon="8.963520870615806"><ele>49.0</ele><time>2026-04-04T10:09:11.999Z</time></trkpt><trkpt lat="39.014468768658034" lon="8.9636473119972"><ele>49.0</ele><time>2026-04-04T10:09:12.999Z</time></trkpt><trkpt lat="39.01442622948099" lon="8.963768425075022"><ele>49.0</ele><time>2026-04-04T10:09:13.999Z</time></trkpt><trkpt lat="39.014380681299215" lon="8.963896902558794"><ele>49.0</ele><time>2026-04-04T10:09:14.999Z</time></trkpt><trkpt lat="39.014333956062366" lon="8.96402547729926"><ele>49.0</ele><time>2026-04-04T10:09:15.999Z</time></trkpt><trkpt lat="39.01428513875392" lon="8.964165670983014"><ele>49.0</ele><time>2026-04-04T10:09:16.999Z</time></trkpt><trkpt lat="39.014236465800515" lon="8.964300406839271"><ele>48.5</ele><time>2026-04-04T10:09:17.999Z</time></trkpt><trkpt lat="39.01418466024796" lon="8.964443295742786"><ele>48.0</ele><time>2026-04-04T10:09:18.999Z</time></trkpt><trkpt lat="39.01413226743684" lon="8.964593476705453"><ele>47.5</ele><time>2026-04-04T10:09:19.999Z</time></trkpt><trkpt lat="39.014083943300506" lon="8.964742365109117"><ele>47.0</ele><time>2026-04-04T10:09:20.999Z</time></trkpt><trkpt lat="39.01403070277134" lon="8.964895740980772"><ele>46.0</ele><time>2026-04-04T10:09:21.999Z</time></trkpt><trkpt lat="39.01397184753765" lon="8.965058362072496"><ele>45.0</ele><time>2026-04-04T10:09:22.999Z</time></trkpt><trkpt lat="39.01391198138079" lon="8.965216140101097"><ele>44.0</ele><time>2026-04-04T10:09:23.999Z</time></trkpt><trkpt lat="39.01386126234385" lon="8.965363737348033"><ele>43.0</ele><time>2026-04-04T10:09:24.999Z</time></trkpt><trkpt lat="39.01382732270275" lon="8.965506832124433"><ele>43.0</ele><time>2026-04-04T10:09:25.999Z</time></trkpt><trkpt lat="39.01380443206625" lon="8.965650435139928"><ele>43.0</ele><time>2026-04-04T10:09:26.999Z</time></trkpt><trkpt lat="39.01379013396107" lon="8.965783403896157"><ele>43.0</ele><time>2026-04-04T10:09:27.999Z</time></trkpt><trkpt lat="39.01379760499876" lon="8.965927800435294"><ele>43.0</ele><time>2026-04-04T10:09:28.999Z</time></trkpt><trkpt lat="39.01382279198929" lon="8.966084759522241"><ele>42.5</ele><time>2026-04-04T10:09:29.999Z</time></trkpt><trkpt lat="39.01385715763386" lon="8.966249216270688"><ele>42.0</ele><time>2026-04-04T10:09:30.999Z</time></trkpt><trkpt lat="39.01388704903177" lon="8.966406294685902"><ele>41.5</ele><time>2026-04-04T10:09:31.999Z</time></trkpt><trkpt lat="39.0139167104846" lon="8.966562383679472"><ele>41.0</ele><time>2026-04-04T10:09:32.999Z</time></trkpt><trkpt lat="39.01394518120384" lon="8.966720596042139"><ele>40.75</ele><time>2026-04-04T10:09:33.999Z</time></trkpt><trkpt lat="39.013980445582135" lon="8.966882523342461"><ele>40.5</ele><time>2026-04-04T10:09:34.999Z</time></trkpt><trkpt lat="39.014014932314176" lon="8.967042107444792"><ele>40.25</ele><time>2026-04-04T10:09:35.999Z</time></trkpt><trkpt lat="39.01404726239098" lon="8.967206658845845"><ele>40.0</ele><time>2026-04-04T10:09:36.999Z</time></trkpt><trkpt lat="39.014077298951634" lon="8.967373111945252"><ele>40.0</ele><time>2026-04-04T10:09:37.999Z</time></trkpt><trkpt lat="39.01410577284735" lon="8.967546974841762"><ele>40.0</ele><time>2026-04-04T10:09:38.999Z</time></trkpt><trkpt lat="39.01413271748937" lon="8.967719468401102"><ele>40.0</ele><time>2026-04-04T10:09:39.998Z</time></trkpt><trkpt lat="39.01415134350285" lon="8.967893366343379"><ele>40.0</ele><time>2026-04-04T10:09:40.998Z</time></trkpt><trkpt lat="39.01415568766076" lon="8.968067117643507"><ele>40.0</ele><time>2026-04-04T10:09:41.998Z</time></trkpt><trkpt lat="39.01415369638179" lon="8.96822937481523"><ele>40.0</ele><time>2026-04-04T10:09:42.998Z</time></trkpt><trkpt lat="39.01415842736172" lon="8.968390675706702"><ele>40.0</ele><time>2026-04-04T10:09:43.998Z</time></trkpt><trkpt lat="39.014166264345185" lon="8.968549095912485"><ele>40.0</ele><time>2026-04-04T10:09:44.998Z</time></trkpt><trkpt lat="39.01417484378972" lon="8.968706710218987"><ele>40.0</ele><time>2026-04-04T10:09:45.998Z</time></trkpt><trkpt lat="39.01417874604359" lon="8.96886450924373"><ele>40.0</ele><time>2026-04-04T10:09:46.998Z</time></trkpt><trkpt lat="39.01418322399943" lon="8.969028236886048"><ele>40.0</ele><time>2026-04-04T10:09:47.998Z</time></trkpt><trkpt lat="39.01418703339421" lon="8.969190916833199"><ele>40.0</ele><time>2026-04-04T10:09:48.998Z</time></trkpt><trkpt lat="39.014192009988534" lon="8.96935290041856"><ele>39.5</ele><time>2026-04-04T10:09:49.998Z</time></trkpt><trkpt lat="39.0141976630514" lon="8.969503317282312"><ele>39.0</ele><time>2026-04-04T10:09:50.998Z</time></trkpt><trkpt lat="39.01418137408264" lon="8.969651071442396"><ele>38.5</ele><time>2026-04-04T10:09:51.998Z</time></trkpt><trkpt lat="39.01413234793413" lon="8.969791684471032"><ele>38.0</ele><time>2026-04-04T10:09:52.998Z</time></trkpt><trkpt lat="39.01407568000568" lon="8.969921735204021"><ele>37.0</ele><time>2026-04-04T10:09:53.998Z</time></trkpt><trkpt lat="39.014035592713306" lon="8.970025449844954"><ele>36.0</ele><time>2026-04-04T10:09:54.998Z</time></trkpt><trkpt lat="39.014001308376564" lon="8.970106152962012"><ele>35.0</ele><time>2026-04-04T10:09:55.998Z</time></trkpt><trkpt lat="39.01396491964003" lon="8.970215533323769"><ele>34.0</ele><time>2026-04-04T10:09:57.998Z</time></trkpt><trkpt lat="39.0140880941363" lon="8.970207102989656"><ele>33.0</ele><time>2026-04-04T10:10:01.998Z</time></trkpt><trkpt lat="39.01414482067075" lon="8.970133829660133"><ele>33.6</ele><time>2026-04-04T10:10:02.998Z</time></trkpt><trkpt lat="39.01420027713599" lon="8.970039723565828"><ele>34.199999999999996</ele><time>2026-04-04T10:10:03.998Z</time></trkpt><trkpt lat="39.014284507527876" lon="8.969950767839114"><ele>34.8</ele><time>2026-04-04T10:10:04.998Z</time></trkpt><trkpt lat="39.01436120182009" lon="8.969845436882338"><ele>35.4</ele><time>2026-04-04T10:10:05.998Z</time></trkpt><trkpt lat="39.01442681717895" lon="8.96972575116487"><ele>36.0</ele><time>2026-04-04T10:10:06.998Z</time></trkpt><trkpt lat="39.014504568597665" lon="8.969652810144957"><ele>36.4</ele><time>2026-04-04T10:10:07.998Z</time></trkpt><trkpt lat="39.01458187916901" lon="8.969602482446282"><ele>36.8</ele><time>2026-04-04T10:10:08.998Z</time></trkpt><trkpt lat="39.01466577418976" lon="8.969564103881499"><ele>37.199999999999996</ele><time>2026-04-04T10:10:09.998Z</time></trkpt><trkpt lat="39.01475848221618" lon="8.969523323710378"><ele>37.6</ele><time>2026-04-04T10:10:10.998Z</time></trkpt><trkpt lat="39.01485402096007" lon="8.969481668536933"><ele>38.0</ele><time>2026-04-04T10:10:11.998Z</time></trkpt><trkpt lat="39.014950421915145" lon="8.969429233759072"><ele>38.25</ele><time>2026-04-04T10:10:12.998Z</time></trkpt><trkpt lat="39.015039173284606" lon="8.96935603909231"><ele>38.5</ele><time>2026-04-04T10:10:13.998Z</time></trkpt><trkpt lat="39.01513709765744" lon="8.969246016606034"><ele>38.75</ele><time>2026-04-04T10:10:14.998Z</time></trkpt><trkpt lat="39.01522921328691" lon="8.969118207994956"><ele>39.0</ele><time>2026-04-04T10:10:15.998Z</time></trkpt><trkpt lat="39.015322479874584" lon="8.968993620671393"><ele>39.0</ele><time>2026-04-04T10:10:16.998Z</time></trkpt><trkpt lat="39.01542369629081" lon="8.968854732460438"><ele>39.0</ele><time>2026-04-04T10:10:17.998Z</time></trkpt><trkpt lat="39.01551983578797" lon="8.96872311490692"><ele>39.0</ele><time>2026-04-04T10:10:18.998Z</time></trkpt><trkpt lat="39.01560217698708" lon="8.968615335251803"><ele>39.0</ele><time>2026-04-04T10:10:19.998Z</time></trkpt><trkpt lat="39.01567999685553" lon="8.968511528342741"><ele>39.0</ele><time>2026-04-04T10:10:20.998Z</time></trkpt><trkpt lat="39.01576831915423" lon="8.968411379486476"><ele>39.0</ele><time>2026-04-04T10:10:21.998Z</time></trkpt><trkpt lat="39.01587089214952" lon="8.96833986746536"><ele>39.0</ele><time>2026-04-04T10:10:22.998Z</time></trkpt><trkpt lat="39.0159668040361" lon="8.968254043008436"><ele>39.0</ele><time>2026-04-04T10:10:23.997Z</time></trkpt><trkpt lat="39.016050116575634" lon="8.968165813073549"><ele>40.0</ele><time>2026-04-04T10:10:24.997Z</time></trkpt><trkpt lat="39.01613986421376" lon="8.968099687351767"><ele>41.0</ele><time>2026-04-04T10:10:25.997Z</time></trkpt><trkpt lat="39.01623494686692" lon="8.968021292523018"><ele>42.0</ele><time>2026-04-04T10:10:27Z</time></trkpt><trkpt lat="39.01633135386569" lon="8.967943228104028"><ele>43.0</ele><time>2026-04-04T10:10:28Z</time></trkpt><trkpt lat="39.01642217161657" lon="8.967888016018424"><ele>44.0</ele><time>2026-04-04T10:10:29Z</time></trkpt><trkpt lat="39.016528857305595" lon="8.967862062317884"><ele>44.0</ele><time>2026-04-04T10:10:30Z</time></trkpt><trkpt lat="39.01663746073469" lon="8.967844845952438"><ele>44.0</ele><time>2026-04-04T10:10:31Z</time></trkpt><trkpt lat="39.01675614027288" lon="8.967846110352413"><ele>44.0</ele><time>2026-04-04T10:10:32Z</time></trkpt><trkpt lat="39.016878995796425" lon="8.967845139673804"><ele>44.0</ele><time>2026-04-04T10:10:33Z</time></trkpt><trkpt lat="39.017001341955925" lon="8.967825142335661"><ele>43.0</ele><time>2026-04-04T10:10:34Z</time></trkpt><trkpt lat="39.01711663541451" lon="8.967781321034924"><ele>42.0</ele><time>2026-04-04T10:10:35Z</time></trkpt><trkpt lat="39.01722799733224" lon="8.967740713993454"><ele>41.0</ele><time>2026-04-04T10:10:36Z</time></trkpt><trkpt lat="39.01733969329213" lon="8.967720449022933"><ele>40.0</ele><time>2026-04-04T10:10:37Z</time></trkpt><trkpt lat="39.017445205864604" lon="8.96766456636465"><ele>40.4</ele><time>2026-04-04T10:10:38Z</time></trkpt><trkpt lat="39.01755896789659" lon="8.967644388683166"><ele>40.8</ele><time>2026-04-04T10:10:39Z</time></trkpt><trkpt lat="39.017673072149236" lon="8.967596842628485"><ele>41.2</ele><time>2026-04-04T10:10:40Z</time></trkpt><trkpt lat="39.01777644008319" lon="8.967546757429236"><ele>41.6</ele><time>2026-04-04T10:10:41Z</time></trkpt><trkpt lat="39.017857156750736" lon="8.967502349542187"><ele>42.0</ele><time>2026-04-04T10:10:42Z</time></trkpt><trkpt lat="39.01792064806803" lon="8.96746528931792"><ele>42.0</ele><time>2026-04-04T10:10:43Z</time></trkpt><trkpt lat="39.01800321742762" lon="8.9673993685151"><ele>42.0</ele><time>2026-04-04T10:10:45Z</time></trkpt><trkpt lat="39.01803877317557" lon="8.967570035600788"><ele>42.0</ele><time>2026-04-04T10:10:51Z</time></trkpt><trkpt lat="39.018026925939864" lon="8.96766805905171"><ele>42.0</ele><time>2026-04-04T10:10:52Z</time></trkpt><trkpt lat="39.018011633382486" lon="8.96779850402654"><ele>42.0</ele><time>2026-04-04T10:10:53Z</time></trkpt><trkpt lat="39.017998595252834" lon="8.967937736280954"><ele>42.2</ele><time>2026-04-04T10:10:54Z</time></trkpt><trkpt lat="39.01799672744823" lon="8.968091878151863"><ele>42.400000000000006</ele><time>2026-04-04T10:10:55Z</time></trkpt><trkpt lat="39.01798929994527" lon="8.96821471448038"><ele>42.599999999999994</ele><time>2026-04-04T10:10:56Z</time></trkpt><trkpt lat="39.01799444653966" lon="8.968335993377648"><ele>42.8</ele><time>2026-04-04T10:10:57Z</time></trkpt><trkpt lat="39.01800352095984" lon="8.968448068397402"><ele>43.0</ele><time>2026-04-04T10:10:58Z</time></trkpt><trkpt lat="39.01801571868355" lon="8.968551127905705"><ele>42.66666666666667</ele><time>2026-04-04T10:10:59Z</time></trkpt><trkpt lat="39.01802309885669" lon="8.96866020202891"><ele>42.333333333333336</ele><time>2026-04-04T10:10:59.999Z</time></trkpt><trkpt lat="39.018018710802004" lon="8.968771067634115"><ele>42.0</ele><time>2026-04-04T10:11:00.999Z</time></trkpt><trkpt lat="39.018006371651076" lon="8.968876277734706"><ele>41.666666666666664</ele><time>2026-04-04T10:11:01.999Z</time></trkpt><trkpt lat="39.01799184962655" lon="8.968974627268146"><ele>41.33333333333333</ele><time>2026-04-04T10:11:02.999Z</time></trkpt><trkpt lat="39.01797444770786" lon="8.969083517322114"><ele>41.0</ele><time>2026-04-04T10:11:03.999Z</time></trkpt><trkpt lat="39.017947182606896" lon="8.969186281069575"><ele>41.5</ele><time>2026-04-04T10:11:04.999Z</time></trkpt><trkpt lat="39.01789398799335" lon="8.969265008868605"><ele>42.0</ele><time>2026-04-04T10:11:05.999Z</time></trkpt><trkpt lat="39.01783848774863" lon="8.969356642945614"><ele>42.5</ele><time>2026-04-04T10:11:06.999Z</time></trkpt><trkpt lat="39.01778677218398" lon="8.969442028328167"><ele>43.0</ele><time>2026-04-04T10:11:07.999Z</time></trkpt><trkpt lat="39.01775131446872" lon="8.969539945315772"><ele>43.5</ele><time>2026-04-04T10:11:08.999Z</time></trkpt><trkpt lat="39.017704063311605" lon="8.969627394226732"><ele>44.0</ele><time>2026-04-04T10:11:09.999Z</time></trkpt><trkpt lat="39.01766503242297" lon="8.969716283280608"><ele>44.0</ele><time>2026-04-04T10:11:10.999Z</time></trkpt><trkpt lat="39.017625366711655" lon="8.969811109400776"><ele>44.0</ele><time>2026-04-04T10:11:11.999Z</time></trkpt><trkpt lat="39.01759235276619" lon="8.969906715212318"><ele>44.0</ele><time>2026-04-04T10:11:12.999Z</time></trkpt><trkpt lat="39.01755851992971" lon="8.969998347318025"><ele>44.0</ele><time>2026-04-04T10:11:13.999Z</time></trkpt><trkpt lat="39.01752414815951" lon="8.970083428524003"><ele>44.0</ele><time>2026-04-04T10:11:14.999Z</time></trkpt><trkpt lat="39.017486368673815" lon="8.97015809925105"><ele>44.0</ele><time>2026-04-04T10:11:15.999Z</time></trkpt><trkpt lat="39.0174255632026" lon="8.97030206293956"><ele>43.800000000000004</ele><time>2026-04-04T10:11:17.999Z</time></trkpt><trkpt lat="39.01736307763701" lon="8.97034782780233"><ele>43.6</ele><time>2026-04-04T10:11:18.999Z</time></trkpt><trkpt lat="39.01726895534044" lon="8.97041087048685"><ele>43.4</ele><time>2026-04-04T10:11:20.999Z</time></trkpt><trkpt lat="39.01717566885966" lon="8.970461495279586"><ele>43.2</ele><time>2026-04-04T10:11:22.999Z</time></trkpt><trkpt lat="39.01711907364599" lon="8.970503548057296"><ele>43.0</ele><time>2026-04-04T10:11:23.999Z</time></trkpt><trkpt lat="39.01702920493136" lon="8.970588553579313"><ele>43.0</ele><time>2026-04-04T10:11:25.999Z</time></trkpt><trkpt lat="39.016945091018876" lon="8.97066413934416"><ele>43.0</ele><time>2026-04-04T10:11:27.999Z</time></trkpt><trkpt lat="39.01684263763902" lon="8.97074893756275"><ele>43.0</ele><time>2026-04-04T10:11:29.999Z</time></trkpt><trkpt lat="39.016775174950546" lon="8.970793193719343"><ele>43.0</ele><time>2026-04-04T10:11:30.999Z</time></trkpt><trkpt lat="39.01669039347135" lon="8.970847373249834"><ele>43.0</ele><time>2026-04-04T10:11:31.999Z</time></trkpt><trkpt lat="39.01662187372431" lon="8.970898196359043"><ele>42.199999999999996</ele><time>2026-04-04T10:11:32.999Z</time></trkpt><trkpt lat="39.01656778623304" lon="8.970940615981904"><ele>41.4</ele><time>2026-04-04T10:11:33.999Z</time></trkpt><trkpt lat="39.01647308454078" lon="8.97102520522624"><ele>40.599999999999994</ele><time>2026-04-04T10:11:35.999Z</time></trkpt><trkpt lat="39.016380262286944" lon="8.971141502838236"><ele>39.8</ele><time>2026-04-04T10:11:37.999Z</time></trkpt><trkpt lat="39.016323763805445" lon="8.971237718717632"><ele>39.0</ele><time>2026-04-04T10:11:38.999Z</time></trkpt><trkpt lat="39.01627095510372" lon="8.971322161968589"><ele>39.0</ele><time>2026-04-04T10:11:39.999Z</time></trkpt><trkpt lat="39.01623116060363" lon="8.971390177826233"><ele>39.0</ele><time>2026-04-04T10:11:40.999Z</time></trkpt><trkpt lat="39.01617748524304" lon="8.97152503285813"><ele>39.0</ele><time>2026-04-04T10:11:42.998Z</time></trkpt><trkpt lat="39.016168573676815" lon="8.971609629394976"><ele>39.0</ele><time>2026-04-04T10:11:43.998Z</time></trkpt><trkpt lat="39.016186875500004" lon="8.971725433341094"><ele>39.0</ele><time>2026-04-04T10:11:44.998Z</time></trkpt><trkpt lat="39.01620098974672" lon="8.971849123678632"><ele>39.0</ele><time>2026-04-04T10:11:45.998Z</time></trkpt><trkpt lat="39.01622559207176" lon="8.9719993079639"><ele>39.0</ele><time>2026-04-04T10:11:46.998Z</time></trkpt><trkpt lat="39.01626050230117" lon="8.972155285924025"><ele>39.0</ele><time>2026-04-04T10:11:47.998Z</time></trkpt><trkpt lat="39.016281029530695" lon="8.972269259828247"><ele>39.0</ele><time>2026-04-04T10:11:48.998Z</time></trkpt><trkpt lat="39.01624603548047" lon="8.972385319356292"><ele>39.0</ele><time>2026-04-04T10:11:49.998Z</time></trkpt><trkpt lat="39.01620586513137" lon="8.972531292039658"><ele>39.0</ele><time>2026-04-04T10:11:50.998Z</time></trkpt><trkpt lat="39.016162599491054" lon="8.972690830945611"><ele>39.0</ele><time>2026-04-04T10:11:51.998Z</time></trkpt><trkpt lat="39.01610783682802" lon="8.97286285891467"><ele>39.0</ele><time>2026-04-04T10:11:52.998Z</time></trkpt><trkpt lat="39.01605891029566" lon="8.973061046290574"><ele>39.0</ele><time>2026-04-04T10:11:53.998Z</time></trkpt><trkpt lat="39.01599211903406" lon="8.973270326109423"><ele>37.666666666666664</ele><time>2026-04-04T10:11:54.998Z</time></trkpt><trkpt lat="39.015933098203284" lon="8.973516867695917"><ele>36.33333333333333</ele><time>2026-04-04T10:11:55.998Z</time></trkpt><trkpt lat="39.01588744414115" lon="8.973753621662333"><ele>35.0</ele><time>2026-04-04T10:11:56.998Z</time></trkpt><trkpt lat="39.01584446437573" lon="8.973963514212764"><ele>35.0</ele><time>2026-04-04T10:11:57.998Z</time></trkpt><trkpt lat="39.01580601210366" lon="8.974148141459652"><ele>35.0</ele><time>2026-04-04T10:11:58.998Z</time></trkpt><trkpt lat="39.015771810885816" lon="8.974323141126227"><ele>35.0</ele><time>2026-04-04T10:11:59.998Z</time></trkpt><trkpt lat="39.01574413433393" lon="8.974487489414383"><ele>35.0</ele><time>2026-04-04T10:12:00.998Z</time></trkpt><trkpt lat="39.01572956442415" lon="8.974662039311925"><ele>35.0</ele><time>2026-04-04T10:12:01.998Z</time></trkpt><trkpt lat="39.01572375320486" lon="8.97483724311904"><ele>35.0</ele><time>2026-04-04T10:12:02.998Z</time></trkpt><trkpt lat="39.015721504246514" lon="8.975000740726387"><ele>35.0</ele><time>2026-04-04T10:12:03.998Z</time></trkpt><trkpt lat="39.01571589801542" lon="8.975141616571536"><ele>35.0</ele><time>2026-04-04T10:12:04.998Z</time></trkpt><trkpt lat="39.01567507670268" lon="8.975251174466404"><ele>34.2</ele><time>2026-04-04T10:12:05.998Z</time></trkpt><trkpt lat="39.015641613315175" lon="8.97536664386823"><ele>33.4</ele><time>2026-04-04T10:12:06.998Z</time></trkpt><trkpt lat="39.015613259652326" lon="8.975487022048288"><ele>32.6</ele><time>2026-04-04T10:12:07.998Z</time></trkpt><trkpt lat="39.015563262290605" lon="8.975603508970897"><ele>31.8</ele><time>2026-04-04T10:12:08.998Z</time></trkpt><trkpt lat="39.01550397143075" lon="8.97571729604578"><ele>31.0</ele><time>2026-04-04T10:12:09.998Z</time></trkpt><trkpt lat="39.0154427146351" lon="8.975827082607767"><ele>30.6</ele><time>2026-04-04T10:12:10.998Z</time></trkpt><trkpt lat="39.01537612668742" lon="8.975940981505225"><ele>30.200000000000003</ele><time>2026-04-04T10:12:11.998Z</time></trkpt><trkpt lat="39.01530894636208" lon="8.976049359078704"><ele>29.799999999999997</ele><time>2026-04-04T10:12:12.998Z</time></trkpt><trkpt lat="39.01526120241412" lon="8.976152272688713"><ele>29.4</ele><time>2026-04-04T10:12:13.998Z</time></trkpt><trkpt lat="39.01520292238193" lon="8.976246125502444"><ele>29.0</ele><time>2026-04-04T10:12:14.998Z</time></trkpt><trkpt lat="39.0151649890921" lon="8.976347161467805"><ele>29.0</ele><time>2026-04-04T10:12:15.998Z</time></trkpt><trkpt lat="39.01515085047048" lon="8.9764374941791"><ele>29.0</ele><time>2026-04-04T10:12:16.998Z</time></trkpt><trkpt lat="39.01512807421346" lon="8.97654098751816"><ele>29.0</ele><time>2026-04-04T10:12:18.998Z</time></trkpt><trkpt lat="39.015096641606014" lon="8.97662464747069"><ele>29.0</ele><time>2026-04-04T10:12:21.998Z</time></trkpt><trkpt lat="39.01502277724932" lon="8.976874981782462"><ele>29.0</ele><time>2026-04-04T10:12:23.998Z</time></trkpt><trkpt lat="39.015445246140686" lon="8.976765383395648"><ele>28.999999999999996</ele><time>2026-04-04T10:12:25.998Z</time></trkpt><trkpt lat="39.01550103813148" lon="8.976712505487955"><ele>29.0</ele><time>2026-04-04T10:12:26.997Z</time></trkpt><trkpt lat="39.015550056251314" lon="8.976646493449996"><ele>29.0</ele><time>2026-04-04T10:12:27.997Z</time></trkpt><trkpt lat="39.015596369841944" lon="8.97658412356946"><ele>29.0</ele><time>2026-04-04T10:12:28.997Z</time></trkpt><trkpt lat="39.015649455803505" lon="8.976512119115563"><ele>28.999999999999996</ele><time>2026-04-04T10:12:30.997Z</time></trkpt><trkpt lat="39.01572256891783" lon="8.976397987856306"><ele>29.0</ele><time>2026-04-04T10:12:36Z</time></trkpt><trkpt lat="39.015782038267474" lon="8.976338113525243"><ele>29.4</ele><time>2026-04-04T10:12:37Z</time></trkpt><trkpt lat="39.01585798674259" lon="8.9762845944902"><ele>29.799999999999997</ele><time>2026-04-04T10:12:38Z</time></trkpt><trkpt lat="39.01593882015573" lon="8.976220988816898"><ele>30.200000000000003</ele><time>2026-04-04T10:12:39Z</time></trkpt><trkpt lat="39.01602404033775" lon="8.976151485487927"><ele>30.6</ele><time>2026-04-04T10:12:40Z</time></trkpt><trkpt lat="39.01611689149447" lon="8.976058301581231"><ele>31.0</ele><time>2026-04-04T10:12:41Z</time></trkpt><trkpt lat="39.01620367750917" lon="8.975933343046652"><ele>30.5</ele><time>2026-04-04T10:12:42Z</time></trkpt><trkpt lat="39.01627958134994" lon="8.975781908616517"><ele>30.0</ele><time>2026-04-04T10:12:43Z</time></trkpt><trkpt lat="39.016350805452994" lon="8.975626633678045"><ele>29.5</ele><time>2026-04-04T10:12:44Z</time></trkpt><trkpt lat="39.01642433359405" lon="8.975499717247407"><ele>29.0</ele><time>2026-04-04T10:12:45Z</time></trkpt><trkpt lat="39.01651497159524" lon="8.975412211541705"><ele>28.999999999999996</ele><time>2026-04-04T10:12:46Z</time></trkpt><trkpt lat="39.0165880246824" lon="8.975314736629093"><ele>29.0</ele><time>2026-04-04T10:12:47Z</time></trkpt><trkpt lat="39.016660277234045" lon="8.975253876534362"><ele>29.0</ele><time>2026-04-04T10:12:48Z</time></trkpt><trkpt lat="39.01670940186066" lon="8.97519576191644"><ele>29.0</ele><time>2026-04-04T10:12:49Z</time></trkpt><trkpt lat="39.016770585618346" lon="8.975146926815558"><ele>28.999999999999996</ele><time>2026-04-04T10:12:50Z</time></trkpt><trkpt lat="39.016834652094836" lon="8.975080022409411"><ele>29.0</ele><time>2026-04-04T10:12:51Z</time></trkpt><trkpt lat="39.01687163674978" lon="8.974935919314019"><ele>30.0</ele><time>2026-04-04T10:12:52Z</time></trkpt><trkpt lat="39.016942131361006" lon="8.974839656065946"><ele>31.0</ele><time>2026-04-04T10:12:53Z</time></trkpt><trkpt lat="39.01700616834599" lon="8.974757470616012"><ele>32.0</ele><time>2026-04-04T10:12:54Z</time></trkpt><trkpt lat="39.017056221797375" lon="8.974697158326602"><ele>33.0</ele><time>2026-04-04T10:12:55Z</time></trkpt><trkpt lat="39.01713879488134" lon="8.97461569873309"><ele>34.0</ele><time>2026-04-04T10:12:57Z</time></trkpt><trkpt lat="39.01722879373969" lon="8.974679006799503"><ele>34.0</ele><time>2026-04-04T10:13:00Z</time></trkpt><trkpt lat="39.01726134148753" lon="8.974751493636731"><ele>34.0</ele><time>2026-04-04T10:13:01Z</time></trkpt><trkpt lat="39.01731186793111" lon="8.97483823278365"><ele>34.0</ele><time>2026-04-04T10:13:02Z</time></trkpt><trkpt lat="39.017370863880686" lon="8.97492369480109"><ele>34.0</ele><time>2026-04-04T10:13:03Z</time></trkpt><trkpt lat="39.017430018634485" lon="8.975006844357894"><ele>34.0</ele><time>2026-04-04T10:13:04Z</time></trkpt><trkpt lat="39.017480521708485" lon="8.975102688312933"><ele>34.0</ele><time>2026-04-04T10:13:05Z</time></trkpt><trkpt lat="39.01753693503638" lon="8.975205962108163"><ele>34.6</ele><time>2026-04-04T10:13:06Z</time></trkpt><trkpt lat="39.01759963174873" lon="8.975307171758105"><ele>35.2</ele><time>2026-04-04T10:13:07Z</time></trkpt><trkpt lat="39.01766203287098" lon="8.975414314228246"><ele>35.800000000000004</ele><time>2026-04-04T10:13:07.999Z</time></trkpt><trkpt lat="39.01771460980608" lon="8.97552602885689"><ele>36.4</ele><time>2026-04-04T10:13:08.999Z</time></trkpt><trkpt lat="39.01777392947033" lon="8.975624043165485"><ele>37.0</ele><time>2026-04-04T10:13:09.999Z</time></trkpt><trkpt lat="39.01782725289915" lon="8.975719925347768"><ele>37.0</ele><time>2026-04-04T10:13:10.999Z</time></trkpt><trkpt lat="39.01787077295208" lon="8.975801336277591"><ele>37.0</ele><time>2026-04-04T10:13:11.999Z</time></trkpt><trkpt lat="39.017967437816345" lon="8.975849727866208"><ele>37.0</ele><time>2026-04-04T10:13:13.999Z</time></trkpt><trkpt lat="39.0180609746875" lon="8.97575310938483"><ele>37.0</ele><time>2026-04-04T10:13:15.999Z</time></trkpt><trkpt lat="39.018105334005895" lon="8.975685573936863"><ele>37.0</ele><time>2026-04-04T10:13:16.999Z</time></trkpt><trkpt lat="39.01818205623749" lon="8.975615294855842"><ele>37.0</ele><time>2026-04-04T10:13:18.999Z</time></trkpt><trkpt lat="39.01825854085615" lon="8.975643779063306"><ele>37.0</ele><time>2026-04-04T10:13:20.999Z</time></trkpt><trkpt lat="39.01836676782945" lon="8.975712338078234"><ele>37.0</ele><time>2026-04-04T10:13:22.999Z</time></trkpt><trkpt lat="39.01842029184192" lon="8.975761936569583"><ele>37.0</ele><time>2026-04-04T10:13:23.999Z</time></trkpt><trkpt lat="39.01846857683642" lon="8.975815750495507"><ele>37.0</ele><time>2026-04-04T10:13:24.999Z</time></trkpt><trkpt lat="39.018506666666234" lon="8.975918632685246"><ele>37.0</ele><time>2026-04-04T10:13:26.999Z</time></trkpt><trkpt lat="39.01851569440926" lon="8.97601220128087"><ele>38.5</ele><time>2026-04-04T10:13:28.999Z</time></trkpt><trkpt lat="39.018579400555915" lon="8.976083083932041"><ele>40.0</ele><time>2026-04-04T10:13:30.999Z</time></trkpt><trkpt lat="39.018632342675055" lon="8.976161417023881"><ele>41.5</ele><time>2026-04-04T10:13:32.999Z</time></trkpt><trkpt lat="39.01871974710106" lon="8.976149841483592"><ele>43.0</ele><time>2026-04-04T10:13:35.999Z</time></trkpt><trkpt lat="39.018791039188365" lon="8.976099631638714"><ele>44.5</ele><time>2026-04-04T10:13:36.999Z</time></trkpt><trkpt lat="39.01887902604017" lon="8.976042257633178"><ele>46.0</ele><time>2026-04-04T10:13:37.999Z</time></trkpt><trkpt lat="39.018970264523894" lon="8.975992811747824"><ele>46.0</ele><time>2026-04-04T10:13:38.999Z</time></trkpt><trkpt lat="39.019074882261535" lon="8.975920432649188"><ele>46.0</ele><time>2026-04-04T10:13:39.999Z</time></trkpt><trkpt lat="39.01918111117099" lon="8.975840351859844"><ele>46.0</ele><time>2026-04-04T10:13:40.999Z</time></trkpt><trkpt lat="39.01929062643958" lon="8.97575038284034"><ele>46.0</ele><time>2026-04-04T10:13:41.999Z</time></trkpt><trkpt lat="39.01939874648098" lon="8.975648896482575"><ele>46.5</ele><time>2026-04-04T10:13:42.999Z</time></trkpt><trkpt lat="39.019500061716585" lon="8.975529827259512"><ele>47.0</ele><time>2026-04-04T10:13:43.999Z</time></trkpt><trkpt lat="39.01960565790049" lon="8.975407315109361"><ele>47.5</ele><time>2026-04-04T10:13:44.999Z</time></trkpt><trkpt lat="39.01970381072078" lon="8.975284134925738"><ele>48.0</ele><time>2026-04-04T10:13:45.999Z</time></trkpt><trkpt lat="39.01979060641691" lon="8.975174092753198"><ele>48.0</ele><time>2026-04-04T10:13:46.999Z</time></trkpt><trkpt lat="39.01987271705189" lon="8.975057042967178"><ele>48.0</ele><time>2026-04-04T10:13:47.999Z</time></trkpt><trkpt lat="39.01995803145151" lon="8.974934051941844"><ele>48.0</ele><time>2026-04-04T10:13:48.999Z</time></trkpt><trkpt lat="39.02004479099233" lon="8.974801880851519"><ele>48.0</ele><time>2026-04-04T10:13:49.999Z</time></trkpt><trkpt lat="39.02013550302277" lon="8.974669296575106"><ele>49.0</ele><time>2026-04-04T10:13:50.999Z</time></trkpt><trkpt lat="39.020224094121126" lon="8.974534720833349"><ele>50.0</ele><time>2026-04-04T10:13:51.998Z</time></trkpt><trkpt lat="39.02030478447288" lon="8.974402413127265"><ele>51.0</ele><time>2026-04-04T10:13:52.998Z</time></trkpt><trkpt lat="39.020357936824865" lon="8.974277934862778"><ele>52.0</ele><time>2026-04-04T10:13:53.998Z</time></trkpt><trkpt lat="39.02038637898874" lon="8.974133071751906"><ele>52.0</ele><time>2026-04-04T10:13:54.998Z</time></trkpt><trkpt lat="39.020409377954756" lon="8.973975600768025"><ele>52.0</ele><time>2026-04-04T10:13:55.998Z</time></trkpt><trkpt lat="39.02043821424826" lon="8.973811737082361"><ele>52.0</ele><time>2026-04-04T10:13:56.998Z</time></trkpt><trkpt lat="39.020465260936064" lon="8.973649083578628"><ele>52.0</ele><time>2026-04-04T10:13:57.998Z</time></trkpt><trkpt lat="39.02049037541934" lon="8.973487994619425"><ele>51.25</ele><time>2026-04-04T10:13:58.998Z</time></trkpt><trkpt lat="39.02052918638239" lon="8.973331327455607"><ele>50.5</ele><time>2026-04-04T10:13:59.998Z</time></trkpt><trkpt lat="39.020584753230985" lon="8.973178975950608"><ele>49.75</ele><time>2026-04-04T10:14:00.998Z</time></trkpt><trkpt lat="39.020656353872596" lon="8.973035614896204"><ele>49.0</ele><time>2026-04-04T10:14:01.998Z</time></trkpt><trkpt lat="39.02074018970502" lon="8.972898203528588"><ele>50.25</ele><time>2026-04-04T10:14:02.998Z</time></trkpt><trkpt lat="39.020831387439486" lon="8.97276854454743"><ele>51.5</ele><time>2026-04-04T10:14:03.998Z</time></trkpt><trkpt lat="39.02093001609313" lon="8.972652118176985"><ele>52.75</ele><time>2026-04-04T10:14:04.998Z</time></trkpt><trkpt lat="39.0210394463457" lon="8.972550393857363"><ele>54.0</ele><time>2026-04-04T10:14:05.998Z</time></trkpt><trkpt lat="39.021152201411944" lon="8.972461522277536"><ele>54.0</ele><time>2026-04-04T10:14:06.998Z</time></trkpt><trkpt lat="39.02126416110175" lon="8.972372779190037"><ele>54.0</ele><time>2026-04-04T10:14:07.998Z</time></trkpt><trkpt lat="39.021373651862504" lon="8.97227813896815"><ele>54.0</ele><time>2026-04-04T10:14:08.998Z</time></trkpt><trkpt lat="39.02148331771578" lon="8.972183682836857"><ele>54.0</ele><time>2026-04-04T10:14:09.998Z</time></trkpt><trkpt lat="39.02159486658406" lon="8.972086258782692"><ele>55.66666666666667</ele><time>2026-04-04T10:14:10.998Z</time></trkpt><trkpt lat="39.02171003106754" lon="8.971986493689503"><ele>57.333333333333336</ele><time>2026-04-04T10:14:11.998Z</time></trkpt><trkpt lat="39.021831869040156" lon="8.971875815521138"><ele>59.0</ele><time>2026-04-04T10:14:12.998Z</time></trkpt><trkpt lat="39.02197113298551" lon="8.971760557506961"><ele>57.66666666666667</ele><time>2026-04-04T10:14:13.998Z</time></trkpt><trkpt lat="39.022126504758525" lon="8.971639087162758"><ele>56.33333333333333</ele><time>2026-04-04T10:14:14.998Z</time></trkpt><trkpt lat="39.022289366666854" lon="8.971479286222946"><ele>55.0</ele><time>2026-04-04T10:14:15.998Z</time></trkpt><trkpt lat="39.022432866084856" lon="8.971315379881407"><ele>56.0</ele><time>2026-04-04T10:14:16.998Z</time></trkpt><trkpt lat="39.02256469102778" lon="8.97119061187091"><ele>57.0</ele><time>2026-04-04T10:14:17.998Z</time></trkpt><trkpt lat="39.0226969735477" lon="8.971094900354286"><ele>58.0</ele><time>2026-04-04T10:14:18.998Z</time></trkpt><trkpt lat="39.02283259999363" lon="8.971014551274529"><ele>58.0</ele><time>2026-04-04T10:14:19.998Z</time></trkpt><trkpt lat="39.022951860353544" lon="8.970934047744903"><ele>58.0</ele><time>2026-04-04T10:14:20.998Z</time></trkpt><trkpt lat="39.02305178312831" lon="8.970844274024106"><ele>58.0</ele><time>2026-04-04T10:14:21.998Z</time></trkpt><trkpt lat="39.023134878140404" lon="8.970750731123497"><ele>58.0</ele><time>2026-04-04T10:14:22.998Z</time></trkpt><trkpt lat="39.02320554453129" lon="8.97064278494283"><ele>57.75</ele><time>2026-04-04T10:14:23.998Z</time></trkpt><trkpt lat="39.02325685363012" lon="8.97051508980786"><ele>57.5</ele><time>2026-04-04T10:14:24.998Z</time></trkpt><trkpt lat="39.023305228229056" lon="8.970384446706175"><ele>57.25</ele><time>2026-04-04T10:14:25.998Z</time></trkpt><trkpt lat="39.02336463058761" lon="8.970261238699083"><ele>57.0</ele><time>2026-04-04T10:14:26.998Z</time></trkpt><trkpt lat="39.023449898792634" lon="8.970161000663198"><ele>57.75</ele><time>2026-04-04T10:14:27.998Z</time></trkpt><trkpt lat="39.02354714987103" lon="8.970068567063146"><ele>58.5</ele><time>2026-04-04T10:14:28.998Z</time></trkpt><trkpt lat="39.02364155825596" lon="8.969980808412977"><ele>59.25</ele><time>2026-04-04T10:14:29.998Z</time></trkpt><trkpt lat="39.02373653574737" lon="8.96988745534463"><ele>60.0</ele><time>2026-04-04T10:14:30.998Z</time></trkpt><trkpt lat="39.02382660032293" lon="8.96978865241073"><ele>60.0</ele><time>2026-04-04T10:14:31.998Z</time></trkpt><trkpt lat="39.0239171542436" lon="8.969700524600876"><ele>60.0</ele><time>2026-04-04T10:14:32.998Z</time></trkpt><trkpt lat="39.02401345191632" lon="8.969621354684582"><ele>60.0</ele><time>2026-04-04T10:14:33.998Z</time></trkpt><trkpt lat="39.024109011305875" lon="8.969534712918373"><ele>60.0</ele><time>2026-04-04T10:14:34.998Z</time></trkpt><trkpt lat="39.024202080861144" lon="8.969437693341188"><ele>61.0</ele><time>2026-04-04T10:14:35.997Z</time></trkpt><trkpt lat="39.024285221327304" lon="8.96933838793422"><ele>62.0</ele><time>2026-04-04T10:14:36.997Z</time></trkpt><trkpt lat="39.024383388816524" lon="8.969255809664823"><ele>63.0</ele><time>2026-04-04T10:14:37.997Z</time></trkpt><trkpt lat="39.024497847908854" lon="8.969187138397478"><ele>64.0</ele><time>2026-04-04T10:14:39Z</time></trkpt><trkpt lat="39.024610478837964" lon="8.969099620185842"><ele>64.0</ele><time>2026-04-04T10:14:40Z</time></trkpt><trkpt lat="39.02471567973552" lon="8.96900732810211"><ele>64.0</ele><time>2026-04-04T10:14:41Z</time></trkpt><trkpt lat="39.02481116505113" lon="8.968938832069716"><ele>64.0</ele><time>2026-04-04T10:14:42Z</time></trkpt><trkpt lat="39.02490354481136" lon="8.968895745545312"><ele>64.0</ele><time>2026-04-04T10:14:43Z</time></trkpt><trkpt lat="39.024987754018305" lon="8.968863802934456"><ele>64.0</ele><time>2026-04-04T10:14:44Z</time></trkpt><trkpt lat="39.0250619894796" lon="8.96883879670706"><ele>65.0</ele><time>2026-04-04T10:14:45Z</time></trkpt><trkpt lat="39.02512207572194" lon="8.968802104388837"><ele>66.0</ele><time>2026-04-04T10:14:47Z</time></trkpt><trkpt lat="39.025178766132925" lon="8.968758395764908"><ele>67.0</ele><time>2026-04-04T10:14:54Z</time></trkpt><trkpt lat="39.02525434388545" lon="8.968674833735852"><ele>68.0</ele><time>2026-04-04T10:14:57Z</time></trkpt><trkpt lat="39.025367866000536" lon="8.96860624017266"><ele>69.0</ele><time>2026-04-04T10:14:59Z</time></trkpt><trkpt lat="39.025445530964696" lon="8.96853812916257"><ele>69.0</ele><time>2026-04-04T10:15:00Z</time></trkpt><trkpt lat="39.025522425939634" lon="8.968460676827904"><ele>69.0</ele><time>2026-04-04T10:15:01Z</time></trkpt><trkpt lat="39.02560017624145" lon="8.968373385567816"><ele>69.0</ele><time>2026-04-04T10:15:02Z</time></trkpt><trkpt lat="39.02567574312461" lon="8.968285172153433"><ele>69.0</ele><time>2026-04-04T10:15:03Z</time></trkpt><trkpt lat="39.02574383530242" lon="8.968197305332371"><ele>69.0</ele><time>2026-04-04T10:15:04Z</time></trkpt><trkpt lat="39.02580566706608" lon="8.968106092927863"><ele>69.0</ele><time>2026-04-04T10:15:05Z</time></trkpt><trkpt lat="39.025867210852425" lon="8.968024845280206"><ele>69.0</ele><time>2026-04-04T10:15:06Z</time></trkpt><trkpt lat="39.02592711313518" lon="8.967940157078758"><ele>69.0</ele><time>2026-04-04T10:15:07Z</time></trkpt><trkpt lat="39.025989412656465" lon="8.967848779468069"><ele>69.0</ele><time>2026-04-04T10:15:08Z</time></trkpt><trkpt lat="39.02605568808613" lon="8.967757778424518"><ele>69.0</ele><time>2026-04-04T10:15:09Z</time></trkpt><trkpt lat="39.02612473299567" lon="8.96766922737228"><ele>69.0</ele><time>2026-04-04T10:15:10Z</time></trkpt><trkpt lat="39.02619864392077" lon="8.967584116363993"><ele>69.0</ele><time>2026-04-04T10:15:11Z</time></trkpt><trkpt lat="39.026279927230064" lon="8.967500480629253"><ele>69.0</ele><time>2026-04-04T10:15:11.999Z</time></trkpt><trkpt lat="39.02636632966584" lon="8.967417382706335"><ele>69.0</ele><time>2026-04-04T10:15:12.999Z</time></trkpt><trkpt lat="39.026457077536996" lon="8.967323020449816"><ele>69.0</ele><time>2026-04-04T10:15:13.999Z</time></trkpt><trkpt lat="39.026545242305026" lon="8.967222370186327"><ele>69.25</ele><time>2026-04-04T10:15:14.999Z</time></trkpt><trkpt lat="39.02663095417302" lon="8.967114629462872"><ele>69.5</ele><time>2026-04-04T10:15:15.999Z</time></trkpt><trkpt lat="39.02670861260353" lon="8.966996192035342"><ele>69.75</ele><time>2026-04-04T10:15:16.999Z</time></trkpt><trkpt lat="39.02677465283506" lon="8.966867988160699"><ele>70.0</ele><time>2026-04-04T10:15:17.999Z</time></trkpt><trkpt lat="39.02684369952154" lon="8.96674184187873"><ele>70.5</ele><time>2026-04-04T10:15:18.999Z</time></trkpt><trkpt lat="39.02692826665923" lon="8.966625754719455"><ele>71.0</ele><time>2026-04-04T10:15:19.999Z</time></trkpt><trkpt lat="39.02702141299121" lon="8.966515903313478"><ele>71.5</ele><time>2026-04-04T10:15:20.999Z</time></trkpt><trkpt lat="39.02712101076632" lon="8.966414842644138"><ele>72.0</ele><time>2026-04-04T10:15:21.999Z</time></trkpt><trkpt lat="39.027224132830355" lon="8.96632775234627"><ele>72.0</ele><time>2026-04-04T10:15:22.999Z</time></trkpt><trkpt lat="39.027321599998096" lon="8.966253952943969"><ele>72.0</ele><time>2026-04-04T10:15:23.999Z</time></trkpt><trkpt lat="39.02743216084154" lon="8.966177048549717"><ele>72.0</ele><time>2026-04-04T10:15:24.999Z</time></trkpt><trkpt lat="39.02754115267137" lon="8.96609210956398"><ele>72.0</ele><time>2026-04-04T10:15:25.999Z</time></trkpt><trkpt lat="39.02766896199838" lon="8.965989825676223"><ele>72.75</ele><time>2026-04-04T10:15:26.999Z</time></trkpt><trkpt lat="39.02778797040583" lon="8.965894818870233"><ele>73.5</ele><time>2026-04-04T10:15:27.999Z</time></trkpt><trkpt lat="39.02789291411931" lon="8.965814446515994"><ele>74.25</ele><time>2026-04-04T10:15:28.999Z</time></trkpt><trkpt lat="39.02798131851772" lon="8.965742503373828"><ele>75.0</ele><time>2026-04-04T10:15:29.999Z</time></trkpt><trkpt lat="39.02805608110144" lon="8.965678495987142"><ele>75.2</ele><time>2026-04-04T10:15:30.999Z</time></trkpt><trkpt lat="39.02811086673527" lon="8.965614234624194"><ele>75.4</ele><time>2026-04-04T10:15:31.999Z</time></trkpt><trkpt lat="39.028197203549375" lon="8.965504819791555"><ele>75.6</ele><time>2026-04-04T10:15:33.999Z</time></trkpt><trkpt lat="39.02824008367665" lon="8.965415495605999"><ele>75.8</ele><time>2026-04-04T10:15:34.999Z</time></trkpt><trkpt lat="39.028277832332726" lon="8.965292423188648"><ele>76.0</ele><time>2026-04-04T10:15:35.999Z</time></trkpt><trkpt lat="39.028325518382395" lon="8.965155342160594"><ele>76.75</ele><time>2026-04-04T10:15:36.999Z</time></trkpt><trkpt lat="39.02838920606968" lon="8.965010033882727"><ele>77.5</ele><time>2026-04-04T10:15:37.999Z</time></trkpt><trkpt lat="39.028456242443546" lon="8.964882879763913"><ele>78.25</ele><time>2026-04-04T10:15:38.999Z</time></trkpt><trkpt lat="39.028542718839994" lon="8.964775512168027"><ele>79.0</ele><time>2026-04-04T10:15:39.999Z</time></trkpt><trkpt lat="39.02864693142711" lon="8.964678021498532"><ele>79.0</ele><time>2026-04-04T10:15:40.999Z</time></trkpt><trkpt lat="39.02875288901613" lon="8.964553283301573"><ele>79.0</ele><time>2026-04-04T10:15:41.999Z</time></trkpt><trkpt lat="39.02882225964998" lon="8.964441657426697"><ele>79.0</ele><time>2026-04-04T10:15:42.999Z</time></trkpt><trkpt lat="39.02885576261741" lon="8.964305337880708"><ele>79.0</ele><time>2026-04-04T10:15:43.999Z</time></trkpt><trkpt lat="39.02887959605427" lon="8.964144987422449"><ele>78.75</ele><time>2026-04-04T10:15:44.999Z</time></trkpt><trkpt lat="39.02890709090445" lon="8.96397935332763"><ele>78.5</ele><time>2026-04-04T10:15:45.999Z</time></trkpt><trkpt lat="39.02893726738123" lon="8.963808457119253"><ele>78.25</ele><time>2026-04-04T10:15:46.999Z</time></trkpt><trkpt lat="39.028959898905356" lon="8.963634992602039"><ele>78.0</ele><time>2026-04-04T10:15:47.999Z</time></trkpt><trkpt lat="39.02899011564985" lon="8.96342617337428"><ele>78.33333333333333</ele><time>2026-04-04T10:15:48.999Z</time></trkpt><trkpt lat="39.029031210193494" lon="8.963203062812047"><ele>78.66666666666666</ele><time>2026-04-04T10:15:49.999Z</time></trkpt><trkpt lat="39.02907668585342" lon="8.962963135367637"><ele>79.0</ele><time>2026-04-04T10:15:50.999Z</time></trkpt><trkpt lat="39.02911174715539" lon="8.962754757100429"><ele>80.25</ele><time>2026-04-04T10:15:51.999Z</time></trkpt><trkpt lat="39.02915247611061" lon="8.962583904225443"><ele>81.5</ele><time>2026-04-04T10:15:52.999Z</time></trkpt><trkpt lat="39.02919873982386" lon="8.962423758474955"><ele>82.75</ele><time>2026-04-04T10:15:53.999Z</time></trkpt><trkpt lat="39.02924683123049" lon="8.96225313760768"><ele>84.0</ele><time>2026-04-04T10:15:54.999Z</time></trkpt><trkpt lat="39.0292975604366" lon="8.962074821340103"><ele>84.25</ele><time>2026-04-04T10:15:55.998Z</time></trkpt><trkpt lat="39.02935058065631" lon="8.961905140715617"><ele>84.5</ele><time>2026-04-04T10:15:56.998Z</time></trkpt><trkpt lat="39.029401964223595" lon="8.961740549159437"><ele>84.75</ele><time>2026-04-04T10:15:57.998Z</time></trkpt><trkpt lat="39.02945495619009" lon="8.961590685766836"><ele>85.0</ele><time>2026-04-04T10:15:58.998Z</time></trkpt><trkpt lat="39.029514136750194" lon="8.961446872653454"><ele>85.0</ele><time>2026-04-04T10:15:59.998Z</time></trkpt><trkpt lat="39.02958092751288" lon="8.961305488188355"><ele>85.0</ele><time>2026-04-04T10:16:00.998Z</time></trkpt><trkpt lat="39.02964888911533" lon="8.96116722658185"><ele>85.0</ele><time>2026-04-04T10:16:01.998Z</time></trkpt><trkpt lat="39.02971580605194" lon="8.961021448648346"><ele>85.0</ele><time>2026-04-04T10:16:02.998Z</time></trkpt><trkpt lat="39.02978126330219" lon="8.960877080552565"><ele>84.25</ele><time>2026-04-04T10:16:03.998Z</time></trkpt><trkpt lat="39.029850270188305" lon="8.960735177991552"><ele>83.5</ele><time>2026-04-04T10:16:04.998Z</time></trkpt><trkpt lat="39.02992702090324" lon="8.960597796194124"><ele>82.75</ele><time>2026-04-04T10:16:05.998Z</time></trkpt><trkpt lat="39.03000886757712" lon="8.960461331971416"><ele>82.0</ele><time>2026-04-04T10:16:06.998Z</time></trkpt><trkpt lat="39.03008498826623" lon="8.960321719181659"><ele>83.75</ele><time>2026-04-04T10:16:07.998Z</time></trkpt><trkpt lat="39.03015768041583" lon="8.960198239254291"><ele>85.5</ele><time>2026-04-04T10:16:08.998Z</time></trkpt><trkpt lat="39.03021711516045" lon="8.9600731157968"><ele>87.25</ele><time>2026-04-04T10:16:09.998Z</time></trkpt><trkpt lat="39.03024511309797" lon="8.959923645857963"><ele>89.0</ele><time>2026-04-04T10:16:10.998Z</time></trkpt><trkpt lat="39.03032364030626" lon="8.959801185752216"><ele>89.0</ele><time>2026-04-04T10:16:11.998Z</time></trkpt><trkpt lat="39.03037286056685" lon="8.95967552518191"><ele>89.0</ele><time>2026-04-04T10:16:12.998Z</time></trkpt><trkpt lat="39.03042981235706" lon="8.959544093505658"><ele>89.0</ele><time>2026-04-04T10:16:13.998Z</time></trkpt><trkpt lat="39.03049883806539" lon="8.959419204565426"><ele>89.0</ele><time>2026-04-04T10:16:14.998Z</time></trkpt><trkpt lat="39.03057654531258" lon="8.959310136377777"><ele>89.0</ele><time>2026-04-04T10:16:15.998Z</time></trkpt><trkpt lat="39.03065209628348" lon="8.959224096261533"><ele>89.0</ele><time>2026-04-04T10:16:16.998Z</time></trkpt><trkpt lat="39.03072895565861" lon="8.959181405658018"><ele>89.0</ele><time>2026-04-04T10:16:17.998Z</time></trkpt><trkpt lat="39.030820514206766" lon="8.95914292303916"><ele>89.0</ele><time>2026-04-04T10:16:18.998Z</time></trkpt><trkpt lat="39.03092207415789" lon="8.959098546769912"><ele>89.0</ele><time>2026-04-04T10:16:19.998Z</time></trkpt><trkpt lat="39.0310197609089" lon="8.959018889716369"><ele>89.4</ele><time>2026-04-04T10:16:20.998Z</time></trkpt><trkpt lat="39.031109308209764" lon="8.958922065508457"><ele>89.80000000000001</ele><time>2026-04-04T10:16:21.998Z</time></trkpt><trkpt lat="39.03118043360111" lon="8.95883056373053"><ele>90.19999999999999</ele><time>2026-04-04T10:16:22.998Z</time></trkpt><trkpt lat="39.03124952674948" lon="8.9587398726144"><ele>90.6</ele><time>2026-04-04T10:16:23.998Z</time></trkpt><trkpt lat="39.031312692857654" lon="8.958649214381778"><ele>91.0</ele><time>2026-04-04T10:16:24.998Z</time></trkpt><trkpt lat="39.03137417836399" lon="8.958554011153163"><ele>91.0</ele><time>2026-04-04T10:16:25.998Z</time></trkpt><trkpt lat="39.031424136868345" lon="8.958482349732485"><ele>91.0</ele><time>2026-04-04T10:16:26.998Z</time></trkpt><trkpt lat="39.031502663611974" lon="8.958419729351778"><ele>91.0</ele><time>2026-04-04T10:16:27.998Z</time></trkpt><trkpt lat="39.03155976842752" lon="8.958372680415899"><ele>91.0</ele><time>2026-04-04T10:16:28.998Z</time></trkpt><trkpt lat="39.03158958590615" lon="8.95818718936512"><ele>91.0</ele><time>2026-04-04T10:16:30.998Z</time></trkpt><trkpt lat="39.03159082054474" lon="8.958074906967"><ele>91.0</ele><time>2026-04-04T10:16:31.998Z</time></trkpt><trkpt lat="39.03162505049102" lon="8.95797381193726"><ele>91.0</ele><time>2026-04-04T10:16:32.998Z</time></trkpt><trkpt lat="39.03165678597672" lon="8.95787007920652"><ele>91.0</ele><time>2026-04-04T10:16:33.998Z</time></trkpt><trkpt lat="39.03168231544126" lon="8.957746504539198"><ele>91.0</ele><time>2026-04-04T10:16:34.998Z</time></trkpt><trkpt lat="39.03172332283592" lon="8.957629275060759"><ele>91.0</ele><time>2026-04-04T10:16:35.998Z</time></trkpt><trkpt lat="39.03176484997923" lon="8.957502829894974"><ele>91.19999999999999</ele><time>2026-04-04T10:16:36.998Z</time></trkpt><trkpt lat="39.031797740467084" lon="8.957383465065238"><ele>91.39999999999999</ele><time>2026-04-04T10:16:37.998Z</time></trkpt><trkpt lat="39.031831119170405" lon="8.957261370792336"><ele>91.6</ele><time>2026-04-04T10:16:38.998Z</time></trkpt><trkpt lat="39.03184673749199" lon="8.957136778632561"><ele>91.8</ele><time>2026-04-04T10:16:39.997Z</time></trkpt><trkpt lat="39.031881163003845" lon="8.957030006764617"><ele>92.0</ele><time>2026-04-04T10:16:40.997Z</time></trkpt><trkpt lat="39.03190676675748" lon="8.956900635937005"><ele>92.0</ele><time>2026-04-04T10:16:41.997Z</time></trkpt><trkpt lat="39.03194251217537" lon="8.956767930123164"><ele>92.0</ele><time>2026-04-04T10:16:42.997Z</time></trkpt><trkpt lat="39.03197141550016" lon="8.9566345447122"><ele>92.0</ele><time>2026-04-04T10:16:43.997Z</time></trkpt><trkpt lat="39.0319953576198" lon="8.956492754716557"><ele>92.0</ele><time>2026-04-04T10:16:45Z</time></trkpt><trkpt lat="39.03201671756171" lon="8.956344622081819"><ele>92.0</ele><time>2026-04-04T10:16:46Z</time></trkpt><trkpt lat="39.032034740253074" lon="8.956212086733514"><ele>92.19999999999999</ele><time>2026-04-04T10:16:47Z</time></trkpt><trkpt lat="39.03205365721566" lon="8.956086167387776"><ele>92.4</ele><time>2026-04-04T10:16:48Z</time></trkpt><trkpt lat="39.03207256274783" lon="8.955958789825544"><ele>92.6</ele><time>2026-04-04T10:16:49Z</time></trkpt><trkpt lat="39.03209184394505" lon="8.95583703520296"><ele>92.80000000000001</ele><time>2026-04-04T10:16:50Z</time></trkpt><trkpt lat="39.03211028551866" lon="8.955716862653285"><ele>93.0</ele><time>2026-04-04T10:16:51Z</time></trkpt><trkpt lat="39.03212444418241" lon="8.955589003171827"><ele>93.5</ele><time>2026-04-04T10:16:52Z</time></trkpt><trkpt lat="39.0321287949491" lon="8.955455801527329"><ele>94.0</ele><time>2026-04-04T10:16:53Z</time></trkpt><trkpt lat="39.032128189147826" lon="8.955322522374182"><ele>94.5</ele><time>2026-04-04T10:16:54Z</time></trkpt><trkpt lat="39.032129556357624" lon="8.955215481901748"><ele>95.0</ele><time>2026-04-04T10:16:55Z</time></trkpt><trkpt lat="39.03213159081799" lon="8.955129420848564"><ele>95.5</ele><time>2026-04-04T10:16:56Z</time></trkpt><trkpt lat="39.03215353985855" lon="8.955027734710121"><ele>96.0</ele><time>2026-04-04T10:16:57Z</time></trkpt><trkpt lat="39.03219697423868" lon="8.954914448809262"><ele>96.6</ele><time>2026-04-04T10:16:58Z</time></trkpt><trkpt lat="39.03225154092178" lon="8.954802141145546"><ele>97.19999999999999</ele><time>2026-04-04T10:16:59Z</time></trkpt><trkpt lat="39.03231502571491" lon="8.954694032249904"><ele>97.80000000000001</ele><time>2026-04-04T10:17:00Z</time></trkpt><trkpt lat="39.032385312814675" lon="8.954593771300738"><ele>98.4</ele><time>2026-04-04T10:17:01Z</time></trkpt><trkpt lat="39.032454321985405" lon="8.954517482847265"><ele>99.0</ele><time>2026-04-04T10:17:02Z</time></trkpt><trkpt lat="39.032525475771855" lon="8.954471063064197"><ele>99.80000000000001</ele><time>2026-04-04T10:17:03Z</time></trkpt><trkpt lat="39.03262164184634" lon="8.954428205911103"><ele>100.60000000000001</ele><time>2026-04-04T10:17:04Z</time></trkpt><trkpt lat="39.03272351202433" lon="8.954382082176743"><ele>101.4</ele><time>2026-04-04T10:17:05Z</time></trkpt><trkpt lat="39.0328317309605" lon="8.954331228339896"><ele>102.2</ele><time>2026-04-04T10:17:06Z</time></trkpt><trkpt lat="39.032928430964695" lon="8.95428035835226"><ele>103.0</ele><time>2026-04-04T10:17:07Z</time></trkpt><trkpt lat="39.03300746038661" lon="8.954229894204293"><ele>103.2</ele><time>2026-04-04T10:17:08Z</time></trkpt><trkpt lat="39.033087974398555" lon="8.95416444202949"><ele>103.4</ele><time>2026-04-04T10:17:09Z</time></trkpt><trkpt lat="39.033181928659296" lon="8.95408333331515"><ele>103.60000000000001</ele><time>2026-04-04T10:17:10Z</time></trkpt><trkpt lat="39.03326671332684" lon="8.95401496307849"><ele>103.80000000000001</ele><time>2026-04-04T10:17:11Z</time></trkpt><trkpt lat="39.03334181770844" lon="8.95395797760678"><ele>104.0</ele><time>2026-04-04T10:17:12Z</time></trkpt><trkpt lat="39.033410693653494" lon="8.953932833809377"><ele>104.66666666666666</ele><time>2026-04-04T10:17:13Z</time></trkpt><trkpt lat="39.03349558993556" lon="8.953911437737135"><ele>105.33333333333333</ele><time>2026-04-04T10:17:14Z</time></trkpt><trkpt lat="39.03358341591938" lon="8.953887820670404"><ele>106.0</ele><time>2026-04-04T10:17:15Z</time></trkpt><trkpt lat="39.033656163205855" lon="8.953862856020056"><ele>106.66666666666666</ele><time>2026-04-04T10:17:16Z</time></trkpt><trkpt lat="39.03370906601996" lon="8.95381030635747"><ele>107.33333333333333</ele><time>2026-04-04T10:17:16.999Z</time></trkpt><trkpt lat="39.03376277535801" lon="8.953738012351094"><ele>108.0</ele><time>2026-04-04T10:17:17.999Z</time></trkpt><trkpt lat="39.03381554493745" lon="8.953660240785561"><ele>108.0</ele><time>2026-04-04T10:17:18.999Z</time></trkpt><trkpt lat="39.033872447992486" lon="8.953572039934265"><ele>108.00000000000001</ele><time>2026-04-04T10:17:19.999Z</time></trkpt><trkpt lat="39.03393873262118" lon="8.953491685751855"><ele>108.00000000000001</ele><time>2026-04-04T10:17:20.999Z</time></trkpt><trkpt lat="39.034010523257095" lon="8.953416611500314"><ele>108.0</ele><time>2026-04-04T10:17:21.999Z</time></trkpt><trkpt lat="39.03408399154024" lon="8.953339643715953"><ele>108.0</ele><time>2026-04-04T10:17:22.999Z</time></trkpt><trkpt lat="39.03416241612974" lon="8.95324211946264"><ele>109.16666666666667</ele><time>2026-04-04T10:17:23.999Z</time></trkpt><trkpt lat="39.03423418693111" lon="8.95315611179395"><ele>110.33333333333334</ele><time>2026-04-04T10:17:24.999Z</time></trkpt><trkpt lat="39.034301381938285" lon="8.95309676768964"><ele>111.5</ele><time>2026-04-04T10:17:25.999Z</time></trkpt><trkpt lat="39.03436802640557" lon="8.953058882406019"><ele>112.66666666666667</ele><time>2026-04-04T10:17:26.999Z</time></trkpt><trkpt lat="39.034451628756095" lon="8.953020293070134"><ele>113.83333333333334</ele><time>2026-04-04T10:17:27.999Z</time></trkpt><trkpt lat="39.0345434152411" lon="8.952982975239575"><ele>115.0</ele><time>2026-04-04T10:17:28.999Z</time></trkpt><trkpt lat="39.034645523107805" lon="8.9529392733013"><ele>115.00000000000001</ele><time>2026-04-04T10:17:29.999Z</time></trkpt><trkpt lat="39.03473268264125" lon="8.952903926656134"><ele>115.0</ele><time>2026-04-04T10:17:30.999Z</time></trkpt><trkpt lat="39.03483032610035" lon="8.95288300552648"><ele>115.0</ele><time>2026-04-04T10:17:31.999Z</time></trkpt><trkpt lat="39.034913600143994" lon="8.95290303694327"><ele>115.0</ele><time>2026-04-04T10:17:32.999Z</time></trkpt><trkpt lat="39.03497246694889" lon="8.952945552477683"><ele>115.00000000000001</ele><time>2026-04-04T10:17:33.999Z</time></trkpt><trkpt lat="39.03503659678535" lon="8.953027892756216"><ele>115.0</ele><time>2026-04-04T10:17:34.999Z</time></trkpt><trkpt lat="39.035092554378814" lon="8.9531310775521"><ele>116.83333333333334</ele><time>2026-04-04T10:17:35.999Z</time></trkpt><trkpt lat="39.035150301616" lon="8.953226083339969"><ele>118.66666666666667</ele><time>2026-04-04T10:17:36.999Z</time></trkpt><trkpt lat="39.03520893902689" lon="8.953318598985598"><ele>120.5</ele><time>2026-04-04T10:17:37.999Z</time></trkpt><trkpt lat="39.0352692519094" lon="8.95340657390124"><ele>122.33333333333334</ele><time>2026-04-04T10:17:38.999Z</time></trkpt><trkpt lat="39.035331811765616" lon="8.953473541609098"><ele>124.16666666666667</ele><time>2026-04-04T10:17:39.999Z</time></trkpt><trkpt lat="39.03539302876487" lon="8.95352909094892"><ele>126.0</ele><time>2026-04-04T10:17:40.999Z</time></trkpt><trkpt lat="39.03545022380135" lon="8.953581031315599"><ele>126.33333333333333</ele><time>2026-04-04T10:17:41.999Z</time></trkpt><trkpt lat="39.03551555458293" lon="8.953639525245071"><ele>126.66666666666666</ele><time>2026-04-04T10:17:42.999Z</time></trkpt><trkpt lat="39.03558727177185" lon="8.95369220608738"><ele>127.0</ele><time>2026-04-04T10:17:43.999Z</time></trkpt><trkpt lat="39.03564909109769" lon="8.953720245052654"><ele>127.33333333333333</ele><time>2026-04-04T10:17:44.999Z</time></trkpt><trkpt lat="39.03572171892664" lon="8.953743494160637"><ele>127.66666666666666</ele><time>2026-04-04T10:17:45.999Z</time></trkpt><trkpt lat="39.03580286901959" lon="8.953758610358287"><ele>128.0</ele><time>2026-04-04T10:17:46.999Z</time></trkpt><trkpt lat="39.03589239495275" lon="8.953764082477065"><ele>129.0</ele><time>2026-04-04T10:17:47.999Z</time></trkpt><trkpt lat="39.03597586925273" lon="8.953761652694313"><ele>130.0</ele><time>2026-04-04T10:17:48.999Z</time></trkpt><trkpt lat="39.036062925118955" lon="8.953748679851616"><ele>131.0</ele><time>2026-04-04T10:17:49.999Z</time></trkpt><trkpt lat="39.03615318753378" lon="8.953730475647173"><ele>132.0</ele><time>2026-04-04T10:17:50.999Z</time></trkpt><trkpt lat="39.03625140081422" lon="8.953710667899275"><ele>133.0</ele><time>2026-04-04T10:17:51.999Z</time></trkpt><trkpt lat="39.03635158672352" lon="8.95368614782335"><ele>133.0</ele><time>2026-04-04T10:17:52.999Z</time></trkpt><trkpt lat="39.03646206892069" lon="8.953663756020292"><ele>133.0</ele><time>2026-04-04T10:17:53.999Z</time></trkpt><trkpt lat="39.03656246997185" lon="8.953643791048167"><ele>133.0</ele><time>2026-04-04T10:17:54.999Z</time></trkpt><trkpt lat="39.03665024425238" lon="8.953619105261353"><ele>133.0</ele><time>2026-04-04T10:17:55.999Z</time></trkpt><trkpt lat="39.036753288684906" lon="8.953588878870368"><ele>133.0</ele><time>2026-04-04T10:17:56.999Z</time></trkpt><trkpt lat="39.03685517930616" lon="8.953557136920958"><ele>134.83333333333334</ele><time>2026-04-04T10:17:57.999Z</time></trkpt><trkpt lat="39.03694994503685" lon="8.953516859305532"><ele>136.66666666666669</ele><time>2026-04-04T10:17:58.999Z</time></trkpt><trkpt lat="39.03704076166745" lon="8.953488564759109"><ele>138.5</ele><time>2026-04-04T10:17:59.999Z</time></trkpt><trkpt lat="39.03711803746429" lon="8.953476553800337"><ele>140.33333333333334</ele><time>2026-04-04T10:18:00.999Z</time></trkpt><trkpt lat="39.03718772589476" lon="8.953459259429156"><ele>142.16666666666666</ele><time>2026-04-04T10:18:01.999Z</time></trkpt><trkpt lat="39.03725422077304" lon="8.953444599041749"><ele>144.0</ele><time>2026-04-04T10:18:02.998Z</time></trkpt><trkpt lat="39.03731633962246" lon="8.953411842502906"><ele>145.0</ele><time>2026-04-04T10:18:03.998Z</time></trkpt><trkpt lat="39.037379512172905" lon="8.953318061927758"><ele>146.0</ele><time>2026-04-04T10:18:05.998Z</time></trkpt><trkpt lat="39.03744364486242" lon="8.953267916188603"><ele>147.0</ele><time>2026-04-04T10:18:09.998Z</time></trkpt><trkpt lat="39.03749965005166" lon="8.953391039023547"><ele>148.0</ele><time>2026-04-04T10:18:12.998Z</time></trkpt><trkpt lat="39.03751616771985" lon="8.953542468798688"><ele>149.0</ele><time>2026-04-04T10:18:14.998Z</time></trkpt><trkpt lat="39.037549274182" lon="8.953688431660783"><ele>151.0</ele><time>2026-04-04T10:18:16.998Z</time></trkpt><trkpt lat="39.037601434088685" lon="8.953738747884142"><ele>153.0</ele><time>2026-04-04T10:18:17.998Z</time></trkpt><trkpt lat="39.037687215461105" lon="8.953779718287008"><ele>155.0</ele><time>2026-04-04T10:18:19.998Z</time></trkpt><trkpt lat="39.037764400561024" lon="8.953804170480621"><ele>157.0</ele><time>2026-04-04T10:18:20.998Z</time></trkpt><trkpt lat="39.037896934066744" lon="8.953805028122495"><ele>159.0</ele><time>2026-04-04T10:18:22.998Z</time></trkpt><trkpt lat="39.03796796935981" lon="8.953805842389071"><ele>161.0</ele><time>2026-04-04T10:18:23.998Z</time></trkpt><trkpt lat="39.03804080810025" lon="8.95380852460406"><ele>161.0</ele><time>2026-04-04T10:18:24.998Z</time></trkpt><trkpt lat="39.038146741739425" lon="8.953795908809674"><ele>161.0</ele><time>2026-04-04T10:18:25.998Z</time></trkpt><trkpt lat="39.038207000830724" lon="8.953823033021475"><ele>161.0</ele><time>2026-04-04T10:18:26.998Z</time></trkpt><trkpt lat="39.03827506105992" lon="8.953968202703095"><ele>161.0</ele><time>2026-04-04T10:18:28.998Z</time></trkpt><trkpt lat="39.038329627269675" lon="8.95403425217383"><ele>161.0</ele><time>2026-04-04T10:18:29.998Z</time></trkpt><trkpt lat="39.038398989368424" lon="8.954093969358556"><ele>162.83333333333331</ele><time>2026-04-04T10:18:30.998Z</time></trkpt><trkpt lat="39.03846952065632" lon="8.954097375781988"><ele>164.66666666666666</ele><time>2026-04-04T10:18:31.998Z</time></trkpt><trkpt lat="39.03856017110261" lon="8.954118434686293"><ele>166.5</ele><time>2026-04-04T10:18:33.998Z</time></trkpt><trkpt lat="39.03860475776547" lon="8.95420424684293"><ele>168.33333333333334</ele><time>2026-04-04T10:18:35.998Z</time></trkpt><trkpt lat="39.0386227446668" lon="8.954366832924887"><ele>170.16666666666669</ele><time>2026-04-04T10:18:37.998Z</time></trkpt><trkpt lat="39.038652495673745" lon="8.954452835702101"><ele>172.0</ele><time>2026-04-04T10:18:38.998Z</time></trkpt><trkpt lat="39.038704313513726" lon="8.954532562681628"><ele>172.0</ele><time>2026-04-04T10:18:39.998Z</time></trkpt><trkpt lat="39.038758665230716" lon="8.954605527982705"><ele>172.0</ele><time>2026-04-04T10:18:40.998Z</time></trkpt><trkpt lat="39.03883448085102" lon="8.954698749659421"><ele>172.0</ele><time>2026-04-04T10:18:42.998Z</time></trkpt><trkpt lat="39.03890728782386" lon="8.954749160009275"><ele>172.0</ele><time>2026-04-04T10:18:45.998Z</time></trkpt><trkpt lat="39.03896382003096" lon="8.95482634050279"><ele>172.0</ele><time>2026-04-04T10:20:04.999Z</time></trkpt><trkpt lat="39.038976083688404" lon="8.954930225359426"><ele>172.0</ele><time>2026-04-04T10:20:05.999Z</time></trkpt><trkpt lat="39.03897756437335" lon="8.955066547412628"><ele>170.8</ele><time>2026-04-04T10:20:06.999Z</time></trkpt><trkpt lat="39.038976203317226" lon="8.955217809768328"><ele>169.6</ele><time>2026-04-04T10:20:07.999Z</time></trkpt><trkpt lat="39.03899247308228" lon="8.955358198029856"><ele>168.4</ele><time>2026-04-04T10:20:08.999Z</time></trkpt><trkpt lat="39.03902450602955" lon="8.955491662331188"><ele>167.20000000000002</ele><time>2026-04-04T10:20:09.998Z</time></trkpt><trkpt lat="39.03903077363747" lon="8.955612945091618"><ele>166.0</ele><time>2026-04-04T10:20:10.998Z</time></trkpt><trkpt lat="39.03902726678202" lon="8.955717259176026"><ele>166.0</ele><time>2026-04-04T10:20:11.998Z</time></trkpt><trkpt lat="39.03899753319034" lon="8.955840012803787"><ele>166.0</ele><time>2026-04-04T10:20:13.998Z</time></trkpt><trkpt lat="39.03886746644052" lon="8.955912576627302"><ele>166.0</ele><time>2026-04-04T10:20:15.998Z</time></trkpt><trkpt lat="39.038775031237044" lon="8.955987319139133"><ele>166.0</ele><time>2026-04-04T10:20:16.998Z</time></trkpt><trkpt lat="39.03868132530513" lon="8.956068021932857"><ele>163.5</ele><time>2026-04-04T10:20:17.998Z</time></trkpt><trkpt lat="39.03858732565237" lon="8.956158300832936"><ele>161.0</ele><time>2026-04-04T10:20:18.998Z</time></trkpt><trkpt lat="39.03850122196852" lon="8.956241770448884"><ele>158.5</ele><time>2026-04-04T10:20:19.998Z</time></trkpt><trkpt lat="39.03841669514293" lon="8.956327616572356"><ele>156.0</ele><time>2026-04-04T10:20:20.998Z</time></trkpt><trkpt lat="39.03832844122261" lon="8.9564320516463"><ele>154.0</ele><time>2026-04-04T10:20:21.998Z</time></trkpt><trkpt lat="39.038246633299714" lon="8.956539483800483"><ele>152.0</ele><time>2026-04-04T10:20:22.998Z</time></trkpt><trkpt lat="39.038170460649106" lon="8.95663087877099"><ele>150.0</ele><time>2026-04-04T10:20:23.998Z</time></trkpt><trkpt lat="39.0380987588053" lon="8.95669209526131"><ele>148.0</ele><time>2026-04-04T10:20:24.998Z</time></trkpt><trkpt lat="39.03800688975353" lon="8.956747330382342"><ele>146.0</ele><time>2026-04-04T10:20:25.998Z</time></trkpt><trkpt lat="39.037913693847116" lon="8.95678687666159"><ele>144.66666666666666</ele><time>2026-04-04T10:20:26.998Z</time></trkpt><trkpt lat="39.03783083851262" lon="8.956803454300145"><ele>143.33333333333331</ele><time>2026-04-04T10:20:27.998Z</time></trkpt><trkpt lat="39.03775356234676" lon="8.956807848927172"><ele>142.0</ele><time>2026-04-04T10:20:28.998Z</time></trkpt><trkpt lat="39.03768101841136" lon="8.956802290123491"><ele>140.66666666666666</ele><time>2026-04-04T10:20:29.998Z</time></trkpt><trkpt lat="39.037606187867716" lon="8.956784698659693"><ele>139.33333333333334</ele><time>2026-04-04T10:20:30.998Z</time></trkpt><trkpt lat="39.03754219807234" lon="8.956790045476424"><ele>138.0</ele><time>2026-04-04T10:20:31.998Z</time></trkpt><trkpt lat="39.03747331540982" lon="8.956850132049206"><ele>136.6</ele><time>2026-04-04T10:20:32.998Z</time></trkpt><trkpt lat="39.03739110434024" lon="8.956908102199957"><ele>135.20000000000002</ele><time>2026-04-04T10:20:33.998Z</time></trkpt><trkpt lat="39.03729062316943" lon="8.95695921274036"><ele>133.8</ele><time>2026-04-04T10:20:34.998Z</time></trkpt><trkpt lat="39.037201406838115" lon="8.956996115338375"><ele>132.4</ele><time>2026-04-04T10:20:35.998Z</time></trkpt><trkpt lat="39.03711877610746" lon="8.957030158485336"><ele>131.0</ele><time>2026-04-04T10:20:36.998Z</time></trkpt><trkpt lat="39.03704107140453" lon="8.957065792206205"><ele>131.0</ele><time>2026-04-04T10:20:37.998Z</time></trkpt><trkpt lat="39.03695822881054" lon="8.957105636326288"><ele>131.0</ele><time>2026-04-04T10:20:38.998Z</time></trkpt><trkpt lat="39.03687476317641" lon="8.957151604788303"><ele>131.0</ele><time>2026-04-04T10:20:39.998Z</time></trkpt><trkpt lat="39.036796277260805" lon="8.957220564424306"><ele>131.0</ele><time>2026-04-04T10:20:40.998Z</time></trkpt><trkpt lat="39.036710675047416" lon="8.957289096377481"><ele>131.0</ele><time>2026-04-04T10:20:41.998Z</time></trkpt><trkpt lat="39.036612642194974" lon="8.957363176906261"><ele>129.25</ele><time>2026-04-04T10:20:42.998Z</time></trkpt><trkpt lat="39.03650089715139" lon="8.957478123804265"><ele>127.5</ele><time>2026-04-04T10:20:43.998Z</time></trkpt><trkpt lat="39.03638387656343" lon="8.957599693507408"><ele>125.75</ele><time>2026-04-04T10:20:44.998Z</time></trkpt><trkpt lat="39.036271523112696" lon="8.957701170939172"><ele>124.0</ele><time>2026-04-04T10:20:45.998Z</time></trkpt><trkpt lat="39.03616638394843" lon="8.957797073431273"><ele>124.0</ele><time>2026-04-04T10:20:46.998Z</time></trkpt><trkpt lat="39.036058775530826" lon="8.957886554739028"><ele>124.0</ele><time>2026-04-04T10:20:47.998Z</time></trkpt><trkpt lat="39.03596510735997" lon="8.957993970991703"><ele>124.0</ele><time>2026-04-04T10:20:48.998Z</time></trkpt><trkpt lat="39.03583225289059" lon="8.958099587389"><ele>124.0</ele><time>2026-04-04T10:20:49.998Z</time></trkpt><trkpt lat="39.035714628577246" lon="8.958214090475638"><ele>121.75</ele><time>2026-04-04T10:20:50.998Z</time></trkpt><trkpt lat="39.03561219710899" lon="8.958316096551304"><ele>119.5</ele><time>2026-04-04T10:20:51.998Z</time></trkpt><trkpt lat="39.035506703075825" lon="8.958425080008668"><ele>117.25</ele><time>2026-04-04T10:20:52.998Z</time></trkpt><trkpt lat="39.03540525407319" lon="8.958515132640581"><ele>115.0</ele><time>2026-04-04T10:20:53.998Z</time></trkpt><trkpt lat="39.03531774442076" lon="8.958630634532264"><ele>115.0</ele><time>2026-04-04T10:20:54.997Z</time></trkpt><trkpt lat="39.035230312659806" lon="8.958744209804452"><ele>115.0</ele><time>2026-04-04T10:20:55.997Z</time></trkpt><trkpt lat="39.03512808003529" lon="8.958850532813496"><ele>115.0</ele><time>2026-04-04T10:20:57Z</time></trkpt><trkpt lat="39.03501899594915" lon="8.958955476889829"><ele>115.0</ele><time>2026-04-04T10:20:58Z</time></trkpt><trkpt lat="39.03493525271204" lon="8.959064695770376"><ele>112.6</ele><time>2026-04-04T10:20:59Z</time></trkpt><trkpt lat="39.034848741988334" lon="8.959160111497464"><ele>110.2</ele><time>2026-04-04T10:21:00Z</time></trkpt><trkpt lat="39.03477418336471" lon="8.959258864223948"><ele>107.80000000000001</ele><time>2026-04-04T10:21:01Z</time></trkpt><trkpt lat="39.03470691938216" lon="8.959353023577982"><ele>105.4</ele><time>2026-04-04T10:21:02Z</time></trkpt><trkpt lat="39.03464707674064" lon="8.959438693297512"><ele>103.0</ele><time>2026-04-04T10:21:03Z</time></trkpt><trkpt lat="39.03459339732903" lon="8.959563177653932"><ele>102.4</ele><time>2026-04-04T10:21:04Z</time></trkpt><trkpt lat="39.034558999287455" lon="8.959663982001473"><ele>101.80000000000001</ele><time>2026-04-04T10:21:05Z</time></trkpt><trkpt lat="39.03456351605163" lon="8.959793394546388"><ele>101.2</ele><time>2026-04-04T10:21:07Z</time></trkpt><trkpt lat="39.03459726165393" lon="8.959862635296"><ele>100.6</ele><time>2026-04-04T10:21:08Z</time></trkpt><trkpt lat="39.034672136331416" lon="8.959947592709153"><ele>100.0</ele><time>2026-04-04T10:21:09Z</time></trkpt><trkpt lat="39.03475041983552" lon="8.960047236845341"><ele>100.5</ele><time>2026-04-04T10:21:10Z</time></trkpt><trkpt lat="39.034839283616876" lon="8.960181237032371"><ele>101.0</ele><time>2026-04-04T10:21:11Z</time></trkpt><trkpt lat="39.034927525854144" lon="8.9603300172025"><ele>101.5</ele><time>2026-04-04T10:21:12Z</time></trkpt><trkpt lat="39.035016654382765" lon="8.960475640017739"><ele>102.0</ele><time>2026-04-04T10:21:13Z</time></trkpt><trkpt lat="39.03510175069063" lon="8.96061071433671"><ele>102.0</ele><time>2026-04-04T10:21:14Z</time></trkpt><trkpt lat="39.035211647651394" lon="8.960744483399445"><ele>102.0</ele><time>2026-04-04T10:21:15Z</time></trkpt><trkpt lat="39.03530388627401" lon="8.960868871537123"><ele>102.0</ele><time>2026-04-04T10:21:16Z</time></trkpt><trkpt lat="39.03538589749614" lon="8.96098754777492"><ele>102.0</ele><time>2026-04-04T10:21:17Z</time></trkpt><trkpt lat="39.03545363504792" lon="8.961107222549508"><ele>101.0</ele><time>2026-04-04T10:21:18Z</time></trkpt><trkpt lat="39.03550624011579" lon="8.96121519172057"><ele>100.0</ele><time>2026-04-04T10:21:19Z</time></trkpt><trkpt lat="39.03552938965579" lon="8.961298878913116"><ele>99.0</ele><time>2026-04-04T10:21:20Z</time></trkpt><trkpt lat="39.0355294611315" lon="8.961390309946335"><ele>98.0</ele><time>2026-04-04T10:21:21Z</time></trkpt><trkpt lat="39.035516292923674" lon="8.96150750629283"><ele>97.0</ele><time>2026-04-04T10:21:22Z</time></trkpt><trkpt lat="39.035488710861586" lon="8.961617949154144"><ele>96.0</ele><time>2026-04-04T10:21:23Z</time></trkpt><trkpt lat="39.03547724688348" lon="8.961715170235431"><ele>94.6</ele><time>2026-04-04T10:21:24Z</time></trkpt><trkpt lat="39.03550848228224" lon="8.96178649054504"><ele>93.19999999999999</ele><time>2026-04-04T10:21:25Z</time></trkpt><trkpt lat="39.0355815326788" lon="8.961851731526467"><ele>91.80000000000001</ele><time>2026-04-04T10:21:26Z</time></trkpt><trkpt lat="39.035678581435135" lon="8.96191714182949"><ele>90.4</ele><time>2026-04-04T10:21:27Z</time></trkpt><trkpt lat="39.03577016778499" lon="8.961983842000544"><ele>89.0</ele><time>2026-04-04T10:21:28Z</time></trkpt><trkpt lat="39.035865983014965" lon="8.962071475953355"><ele>89.0</ele><time>2026-04-04T10:21:29Z</time></trkpt><trkpt lat="39.03596247201902" lon="8.962155498372969"><ele>89.0</ele><time>2026-04-04T10:21:30Z</time></trkpt><trkpt lat="39.036064305965155" lon="8.962234160413603"><ele>89.0</ele><time>2026-04-04T10:21:31Z</time></trkpt><trkpt lat="39.03617031892852" lon="8.962326958038368"><ele>89.0</ele><time>2026-04-04T10:21:32Z</time></trkpt><trkpt lat="39.036282375725044" lon="8.96243073075902"><ele>89.0</ele><time>2026-04-04T10:21:32.999Z</time></trkpt><trkpt lat="39.036392164567346" lon="8.962528967216095"><ele>89.0</ele><time>2026-04-04T10:21:33.999Z</time></trkpt><trkpt lat="39.036486413439334" lon="8.962614390462909"><ele>89.0</ele><time>2026-04-04T10:21:34.999Z</time></trkpt><trkpt lat="39.036576903914494" lon="8.962687959708243"><ele>89.0</ele><time>2026-04-04T10:21:35.999Z</time></trkpt><trkpt lat="39.036658832311915" lon="8.962755600388114"><ele>89.5</ele><time>2026-04-04T10:21:36.999Z</time></trkpt><trkpt lat="39.03672826495796" lon="8.962823786457745"><ele>90.0</ele><time>2026-04-04T10:21:37.999Z</time></trkpt><trkpt lat="39.03680328743324" lon="8.962881449846384"><ele>90.5</ele><time>2026-04-04T10:21:38.999Z</time></trkpt><trkpt lat="39.03688494788683" lon="8.962915646992851"><ele>91.0</ele><time>2026-04-04T10:21:39.999Z</time></trkpt><trkpt lat="39.03696838610187" lon="8.962930534407244"><ele>91.5</ele><time>2026-04-04T10:21:40.999Z</time></trkpt><trkpt lat="39.037058524089744" lon="8.96293328494105"><ele>92.0</ele><time>2026-04-04T10:21:41.999Z</time></trkpt><trkpt lat="39.03714835489651" lon="8.962921691370298"><ele>92.0</ele><time>2026-04-04T10:21:42.999Z</time></trkpt><trkpt lat="39.037224026179274" lon="8.962931656065386"><ele>92.0</ele><time>2026-04-04T10:21:43.999Z</time></trkpt><trkpt lat="39.03728751202469" lon="8.962984042456949"><ele>92.0</ele><time>2026-04-04T10:21:44.999Z</time></trkpt><trkpt lat="39.03733628303282" lon="8.963071812532226"><ele>92.0</ele><time>2026-04-04T10:21:45.999Z</time></trkpt><trkpt lat="39.03738243496888" lon="8.963161651928024"><ele>92.0</ele><time>2026-04-04T10:21:46.999Z</time></trkpt><trkpt lat="39.037419494849786" lon="8.963228620782248"><ele>92.0</ele><time>2026-04-04T10:21:47.999Z</time></trkpt><trkpt lat="39.03748012405007" lon="8.96333325170622"><ele>92.33333333333334</ele><time>2026-04-04T10:21:49.999Z</time></trkpt><trkpt lat="39.037542628707065" lon="8.963440516209642"><ele>92.66666666666667</ele><time>2026-04-04T10:21:51.999Z</time></trkpt><trkpt lat="39.03758107439067" lon="8.963505756532065"><ele>93.0</ele><time>2026-04-04T10:21:52.999Z</time></trkpt><trkpt lat="39.037623277733694" lon="8.963573621524521"><ele>93.33333333333333</ele><time>2026-04-04T10:21:53.999Z</time></trkpt><trkpt lat="39.03770812520062" lon="8.963656580488566"><ele>93.66666666666666</ele><time>2026-04-04T10:21:55.999Z</time></trkpt><trkpt lat="39.03765555648962" lon="8.96374632374493"><ele>94.0</ele><time>2026-04-04T10:22:07.999Z</time></trkpt><trkpt lat="39.03760224931755" lon="8.963803542822516"><ele>94.0</ele><time>2026-04-04T10:22:08.999Z</time></trkpt><trkpt lat="39.0375419263519" lon="8.963871018933997"><ele>94.0</ele><time>2026-04-04T10:22:09.999Z</time></trkpt><trkpt lat="39.03747501559628" lon="8.963956458124624"><ele>94.0</ele><time>2026-04-04T10:22:10.999Z</time></trkpt><trkpt lat="39.037400241646445" lon="8.96406336920385"><ele>94.0</ele><time>2026-04-04T10:22:11.999Z</time></trkpt><trkpt lat="39.037309103603775" lon="8.964179945261534"><ele>94.0</ele><time>2026-04-04T10:22:12.999Z</time></trkpt><trkpt lat="39.03719756679755" lon="8.964285558351728"><ele>92.0</ele><time>2026-04-04T10:22:13.999Z</time></trkpt><trkpt lat="39.0370642324126" lon="8.964352893789712"><ele>90.0</ele><time>2026-04-04T10:22:14.999Z</time></trkpt><trkpt lat="39.03692595070525" lon="8.96443386511093"><ele>88.0</ele><time>2026-04-04T10:22:15.999Z</time></trkpt><trkpt lat="39.03678244552082" lon="8.964523736326553"><ele>88.0</ele><time>2026-04-04T10:22:16.999Z</time></trkpt><trkpt lat="39.036639602587904" lon="8.964623870013721"><ele>88.0</ele><time>2026-04-04T10:22:17.998Z</time></trkpt><trkpt lat="39.03649542117039" lon="8.96471627404639"><ele>88.0</ele><time>2026-04-04T10:22:18.998Z</time></trkpt><trkpt lat="39.03636568322082" lon="8.96478871262877"><ele>87.0</ele><time>2026-04-04T10:22:19.998Z</time></trkpt><trkpt lat="39.03623678979771" lon="8.964844197764833"><ele>86.0</ele><time>2026-04-04T10:22:20.998Z</time></trkpt><trkpt lat="39.03608738688345" lon="8.964904307972086"><ele>85.0</ele><time>2026-04-04T10:22:21.998Z</time></trkpt><trkpt lat="39.03594196818896" lon="8.96495796691007"><ele>84.0</ele><time>2026-04-04T10:22:22.998Z</time></trkpt><trkpt lat="39.0358019719543" lon="8.965003605469478"><ele>82.8</ele><time>2026-04-04T10:22:23.998Z</time></trkpt><trkpt lat="39.035676341440634" lon="8.965057676667005"><ele>81.60000000000001</ele><time>2026-04-04T10:22:24.998Z</time></trkpt><trkpt lat="39.035581360439096" lon="8.965121696352233"><ele>80.4</ele><time>2026-04-04T10:22:25.998Z</time></trkpt><trkpt lat="39.035522912155706" lon="8.965154792297065"><ele>79.2</ele><time>2026-04-04T10:22:26.998Z</time></trkpt><trkpt lat="39.03556819103767" lon="8.965297589199745"><ele>78.0</ele><time>2026-04-04T10:22:31.998Z</time></trkpt><trkpt lat="39.03561007884914" lon="8.965456870007092"><ele>78.0</ele><time>2026-04-04T10:22:33.998Z</time></trkpt><trkpt lat="39.03564294190997" lon="8.965573584248782"><ele>78.0</ele><time>2026-04-04T10:22:34.998Z</time></trkpt><trkpt lat="39.03567435649304" lon="8.965717614424"><ele>78.0</ele><time>2026-04-04T10:22:35.998Z</time></trkpt><trkpt lat="39.03570028496208" lon="8.965809295985999"><ele>78.0</ele><time>2026-04-04T10:22:36.998Z</time></trkpt><trkpt lat="39.035805721556045" lon="8.965849847593805"><ele>78.0</ele><time>2026-04-04T10:22:38.998Z</time></trkpt><trkpt lat="39.035905088497714" lon="8.965830204010059"><ele>78.6</ele><time>2026-04-04T10:22:40.998Z</time></trkpt><trkpt lat="39.03599272840077" lon="8.965833091278819"><ele>79.19999999999999</ele><time>2026-04-04T10:22:42.998Z</time></trkpt><trkpt lat="39.0360544433608" lon="8.965853151246947"><ele>79.8</ele><time>2026-04-04T10:22:45.998Z</time></trkpt><trkpt lat="39.03618995538869" lon="8.965846693159934"><ele>80.39999999999999</ele><time>2026-04-04T10:23:03Z</time></trkpt><trkpt lat="39.03630496616545" lon="8.965850364234587"><ele>81.0</ele><time>2026-04-04T10:23:04Z</time></trkpt><trkpt lat="39.036445654271255" lon="8.965875186993891"><ele>81.66666666666667</ele><time>2026-04-04T10:23:05Z</time></trkpt><trkpt lat="39.03661333826941" lon="8.965855142423134"><ele>82.33333333333334</ele><time>2026-04-04T10:23:06Z</time></trkpt><trkpt lat="39.03678335803998" lon="8.96586031991001"><ele>83.0</ele><time>2026-04-04T10:23:07Z</time></trkpt><trkpt lat="39.036984889423024" lon="8.965870348885309"><ele>83.0</ele><time>2026-04-04T10:23:08Z</time></trkpt><trkpt lat="39.03719526082409" lon="8.965893952525835"><ele>83.0</ele><time>2026-04-04T10:23:09Z</time></trkpt><trkpt lat="39.03740388598366" lon="8.9658991820032"><ele>83.0</ele><time>2026-04-04T10:23:10Z</time></trkpt><trkpt lat="39.03761433375592" lon="8.965903080098743"><ele>83.0</ele><time>2026-04-04T10:23:11Z</time></trkpt><trkpt lat="39.03779571771509" lon="8.965900117070962"><ele>83.0</ele><time>2026-04-04T10:23:12Z</time></trkpt><trkpt lat="39.03796033596473" lon="8.965899059578463"><ele>83.0</ele><time>2026-04-04T10:23:13Z</time></trkpt><trkpt lat="39.03811036542287" lon="8.965906326044081"><ele>83.0</ele><time>2026-04-04T10:23:14Z</time></trkpt><trkpt lat="39.03841935337852" lon="8.96592119690717"><ele>83.0</ele><time>2026-04-04T10:23:16Z</time></trkpt><trkpt lat="39.038582975549076" lon="8.965925288869737"><ele>83.0</ele><time>2026-04-04T10:23:17Z</time></trkpt><trkpt lat="39.038746361291935" lon="8.965924445413702"><ele>83.0</ele><time>2026-04-04T10:23:18Z</time></trkpt><trkpt lat="39.038900632741274" lon="8.965937806430222"><ele>83.0</ele><time>2026-04-04T10:23:19Z</time></trkpt><trkpt lat="39.03902902217143" lon="8.965940229519589"><ele>83.0</ele><time>2026-04-04T10:23:20Z</time></trkpt><trkpt lat="39.039133766896754" lon="8.965941273395968"><ele>83.16666666666667</ele><time>2026-04-04T10:23:21Z</time></trkpt><trkpt lat="39.039213490493594" lon="8.965934297173513"><ele>83.33333333333334</ele><time>2026-04-04T10:23:22Z</time></trkpt><trkpt lat="39.039289310467844" lon="8.965938918351766"><ele>83.5</ele><time>2026-04-04T10:23:24Z</time></trkpt><trkpt lat="39.03930712610003" lon="8.966071101866353"><ele>83.66666666666667</ele><time>2026-04-04T10:23:26Z</time></trkpt><trkpt lat="39.039307814935" lon="8.966162905138887"><ele>83.83333333333333</ele><time>2026-04-04T10:23:27Z</time></trkpt><trkpt lat="39.03930348524127" lon="8.966286661106933"><ele>84.0</ele><time>2026-04-04T10:23:28Z</time></trkpt><trkpt lat="39.039301350506996" lon="8.966437066372938"><ele>84.0</ele><time>2026-04-04T10:23:29Z</time></trkpt><trkpt lat="39.03931178412753" lon="8.96660178194763"><ele>84.0</ele><time>2026-04-04T10:23:30Z</time></trkpt><trkpt lat="39.0393165400378" lon="8.966783856019434"><ele>84.0</ele><time>2026-04-04T10:23:31Z</time></trkpt><trkpt lat="39.039324066823376" lon="8.966979763321612"><ele>84.0</ele><time>2026-04-04T10:23:32Z</time></trkpt><trkpt lat="39.039331004041244" lon="8.96716738168453"><ele>83.0</ele><time>2026-04-04T10:23:33Z</time></trkpt><trkpt lat="39.03932330036995" lon="8.96734570910568"><ele>82.0</ele><time>2026-04-04T10:23:34Z</time></trkpt><trkpt lat="39.03930482171535" lon="8.967517262486325"><ele>81.0</ele><time>2026-04-04T10:23:35Z</time></trkpt><trkpt lat="39.03928106359083" lon="8.96768012590982"><ele>80.0</ele><time>2026-04-04T10:23:36Z</time></trkpt><trkpt lat="39.03926675528837" lon="8.967851422899262"><ele>79.25</ele><time>2026-04-04T10:23:37Z</time></trkpt><trkpt lat="39.03924966817477" lon="8.968023879570755"><ele>78.5</ele><time>2026-04-04T10:23:38Z</time></trkpt><trkpt lat="39.03919529686184" lon="8.968184547266576"><ele>77.75</ele><time>2026-04-04T10:23:38.999Z</time></trkpt><trkpt lat="39.03913768066078" lon="8.96834036293294"><ele>77.0</ele><time>2026-04-04T10:23:39.999Z</time></trkpt><trkpt lat="39.03909000181364" lon="8.968521328072903"><ele>76.5</ele><time>2026-04-04T10:23:40.999Z</time></trkpt><trkpt lat="39.03902733051738" lon="8.968693727267956"><ele>76.0</ele><time>2026-04-04T10:23:41.999Z</time></trkpt><trkpt lat="39.038983213196325" lon="8.968863101136384"><ele>75.5</ele><time>2026-04-04T10:23:42.999Z</time></trkpt><trkpt lat="39.03895144507382" lon="8.969034641432652"><ele>75.0</ele><time>2026-04-04T10:23:43.999Z</time></trkpt><trkpt lat="39.038927195317896" lon="8.969221070932761"><ele>74.0</ele><time>2026-04-04T10:23:44.999Z</time></trkpt><trkpt lat="39.03890650436121" lon="8.969392167483688"><ele>73.0</ele><time>2026-04-04T10:23:45.999Z</time></trkpt><trkpt lat="39.03890951556845" lon="8.969579728439205"><ele>72.0</ele><time>2026-04-04T10:23:46.999Z</time></trkpt><trkpt lat="39.038910840395495" lon="8.969774075111442"><ele>71.0</ele><time>2026-04-04T10:23:47.999Z</time></trkpt><trkpt lat="39.038899054789916" lon="8.969977747815067"><ele>70.0</ele><time>2026-04-04T10:23:48.999Z</time></trkpt><trkpt lat="39.03885927196569" lon="8.970158943987254"><ele>69.0</ele><time>2026-04-04T10:23:49.999Z</time></trkpt><trkpt lat="39.03882947882805" lon="8.970311803564476"><ele>68.0</ele><time>2026-04-04T10:23:50.999Z</time></trkpt><trkpt lat="39.038825336849406" lon="8.970462962262378"><ele>67.0</ele><time>2026-04-04T10:23:51.999Z</time></trkpt><trkpt lat="39.038837102512495" lon="8.97061091060171"><ele>67.0</ele><time>2026-04-04T10:23:52.999Z</time></trkpt><trkpt lat="39.03887106489549" lon="8.970760450957098"><ele>67.0</ele><time>2026-04-04T10:23:53.999Z</time></trkpt><trkpt lat="39.03892010011627" lon="8.970898974408396"><ele>67.0</ele><time>2026-04-04T10:23:54.999Z</time></trkpt><trkpt lat="39.03897188966529" lon="8.97101471397861"><ele>67.0</ele><time>2026-04-04T10:23:55.999Z</time></trkpt><trkpt lat="39.03905390549308" lon="8.97107498769596"><ele>67.0</ele><time>2026-04-04T10:23:56.999Z</time></trkpt><trkpt lat="39.03911345729009" lon="8.97117532112257"><ele>66.8</ele><time>2026-04-04T10:23:57.999Z</time></trkpt><trkpt lat="39.03916412484151" lon="8.971268039798527"><ele>66.6</ele><time>2026-04-04T10:23:58.999Z</time></trkpt><trkpt lat="39.03915612009955" lon="8.97138588386192"><ele>66.39999999999999</ele><time>2026-04-04T10:23:59.999Z</time></trkpt><trkpt lat="39.03917813057482" lon="8.971525794221357"><ele>66.2</ele><time>2026-04-04T10:24:00.999Z</time></trkpt><trkpt lat="39.03917955582011" lon="8.971687840330905"><ele>66.0</ele><time>2026-04-04T10:24:01.999Z</time></trkpt><trkpt lat="39.039185861930406" lon="8.971887553793858"><ele>65.33333333333333</ele><time>2026-04-04T10:24:02.999Z</time></trkpt><trkpt lat="39.039180101687364" lon="8.972104337446067"><ele>64.66666666666666</ele><time>2026-04-04T10:24:03.999Z</time></trkpt><trkpt lat="39.039164611896126" lon="8.972330782728555"><ele>64.0</ele><time>2026-04-04T10:24:04.999Z</time></trkpt><trkpt lat="39.039148016219585" lon="8.972577347708386"><ele>63.33333333333333</ele><time>2026-04-04T10:24:05.999Z</time></trkpt><trkpt lat="39.039136766901535" lon="8.972840601028494"><ele>62.66666666666667</ele><time>2026-04-04T10:24:06.999Z</time></trkpt><trkpt lat="39.03910781249896" lon="8.973072797228392"><ele>62.0</ele><time>2026-04-04T10:24:07.999Z</time></trkpt><trkpt lat="39.039114530093286" lon="8.973278714191075"><ele>61.0</ele><time>2026-04-04T10:24:08.999Z</time></trkpt><trkpt lat="39.03911021985565" lon="8.973467920377091"><ele>60.0</ele><time>2026-04-04T10:24:09.999Z</time></trkpt><trkpt lat="39.03911672167945" lon="8.97364282204108"><ele>59.0</ele><time>2026-04-04T10:24:10.999Z</time></trkpt><trkpt lat="39.039126166308435" lon="8.973808554200884"><ele>58.0</ele><time>2026-04-04T10:24:11.999Z</time></trkpt><trkpt lat="39.03913364989701" lon="8.973951093185763"><ele>58.0</ele><time>2026-04-04T10:24:12.999Z</time></trkpt><trkpt lat="39.03913693481187" lon="8.974054766572486"><ele>58.0</ele><time>2026-04-04T10:24:13.999Z</time></trkpt><trkpt lat="39.039153293648056" lon="8.974172553373934"><ele>58.0</ele><time>2026-04-04T10:24:15.999Z</time></trkpt><trkpt lat="39.03922823394392" lon="8.974128976770206"><ele>58.0</ele><time>2026-04-04T10:24:19.999Z</time></trkpt><trkpt lat="39.039260566442564" lon="8.974028422653449"><ele>58.0</ele><time>2026-04-04T10:24:21.999Z</time></trkpt><trkpt lat="39.03929109623842" lon="8.973842446422967"><ele>58.0</ele><time>2026-04-04T10:24:23.998Z</time></trkpt><trkpt lat="39.03932130028218" lon="8.973720043314852"><ele>58.0</ele><time>2026-04-04T10:24:24.998Z</time></trkpt><trkpt lat="39.0393628992065" lon="8.973594195572469"><ele>58.0</ele><time>2026-04-04T10:24:25.998Z</time></trkpt><trkpt lat="39.03941559028698" lon="8.973477322423378"><ele>58.0</ele><time>2026-04-04T10:24:26.998Z</time></trkpt><trkpt lat="39.039483004433" lon="8.973388567544763"><ele>58.0</ele><time>2026-04-04T10:24:27.998Z</time></trkpt><trkpt lat="39.039559071859856" lon="8.97333271575262"><ele>58.75</ele><time>2026-04-04T10:24:28.998Z</time></trkpt><trkpt lat="39.039656209208275" lon="8.973286125210427"><ele>59.5</ele><time>2026-04-04T10:24:29.998Z</time></trkpt><trkpt lat="39.03976431092606" lon="8.973258155485794"><ele>60.25</ele><time>2026-04-04T10:24:30.998Z</time></trkpt><trkpt lat="39.039897503100015" lon="8.97322446779796"><ele>61.0</ele><time>2026-04-04T10:24:31.998Z</time></trkpt><trkpt lat="39.04005552563668" lon="8.973171020064182"><ele>61.0</ele><time>2026-04-04T10:24:32.998Z</time></trkpt><trkpt lat="39.04022869666208" lon="8.973095499752283"><ele>61.0</ele><time>2026-04-04T10:24:33.998Z</time></trkpt><trkpt lat="39.04040102411643" lon="8.972993911843204"><ele>61.0</ele><time>2026-04-04T10:24:34.998Z</time></trkpt><trkpt lat="39.04055483701466" lon="8.972869874168376"><ele>61.0</ele><time>2026-04-04T10:24:35.998Z</time></trkpt><trkpt lat="39.04067633626654" lon="8.97275427022943"><ele>61.0</ele><time>2026-04-04T10:24:36.998Z</time></trkpt><trkpt lat="39.0407796218206" lon="8.972619825326237"><ele>61.0</ele><time>2026-04-04T10:24:37.998Z</time></trkpt><trkpt lat="39.04087836576318" lon="8.972434958454578"><ele>62.33333333333333</ele><time>2026-04-04T10:24:38.998Z</time></trkpt><trkpt lat="39.04097547478278" lon="8.972212557298283"><ele>63.66666666666667</ele><time>2026-04-04T10:24:39.998Z</time></trkpt><trkpt lat="39.04107860653979" lon="8.972005450659632"><ele>65.0</ele><time>2026-04-04T10:24:40.998Z</time></trkpt><trkpt lat="39.04119050247239" lon="8.971791013326097"><ele>66.0</ele><time>2026-04-04T10:24:41.998Z</time></trkpt><trkpt lat="39.04131008649171" lon="8.971599224816005"><ele>67.0</ele><time>2026-04-04T10:24:42.998Z</time></trkpt><trkpt lat="39.041430443245645" lon="8.971439211516294"><ele>68.0</ele><time>2026-04-04T10:24:43.998Z</time></trkpt><trkpt lat="39.0415770568866" lon="8.971251354620543"><ele>69.33333333333334</ele><time>2026-04-04T10:24:44.998Z</time></trkpt><trkpt lat="39.04173417343245" lon="8.971034843099815"><ele>70.66666666666667</ele><time>2026-04-04T10:24:45.998Z</time></trkpt><trkpt lat="39.04187554719764" lon="8.970831889405787"><ele>72.0</ele><time>2026-04-04T10:24:46.998Z</time></trkpt><trkpt lat="39.04200128500893" lon="8.970661631815963"><ele>72.66666666666667</ele><time>2026-04-04T10:24:47.998Z</time></trkpt><trkpt lat="39.04211634828437" lon="8.9705123903346"><ele>73.33333333333334</ele><time>2026-04-04T10:24:48.998Z</time></trkpt><trkpt lat="39.04222871924526" lon="8.970386133724025"><ele>74.0</ele><time>2026-04-04T10:24:49.998Z</time></trkpt><trkpt lat="39.04235219895575" lon="8.970259035894943"><ele>74.0</ele><time>2026-04-04T10:24:50.998Z</time></trkpt><trkpt lat="39.042481539977054" lon="8.97013222070824"><ele>74.0</ele><time>2026-04-04T10:24:51.998Z</time></trkpt><trkpt lat="39.042608877358894" lon="8.969999967790452"><ele>74.0</ele><time>2026-04-04T10:24:52.998Z</time></trkpt><trkpt lat="39.042734848356496" lon="8.969865190128274"><ele>75.0</ele><time>2026-04-04T10:24:53.998Z</time></trkpt><trkpt lat="39.042864602869294" lon="8.969724323818127"><ele>76.0</ele><time>2026-04-04T10:24:54.998Z</time></trkpt><trkpt lat="39.04298048703874" lon="8.969591678160631"><ele>77.0</ele><time>2026-04-04T10:24:55.998Z</time></trkpt><trkpt lat="39.04306599196027" lon="8.969456312765345"><ele>77.0</ele><time>2026-04-04T10:24:56.998Z</time></trkpt><trkpt lat="39.04314058783458" lon="8.969307646878965"><ele>77.0</ele><time>2026-04-04T10:24:57.998Z</time></trkpt><trkpt lat="39.04322557810211" lon="8.969150027189583"><ele>77.0</ele><time>2026-04-04T10:24:58.998Z</time></trkpt><trkpt lat="39.043316854587296" lon="8.968985798314078"><ele>77.0</ele><time>2026-04-04T10:24:59.998Z</time></trkpt><trkpt lat="39.04340416700215" lon="8.968819432869411"><ele>78.0</ele><time>2026-04-04T10:25:00.998Z</time></trkpt><trkpt lat="39.043487240335466" lon="8.968648139477324"><ele>79.0</ele><time>2026-04-04T10:25:01.998Z</time></trkpt><trkpt lat="39.04355589710079" lon="8.968453382235507"><ele>80.0</ele><time>2026-04-04T10:25:02.998Z</time></trkpt><trkpt lat="39.04361806138184" lon="8.968248237144318"><ele>81.33333333333334</ele><time>2026-04-04T10:25:03.998Z</time></trkpt><trkpt lat="39.04368137536919" lon="8.968052304057856"><ele>82.66666666666667</ele><time>2026-04-04T10:25:04.998Z</time></trkpt><trkpt lat="39.043743821914475" lon="8.967859426884347"><ele>84.0</ele><time>2026-04-04T10:25:05.998Z</time></trkpt><trkpt lat="39.043808269307135" lon="8.967665414006603"><ele>84.66666666666667</ele><time>2026-04-04T10:25:06.998Z</time></trkpt><trkpt lat="39.04386519371711" lon="8.967474837576741"><ele>85.33333333333334</ele><time>2026-04-04T10:25:07.997Z</time></trkpt><trkpt lat="39.04391827456611" lon="8.967261695457482"><ele>86.0</ele><time>2026-04-04T10:25:09Z</time></trkpt><trkpt lat="39.04395068966374" lon="8.967040628551635"><ele>86.0</ele><time>2026-04-04T10:25:10Z</time></trkpt><trkpt lat="39.04397681368026" lon="8.96684849643793"><ele>86.0</ele><time>2026-04-04T10:25:11Z</time></trkpt><trkpt lat="39.04400987456629" lon="8.96666692151201"><ele>86.0</ele><time>2026-04-04T10:25:12Z</time></trkpt><trkpt lat="39.044038784251306" lon="8.966520308804833"><ele>86.0</ele><time>2026-04-04T10:25:13Z</time></trkpt><trkpt lat="39.04405820284428" lon="8.966393724657635"><ele>86.16666666666667</ele><time>2026-04-04T10:25:14Z</time></trkpt><trkpt lat="39.04407340088043" lon="8.966280839676168"><ele>86.33333333333334</ele><time>2026-04-04T10:25:15Z</time></trkpt><trkpt lat="39.04409738315374" lon="8.96616821175366"><ele>86.5</ele><time>2026-04-04T10:25:16Z</time></trkpt><trkpt lat="39.04411498801503" lon="8.966048433360964"><ele>86.66666666666667</ele><time>2026-04-04T10:25:17Z</time></trkpt><trkpt lat="39.04413694430331" lon="8.965959153817373"><ele>86.83333333333333</ele><time>2026-04-04T10:25:18Z</time></trkpt><trkpt lat="39.04416587393595" lon="8.965851094605467"><ele>87.0</ele><time>2026-04-04T10:25:19Z</time></trkpt><trkpt lat="39.044186333407566" lon="8.965728567280966"><ele>88.75</ele><time>2026-04-04T10:25:20Z</time></trkpt><trkpt lat="39.04420817674599" lon="8.965598300527144"><ele>90.5</ele><time>2026-04-04T10:25:21Z</time></trkpt><trkpt lat="39.04424109352091" lon="8.965458676071327"><ele>92.25</ele><time>2026-04-04T10:25:22Z</time></trkpt><trkpt lat="39.04430435058335" lon="8.965308448426283"><ele>94.0</ele><time>2026-04-04T10:25:23Z</time></trkpt><trkpt lat="39.04436164624199" lon="8.965159372103466"><ele>95.5</ele><time>2026-04-04T10:25:24Z</time></trkpt><trkpt lat="39.044428060219886" lon="8.965007001254397"><ele>97.0</ele><time>2026-04-04T10:25:25Z</time></trkpt><trkpt lat="39.04448636862612" lon="8.96485228154871"><ele>98.5</ele><time>2026-04-04T10:25:26Z</time></trkpt><trkpt lat="39.044545334431504" lon="8.964703061230916"><ele>100.0</ele><time>2026-04-04T10:25:27Z</time></trkpt><trkpt lat="39.04460596786039" lon="8.964552629605135"><ele>100.0</ele><time>2026-04-04T10:25:28Z</time></trkpt><trkpt lat="39.0446705177138" lon="8.964399464367293"><ele>100.0</ele><time>2026-04-04T10:25:29Z</time></trkpt><trkpt lat="39.04472497564067" lon="8.964250718940042"><ele>100.0</ele><time>2026-04-04T10:25:30Z</time></trkpt><trkpt lat="39.04478199835461" lon="8.964100261709184"><ele>100.0</ele><time>2026-04-04T10:25:31Z</time></trkpt><trkpt lat="39.044841889387705" lon="8.963950684231879"><ele>101.0</ele><time>2026-04-04T10:25:32Z</time></trkpt><trkpt lat="39.04489263407614" lon="8.96380057847342"><ele>102.0</ele><time>2026-04-04T10:25:33Z</time></trkpt><trkpt lat="39.04495680960582" lon="8.96365438288168"><ele>103.0</ele><time>2026-04-04T10:25:34Z</time></trkpt><trkpt lat="39.045024063974324" lon="8.963524343872653"><ele>104.0</ele><time>2026-04-04T10:25:35Z</time></trkpt><trkpt lat="39.045121165247124" lon="8.963439183989673"><ele>107.0</ele><time>2026-04-04T10:25:36Z</time></trkpt><trkpt lat="39.045220935214275" lon="8.963360157220622"><ele>110.0</ele><time>2026-04-04T10:25:37Z</time></trkpt><trkpt lat="39.04532675712777" lon="8.96327854784032"><ele>113.0</ele><time>2026-04-04T10:25:38Z</time></trkpt><trkpt lat="39.04544394556299" lon="8.963209929334067"><ele>116.0</ele><time>2026-04-04T10:25:39Z</time></trkpt><trkpt lat="39.04555610989058" lon="8.963127578859835"><ele>116.0</ele><time>2026-04-04T10:25:40Z</time></trkpt><trkpt lat="39.0456686444899" lon="8.963060863506493"><ele>116.0</ele><time>2026-04-04T10:25:41Z</time></trkpt><trkpt lat="39.04575949298049" lon="8.963011791772333"><ele>116.0</ele><time>2026-04-04T10:25:42Z</time></trkpt><trkpt lat="39.04583345448648" lon="8.962959882377952"><ele>116.0</ele><time>2026-04-04T10:25:43Z</time></trkpt><trkpt lat="39.04589214743336" lon="8.962918700116765"><ele>116.0</ele><time>2026-04-04T10:25:43.999Z</time></trkpt><trkpt lat="39.04598809666186" lon="8.962865958968537"><ele>117.19999999999999</ele><time>2026-04-04T10:25:45.999Z</time></trkpt><trkpt lat="39.04608280051923" lon="8.962795529147046"><ele>118.39999999999999</ele><time>2026-04-04T10:25:47.999Z</time></trkpt><trkpt lat="39.04616345507764" lon="8.96270437769874"><ele>119.6</ele><time>2026-04-04T10:25:49.999Z</time></trkpt><trkpt lat="39.04626856875254" lon="8.962582093721547"><ele>120.8</ele><time>2026-04-04T10:25:51.999Z</time></trkpt><trkpt lat="39.0463351904811" lon="8.962511649414106"><ele>122.0</ele><time>2026-04-04T10:25:52.999Z</time></trkpt><trkpt lat="39.046392967856434" lon="8.962434101401053"><ele>123.0</ele><time>2026-04-04T10:25:53.999Z</time></trkpt><trkpt lat="39.046446010805774" lon="8.962355350364458"><ele>123.99999999999999</ele><time>2026-04-04T10:25:54.999Z</time></trkpt><trkpt lat="39.04649465499613" lon="8.962286150833778"><ele>124.99999999999999</ele><time>2026-04-04T10:25:55.999Z</time></trkpt><trkpt lat="39.04657383249203" lon="8.96223013331347"><ele>126.0</ele><time>2026-04-04T10:25:57.999Z</time></trkpt><trkpt lat="39.046625776545646" lon="8.962378259573896"><ele>127.0</ele><time>2026-04-04T10:25:59.999Z</time></trkpt><trkpt lat="39.0466533662007" lon="8.962479637138191"><ele>127.25</ele><time>2026-04-04T10:26:00.999Z</time></trkpt><trkpt lat="39.046699306415874" lon="8.962602676367986"><ele>127.5</ele><time>2026-04-04T10:26:01.999Z</time></trkpt><trkpt lat="39.046728232294825" lon="8.96275677754017"><ele>127.75</ele><time>2026-04-04T10:26:02.999Z</time></trkpt><trkpt lat="39.046772934790084" lon="8.962933367957726"><ele>128.0</ele><time>2026-04-04T10:26:03.999Z</time></trkpt><trkpt lat="39.046821388888766" lon="8.963127754630511"><ele>128.0</ele><time>2026-04-04T10:26:04.999Z</time></trkpt><trkpt lat="39.04688197324147" lon="8.963335021099887"><ele>128.0</ele><time>2026-04-04T10:26:05.999Z</time></trkpt><trkpt lat="39.0469444432095" lon="8.96355036604071"><ele>128.0</ele><time>2026-04-04T10:26:06.999Z</time></trkpt><trkpt lat="39.04699459114276" lon="8.96376038289243"><ele>125.33333333333333</ele><time>2026-04-04T10:26:07.999Z</time></trkpt><trkpt lat="39.04704765474763" lon="8.963957076884208"><ele>122.66666666666666</ele><time>2026-04-04T10:26:08.999Z</time></trkpt><trkpt lat="39.04709547502375" lon="8.96414687281704"><ele>120.0</ele><time>2026-04-04T10:26:09.999Z</time></trkpt><trkpt lat="39.04714091522235" lon="8.96432707006817"><ele>118.25</ele><time>2026-04-04T10:26:10.999Z</time></trkpt><trkpt lat="39.04718726359744" lon="8.964504109077449"><ele>116.5</ele><time>2026-04-04T10:26:11.999Z</time></trkpt><trkpt lat="39.047223650328526" lon="8.96467530537069"><ele>114.75</ele><time>2026-04-04T10:26:12.999Z</time></trkpt><trkpt lat="39.047264759857846" lon="8.964837057792197"><ele>113.0</ele><time>2026-04-04T10:26:13.999Z</time></trkpt><trkpt lat="39.047305658286305" lon="8.964994305673127"><ele>111.0</ele><time>2026-04-04T10:26:14.999Z</time></trkpt><trkpt lat="39.047346447369236" lon="8.965150799315028"><ele>109.0</ele><time>2026-04-04T10:26:15.999Z</time></trkpt><trkpt lat="39.04738472055258" lon="8.965297640328231"><ele>107.0</ele><time>2026-04-04T10:26:16.999Z</time></trkpt><trkpt lat="39.047423481989284" lon="8.965446354527483"><ele>105.0</ele><time>2026-04-04T10:26:17.999Z</time></trkpt><trkpt lat="39.04747903999597" lon="8.965597845316376"><ele>105.0</ele><time>2026-04-04T10:26:18.999Z</time></trkpt><trkpt lat="39.04752221481529" lon="8.965761348816628"><ele>105.0</ele><time>2026-04-04T10:26:19.999Z</time></trkpt><trkpt lat="39.04756383218734" lon="8.965932739330741"><ele>105.0</ele><time>2026-04-04T10:26:20.999Z</time></trkpt><trkpt lat="39.04760727582314" lon="8.966099493215541"><ele>105.0</ele><time>2026-04-04T10:26:21.999Z</time></trkpt><trkpt lat="39.047645151355624" lon="8.96625680587297"><ele>104.0</ele><time>2026-04-04T10:26:22.999Z</time></trkpt><trkpt lat="39.04768007877942" lon="8.966377520085821"><ele>103.0</ele><time>2026-04-04T10:26:23.999Z</time></trkpt><trkpt lat="39.04771679425223" lon="8.96652106137668"><ele>102.0</ele><time>2026-04-04T10:26:24.999Z</time></trkpt><trkpt lat="39.04775068106845" lon="8.966701299917169"><ele>101.0</ele><time>2026-04-04T10:26:25.999Z</time></trkpt><trkpt lat="39.047797414029134" lon="8.966872110253165"><ele>99.5</ele><time>2026-04-04T10:26:26.999Z</time></trkpt><trkpt lat="39.04784494957986" lon="8.967039894491215"><ele>98.0</ele><time>2026-04-04T10:26:27.999Z</time></trkpt><trkpt lat="39.047885618010845" lon="8.967214423294395"><ele>96.5</ele><time>2026-04-04T10:26:28.999Z</time></trkpt><trkpt lat="39.04792941225852" lon="8.967391924395558"><ele>95.0</ele><time>2026-04-04T10:26:29.998Z</time></trkpt><trkpt lat="39.047976862510964" lon="8.967586268349837"><ele>93.5</ele><time>2026-04-04T10:26:30.998Z</time></trkpt><trkpt lat="39.048026018583016" lon="8.967759287890392"><ele>92.0</ele><time>2026-04-04T10:26:31.998Z</time></trkpt><trkpt lat="39.04807427787451" lon="8.96792678655164"><ele>90.5</ele><time>2026-04-04T10:26:32.998Z</time></trkpt><trkpt lat="39.04811671332571" lon="8.9681066436115"><ele>89.0</ele><time>2026-04-04T10:26:33.998Z</time></trkpt><trkpt lat="39.0481585341018" lon="8.968299163277404"><ele>87.5</ele><time>2026-04-04T10:26:34.998Z</time></trkpt><trkpt lat="39.04820623386892" lon="8.968491781066826"><ele>86.0</ele><time>2026-04-04T10:26:35.998Z</time></trkpt><trkpt lat="39.04825295001473" lon="8.968670863899167"><ele>84.5</ele><time>2026-04-04T10:26:36.998Z</time></trkpt><trkpt lat="39.04829996794295" lon="8.968833228630226"><ele>83.0</ele><time>2026-04-04T10:26:37.998Z</time></trkpt><trkpt lat="39.048344169127795" lon="8.968996390599159"><ele>83.0</ele><time>2026-04-04T10:26:38.998Z</time></trkpt><trkpt lat="39.048381634353824" lon="8.96914524843253"><ele>83.0</ele><time>2026-04-04T10:26:39.998Z</time></trkpt><trkpt lat="39.04842199703315" lon="8.969297883432644"><ele>83.0</ele><time>2026-04-04T10:26:40.998Z</time></trkpt><trkpt lat="39.04845667968983" lon="8.969447856918974"><ele>83.0</ele><time>2026-04-04T10:26:41.998Z</time></trkpt><trkpt lat="39.048495094006334" lon="8.969602405984235"><ele>82.0</ele><time>2026-04-04T10:26:42.998Z</time></trkpt><trkpt lat="39.048535316894146" lon="8.969752698575968"><ele>81.0</ele><time>2026-04-04T10:26:43.998Z</time></trkpt><trkpt lat="39.04857685559287" lon="8.969903441332445"><ele>80.0</ele><time>2026-04-04T10:26:44.998Z</time></trkpt><trkpt lat="39.04861651288876" lon="8.970044203001319"><ele>79.0</ele><time>2026-04-04T10:26:45.998Z</time></trkpt><trkpt lat="39.04864972722652" lon="8.970177422557223"><ele>78.0</ele><time>2026-04-04T10:26:46.998Z</time></trkpt><trkpt lat="39.048684356822335" lon="8.970310447255926"><ele>77.0</ele><time>2026-04-04T10:26:47.998Z</time></trkpt><trkpt lat="39.04871412699282" lon="8.97044146814292"><ele>76.0</ele><time>2026-04-04T10:26:48.998Z</time></trkpt><trkpt lat="39.04875185518297" lon="8.970558312373658"><ele>75.0</ele><time>2026-04-04T10:26:49.998Z</time></trkpt><trkpt lat="39.04879083715595" lon="8.970675966556792"><ele>74.0</ele><time>2026-04-04T10:26:50.998Z</time></trkpt><trkpt lat="39.04884523612019" lon="8.970799260498746"><ele>73.0</ele><time>2026-04-04T10:26:51.998Z</time></trkpt><trkpt lat="39.04891627977997" lon="8.970914978030097"><ele>72.0</ele><time>2026-04-04T10:26:52.998Z</time></trkpt><trkpt lat="39.048997492244624" lon="8.97103290678843"><ele>71.0</ele><time>2026-04-04T10:26:53.998Z</time></trkpt><trkpt lat="39.049090884513305" lon="8.971167586062622"><ele>70.0</ele><time>2026-04-04T10:26:54.998Z</time></trkpt><trkpt lat="39.049184383927354" lon="8.971301745829985"><ele>69.0</ele><time>2026-04-04T10:26:55.998Z</time></trkpt><trkpt lat="39.04926995757134" lon="8.971429789179966"><ele>68.0</ele><time>2026-04-04T10:26:56.998Z</time></trkpt><trkpt lat="39.049351197125056" lon="8.971547336357618"><ele>67.0</ele><time>2026-04-04T10:26:57.998Z</time></trkpt><trkpt lat="39.049427147025995" lon="8.971662114340322"><ele>66.0</ele><time>2026-04-04T10:26:58.998Z</time></trkpt><trkpt lat="39.0495026173223" lon="8.971775820992207"><ele>65.2</ele><time>2026-04-04T10:26:59.998Z</time></trkpt><trkpt lat="39.04957331840021" lon="8.971876141256521"><ele>64.39999999999999</ele><time>2026-04-04T10:27:00.998Z</time></trkpt><trkpt lat="39.04964297436525" lon="8.97197208782625"><ele>63.6</ele><time>2026-04-04T10:27:01.998Z</time></trkpt><trkpt lat="39.0497061311062" lon="8.9720589068395"><ele>62.8</ele><time>2026-04-04T10:27:02.998Z</time></trkpt><trkpt lat="39.049756883189986" lon="8.972140771822932"><ele>62.0</ele><time>2026-04-04T10:27:03.998Z</time></trkpt><trkpt lat="39.04980146090197" lon="8.972214745178416"><ele>62.00000000000001</ele><time>2026-04-04T10:27:04.998Z</time></trkpt><trkpt lat="39.04987322140319" lon="8.972319675169487"><ele>62.0</ele><time>2026-04-04T10:27:06.998Z</time></trkpt><trkpt lat="39.049940592879885" lon="8.972351935035386"><ele>62.0</ele><time>2026-04-04T10:27:09.998Z</time></trkpt><trkpt lat="39.05002244744578" lon="8.97232870271828"><ele>62.0</ele><time>2026-04-04T10:27:12.998Z</time></trkpt><trkpt lat="39.050064619443354" lon="8.972262006519081"><ele>62.00000000000001</ele><time>2026-04-04T10:27:15Z</time></trkpt><trkpt lat="39.05010904495748" lon="8.97215883270322"><ele>62.0</ele><time>2026-04-04T10:27:18Z</time></trkpt><trkpt lat="39.050130961340614" lon="8.97207444995737"><ele>61.2</ele><time>2026-04-04T10:27:20Z</time></trkpt><trkpt lat="39.050182925019726" lon="8.971956848614521"><ele>60.400000000000006</ele><time>2026-04-04T10:27:22Z</time></trkpt><trkpt lat="39.05023109322904" lon="8.971858996746642"><ele>59.599999999999994</ele><time>2026-04-04T10:27:23Z</time></trkpt><trkpt lat="39.05028863513316" lon="8.971753763987177"><ele>58.8</ele><time>2026-04-04T10:27:24Z</time></trkpt><trkpt lat="39.0503650598135" lon="8.971639637947698"><ele>58.0</ele><time>2026-04-04T10:27:25Z</time></trkpt><trkpt lat="39.05046028189475" lon="8.971516004545231"><ele>58.0</ele><time>2026-04-04T10:27:26Z</time></trkpt><trkpt lat="39.050586416031436" lon="8.97134512050302"><ele>58.0</ele><time>2026-04-04T10:27:27Z</time></trkpt><trkpt lat="39.05070205115046" lon="8.971176655118915"><ele>58.0</ele><time>2026-04-04T10:27:28Z</time></trkpt><trkpt lat="39.050793772544765" lon="8.97104693329514"><ele>56.666666666666664</ele><time>2026-04-04T10:27:29Z</time></trkpt><trkpt lat="39.05088809651218" lon="8.970916947080294"><ele>55.33333333333333</ele><time>2026-04-04T10:27:30Z</time></trkpt><trkpt lat="39.05100859707717" lon="8.970740698386537"><ele>54.0</ele><time>2026-04-04T10:27:31Z</time></trkpt><trkpt lat="39.05115251304477" lon="8.970547792645283"><ele>54.0</ele><time>2026-04-04T10:27:32Z</time></trkpt><trkpt lat="39.05126230456003" lon="8.97039310336984"><ele>54.0</ele><time>2026-04-04T10:27:33Z</time></trkpt><trkpt lat="39.0513394026128" lon="8.970283914787862"><ele>54.0</ele><time>2026-04-04T10:27:34Z</time></trkpt><trkpt lat="39.05139170541048" lon="8.970209886506744"><ele>54.0</ele><time>2026-04-04T10:27:35Z</time></trkpt><trkpt lat="39.05145520541623" lon="8.970115449116319"><ele>53.66666666666667</ele><time>2026-04-04T10:27:36Z</time></trkpt><trkpt lat="39.05156080428041" lon="8.969955455220632"><ele>53.333333333333336</ele><time>2026-04-04T10:27:37Z</time></trkpt><trkpt lat="39.05169304008288" lon="8.969761116341623"><ele>53.0</ele><time>2026-04-04T10:27:38Z</time></trkpt><trkpt lat="39.05183919878292" lon="8.969549495334107"><ele>53.0</ele><time>2026-04-04T10:27:39Z</time></trkpt><trkpt lat="39.051972181937565" lon="8.969369897472458"><ele>53.0</ele><time>2026-04-04T10:27:40Z</time></trkpt><trkpt lat="39.05210412631456" lon="8.969195570437991"><ele>53.0</ele><time>2026-04-04T10:27:41Z</time></trkpt><trkpt lat="39.05223255140124" lon="8.969018409182194"><ele>54.0</ele><time>2026-04-04T10:27:42Z</time></trkpt><trkpt lat="39.052342864169" lon="8.968858208973186"><ele>55.0</ele><time>2026-04-04T10:27:43Z</time></trkpt><trkpt lat="39.05245019997871" lon="8.968696293905758"><ele>56.0</ele><time>2026-04-04T10:27:44Z</time></trkpt><trkpt lat="39.0525505654183" lon="8.968541474865942"><ele>56.0</ele><time>2026-04-04T10:27:45Z</time></trkpt><trkpt lat="39.05262850537464" lon="8.968400052513676"><ele>56.0</ele><time>2026-04-04T10:27:46Z</time></trkpt><trkpt lat="39.05268380688032" lon="8.968240013351489"><ele>56.0</ele><time>2026-04-04T10:27:47Z</time></trkpt><trkpt lat="39.05273160132912" lon="8.968065433694758"><ele>56.0</ele><time>2026-04-04T10:27:48Z</time></trkpt><trkpt lat="39.052782330390244" lon="8.967891257450741"><ele>56.8</ele><time>2026-04-04T10:27:49Z</time></trkpt><trkpt lat="39.05282882896355" lon="8.96773100513372"><ele>57.599999999999994</ele><time>2026-04-04T10:27:50Z</time></trkpt><trkpt lat="39.05287667499295" lon="8.967600530232648"><ele>58.4</ele><time>2026-04-04T10:27:50.999Z</time></trkpt><trkpt lat="39.05293115006821" lon="8.967488615921477"><ele>59.2</ele><time>2026-04-04T10:27:51.999Z</time></trkpt><trkpt lat="39.05298306184222" lon="8.967384969852914"><ele>60.0</ele><time>2026-04-04T10:27:52.999Z</time></trkpt><trkpt lat="39.0530363095688" lon="8.967296614435382"><ele>60.0</ele><time>2026-04-04T10:27:53.999Z</time></trkpt><trkpt lat="39.05310296536206" lon="8.96724917933735"><ele>60.0</ele><time>2026-04-04T10:27:54.999Z</time></trkpt><trkpt lat="39.05318436905998" lon="8.96727978850783"><ele>60.0</ele><time>2026-04-04T10:27:55.999Z</time></trkpt><trkpt lat="39.05326159391753" lon="8.967272637936235"><ele>60.0</ele><time>2026-04-04T10:27:56.999Z</time></trkpt><trkpt lat="39.053376147723256" lon="8.967404491373374"><ele>60.0</ele><time>2026-04-04T10:27:57.999Z</time></trkpt><trkpt lat="39.05349119713978" lon="8.96745947493493"><ele>60.0</ele><time>2026-04-04T10:27:58.999Z</time></trkpt><trkpt lat="39.05359748547519" lon="8.96750169879934"><ele>60.0</ele><time>2026-04-04T10:27:59.999Z</time></trkpt><trkpt lat="39.05370514291528" lon="8.967547983080443"><ele>60.0</ele><time>2026-04-04T10:28:00.999Z</time></trkpt><trkpt lat="39.05381865844378" lon="8.967574394784295"><ele>60.0</ele><time>2026-04-04T10:28:01.999Z</time></trkpt><trkpt lat="39.053926418419536" lon="8.967588881455315"><ele>60.0</ele><time>2026-04-04T10:28:02.999Z</time></trkpt><trkpt lat="39.05403763567095" lon="8.96759536827611"><ele>59.25</ele><time>2026-04-04T10:28:03.999Z</time></trkpt><trkpt lat="39.05415328492205" lon="8.96759732285878"><ele>58.5</ele><time>2026-04-04T10:28:04.999Z</time></trkpt><trkpt lat="39.054280478994905" lon="8.967595593899565"><ele>57.75</ele><time>2026-04-04T10:28:05.999Z</time></trkpt><trkpt lat="39.05441357284335" lon="8.967591353233676"><ele>57.0</ele><time>2026-04-04T10:28:06.999Z</time></trkpt><trkpt lat="39.0545505863389" lon="8.967586591830818"><ele>57.0</ele><time>2026-04-04T10:28:07.999Z</time></trkpt><trkpt lat="39.05468857451512" lon="8.967592249704468"><ele>57.0</ele><time>2026-04-04T10:28:08.999Z</time></trkpt><trkpt lat="39.054824411173634" lon="8.967595548408877"><ele>57.0</ele><time>2026-04-04T10:28:09.999Z</time></trkpt><trkpt lat="39.054959081839165" lon="8.967594968245622"><ele>57.0</ele><time>2026-04-04T10:28:10.999Z</time></trkpt><trkpt lat="39.055098788979606" lon="8.967588778051253"><ele>57.5</ele><time>2026-04-04T10:28:11.999Z</time></trkpt><trkpt lat="39.05523827909517" lon="8.96758764783288"><ele>58.0</ele><time>2026-04-04T10:28:12.999Z</time></trkpt><trkpt lat="39.055382792839495" lon="8.967586686605763"><ele>58.5</ele><time>2026-04-04T10:28:13.999Z</time></trkpt><trkpt lat="39.05552589165089" lon="8.967587693597107"><ele>59.0</ele><time>2026-04-04T10:28:14.999Z</time></trkpt><trkpt lat="39.05567252454334" lon="8.967589539322589"><ele>60.0</ele><time>2026-04-04T10:28:15.999Z</time></trkpt><trkpt lat="39.05582114903902" lon="8.967593410594278"><ele>61.0</ele><time>2026-04-04T10:28:16.999Z</time></trkpt><trkpt lat="39.05596883749915" lon="8.96759207324948"><ele>62.0</ele><time>2026-04-04T10:28:17.999Z</time></trkpt><trkpt lat="39.056117217871694" lon="8.96759581333134"><ele>63.0</ele><time>2026-04-04T10:28:18.999Z</time></trkpt><trkpt lat="39.05626746388029" lon="8.967590493319758"><ele>63.0</ele><time>2026-04-04T10:28:19.999Z</time></trkpt><trkpt lat="39.0564156524994" lon="8.967588394125668"><ele>63.0</ele><time>2026-04-04T10:28:20.999Z</time></trkpt><trkpt lat="39.056575652926306" lon="8.967585715526777"><ele>63.0</ele><time>2026-04-04T10:28:21.999Z</time></trkpt><trkpt lat="39.056737873012366" lon="8.967588531549671"><ele>63.0</ele><time>2026-04-04T10:28:22.999Z</time></trkpt><trkpt lat="39.05690236787896" lon="8.967592058765161"><ele>63.0</ele><time>2026-04-04T10:28:23.999Z</time></trkpt><trkpt lat="39.0570705410647" lon="8.967593966497883"><ele>63.0</ele><time>2026-04-04T10:28:24.999Z</time></trkpt><trkpt lat="39.057235936588434" lon="8.96759446756069"><ele>63.0</ele><time>2026-04-04T10:28:25.999Z</time></trkpt><trkpt lat="39.057405596262065" lon="8.967595440458865"><ele>63.0</ele><time>2026-04-04T10:28:26.999Z</time></trkpt><trkpt lat="39.057573741159835" lon="8.967593710582207"><ele>63.0</ele><time>2026-04-04T10:28:27.999Z</time></trkpt><trkpt lat="39.0577414819699" lon="8.967598621320478"><ele>63.66666666666667</ele><time>2026-04-04T10:28:28.999Z</time></trkpt><trkpt lat="39.05790477123297" lon="8.967609205258553"><ele>64.33333333333334</ele><time>2026-04-04T10:28:29.999Z</time></trkpt><trkpt lat="39.05806807944791" lon="8.96763052464495"><ele>65.0</ele><time>2026-04-04T10:28:30.999Z</time></trkpt><trkpt lat="39.058226887891976" lon="8.967664426536475"><ele>65.66666666666667</ele><time>2026-04-04T10:28:31.999Z</time></trkpt><trkpt lat="39.05839172650218" lon="8.96769922315322"><ele>66.33333333333333</ele><time>2026-04-04T10:28:32.999Z</time></trkpt><trkpt lat="39.058560010666895" lon="8.967735998255096"><ele>67.0</ele><time>2026-04-04T10:28:33.999Z</time></trkpt><trkpt lat="39.05873161076734" lon="8.967772684367862"><ele>67.0</ele><time>2026-04-04T10:28:34.999Z</time></trkpt><trkpt lat="39.05890206628772" lon="8.967809613276938"><ele>67.0</ele><time>2026-04-04T10:28:35.998Z</time></trkpt><trkpt lat="39.059070094614775" lon="8.967848344180075"><ele>67.0</ele><time>2026-04-04T10:28:36.998Z</time></trkpt><trkpt lat="39.059241057889444" lon="8.967881819139283"><ele>67.5</ele><time>2026-04-04T10:28:37.998Z</time></trkpt><trkpt lat="39.059390323882425" lon="8.967910296979007"><ele>68.0</ele><time>2026-04-04T10:28:38.998Z</time></trkpt><trkpt lat="39.059530286571075" lon="8.967939458309129"><ele>68.5</ele><time>2026-04-04T10:28:39.998Z</time></trkpt><trkpt lat="39.05966080460543" lon="8.9679688153983"><ele>69.0</ele><time>2026-04-04T10:28:40.998Z</time></trkpt><trkpt lat="39.05978768988985" lon="8.968006670042877"><ele>69.0</ele><time>2026-04-04T10:28:41.998Z</time></trkpt><trkpt lat="39.059909966360316" lon="8.968039406041736"><ele>69.0</ele><time>2026-04-04T10:28:42.998Z</time></trkpt><trkpt lat="39.06003403568624" lon="8.968074255107242"><ele>69.0</ele><time>2026-04-04T10:28:43.998Z</time></trkpt><trkpt lat="39.060154103298046" lon="8.968107988305011"><ele>69.0</ele><time>2026-04-04T10:28:44.998Z</time></trkpt><trkpt lat="39.06027619519569" lon="8.968132285074697"><ele>69.5</ele><time>2026-04-04T10:28:45.998Z</time></trkpt><trkpt lat="39.060400381616894" lon="8.96815705377065"><ele>70.0</ele><time>2026-04-04T10:28:46.998Z</time></trkpt><trkpt lat="39.06052573051748" lon="8.968199039512815"><ele>70.5</ele><time>2026-04-04T10:28:47.998Z</time></trkpt><trkpt lat="39.060644299921925" lon="8.968264616738821"><ele>71.0</ele><time>2026-04-04T10:28:48.998Z</time></trkpt><trkpt lat="39.06075066319858" lon="8.968355094297346"><ele>68.5</ele><time>2026-04-04T10:28:49.998Z</time></trkpt><trkpt lat="39.06085003514018" lon="8.968462992460386"><ele>66.0</ele><time>2026-04-04T10:28:50.998Z</time></trkpt><trkpt lat="39.06093386437868" lon="8.968592671901414"><ele>63.5</ele><time>2026-04-04T10:28:51.998Z</time></trkpt><trkpt lat="39.061001048603316" lon="8.968743961163426"><ele>61.0</ele><time>2026-04-04T10:28:52.998Z</time></trkpt><trkpt lat="39.06106363917396" lon="8.968906141209711"><ele>61.0</ele><time>2026-04-04T10:28:53.998Z</time></trkpt><trkpt lat="39.06113564304474" lon="8.969064377183178"><ele>61.0</ele><time>2026-04-04T10:28:54.998Z</time></trkpt><trkpt lat="39.06120977401889" lon="8.969230702600774"><ele>61.0</ele><time>2026-04-04T10:28:55.998Z</time></trkpt><trkpt lat="39.06128862323262" lon="8.969404216999003"><ele>61.0</ele><time>2026-04-04T10:28:56.998Z</time></trkpt><trkpt lat="39.061370013009984" lon="8.96957248444898"><ele>60.33333333333333</ele><time>2026-04-04T10:28:57.998Z</time></trkpt><trkpt lat="39.061451373885646" lon="8.969740469285528"><ele>59.66666666666667</ele><time>2026-04-04T10:28:58.998Z</time></trkpt><trkpt lat="39.061531981646105" lon="8.969906193706207"><ele>59.0</ele><time>2026-04-04T10:28:59.998Z</time></trkpt><trkpt lat="39.061605777194075" lon="8.970069024532885"><ele>58.75</ele><time>2026-04-04T10:29:00.998Z</time></trkpt><trkpt lat="39.06168391814454" lon="8.970229155643922"><ele>58.5</ele><time>2026-04-04T10:29:01.998Z</time></trkpt><trkpt lat="39.06176097180883" lon="8.970393764757201"><ele>58.25</ele><time>2026-04-04T10:29:02.998Z</time></trkpt><trkpt lat="39.06183413914716" lon="8.97054915015044"><ele>58.0</ele><time>2026-04-04T10:29:03.998Z</time></trkpt><trkpt lat="39.06190947567675" lon="8.970703958733008"><ele>58.0</ele><time>2026-04-04T10:29:04.998Z</time></trkpt><trkpt lat="39.06198472450848" lon="8.970860312067376"><ele>58.0</ele><time>2026-04-04T10:29:05.998Z</time></trkpt><trkpt lat="39.062056920821995" lon="8.971012960686096"><ele>58.0</ele><time>2026-04-04T10:29:06.998Z</time></trkpt><trkpt lat="39.06212840775296" lon="8.971168911544474"><ele>58.0</ele><time>2026-04-04T10:29:07.998Z</time></trkpt><trkpt lat="39.06219950403704" lon="8.971325441787574"><ele>58.0</ele><time>2026-04-04T10:29:08.998Z</time></trkpt><trkpt lat="39.062266362076734" lon="8.971478458604334"><ele>58.0</ele><time>2026-04-04T10:29:09.998Z</time></trkpt><trkpt lat="39.06233577266864" lon="8.971621450434496"><ele>58.0</ele><time>2026-04-04T10:29:10.998Z</time></trkpt><trkpt lat="39.062401929046125" lon="8.971769838163562"><ele>58.0</ele><time>2026-04-04T10:29:11.998Z</time></trkpt><trkpt lat="39.06246723074466" lon="8.971907570684731"><ele>60.5</ele><time>2026-04-04T10:29:12.998Z</time></trkpt><trkpt lat="39.06253558424686" lon="8.972044285901497"><ele>63.0</ele><time>2026-04-04T10:29:13.998Z</time></trkpt><trkpt lat="39.06260211052461" lon="8.972185907863773"><ele>65.5</ele><time>2026-04-04T10:29:14.998Z</time></trkpt><trkpt lat="39.06266501446889" lon="8.97232130246645"><ele>68.0</ele><time>2026-04-04T10:29:15.998Z</time></trkpt><trkpt lat="39.06272940857879" lon="8.972452216319788"><ele>69.0</ele><time>2026-04-04T10:29:16.998Z</time></trkpt><trkpt lat="39.062793887954825" lon="8.97258466217259"><ele>70.0</ele><time>2026-04-04T10:29:17.998Z</time></trkpt><trkpt lat="39.06286303646573" lon="8.972722833295455"><ele>71.0</ele><time>2026-04-04T10:29:18.998Z</time></trkpt><trkpt lat="39.06292841150684" lon="8.972862456555216"><ele>72.0</ele><time>2026-04-04T10:29:19.998Z</time></trkpt><trkpt lat="39.06298633733525" lon="8.973014620400988"><ele>72.0</ele><time>2026-04-04T10:29:21Z</time></trkpt><trkpt lat="39.063046317718026" lon="8.973154990139491"><ele>72.0</ele><time>2026-04-04T10:29:22Z</time></trkpt><trkpt lat="39.06311049402813" lon="8.973292686041805"><ele>72.0</ele><time>2026-04-04T10:29:23Z</time></trkpt><trkpt lat="39.06318054795511" lon="8.973416871744485"><ele>72.0</ele><time>2026-04-04T10:29:24Z</time></trkpt><trkpt lat="39.063237610861854" lon="8.97352360784237"><ele>73.8</ele><time>2026-04-04T10:29:25Z</time></trkpt><trkpt lat="39.063282437391756" lon="8.97363759579006"><ele>75.6</ele><time>2026-04-04T10:29:26Z</time></trkpt><trkpt lat="39.06334064468922" lon="8.973757414334084"><ele>77.39999999999999</ele><time>2026-04-04T10:29:27Z</time></trkpt><trkpt lat="39.06339593375285" lon="8.973874897331468"><ele>79.2</ele><time>2026-04-04T10:29:28Z</time></trkpt><trkpt lat="39.0634434473428" lon="8.974002816714163"><ele>81.0</ele><time>2026-04-04T10:29:29Z</time></trkpt><trkpt lat="39.06348111256438" lon="8.974139110896001"><ele>81.19999999999999</ele><time>2026-04-04T10:29:30Z</time></trkpt><trkpt lat="39.06350755176783" lon="8.974276267743617"><ele>81.39999999999999</ele><time>2026-04-04T10:29:31Z</time></trkpt><trkpt lat="39.06352924930483" lon="8.974379935788853"><ele>81.6</ele><time>2026-04-04T10:29:32Z</time></trkpt><trkpt lat="39.06355534031071" lon="8.974499593467568"><ele>81.8</ele><time>2026-04-04T10:29:33Z</time></trkpt><trkpt lat="39.06357833673438" lon="8.974629590685847"><ele>82.0</ele><time>2026-04-04T10:29:34Z</time></trkpt><trkpt lat="39.06359639455743" lon="8.974757709428493"><ele>82.0</ele><time>2026-04-04T10:29:35Z</time></trkpt><trkpt lat="39.06361916893667" lon="8.974886435452776"><ele>82.0</ele><time>2026-04-04T10:29:36Z</time></trkpt><trkpt lat="39.06364549736179" lon="8.975023750434625"><ele>82.0</ele><time>2026-04-04T10:29:37Z</time></trkpt><trkpt lat="39.06367131946256" lon="8.975156556933198"><ele>82.0</ele><time>2026-04-04T10:29:38Z</time></trkpt><trkpt lat="39.06369561839257" lon="8.97529747125145"><ele>82.0</ele><time>2026-04-04T10:29:39Z</time></trkpt><trkpt lat="39.063725282187335" lon="8.975437922880232"><ele>81.25</ele><time>2026-04-04T10:29:40Z</time></trkpt><trkpt lat="39.06375626990163" lon="8.975576186429961"><ele>80.5</ele><time>2026-04-04T10:29:41Z</time></trkpt><trkpt lat="39.06379910104358" lon="8.975709932624582"><ele>79.75</ele><time>2026-04-04T10:29:42Z</time></trkpt><trkpt lat="39.06385823304295" lon="8.975836674659734"><ele>79.0</ele><time>2026-04-04T10:29:43Z</time></trkpt><trkpt lat="39.06392205921552" lon="8.975958413801987"><ele>78.0</ele><time>2026-04-04T10:29:44Z</time></trkpt><trkpt lat="39.06398555811636" lon="8.976081493782853"><ele>77.0</ele><time>2026-04-04T10:29:45Z</time></trkpt><trkpt lat="39.06404962391264" lon="8.976204796520864"><ele>76.0</ele><time>2026-04-04T10:29:46Z</time></trkpt><trkpt lat="39.06410470046589" lon="8.976330334294785"><ele>75.0</ele><time>2026-04-04T10:29:47Z</time></trkpt><trkpt lat="39.06416721764248" lon="8.976451121578261"><ele>76.4</ele><time>2026-04-04T10:29:48Z</time></trkpt><trkpt lat="39.064235264146994" lon="8.976568224981744"><ele>77.8</ele><time>2026-04-04T10:29:49Z</time></trkpt><trkpt lat="39.06430151127531" lon="8.976681671904629"><ele>79.19999999999999</ele><time>2026-04-04T10:29:50Z</time></trkpt><trkpt lat="39.064366454001615" lon="8.97679343254113"><ele>80.6</ele><time>2026-04-04T10:29:51Z</time></trkpt><trkpt lat="39.0644311841729" lon="8.976912375467098"><ele>82.0</ele><time>2026-04-04T10:29:52Z</time></trkpt><trkpt lat="39.06450002211978" lon="8.977039730724748"><ele>82.0</ele><time>2026-04-04T10:29:53Z</time></trkpt><trkpt lat="39.064565817530536" lon="8.977176021437463"><ele>82.0</ele><time>2026-04-04T10:29:54Z</time></trkpt><trkpt lat="39.06463360084472" lon="8.977311959208256"><ele>82.0</ele><time>2026-04-04T10:29:55Z</time></trkpt><trkpt lat="39.06470893214771" lon="8.9774505715452"><ele>82.0</ele><time>2026-04-04T10:29:56Z</time></trkpt><trkpt lat="39.06478376802015" lon="8.977595543341762"><ele>81.5</ele><time>2026-04-04T10:29:57Z</time></trkpt><trkpt lat="39.06486096726781" lon="8.977742779453546"><ele>81.0</ele><time>2026-04-04T10:29:58Z</time></trkpt><trkpt lat="39.06494313903087" lon="8.97789366592328"><ele>80.5</ele><time>2026-04-04T10:29:58.999Z</time></trkpt><trkpt lat="39.065020299441215" lon="8.97804446422517"><ele>80.0</ele><time>2026-04-04T10:29:59.999Z</time></trkpt><trkpt lat="39.065098562034116" lon="8.978194875694946"><ele>81.0</ele><time>2026-04-04T10:30:00.999Z</time></trkpt><trkpt lat="39.06517817592463" lon="8.97834520560231"><ele>82.0</ele><time>2026-04-04T10:30:01.999Z</time></trkpt><trkpt lat="39.06525796803854" lon="8.978496527180145"><ele>83.0</ele><time>2026-04-04T10:30:02.999Z</time></trkpt><trkpt lat="39.06533684164515" lon="8.978643389455677"><ele>84.0</ele><time>2026-04-04T10:30:03.999Z</time></trkpt><trkpt lat="39.06541647665992" lon="8.97879228329019"><ele>84.0</ele><time>2026-04-04T10:30:04.999Z</time></trkpt><trkpt lat="39.065497335529145" lon="8.978940809680065"><ele>84.0</ele><time>2026-04-04T10:30:05.999Z</time></trkpt><trkpt lat="39.065577709652835" lon="8.979090489047941"><ele>84.0</ele><time>2026-04-04T10:30:06.999Z</time></trkpt><trkpt lat="39.06565343556968" lon="8.979245836789667"><ele>84.0</ele><time>2026-04-04T10:30:07.999Z</time></trkpt><trkpt lat="39.06573390245184" lon="8.979399908226405"><ele>85.0</ele><time>2026-04-04T10:30:08.999Z</time></trkpt><trkpt lat="39.06581891349059" lon="8.979554526723735"><ele>86.0</ele><time>2026-04-04T10:30:09.999Z</time></trkpt><trkpt lat="39.06590485311758" lon="8.97970835882745"><ele>87.0</ele><time>2026-04-04T10:30:10.999Z</time></trkpt><trkpt lat="39.06598946085833" lon="8.979866259067043"><ele>88.0</ele><time>2026-04-04T10:30:11.999Z</time></trkpt><trkpt lat="39.06607309487472" lon="8.980025028582286"><ele>88.0</ele><time>2026-04-04T10:30:12.999Z</time></trkpt><trkpt lat="39.06615374879764" lon="8.980186364279003"><ele>88.0</ele><time>2026-04-04T10:30:13.999Z</time></trkpt><trkpt lat="39.06622891802348" lon="8.980347351096045"><ele>88.0</ele><time>2026-04-04T10:30:14.999Z</time></trkpt><trkpt lat="39.066302787847626" lon="8.980508812949465"><ele>88.0</ele><time>2026-04-04T10:30:15.999Z</time></trkpt><trkpt lat="39.06637539683221" lon="8.98067338023673"><ele>88.0</ele><time>2026-04-04T10:30:16.999Z</time></trkpt><trkpt lat="39.06644002076727" lon="8.980843819035986"><ele>88.0</ele><time>2026-04-04T10:30:17.999Z</time></trkpt><trkpt lat="39.06649818939779" lon="8.981014165536521"><ele>88.0</ele><time>2026-04-04T10:30:18.999Z</time></trkpt><trkpt lat="39.066558495281086" lon="8.981182546947444"><ele>88.0</ele><time>2026-04-04T10:30:19.999Z</time></trkpt><trkpt lat="39.06662298308612" lon="8.981357338364818"><ele>88.66666666666666</ele><time>2026-04-04T10:30:20.999Z</time></trkpt><trkpt lat="39.066693165296066" lon="8.98155799324701"><ele>89.33333333333333</ele><time>2026-04-04T10:30:21.999Z</time></trkpt><trkpt lat="39.06677535108334" lon="8.981776849603012"><ele>90.0</ele><time>2026-04-04T10:30:22.999Z</time></trkpt><trkpt lat="39.06686508181773" lon="8.98203296918442"><ele>90.0</ele><time>2026-04-04T10:30:23.999Z</time></trkpt><trkpt lat="39.06695503142849" lon="8.982301259280252"><ele>90.0</ele><time>2026-04-04T10:30:24.999Z</time></trkpt><trkpt lat="39.06703749353253" lon="8.982549340153668"><ele>90.0</ele><time>2026-04-04T10:30:25.999Z</time></trkpt><trkpt lat="39.06712479259141" lon="8.982790834992501"><ele>89.66666666666667</ele><time>2026-04-04T10:30:26.999Z</time></trkpt><trkpt lat="39.067204261812115" lon="8.983009425849863"><ele>89.33333333333334</ele><time>2026-04-04T10:30:27.999Z</time></trkpt><trkpt lat="39.06728551597381" lon="8.983208968296116"><ele>89.0</ele><time>2026-04-04T10:30:28.999Z</time></trkpt><trkpt lat="39.06735792681829" lon="8.983398641445143"><ele>88.25</ele><time>2026-04-04T10:30:29.999Z</time></trkpt><trkpt lat="39.067424178984666" lon="8.983577942300359"><ele>87.5</ele><time>2026-04-04T10:30:30.999Z</time></trkpt><trkpt lat="39.06748240766816" lon="8.98374949035563"><ele>86.75</ele><time>2026-04-04T10:30:31.999Z</time></trkpt><trkpt lat="39.06754061020342" lon="8.983910950555481"><ele>86.0</ele><time>2026-04-04T10:30:32.999Z</time></trkpt><trkpt lat="39.06759451637168" lon="8.984060158167429"><ele>84.75</ele><time>2026-04-04T10:30:33.999Z</time></trkpt><trkpt lat="39.067651290422894" lon="8.984207196098946"><ele>83.5</ele><time>2026-04-04T10:30:34.999Z</time></trkpt><trkpt lat="39.06769962232178" lon="8.984342606128113"><ele>82.25</ele><time>2026-04-04T10:30:35.999Z</time></trkpt><trkpt lat="39.06774610892932" lon="8.984482275809496"><ele>81.0</ele><time>2026-04-04T10:30:36.999Z</time></trkpt><trkpt lat="39.067796997907664" lon="8.98461654453183"><ele>81.0</ele><time>2026-04-04T10:30:37.999Z</time></trkpt><trkpt lat="39.06785182681211" lon="8.984763406573263"><ele>81.0</ele><time>2026-04-04T10:30:38.999Z</time></trkpt><trkpt lat="39.06790910909101" lon="8.984925639357455"><ele>81.0</ele><time>2026-04-04T10:30:39.999Z</time></trkpt><trkpt lat="39.06796404777044" lon="8.985089786571734"><ele>81.0</ele><time>2026-04-04T10:30:40.999Z</time></trkpt><trkpt lat="39.068020361329076" lon="8.985255084607697"><ele>81.25</ele><time>2026-04-04T10:30:41.999Z</time></trkpt><trkpt lat="39.06808620939217" lon="8.985415213595461"><ele>81.5</ele><time>2026-04-04T10:30:42.999Z</time></trkpt><trkpt lat="39.068165264533626" lon="8.985572336657627"><ele>81.75</ele><time>2026-04-04T10:30:43.999Z</time></trkpt><trkpt lat="39.06827317712523" lon="8.985719722873018"><ele>82.0</ele><time>2026-04-04T10:30:44.998Z</time></trkpt><trkpt lat="39.06839330745906" lon="8.985845244712669"><ele>82.0</ele><time>2026-04-04T10:30:45.998Z</time></trkpt><trkpt lat="39.06851159412646" lon="8.985956831692024"><ele>82.0</ele><time>2026-04-04T10:30:46.998Z</time></trkpt><trkpt lat="39.068630430382434" lon="8.98606692977736"><ele>82.0</ele><time>2026-04-04T10:30:47.998Z</time></trkpt><trkpt lat="39.06875644935915" lon="8.986187281080403"><ele>82.0</ele><time>2026-04-04T10:30:48.998Z</time></trkpt><trkpt lat="39.06888282837835" lon="8.986312626019105"><ele>82.0</ele><time>2026-04-04T10:30:49.998Z</time></trkpt><trkpt lat="39.068999495763705" lon="8.986431113484203"><ele>82.0</ele><time>2026-04-04T10:30:50.998Z</time></trkpt><trkpt lat="39.069126127465466" lon="8.986550901664865"><ele>85.66666666666666</ele><time>2026-04-04T10:30:51.998Z</time></trkpt><trkpt lat="39.06926240357843" lon="8.986681080361866"><ele>89.33333333333333</ele><time>2026-04-04T10:30:52.998Z</time></trkpt><trkpt lat="39.06940489275043" lon="8.986826177942566"><ele>93.0</ele><time>2026-04-04T10:30:53.998Z</time></trkpt><trkpt lat="39.069554756725644" lon="8.98698082221209"><ele>93.0</ele><time>2026-04-04T10:30:54.998Z</time></trkpt><trkpt lat="39.06970153420767" lon="8.987128532221288"><ele>93.0</ele><time>2026-04-04T10:30:55.998Z</time></trkpt><trkpt lat="39.06983739486104" lon="8.987300185267502"><ele>93.0</ele><time>2026-04-04T10:30:56.998Z</time></trkpt><trkpt lat="39.069983357677934" lon="8.98750072406633"><ele>94.33333333333334</ele><time>2026-04-04T10:30:57.998Z</time></trkpt><trkpt lat="39.07013135933307" lon="8.987730839595024"><ele>95.66666666666667</ele><time>2026-04-04T10:30:58.998Z</time></trkpt><trkpt lat="39.07026625935684" lon="8.987931864083738"><ele>97.0</ele><time>2026-04-04T10:30:59.998Z</time></trkpt><trkpt lat="39.07038924158695" lon="8.988107602722023"><ele>97.0</ele><time>2026-04-04T10:31:00.998Z</time></trkpt><trkpt lat="39.07049305687405" lon="8.988232621122776"><ele>97.0</ele><time>2026-04-04T10:31:01.998Z</time></trkpt><trkpt lat="39.07055597127749" lon="8.988323221179513"><ele>97.0</ele><time>2026-04-04T10:31:02.998Z</time></trkpt><trkpt lat="39.07058375591684" lon="8.988402733857605"><ele>97.0</ele><time>2026-04-04T10:31:03.998Z</time></trkpt><trkpt lat="39.07051584574492" lon="8.988590015442803"><ele>96.25</ele><time>2026-04-04T10:31:05.998Z</time></trkpt><trkpt lat="39.07046756250822" lon="8.988740717244221"><ele>95.5</ele><time>2026-04-04T10:31:06.998Z</time></trkpt><trkpt lat="39.07040894797727" lon="8.98891378283461"><ele>94.75</ele><time>2026-04-04T10:31:07.998Z</time></trkpt><trkpt lat="39.07035164808803" lon="8.989100570092786"><ele>94.0</ele><time>2026-04-04T10:31:08.998Z</time></trkpt><trkpt lat="39.07029378470032" lon="8.989289330826066"><ele>91.75</ele><time>2026-04-04T10:31:09.998Z</time></trkpt><trkpt lat="39.070241692631704" lon="8.989448503762508"><ele>89.5</ele><time>2026-04-04T10:31:10.998Z</time></trkpt><trkpt lat="39.07017522169591" lon="8.9895787068629"><ele>87.25</ele><time>2026-04-04T10:31:11.998Z</time></trkpt><trkpt lat="39.070105896412606" lon="8.989706823116407"><ele>85.0</ele><time>2026-04-04T10:31:12.998Z</time></trkpt><trkpt lat="39.07003981300325" lon="8.989865374464141"><ele>85.0</ele><time>2026-04-04T10:31:13.998Z</time></trkpt><trkpt lat="39.06997429384268" lon="8.990003667155415"><ele>85.0</ele><time>2026-04-04T10:31:14.998Z</time></trkpt><trkpt lat="39.06989585374234" lon="8.990126986588086"><ele>85.0</ele><time>2026-04-04T10:31:15.998Z</time></trkpt><trkpt lat="39.06981733629722" lon="8.990255812168382"><ele>85.0</ele><time>2026-04-04T10:31:16.998Z</time></trkpt><trkpt lat="39.0697426582157" lon="8.990369370332923"><ele>83.75</ele><time>2026-04-04T10:31:17.998Z</time></trkpt><trkpt lat="39.06968961107941" lon="8.990504091862295"><ele>82.5</ele><time>2026-04-04T10:31:18.998Z</time></trkpt><trkpt lat="39.069626819854655" lon="8.990638839461852"><ele>81.25</ele><time>2026-04-04T10:31:19.998Z</time></trkpt><trkpt lat="39.06954971104653" lon="8.990774892074155"><ele>80.0</ele><time>2026-04-04T10:31:20.998Z</time></trkpt><trkpt lat="39.06947121506647" lon="8.990904386106427"><ele>78.75</ele><time>2026-04-04T10:31:21.998Z</time></trkpt><trkpt lat="39.06939152422888" lon="8.991019476254744"><ele>77.5</ele><time>2026-04-04T10:31:22.998Z</time></trkpt><trkpt lat="39.06931442894087" lon="8.991129275648175"><ele>76.25</ele><time>2026-04-04T10:31:23.998Z</time></trkpt><trkpt lat="39.06922845764099" lon="8.991243958898078"><ele>75.0</ele><time>2026-04-04T10:31:24.998Z</time></trkpt><trkpt lat="39.069140844152315" lon="8.991333043275269"><ele>74.66666666666667</ele><time>2026-04-04T10:31:25.998Z</time></trkpt><trkpt lat="39.0690581104491" lon="8.991409834018096"><ele>74.33333333333333</ele><time>2026-04-04T10:31:27Z</time></trkpt><trkpt lat="39.06899991399654" lon="8.991477541201828"><ele>74.0</ele><time>2026-04-04T10:31:28Z</time></trkpt><trkpt lat="39.06898304518829" lon="8.991561277513087"><ele>73.66666666666666</ele><time>2026-04-04T10:31:29Z</time></trkpt><trkpt lat="39.06897148093723" lon="8.991659029289844"><ele>73.33333333333333</ele><time>2026-04-04T10:31:30Z</time></trkpt><trkpt lat="39.068950757395974" lon="8.991777724291614"><ele>73.0</ele><time>2026-04-04T10:31:31Z</time></trkpt><trkpt lat="39.06891674025165" lon="8.99188661923393"><ele>72.4</ele><time>2026-04-04T10:31:32Z</time></trkpt><trkpt lat="39.068876984655326" lon="8.991985624145101"><ele>71.8</ele><time>2026-04-04T10:31:33Z</time></trkpt><trkpt lat="39.0688375099973" lon="8.992073968279493"><ele>71.2</ele><time>2026-04-04T10:31:34Z</time></trkpt><trkpt lat="39.06880010701381" lon="8.99216321238853"><ele>70.6</ele><time>2026-04-04T10:31:35Z</time></trkpt><trkpt lat="39.06875967692086" lon="8.992060681697227"><ele>70.0</ele><time>2026-04-04T10:31:37Z</time></trkpt><trkpt lat="39.068649365923015" lon="8.991956069124432"><ele>70.0</ele><time>2026-04-04T10:31:39Z</time></trkpt><trkpt lat="39.06857464689256" lon="8.991919396266393"><ele>70.0</ele><time>2026-04-04T10:31:40Z</time></trkpt><trkpt lat="39.06849217148651" lon="8.991940123523438"><ele>70.0</ele><time>2026-04-04T10:31:41Z</time></trkpt><trkpt lat="39.06840376570038" lon="8.992045366195338"><ele>70.0</ele><time>2026-04-04T10:31:42Z</time></trkpt><trkpt lat="39.0682911799047" lon="8.992122301981958"><ele>70.0</ele><time>2026-04-04T10:31:43Z</time></trkpt><trkpt lat="39.06816310225871" lon="8.992212501569394"><ele>69.5</ele><time>2026-04-04T10:31:44Z</time></trkpt><trkpt lat="39.0680288682957" lon="8.99231083566125"><ele>69.0</ele><time>2026-04-04T10:31:45Z</time></trkpt><trkpt lat="39.067905038603165" lon="8.992438610147005"><ele>68.5</ele><time>2026-04-04T10:31:46Z</time></trkpt><trkpt lat="39.06778041901299" lon="8.99250071429525"><ele>68.0</ele><time>2026-04-04T10:31:47Z</time></trkpt><trkpt lat="39.06765991118021" lon="8.992566927987982"><ele>68.0</ele><time>2026-04-04T10:31:48Z</time></trkpt><trkpt lat="39.067536836698835" lon="8.992635372123475"><ele>68.0</ele><time>2026-04-04T10:31:49Z</time></trkpt><trkpt lat="39.06742685673442" lon="8.992691751201251"><ele>68.0</ele><time>2026-04-04T10:31:50Z</time></trkpt><trkpt lat="39.067313129873575" lon="8.99273748209827"><ele>68.0</ele><time>2026-04-04T10:31:51Z</time></trkpt><trkpt lat="39.067220909843016" lon="8.99282384223149"><ele>67.6</ele><time>2026-04-04T10:31:52Z</time></trkpt><trkpt lat="39.067133585616276" lon="8.992887338136041"><ele>67.19999999999999</ele><time>2026-04-04T10:31:53Z</time></trkpt><trkpt lat="39.06706861045676" lon="8.99296743750082"><ele>66.8</ele><time>2026-04-04T10:31:54Z</time></trkpt><trkpt lat="39.06701742302969" lon="8.993090793977672"><ele>66.39999999999999</ele><time>2026-04-04T10:31:55Z</time></trkpt><trkpt lat="39.066964051989046" lon="8.993247591878491"><ele>66.0</ele><time>2026-04-04T10:31:56Z</time></trkpt><trkpt lat="39.06687445373623" lon="8.9933508852689"><ele>66.0</ele><time>2026-04-04T10:31:57Z</time></trkpt><trkpt lat="39.06682611896911" lon="8.993466273732944"><ele>66.0</ele><time>2026-04-04T10:31:58Z</time></trkpt><trkpt lat="39.06679145429519" lon="8.993558451387946"><ele>66.0</ele><time>2026-04-04T10:31:59Z</time></trkpt><trkpt lat="39.06678512656395" lon="8.993675742587099"><ele>66.0</ele><time>2026-04-04T10:32:00Z</time></trkpt><trkpt lat="39.06679621152267" lon="8.9938107611761"><ele>66.0</ele><time>2026-04-04T10:32:01Z</time></trkpt><trkpt lat="39.066804564726574" lon="8.993962915984067"><ele>66.0</ele><time>2026-04-04T10:32:01.999Z</time></trkpt><trkpt lat="39.06680052757868" lon="8.99411819170425"><ele>66.0</ele><time>2026-04-04T10:32:02.999Z</time></trkpt><trkpt lat="39.06678893004446" lon="8.994253289098033"><ele>66.0</ele><time>2026-04-04T10:32:03.999Z</time></trkpt><trkpt lat="39.06674461396096" lon="8.994370178185477"><ele>66.0</ele><time>2026-04-04T10:32:04.999Z</time></trkpt><trkpt lat="39.06669538472003" lon="8.994516674281929"><ele>65.5</ele><time>2026-04-04T10:32:05.999Z</time></trkpt><trkpt lat="39.06664484898013" lon="8.994689675518702"><ele>65.0</ele><time>2026-04-04T10:32:06.999Z</time></trkpt><trkpt lat="39.06657759100415" lon="8.994856779617498"><ele>64.5</ele><time>2026-04-04T10:32:07.999Z</time></trkpt><trkpt lat="39.066521150228816" lon="8.995020511680453"><ele>64.0</ele><time>2026-04-04T10:32:08.999Z</time></trkpt><trkpt lat="39.06646237300011" lon="8.995198956887076"><ele>62.5</ele><time>2026-04-04T10:32:09.999Z</time></trkpt><trkpt lat="39.06639205245849" lon="8.995361717950905"><ele>61.0</ele><time>2026-04-04T10:32:10.999Z</time></trkpt><trkpt lat="39.06633075684783" lon="8.99550775374803"><ele>59.5</ele><time>2026-04-04T10:32:11.999Z</time></trkpt><trkpt lat="39.06625971421084" lon="8.995637851480307"><ele>58.0</ele><time>2026-04-04T10:32:12.999Z</time></trkpt><trkpt lat="39.06618739719348" lon="8.995747695532566"><ele>57.599999999999994</ele><time>2026-04-04T10:32:13.999Z</time></trkpt><trkpt lat="39.066104414940774" lon="8.99585020423223"><ele>57.199999999999996</ele><time>2026-04-04T10:32:14.999Z</time></trkpt><trkpt lat="39.06602260536917" lon="8.995924131899326"><ele>56.8</ele><time>2026-04-04T10:32:15.999Z</time></trkpt><trkpt lat="39.06595416182875" lon="8.995960731069085"><ele>56.4</ele><time>2026-04-04T10:32:16.999Z</time></trkpt><trkpt lat="39.06589398007344" lon="8.995994322832201"><ele>56.0</ele><time>2026-04-04T10:32:18.999Z</time></trkpt><trkpt lat="39.065908864141164" lon="8.996171209457513"><ele>56.0</ele><time>2026-04-04T10:32:19.999Z</time></trkpt><trkpt lat="39.06589900976697" lon="8.996301991495784"><ele>56.0</ele><time>2026-04-04T10:32:20.999Z</time></trkpt><trkpt lat="39.0658934779098" lon="8.99646516401602"><ele>56.0</ele><time>2026-04-04T10:32:21.999Z</time></trkpt><trkpt lat="39.06585285948174" lon="8.996635032149959"><ele>56.0</ele><time>2026-04-04T10:32:22.999Z</time></trkpt><trkpt lat="39.065821287848486" lon="8.99682046324687"><ele>55.75</ele><time>2026-04-04T10:32:23.999Z</time></trkpt><trkpt lat="39.06580684216098" lon="8.997011331251185"><ele>55.5</ele><time>2026-04-04T10:32:24.999Z</time></trkpt><trkpt lat="39.06581850290342" lon="8.99719195591652"><ele>55.25</ele><time>2026-04-04T10:32:25.999Z</time></trkpt><trkpt lat="39.06585017741405" lon="8.997370963168667"><ele>55.0</ele><time>2026-04-04T10:32:26.999Z</time></trkpt><trkpt lat="39.06588083991043" lon="8.997547964697421"><ele>53.75</ele><time>2026-04-04T10:32:27.999Z</time></trkpt><trkpt lat="39.06590958515852" lon="8.997716801664804"><ele>52.5</ele><time>2026-04-04T10:32:28.999Z</time></trkpt><trkpt lat="39.06593348384673" lon="8.997880395486588"><ele>51.25</ele><time>2026-04-04T10:32:29.999Z</time></trkpt><trkpt lat="39.06593411416571" lon="8.998018226822346"><ele>50.0</ele><time>2026-04-04T10:32:30.999Z</time></trkpt><trkpt lat="39.06590121757488" lon="8.998167021541361"><ele>50.0</ele><time>2026-04-04T10:32:31.999Z</time></trkpt><trkpt lat="39.06579143536033" lon="8.998273565179131"><ele>50.0</ele><time>2026-04-04T10:32:32.999Z</time></trkpt><trkpt lat="39.06570841384018" lon="8.998435063781852"><ele>50.0</ele><time>2026-04-04T10:32:33.999Z</time></trkpt><trkpt lat="39.06563454783011" lon="8.998595987318582"><ele>50.0</ele><time>2026-04-04T10:32:34.999Z</time></trkpt><trkpt lat="39.0655846979468" lon="8.998754201588943"><ele>50.0</ele><time>2026-04-04T10:32:35.999Z</time></trkpt><trkpt lat="39.06553090036976" lon="8.998904544179638"><ele>50.0</ele><time>2026-04-04T10:32:36.999Z</time></trkpt><trkpt lat="39.06549333383397" lon="8.99907511885778"><ele>50.0</ele><time>2026-04-04T10:32:37.999Z</time></trkpt><trkpt lat="39.06548019725742" lon="8.999260781277593"><ele>50.0</ele><time>2026-04-04T10:32:38.999Z</time></trkpt><trkpt lat="39.06544605528982" lon="8.999446387903095"><ele>50.0</ele><time>2026-04-04T10:32:39.999Z</time></trkpt><trkpt lat="39.06542978187685" lon="8.99963827860452"><ele>50.0</ele><time>2026-04-04T10:32:40.999Z</time></trkpt><trkpt lat="39.06542512087161" lon="8.999851172301396"><ele>50.0</ele><time>2026-04-04T10:32:41.999Z</time></trkpt><trkpt lat="39.06541066101353" lon="9.000012293157821"><ele>50.0</ele><time>2026-04-04T10:32:42.999Z</time></trkpt><trkpt lat="39.06539900661243" lon="9.000153139168352"><ele>50.0</ele><time>2026-04-04T10:32:43.999Z</time></trkpt><trkpt lat="39.065378161697915" lon="9.00035790377182"><ele>50.0</ele><time>2026-04-04T10:32:44.999Z</time></trkpt><trkpt lat="39.06535793664934" lon="9.000562676562945"><ele>50.0</ele><time>2026-04-04T10:32:45.999Z</time></trkpt><trkpt lat="39.06534292715602" lon="9.000728428846113"><ele>49.5</ele><time>2026-04-04T10:32:46.998Z</time></trkpt><trkpt lat="39.06533502851373" lon="9.000880484160584"><ele>49.0</ele><time>2026-04-04T10:32:47.998Z</time></trkpt><trkpt lat="39.06531841053296" lon="9.001050179651168"><ele>48.5</ele><time>2026-04-04T10:32:48.998Z</time></trkpt><trkpt lat="39.06529880898304" lon="9.001230612384479"><ele>48.0</ele><time>2026-04-04T10:32:49.998Z</time></trkpt><trkpt lat="39.065278509910335" lon="9.001424030247644"><ele>48.0</ele><time>2026-04-04T10:32:50.998Z</time></trkpt><trkpt lat="39.06525859422041" lon="9.001617920383554"><ele>48.0</ele><time>2026-04-04T10:32:51.998Z</time></trkpt><trkpt lat="39.06521434888526" lon="9.001792228730073"><ele>48.0</ele><time>2026-04-04T10:32:52.998Z</time></trkpt><trkpt lat="39.06515694850843" lon="9.00195305400711"><ele>48.0</ele><time>2026-04-04T10:32:53.998Z</time></trkpt><trkpt lat="39.06509656529022" lon="9.002124521913924"><ele>47.666666666666664</ele><time>2026-04-04T10:32:54.998Z</time></trkpt><trkpt lat="39.06504561892778" lon="9.002310837970205"><ele>47.33333333333333</ele><time>2026-04-04T10:32:55.998Z</time></trkpt><trkpt lat="39.064975308090595" lon="9.002492811314207"><ele>47.0</ele><time>2026-04-04T10:32:56.998Z</time></trkpt><trkpt lat="39.064870631667986" lon="9.002721797885407"><ele>45.75</ele><time>2026-04-04T10:32:57.998Z</time></trkpt><trkpt lat="39.064799623280884" lon="9.002885802479282"><ele>44.5</ele><time>2026-04-04T10:32:58.998Z</time></trkpt><trkpt lat="39.064725316053796" lon="9.003024667850148"><ele>43.25</ele><time>2026-04-04T10:32:59.998Z</time></trkpt><trkpt lat="39.06465861010252" lon="9.003152240408482"><ele>42.0</ele><time>2026-04-04T10:33:00.998Z</time></trkpt><trkpt lat="39.06458514022207" lon="9.003254771019053"><ele>41.25</ele><time>2026-04-04T10:33:01.998Z</time></trkpt><trkpt lat="39.06453259516683" lon="9.003346320263958"><ele>40.5</ele><time>2026-04-04T10:33:02.998Z</time></trkpt><trkpt lat="39.06449311447072" lon="9.003415107919292"><ele>39.75</ele><time>2026-04-04T10:33:03.998Z</time></trkpt><trkpt lat="39.06464381239525" lon="9.00356608520296"><ele>39.0</ele><time>2026-04-04T10:33:05.998Z</time></trkpt><trkpt lat="39.06474266495345" lon="9.003631678798655"><ele>39.0</ele><time>2026-04-04T10:33:06.998Z</time></trkpt><trkpt lat="39.06485230101633" lon="9.003673103000061"><ele>39.0</ele><time>2026-04-04T10:33:07.998Z</time></trkpt><trkpt lat="39.06496244816366" lon="9.003745446173"><ele>39.0</ele><time>2026-04-04T10:33:08.998Z</time></trkpt><trkpt lat="39.06508772530523" lon="9.003815104283472"><ele>39.0</ele><time>2026-04-04T10:33:09.998Z</time></trkpt><trkpt lat="39.06521461562328" lon="9.003881748245073"><ele>38.833333333333336</ele><time>2026-04-04T10:33:10.998Z</time></trkpt><trkpt lat="39.06531835896826" lon="9.003932414522458"><ele>38.666666666666664</ele><time>2026-04-04T10:33:11.998Z</time></trkpt><trkpt lat="39.06540067257476" lon="9.003980753090003"><ele>38.5</ele><time>2026-04-04T10:33:12.998Z</time></trkpt><trkpt lat="39.065464063963155" lon="9.003994078898696"><ele>38.33333333333333</ele><time>2026-04-04T10:33:13.998Z</time></trkpt><trkpt lat="39.06553300859023" lon="9.003971331715759"><ele>38.166666666666664</ele><time>2026-04-04T10:33:14.998Z</time></trkpt><trkpt lat="39.06561662516528" lon="9.003957776795817"><ele>38.0</ele><time>2026-04-04T10:33:15.998Z</time></trkpt><trkpt lat="39.065696806318726" lon="9.004003321046392"><ele>38.0</ele><time>2026-04-04T10:33:16.998Z</time></trkpt><trkpt lat="39.065761118915695" lon="9.004078843690744"><ele>38.0</ele><time>2026-04-04T10:33:17.998Z</time></trkpt><trkpt lat="39.06580718913355" lon="9.004181722965267"><ele>38.0</ele><time>2026-04-04T10:33:18.998Z</time></trkpt><trkpt lat="39.06585461857057" lon="9.004306790020703"><ele>38.0</ele><time>2026-04-04T10:33:19.998Z</time></trkpt><trkpt lat="39.06591978496034" lon="9.004452987235833"><ele>38.0</ele><time>2026-04-04T10:33:20.998Z</time></trkpt><trkpt lat="39.066001965646144" lon="9.004591958113902"><ele>38.25</ele><time>2026-04-04T10:33:21.998Z</time></trkpt><trkpt lat="39.06610667502984" lon="9.00472351702185"><ele>38.5</ele><time>2026-04-04T10:33:22.998Z</time></trkpt><trkpt lat="39.06621127116888" lon="9.004841725223203"><ele>38.75</ele><time>2026-04-04T10:33:23.998Z</time></trkpt><trkpt lat="39.06631042922629" lon="9.004954516893061"><ele>39.0</ele><time>2026-04-04T10:33:24.998Z</time></trkpt><trkpt lat="39.066397294430466" lon="9.005068664626604"><ele>38.25</ele><time>2026-04-04T10:33:25.998Z</time></trkpt><trkpt lat="39.06646183282575" lon="9.005200151886541"><ele>37.5</ele><time>2026-04-04T10:33:26.998Z</time></trkpt><trkpt lat="39.06644865903718" lon="9.005356217021045"><ele>36.75</ele><time>2026-04-04T10:33:27.998Z</time></trkpt><trkpt lat="39.066449966460816" lon="9.005508450411122"><ele>36.0</ele><time>2026-04-04T10:33:28.998Z</time></trkpt><trkpt lat="39.06644605941224" lon="9.005671533943895"><ele>36.0</ele><time>2026-04-04T10:33:29.998Z</time></trkpt><trkpt lat="39.066462104976104" lon="9.005828433789913"><ele>36.0</ele><time>2026-04-04T10:33:30.998Z</time></trkpt><trkpt lat="39.06647071764318" lon="9.005953507503037"><ele>36.0</ele><time>2026-04-04T10:33:31.997Z</time></trkpt><trkpt lat="39.066487607298555" lon="9.006076017022602"><ele>36.0</ele><time>2026-04-04T10:33:34Z</time></trkpt><trkpt lat="39.066411534269065" lon="9.006187749989458"><ele>36.0</ele><time>2026-04-04T10:33:36Z</time></trkpt><trkpt lat="39.06634098426712" lon="9.006274223161725"><ele>36.0</ele><time>2026-04-04T10:33:37Z</time></trkpt><trkpt lat="39.06624915674123" lon="9.006385980627238"><ele>36.0</ele><time>2026-04-04T10:33:38Z</time></trkpt><trkpt lat="39.06615316328984" lon="9.006529586001113"><ele>36.0</ele><time>2026-04-04T10:33:39Z</time></trkpt><trkpt lat="39.066079435083964" lon="9.006641820448642"><ele>36.0</ele><time>2026-04-04T10:33:40Z</time></trkpt><trkpt lat="39.06602282924161" lon="9.006725052775396"><ele>36.0</ele><time>2026-04-04T10:33:41Z</time></trkpt><trkpt lat="39.06597016975267" lon="9.006801848908923"><ele>36.0</ele><time>2026-04-04T10:33:43Z</time></trkpt><trkpt lat="39.066036931907426" lon="9.00695784869219"><ele>36.0</ele><time>2026-04-04T10:33:46Z</time></trkpt><trkpt lat="39.06612792303265" lon="9.007019410098756"><ele>36.0</ele><time>2026-04-04T10:33:47Z</time></trkpt><trkpt lat="39.06624770108179" lon="9.00712071326624"><ele>36.0</ele><time>2026-04-04T10:33:48Z</time></trkpt><trkpt lat="39.0664024144121" lon="9.007263429989807"><ele>36.0</ele><time>2026-04-04T10:33:49Z</time></trkpt><trkpt lat="39.06655474734695" lon="9.007398139510746"><ele>36.0</ele><time>2026-04-04T10:33:50Z</time></trkpt><trkpt lat="39.06668656006107" lon="9.007533043547568"><ele>34.666666666666664</ele><time>2026-04-04T10:33:51Z</time></trkpt><trkpt lat="39.0668250517823" lon="9.007662802071925"><ele>33.33333333333333</ele><time>2026-04-04T10:33:52Z</time></trkpt><trkpt lat="39.06695351766886" lon="9.007763923273913"><ele>32.0</ele><time>2026-04-04T10:33:53Z</time></trkpt><trkpt lat="39.06707269536112" lon="9.007872537449467"><ele>32.0</ele><time>2026-04-04T10:33:54Z</time></trkpt><trkpt lat="39.067194490302995" lon="9.007984273163533"><ele>32.0</ele><time>2026-04-04T10:33:55Z</time></trkpt><trkpt lat="39.067329562317575" lon="9.008102422872748"><ele>32.0</ele><time>2026-04-04T10:33:56Z</time></trkpt><trkpt lat="39.06744823426787" lon="9.008204642607453"><ele>31.5</ele><time>2026-04-04T10:33:57Z</time></trkpt><trkpt lat="39.06754928344262" lon="9.008301319182165"><ele>31.0</ele><time>2026-04-04T10:33:58Z</time></trkpt><trkpt lat="39.067639324674474" lon="9.008397456550158"><ele>30.5</ele><time>2026-04-04T10:33:59Z</time></trkpt><trkpt lat="39.06771286660402" lon="9.008507889592082"><ele>30.0</ele><time>2026-04-04T10:34:00Z</time></trkpt><trkpt lat="39.0677650872755" lon="9.008625860497062"><ele>30.0</ele><time>2026-04-04T10:34:01Z</time></trkpt><trkpt lat="39.067799299960306" lon="9.008739460841776"><ele>30.0</ele><time>2026-04-04T10:34:02Z</time></trkpt><trkpt lat="39.06784091535266" lon="9.008854186107625"><ele>30.0</ele><time>2026-04-04T10:34:04Z</time></trkpt><trkpt lat="39.06789468219896" lon="9.008956621219406"><ele>30.0</ele><time>2026-04-04T10:34:06Z</time></trkpt><trkpt lat="39.06795466437273" lon="9.009093114744097"><ele>30.0</ele><time>2026-04-04T10:34:08Z</time></trkpt><trkpt lat="39.06787092782006" lon="9.009232670822962"><ele>30.0</ele><time>2026-04-04T10:34:09Z</time></trkpt><trkpt lat="39.06782102109348" lon="9.009362036816391"><ele>30.0</ele><time>2026-04-04T10:34:09.999Z</time></trkpt><trkpt lat="39.067750137900155" lon="9.009507760693564"><ele>30.0</ele><time>2026-04-04T10:34:10.999Z</time></trkpt><trkpt lat="39.06764252429323" lon="9.009653308054155"><ele>30.0</ele><time>2026-04-04T10:34:11.999Z</time></trkpt><trkpt lat="39.06752548803739" lon="9.009748165832546"><ele>30.75</ele><time>2026-04-04T10:34:12.999Z</time></trkpt><trkpt lat="39.06738272686846" lon="9.009815181696835"><ele>31.5</ele><time>2026-04-04T10:34:13.999Z</time></trkpt><trkpt lat="39.06726742976622" lon="9.009901123046689"><ele>32.25</ele><time>2026-04-04T10:34:14.999Z</time></trkpt><trkpt lat="39.06716372157534" lon="9.009982098040025"><ele>33.0</ele><time>2026-04-04T10:34:15.999Z</time></trkpt><trkpt lat="39.06706146262887" lon="9.010070361087498"><ele>33.0</ele><time>2026-04-04T10:34:16.999Z</time></trkpt><trkpt lat="39.066959214377896" lon="9.010183247323345"><ele>33.0</ele><time>2026-04-04T10:34:17.999Z</time></trkpt><trkpt lat="39.06684930601421" lon="9.010296674057873"><ele>33.0</ele><time>2026-04-04T10:34:18.999Z</time></trkpt><trkpt lat="39.066718022356454" lon="9.010403761465023"><ele>33.0</ele><time>2026-04-04T10:34:19.999Z</time></trkpt><trkpt lat="39.06656196510525" lon="9.010529767956152"><ele>35.0</ele><time>2026-04-04T10:34:20.999Z</time></trkpt><trkpt lat="39.06640610242595" lon="9.010660463227872"><ele>37.0</ele><time>2026-04-04T10:34:21.999Z</time></trkpt><trkpt lat="39.066292902585275" lon="9.010722125529647"><ele>39.0</ele><time>2026-04-04T10:34:22.999Z</time></trkpt><trkpt lat="39.06620982477519" lon="9.010749285995301"><ele>41.0</ele><time>2026-04-04T10:34:24.999Z</time></trkpt><trkpt lat="39.06610085840654" lon="9.010761809280892"><ele>41.0</ele><time>2026-04-04T10:34:26.999Z</time></trkpt><trkpt lat="39.06601630612635" lon="9.010761499175057"><ele>41.0</ele><time>2026-04-04T10:34:27.999Z</time></trkpt><trkpt lat="39.065925188551255" lon="9.010761997925561"><ele>41.0</ele><time>2026-04-04T10:34:28.999Z</time></trkpt><trkpt lat="39.06582644521033" lon="9.010760151623636"><ele>41.0</ele><time>2026-04-04T10:34:29.999Z</time></trkpt><trkpt lat="39.06573260742147" lon="9.010753515130782"><ele>41.0</ele><time>2026-04-04T10:34:30.999Z</time></trkpt><trkpt lat="39.06562647461725" lon="9.010721400446421"><ele>40.8</ele><time>2026-04-04T10:34:31.999Z</time></trkpt><trkpt lat="39.06550685456431" lon="9.01071321694139"><ele>40.599999999999994</ele><time>2026-04-04T10:34:32.999Z</time></trkpt><trkpt lat="39.06540619595971" lon="9.010637234491789"><ele>40.4</ele><time>2026-04-04T10:34:33.999Z</time></trkpt><trkpt lat="39.06531647870172" lon="9.010590116285668"><ele>40.2</ele><time>2026-04-04T10:34:34.999Z</time></trkpt><trkpt lat="39.06523609571751" lon="9.010535930148007"><ele>40.0</ele><time>2026-04-04T10:34:35.999Z</time></trkpt><trkpt lat="39.065172796376594" lon="9.010481917175083"><ele>40.0</ele><time>2026-04-04T10:34:36.999Z</time></trkpt><trkpt lat="39.06510705721056" lon="9.01043741184978"><ele>40.0</ele><time>2026-04-04T10:34:37.999Z</time></trkpt><trkpt lat="39.065029948785266" lon="9.0103827211864"><ele>40.0</ele><time>2026-04-04T10:34:38.999Z</time></trkpt><trkpt lat="39.06495525934769" lon="9.010322828614687"><ele>40.0</ele><time>2026-04-04T10:34:39.999Z</time></trkpt><trkpt lat="39.06488608112458" lon="9.010268639073935"><ele>40.0</ele><time>2026-04-04T10:34:40.999Z</time></trkpt><trkpt lat="39.06482360973526" lon="9.010218005078796"><ele>40.0</ele><time>2026-04-04T10:34:41.999Z</time></trkpt><trkpt lat="39.0647643170034" lon="9.010189404293588"><ele>43.0</ele><time>2026-04-04T10:34:43.999Z</time></trkpt></trkseg></trk></gpx>